<?xml version="1.0" encoding="UTF-8" standalone="no" ?>
<gpx xmlns="http://www.topografix.com/GPX/1/1" xmlns:xsi="http://www.w3.org/2001/XMLSchema-instance" xsi:schemaLocation="http://www.topografix.com/GPX/1/1 http://www.topografix.com/GPX/1/1/gpx.xsd" version="1.1" creator="VisuGPX - https://www.visugpx.com">
  <metadata>
    <name>Versailles / St Valery en Caux (76)</name>
    <desc><![CDATA[Itinéraire ralliant Versailles (78) à St Valery en Caux (76) en prenant soin d\'éviter les grands axes.
L\'itinéraire longe une partie de la Seine.]]></desc>
  </metadata>
  <trk>
    <name><![CDATA[ACTIVE LOG: 27 JUIL 2013 10:50]]></name>
    <trkseg>
      <trkpt lat="48.80209" lon="2.13053">
        <ele>138.09</ele>
        <time>2013-07-27T08:51:03Z</time>
      </trkpt>
      <trkpt lat="48.80214" lon="2.13037">
        <ele>136.64</ele>
        <time>2013-07-27T08:51:10Z</time>
      </trkpt>
      <trkpt lat="48.80217" lon="2.13029">
        <ele>137.61</ele>
        <time>2013-07-27T08:51:23Z</time>
      </trkpt>
      <trkpt lat="48.80229" lon="2.12975">
        <ele>137.13</ele>
        <time>2013-07-27T08:51:29Z</time>
      </trkpt>
      <trkpt lat="48.80294" lon="2.12738">
        <ele>134.24</ele>
        <time>2013-07-27T08:51:41Z</time>
      </trkpt>
      <trkpt lat="48.80312" lon="2.12675">
        <ele>134.24</ele>
        <time>2013-07-27T08:51:48Z</time>
      </trkpt>
      <trkpt lat="48.80312" lon="2.12675">
        <ele>134.24</ele>
        <time>2013-07-27T08:52:00Z</time>
      </trkpt>
      <trkpt lat="48.80315" lon="2.12666">
        <ele>133.76</ele>
        <time>2013-07-27T08:52:33Z</time>
      </trkpt>
      <trkpt lat="48.80317" lon="2.12658">
        <ele>133.76</ele>
        <time>2013-07-27T08:52:34Z</time>
      </trkpt>
      <trkpt lat="48.8032" lon="2.12652">
        <ele>133.76</ele>
        <time>2013-07-27T08:52:35Z</time>
      </trkpt>
      <trkpt lat="48.8032" lon="2.12652">
        <ele>133.28</ele>
        <time>2013-07-27T08:52:36Z</time>
      </trkpt>
      <trkpt lat="48.8032" lon="2.1265">
        <ele>132.8</ele>
        <time>2013-07-27T08:52:37Z</time>
      </trkpt>
      <trkpt lat="48.80305" lon="2.12638">
        <ele>132.32</ele>
        <time>2013-07-27T08:52:38Z</time>
      </trkpt>
      <trkpt lat="48.80303" lon="2.12637">
        <ele>132.32</ele>
        <time>2013-07-27T08:52:39Z</time>
      </trkpt>
      <trkpt lat="48.80296" lon="2.12631">
        <ele>131.84</ele>
        <time>2013-07-27T08:52:43Z</time>
      </trkpt>
      <trkpt lat="48.8025" lon="2.12591">
        <ele>130.4</ele>
        <time>2013-07-27T08:52:50Z</time>
      </trkpt>
      <trkpt lat="48.80222" lon="2.12554">
        <ele>129.92</ele>
        <time>2013-07-27T08:52:54Z</time>
      </trkpt>
      <trkpt lat="48.80218" lon="2.12546">
        <ele>129.92</ele>
        <time>2013-07-27T08:52:55Z</time>
      </trkpt>
      <trkpt lat="48.80214" lon="2.12541">
        <ele>129.43</ele>
        <time>2013-07-27T08:52:56Z</time>
      </trkpt>
      <trkpt lat="48.80213" lon="2.12532">
        <ele>129.43</ele>
        <time>2013-07-27T08:53:04Z</time>
      </trkpt>
      <trkpt lat="48.80213" lon="2.1252">
        <ele>128.95</ele>
        <time>2013-07-27T08:53:15Z</time>
      </trkpt>
      <trkpt lat="48.80213" lon="2.1252">
        <ele>128.95</ele>
        <time>2013-07-27T08:53:16Z</time>
      </trkpt>
      <trkpt lat="48.80213" lon="2.12511">
        <ele>128.95</ele>
        <time>2013-07-27T08:53:17Z</time>
      </trkpt>
      <trkpt lat="48.80219" lon="2.12491">
        <ele>128.95</ele>
        <time>2013-07-27T08:53:18Z</time>
      </trkpt>
      <trkpt lat="48.80225" lon="2.1248">
        <ele>128.95</ele>
        <time>2013-07-27T08:53:19Z</time>
      </trkpt>
      <trkpt lat="48.80225" lon="2.1248">
        <ele>128.95</ele>
        <time>2013-07-27T08:53:20Z</time>
      </trkpt>
      <trkpt lat="48.80295" lon="2.12393">
        <ele>131.36</ele>
        <time>2013-07-27T08:53:32Z</time>
      </trkpt>
      <trkpt lat="48.80301" lon="2.12386">
        <ele>132.32</ele>
        <time>2013-07-27T08:53:43Z</time>
      </trkpt>
      <trkpt lat="48.80315" lon="2.12363">
        <ele>132.32</ele>
        <time>2013-07-27T08:53:54Z</time>
      </trkpt>
      <trkpt lat="48.80318" lon="2.12358">
        <ele>132.32</ele>
        <time>2013-07-27T08:53:55Z</time>
      </trkpt>
      <trkpt lat="48.80321" lon="2.12352">
        <ele>132.8</ele>
        <time>2013-07-27T08:53:56Z</time>
      </trkpt>
      <trkpt lat="48.80323" lon="2.12347">
        <ele>132.8</ele>
        <time>2013-07-27T08:53:57Z</time>
      </trkpt>
      <trkpt lat="48.80323" lon="2.12347">
        <ele>133.28</ele>
        <time>2013-07-27T08:53:58Z</time>
      </trkpt>
      <trkpt lat="48.80324" lon="2.12341">
        <ele>133.28</ele>
        <time>2013-07-27T08:53:59Z</time>
      </trkpt>
      <trkpt lat="48.80321" lon="2.12326">
        <ele>133.28</ele>
        <time>2013-07-27T08:54:00Z</time>
      </trkpt>
      <trkpt lat="48.80321" lon="2.12317">
        <ele>133.28</ele>
        <time>2013-07-27T08:54:01Z</time>
      </trkpt>
      <trkpt lat="48.80328" lon="2.12277">
        <ele>132.8</ele>
        <time>2013-07-27T08:54:05Z</time>
      </trkpt>
      <trkpt lat="48.80354" lon="2.12182">
        <ele>132.8</ele>
        <time>2013-07-27T08:54:12Z</time>
      </trkpt>
      <trkpt lat="48.80354" lon="2.12182">
        <ele>132.8</ele>
        <time>2013-07-27T08:54:13Z</time>
      </trkpt>
      <trkpt lat="48.80349" lon="2.12166">
        <ele>132.8</ele>
        <time>2013-07-27T08:54:14Z</time>
      </trkpt>
      <trkpt lat="48.80343" lon="2.12161">
        <ele>132.8</ele>
        <time>2013-07-27T08:54:15Z</time>
      </trkpt>
      <trkpt lat="48.80335" lon="2.12156">
        <ele>133.28</ele>
        <time>2013-07-27T08:54:16Z</time>
      </trkpt>
      <trkpt lat="48.80135" lon="2.12033">
        <ele>131.36</ele>
        <time>2013-07-27T08:54:37Z</time>
      </trkpt>
      <trkpt lat="48.80098" lon="2.12008">
        <ele>130.88</ele>
        <time>2013-07-27T08:54:44Z</time>
      </trkpt>
      <trkpt lat="48.80093" lon="2.12004">
        <ele>130.4</ele>
        <time>2013-07-27T08:55:04Z</time>
      </trkpt>
      <trkpt lat="48.80093" lon="2.12004">
        <ele>129.92</ele>
        <time>2013-07-27T08:55:05Z</time>
      </trkpt>
      <trkpt lat="48.80088" lon="2.12002">
        <ele>129.92</ele>
        <time>2013-07-27T08:55:06Z</time>
      </trkpt>
      <trkpt lat="48.80088" lon="2.12002">
        <ele>129.43</ele>
        <time>2013-07-27T08:55:07Z</time>
      </trkpt>
      <trkpt lat="48.80098" lon="2.11981">
        <ele>128.95</ele>
        <time>2013-07-27T08:55:08Z</time>
      </trkpt>
      <trkpt lat="48.801" lon="2.1197">
        <ele>128.95</ele>
        <time>2013-07-27T08:55:09Z</time>
      </trkpt>
      <trkpt lat="48.8013" lon="2.11852">
        <ele>125.11</ele>
        <time>2013-07-27T08:55:18Z</time>
      </trkpt>
      <trkpt lat="48.80207" lon="2.11555">
        <ele>122.22</ele>
        <time>2013-07-27T08:55:31Z</time>
      </trkpt>
      <trkpt lat="48.80251" lon="2.11345">
        <ele>119.82</ele>
        <time>2013-07-27T08:55:41Z</time>
      </trkpt>
      <trkpt lat="48.80303" lon="2.1092">
        <ele>115.5</ele>
        <time>2013-07-27T08:55:55Z</time>
      </trkpt>
      <trkpt lat="48.8034" lon="2.10482">
        <ele>118.38</ele>
        <time>2013-07-27T08:56:11Z</time>
      </trkpt>
      <trkpt lat="48.8033" lon="2.10257">
        <ele>119.34</ele>
        <time>2013-07-27T08:56:19Z</time>
      </trkpt>
      <trkpt lat="48.8029" lon="2.09812">
        <ele>118.86</ele>
        <time>2013-07-27T08:56:31Z</time>
      </trkpt>
      <trkpt lat="48.80245" lon="2.09342">
        <ele>117.42</ele>
        <time>2013-07-27T08:56:45Z</time>
      </trkpt>
      <trkpt lat="48.80214" lon="2.0899">
        <ele>118.38</ele>
        <time>2013-07-27T08:56:57Z</time>
      </trkpt>
      <trkpt lat="48.80201" lon="2.08854">
        <ele>120.3</ele>
        <time>2013-07-27T08:57:05Z</time>
      </trkpt>
      <trkpt lat="48.80185" lon="2.08699">
        <ele>122.71</ele>
        <time>2013-07-27T08:57:14Z</time>
      </trkpt>
      <trkpt lat="48.80167" lon="2.08516">
        <ele>124.15</ele>
        <time>2013-07-27T08:57:21Z</time>
      </trkpt>
      <trkpt lat="48.8014" lon="2.08248">
        <ele>126.07</ele>
        <time>2013-07-27T08:57:31Z</time>
      </trkpt>
      <trkpt lat="48.80123" lon="2.08029">
        <ele>129.43</ele>
        <time>2013-07-27T08:57:41Z</time>
      </trkpt>
      <trkpt lat="48.80097" lon="2.0776">
        <ele>134.24</ele>
        <time>2013-07-27T08:57:52Z</time>
      </trkpt>
      <trkpt lat="48.80089" lon="2.07678">
        <ele>134.24</ele>
        <time>2013-07-27T08:57:58Z</time>
      </trkpt>
      <trkpt lat="48.80087" lon="2.07672">
        <ele>133.76</ele>
        <time>2013-07-27T08:58:06Z</time>
      </trkpt>
      <trkpt lat="48.80085" lon="2.07662">
        <ele>133.76</ele>
        <time>2013-07-27T08:58:21Z</time>
      </trkpt>
      <trkpt lat="48.80077" lon="2.07572">
        <ele>133.28</ele>
        <time>2013-07-27T08:58:28Z</time>
      </trkpt>
      <trkpt lat="48.80053" lon="2.07393">
        <ele>133.28</ele>
        <time>2013-07-27T08:58:38Z</time>
      </trkpt>
      <trkpt lat="48.80019" lon="2.07242">
        <ele>134.72</ele>
        <time>2013-07-27T08:58:46Z</time>
      </trkpt>
      <trkpt lat="48.80002" lon="2.07164">
        <ele>137.13</ele>
        <time>2013-07-27T08:58:54Z</time>
      </trkpt>
      <trkpt lat="48.79999" lon="2.07145">
        <ele>138.09</ele>
        <time>2013-07-27T08:59:04Z</time>
      </trkpt>
      <trkpt lat="48.79999" lon="2.07145">
        <ele>138.09</ele>
        <time>2013-07-27T08:59:37Z</time>
      </trkpt>
      <trkpt lat="48.79989" lon="2.07109">
        <ele>138.57</ele>
        <time>2013-07-27T08:59:50Z</time>
      </trkpt>
      <trkpt lat="48.79945" lon="2.07015">
        <ele>140.97</ele>
        <time>2013-07-27T09:00:00Z</time>
      </trkpt>
      <trkpt lat="48.79941" lon="2.07008">
        <ele>140.97</ele>
        <time>2013-07-27T09:00:01Z</time>
      </trkpt>
      <trkpt lat="48.79941" lon="2.07008">
        <ele>140.97</ele>
        <time>2013-07-27T09:00:02Z</time>
      </trkpt>
      <trkpt lat="48.79956" lon="2.06967">
        <ele>140.97</ele>
        <time>2013-07-27T09:00:04Z</time>
      </trkpt>
      <trkpt lat="48.79966" lon="2.06916">
        <ele>139.05</ele>
        <time>2013-07-27T09:00:08Z</time>
      </trkpt>
      <trkpt lat="48.79966" lon="2.06916">
        <ele>139.05</ele>
        <time>2013-07-27T09:00:09Z</time>
      </trkpt>
      <trkpt lat="48.79997" lon="2.06755">
        <ele>133.28</ele>
        <time>2013-07-27T09:00:19Z</time>
      </trkpt>
      <trkpt lat="48.80002" lon="2.06631">
        <ele>130.4</ele>
        <time>2013-07-27T09:00:28Z</time>
      </trkpt>
      <trkpt lat="48.8003" lon="2.06487">
        <ele>128.47</ele>
        <time>2013-07-27T09:00:38Z</time>
      </trkpt>
      <trkpt lat="48.80041" lon="2.06432">
        <ele>128.47</ele>
        <time>2013-07-27T09:00:47Z</time>
      </trkpt>
      <trkpt lat="48.80056" lon="2.06372">
        <ele>129.43</ele>
        <time>2013-07-27T09:00:56Z</time>
      </trkpt>
      <trkpt lat="48.80114" lon="2.06271">
        <ele>129.92</ele>
        <time>2013-07-27T09:01:07Z</time>
      </trkpt>
      <trkpt lat="48.8018" lon="2.06178">
        <ele>129.92</ele>
        <time>2013-07-27T09:01:18Z</time>
      </trkpt>
      <trkpt lat="48.80192" lon="2.06159">
        <ele>129.92</ele>
        <time>2013-07-27T09:01:26Z</time>
      </trkpt>
      <trkpt lat="48.80194" lon="2.06156">
        <ele>130.4</ele>
        <time>2013-07-27T09:01:50Z</time>
      </trkpt>
      <trkpt lat="48.80226" lon="2.06144">
        <ele>129.92</ele>
        <time>2013-07-27T09:01:56Z</time>
      </trkpt>
      <trkpt lat="48.80301" lon="2.05969">
        <ele>127.99</ele>
        <time>2013-07-27T09:02:08Z</time>
      </trkpt>
      <trkpt lat="48.80381" lon="2.05836">
        <ele>125.11</ele>
        <time>2013-07-27T09:02:18Z</time>
      </trkpt>
      <trkpt lat="48.80444" lon="2.05728">
        <ele>125.11</ele>
        <time>2013-07-27T09:02:28Z</time>
      </trkpt>
      <trkpt lat="48.80518" lon="2.056">
        <ele>127.51</ele>
        <time>2013-07-27T09:02:40Z</time>
      </trkpt>
      <trkpt lat="48.80562" lon="2.05497">
        <ele>126.55</ele>
        <time>2013-07-27T09:02:52Z</time>
      </trkpt>
      <trkpt lat="48.80577" lon="2.05454">
        <ele>127.51</ele>
        <time>2013-07-27T09:02:56Z</time>
      </trkpt>
      <trkpt lat="48.80577" lon="2.05454">
        <ele>127.51</ele>
        <time>2013-07-27T09:02:57Z</time>
      </trkpt>
      <trkpt lat="48.80607" lon="2.0537">
        <ele>129.43</ele>
        <time>2013-07-27T09:03:06Z</time>
      </trkpt>
      <trkpt lat="48.80672" lon="2.05174">
        <ele>131.36</ele>
        <time>2013-07-27T09:03:18Z</time>
      </trkpt>
      <trkpt lat="48.80676" lon="2.05163">
        <ele>131.36</ele>
        <time>2013-07-27T09:03:19Z</time>
      </trkpt>
      <trkpt lat="48.80722" lon="2.05014">
        <ele>131.36</ele>
        <time>2013-07-27T09:03:30Z</time>
      </trkpt>
      <trkpt lat="48.80731" lon="2.04994">
        <ele>131.84</ele>
        <time>2013-07-27T09:03:32Z</time>
      </trkpt>
      <trkpt lat="48.80738" lon="2.04974">
        <ele>131.84</ele>
        <time>2013-07-27T09:03:34Z</time>
      </trkpt>
      <trkpt lat="48.80743" lon="2.04964">
        <ele>131.84</ele>
        <time>2013-07-27T09:03:35Z</time>
      </trkpt>
      <trkpt lat="48.8079" lon="2.04825">
        <ele>135.2</ele>
        <time>2013-07-27T09:03:46Z</time>
      </trkpt>
      <trkpt lat="48.80831" lon="2.04714">
        <ele>136.64</ele>
        <time>2013-07-27T09:03:59Z</time>
      </trkpt>
      <trkpt lat="48.80888" lon="2.04543">
        <ele>133.28</ele>
        <time>2013-07-27T09:04:14Z</time>
      </trkpt>
      <trkpt lat="48.80938" lon="2.04406">
        <ele>130.88</ele>
        <time>2013-07-27T09:04:26Z</time>
      </trkpt>
      <trkpt lat="48.8096" lon="2.04347">
        <ele>131.36</ele>
        <time>2013-07-27T09:04:31Z</time>
      </trkpt>
      <trkpt lat="48.80963" lon="2.04338">
        <ele>131.36</ele>
        <time>2013-07-27T09:04:32Z</time>
      </trkpt>
      <trkpt lat="48.80969" lon="2.04325">
        <ele>131.84</ele>
        <time>2013-07-27T09:04:33Z</time>
      </trkpt>
      <trkpt lat="48.80968" lon="2.04324">
        <ele>131.84</ele>
        <time>2013-07-27T09:04:34Z</time>
      </trkpt>
      <trkpt lat="48.80972" lon="2.04298">
        <ele>131.84</ele>
        <time>2013-07-27T09:04:35Z</time>
      </trkpt>
      <trkpt lat="48.80972" lon="2.04298">
        <ele>131.84</ele>
        <time>2013-07-27T09:04:36Z</time>
      </trkpt>
      <trkpt lat="48.80974" lon="2.04293">
        <ele>131.84</ele>
        <time>2013-07-27T09:04:37Z</time>
      </trkpt>
      <trkpt lat="48.80978" lon="2.04284">
        <ele>132.32</ele>
        <time>2013-07-27T09:04:38Z</time>
      </trkpt>
      <trkpt lat="48.80982" lon="2.04274">
        <ele>132.32</ele>
        <time>2013-07-27T09:04:39Z</time>
      </trkpt>
      <trkpt lat="48.80986" lon="2.04263">
        <ele>132.8</ele>
        <time>2013-07-27T09:04:40Z</time>
      </trkpt>
      <trkpt lat="48.81045" lon="2.04105">
        <ele>134.72</ele>
        <time>2013-07-27T09:04:51Z</time>
      </trkpt>
      <trkpt lat="48.81128" lon="2.03926">
        <ele>127.51</ele>
        <time>2013-07-27T09:05:04Z</time>
      </trkpt>
      <trkpt lat="48.81164" lon="2.03821">
        <ele>126.07</ele>
        <time>2013-07-27T09:05:13Z</time>
      </trkpt>
      <trkpt lat="48.81208" lon="2.03726">
        <ele>126.55</ele>
        <time>2013-07-27T09:05:18Z</time>
      </trkpt>
      <trkpt lat="48.81356" lon="2.0339">
        <ele>126.07</ele>
        <time>2013-07-27T09:05:32Z</time>
      </trkpt>
      <trkpt lat="48.81485" lon="2.03085">
        <ele>123.67</ele>
        <time>2013-07-27T09:05:42Z</time>
      </trkpt>
      <trkpt lat="48.81622" lon="2.02763">
        <ele>124.15</ele>
        <time>2013-07-27T09:05:53Z</time>
      </trkpt>
      <trkpt lat="48.81721" lon="2.02546">
        <ele>122.71</ele>
        <time>2013-07-27T09:06:03Z</time>
      </trkpt>
      <trkpt lat="48.81741" lon="2.02498">
        <ele>121.74</ele>
        <time>2013-07-27T09:06:06Z</time>
      </trkpt>
      <trkpt lat="48.81745" lon="2.025">
        <ele>121.74</ele>
        <time>2013-07-27T09:06:07Z</time>
      </trkpt>
      <trkpt lat="48.81752" lon="2.025">
        <ele>121.26</ele>
        <time>2013-07-27T09:06:08Z</time>
      </trkpt>
      <trkpt lat="48.81769" lon="2.02491">
        <ele>121.26</ele>
        <time>2013-07-27T09:06:10Z</time>
      </trkpt>
      <trkpt lat="48.81777" lon="2.0249">
        <ele>121.26</ele>
        <time>2013-07-27T09:06:11Z</time>
      </trkpt>
      <trkpt lat="48.81792" lon="2.02488">
        <ele>120.78</ele>
        <time>2013-07-27T09:06:12Z</time>
      </trkpt>
      <trkpt lat="48.81878" lon="2.02503">
        <ele>119.34</ele>
        <time>2013-07-27T09:06:21Z</time>
      </trkpt>
      <trkpt lat="48.82131" lon="2.0255">
        <ele>113.09</ele>
        <time>2013-07-27T09:06:36Z</time>
      </trkpt>
      <trkpt lat="48.82361" lon="2.02558">
        <ele>111.65</ele>
        <time>2013-07-27T09:06:49Z</time>
      </trkpt>
      <trkpt lat="48.82518" lon="2.02499">
        <ele>111.65</ele>
        <time>2013-07-27T09:06:56Z</time>
      </trkpt>
      <trkpt lat="48.82662" lon="2.02408">
        <ele>111.65</ele>
        <time>2013-07-27T09:07:02Z</time>
      </trkpt>
      <trkpt lat="48.8305" lon="2.02104">
        <ele>113.09</ele>
        <time>2013-07-27T09:07:20Z</time>
      </trkpt>
      <trkpt lat="48.83242" lon="2.0197">
        <ele>106.36</ele>
        <time>2013-07-27T09:07:30Z</time>
      </trkpt>
      <trkpt lat="48.83404" lon="2.01862">
        <ele>92.42</ele>
        <time>2013-07-27T09:07:40Z</time>
      </trkpt>
      <trkpt lat="48.83415" lon="2.01856">
        <ele>91.46</ele>
        <time>2013-07-27T09:07:41Z</time>
      </trkpt>
      <trkpt lat="48.83425" lon="2.01851">
        <ele>90.98</ele>
        <time>2013-07-27T09:07:42Z</time>
      </trkpt>
      <trkpt lat="48.8344" lon="2.01844">
        <ele>90.02</ele>
        <time>2013-07-27T09:07:43Z</time>
      </trkpt>
      <trkpt lat="48.83441" lon="2.01845">
        <ele>89.54</ele>
        <time>2013-07-27T09:07:44Z</time>
      </trkpt>
      <trkpt lat="48.83445" lon="2.01849">
        <ele>89.54</ele>
        <time>2013-07-27T09:07:45Z</time>
      </trkpt>
      <trkpt lat="48.83453" lon="2.0185">
        <ele>89.06</ele>
        <time>2013-07-27T09:07:46Z</time>
      </trkpt>
      <trkpt lat="48.83457" lon="2.01841">
        <ele>88.58</ele>
        <time>2013-07-27T09:07:47Z</time>
      </trkpt>
      <trkpt lat="48.83457" lon="2.01841">
        <ele>88.58</ele>
        <time>2013-07-27T09:07:48Z</time>
      </trkpt>
      <trkpt lat="48.83449" lon="2.01826">
        <ele>88.1</ele>
        <time>2013-07-27T09:07:49Z</time>
      </trkpt>
      <trkpt lat="48.83449" lon="2.01814">
        <ele>87.62</ele>
        <time>2013-07-27T09:07:50Z</time>
      </trkpt>
      <trkpt lat="48.83448" lon="2.01803">
        <ele>87.62</ele>
        <time>2013-07-27T09:07:51Z</time>
      </trkpt>
      <trkpt lat="48.83447" lon="2.01789">
        <ele>87.62</ele>
        <time>2013-07-27T09:07:52Z</time>
      </trkpt>
      <trkpt lat="48.83445" lon="2.01774">
        <ele>87.14</ele>
        <time>2013-07-27T09:07:53Z</time>
      </trkpt>
      <trkpt lat="48.83443" lon="2.01759">
        <ele>87.14</ele>
        <time>2013-07-27T09:07:54Z</time>
      </trkpt>
      <trkpt lat="48.83442" lon="2.01743">
        <ele>86.66</ele>
        <time>2013-07-27T09:07:55Z</time>
      </trkpt>
      <trkpt lat="48.83441" lon="2.01723">
        <ele>86.18</ele>
        <time>2013-07-27T09:07:56Z</time>
      </trkpt>
      <trkpt lat="48.83443" lon="2.01704">
        <ele>86.18</ele>
        <time>2013-07-27T09:07:57Z</time>
      </trkpt>
      <trkpt lat="48.83452" lon="2.01634">
        <ele>85.21</ele>
        <time>2013-07-27T09:08:01Z</time>
      </trkpt>
      <trkpt lat="48.83449" lon="2.01622">
        <ele>85.21</ele>
        <time>2013-07-27T09:08:02Z</time>
      </trkpt>
      <trkpt lat="48.83444" lon="2.01611">
        <ele>84.73</ele>
        <time>2013-07-27T09:08:03Z</time>
      </trkpt>
      <trkpt lat="48.8344" lon="2.01603">
        <ele>84.25</ele>
        <time>2013-07-27T09:08:04Z</time>
      </trkpt>
      <trkpt lat="48.83432" lon="2.01598">
        <ele>84.25</ele>
        <time>2013-07-27T09:08:05Z</time>
      </trkpt>
      <trkpt lat="48.83425" lon="2.01592">
        <ele>84.25</ele>
        <time>2013-07-27T09:08:06Z</time>
      </trkpt>
      <trkpt lat="48.83416" lon="2.01586">
        <ele>84.25</ele>
        <time>2013-07-27T09:08:07Z</time>
      </trkpt>
      <trkpt lat="48.83408" lon="2.0158">
        <ele>84.25</ele>
        <time>2013-07-27T09:08:08Z</time>
      </trkpt>
      <trkpt lat="48.83399" lon="2.01573">
        <ele>84.25</ele>
        <time>2013-07-27T09:08:09Z</time>
      </trkpt>
      <trkpt lat="48.83387" lon="2.01562">
        <ele>84.25</ele>
        <time>2013-07-27T09:08:10Z</time>
      </trkpt>
      <trkpt lat="48.83382" lon="2.01554">
        <ele>84.25</ele>
        <time>2013-07-27T09:08:11Z</time>
      </trkpt>
      <trkpt lat="48.83368" lon="2.01527">
        <ele>84.25</ele>
        <time>2013-07-27T09:08:14Z</time>
      </trkpt>
      <trkpt lat="48.83362" lon="2.01527">
        <ele>84.25</ele>
        <time>2013-07-27T09:08:15Z</time>
      </trkpt>
      <trkpt lat="48.83359" lon="2.01524">
        <ele>84.25</ele>
        <time>2013-07-27T09:08:16Z</time>
      </trkpt>
      <trkpt lat="48.83385" lon="2.01457">
        <ele>84.25</ele>
        <time>2013-07-27T09:08:20Z</time>
      </trkpt>
      <trkpt lat="48.83397" lon="2.01426">
        <ele>84.73</ele>
        <time>2013-07-27T09:08:23Z</time>
      </trkpt>
      <trkpt lat="48.834" lon="2.01418">
        <ele>84.73</ele>
        <time>2013-07-27T09:08:24Z</time>
      </trkpt>
      <trkpt lat="48.83399" lon="2.01405">
        <ele>84.73</ele>
        <time>2013-07-27T09:08:25Z</time>
      </trkpt>
      <trkpt lat="48.83397" lon="2.01393">
        <ele>85.21</ele>
        <time>2013-07-27T09:08:26Z</time>
      </trkpt>
      <trkpt lat="48.83394" lon="2.01382">
        <ele>85.21</ele>
        <time>2013-07-27T09:08:27Z</time>
      </trkpt>
      <trkpt lat="48.83391" lon="2.0137">
        <ele>85.21</ele>
        <time>2013-07-27T09:08:28Z</time>
      </trkpt>
      <trkpt lat="48.83389" lon="2.01359">
        <ele>85.69</ele>
        <time>2013-07-27T09:08:29Z</time>
      </trkpt>
      <trkpt lat="48.83386" lon="2.0135">
        <ele>85.69</ele>
        <time>2013-07-27T09:08:30Z</time>
      </trkpt>
      <trkpt lat="48.83387" lon="2.01339">
        <ele>85.69</ele>
        <time>2013-07-27T09:08:31Z</time>
      </trkpt>
      <trkpt lat="48.83393" lon="2.01333">
        <ele>86.18</ele>
        <time>2013-07-27T09:08:32Z</time>
      </trkpt>
      <trkpt lat="48.83393" lon="2.01333">
        <ele>86.18</ele>
        <time>2013-07-27T09:08:33Z</time>
      </trkpt>
      <trkpt lat="48.83402" lon="2.01329">
        <ele>86.18</ele>
        <time>2013-07-27T09:08:34Z</time>
      </trkpt>
      <trkpt lat="48.83409" lon="2.01325">
        <ele>86.66</ele>
        <time>2013-07-27T09:08:35Z</time>
      </trkpt>
      <trkpt lat="48.83417" lon="2.01321">
        <ele>86.66</ele>
        <time>2013-07-27T09:08:36Z</time>
      </trkpt>
      <trkpt lat="48.83433" lon="2.01309">
        <ele>87.14</ele>
        <time>2013-07-27T09:08:38Z</time>
      </trkpt>
      <trkpt lat="48.83438" lon="2.01303">
        <ele>87.14</ele>
        <time>2013-07-27T09:08:39Z</time>
      </trkpt>
      <trkpt lat="48.83502" lon="2.01207">
        <ele>87.14</ele>
        <time>2013-07-27T09:08:50Z</time>
      </trkpt>
      <trkpt lat="48.83526" lon="2.01179">
        <ele>86.18</ele>
        <time>2013-07-27T09:08:53Z</time>
      </trkpt>
      <trkpt lat="48.83561" lon="2.01144">
        <ele>85.69</ele>
        <time>2013-07-27T09:08:57Z</time>
      </trkpt>
      <trkpt lat="48.83577" lon="2.0114">
        <ele>85.69</ele>
        <time>2013-07-27T09:08:58Z</time>
      </trkpt>
      <trkpt lat="48.83581" lon="2.01141">
        <ele>86.18</ele>
        <time>2013-07-27T09:08:59Z</time>
      </trkpt>
      <trkpt lat="48.83593" lon="2.01143">
        <ele>85.69</ele>
        <time>2013-07-27T09:09:00Z</time>
      </trkpt>
      <trkpt lat="48.83606" lon="2.01146">
        <ele>85.69</ele>
        <time>2013-07-27T09:09:01Z</time>
      </trkpt>
      <trkpt lat="48.83745" lon="2.01177">
        <ele>84.73</ele>
        <time>2013-07-27T09:09:10Z</time>
      </trkpt>
      <trkpt lat="48.83795" lon="2.01187">
        <ele>83.77</ele>
        <time>2013-07-27T09:09:14Z</time>
      </trkpt>
      <trkpt lat="48.83806" lon="2.01185">
        <ele>83.77</ele>
        <time>2013-07-27T09:09:15Z</time>
      </trkpt>
      <trkpt lat="48.83822" lon="2.01183">
        <ele>83.77</ele>
        <time>2013-07-27T09:09:16Z</time>
      </trkpt>
      <trkpt lat="48.83826" lon="2.01177">
        <ele>83.77</ele>
        <time>2013-07-27T09:09:17Z</time>
      </trkpt>
      <trkpt lat="48.83833" lon="2.01166">
        <ele>83.29</ele>
        <time>2013-07-27T09:09:18Z</time>
      </trkpt>
      <trkpt lat="48.83841" lon="2.01154">
        <ele>83.29</ele>
        <time>2013-07-27T09:09:19Z</time>
      </trkpt>
      <trkpt lat="48.83847" lon="2.01138">
        <ele>83.29</ele>
        <time>2013-07-27T09:09:20Z</time>
      </trkpt>
      <trkpt lat="48.83854" lon="2.01121">
        <ele>83.29</ele>
        <time>2013-07-27T09:09:21Z</time>
      </trkpt>
      <trkpt lat="48.8388" lon="2.01066">
        <ele>83.29</ele>
        <time>2013-07-27T09:09:24Z</time>
      </trkpt>
      <trkpt lat="48.83893" lon="2.01051">
        <ele>83.29</ele>
        <time>2013-07-27T09:09:25Z</time>
      </trkpt>
      <trkpt lat="48.84" lon="2.00939">
        <ele>83.77</ele>
        <time>2013-07-27T09:09:34Z</time>
      </trkpt>
      <trkpt lat="48.84032" lon="2.00908">
        <ele>84.25</ele>
        <time>2013-07-27T09:09:38Z</time>
      </trkpt>
      <trkpt lat="48.84039" lon="2.0091">
        <ele>83.77</ele>
        <time>2013-07-27T09:09:39Z</time>
      </trkpt>
      <trkpt lat="48.84046" lon="2.00911">
        <ele>83.77</ele>
        <time>2013-07-27T09:09:40Z</time>
      </trkpt>
      <trkpt lat="48.84051" lon="2.00907">
        <ele>83.77</ele>
        <time>2013-07-27T09:09:41Z</time>
      </trkpt>
      <trkpt lat="48.84055" lon="2.00903">
        <ele>83.77</ele>
        <time>2013-07-27T09:09:42Z</time>
      </trkpt>
      <trkpt lat="48.84055" lon="2.00887">
        <ele>84.25</ele>
        <time>2013-07-27T09:09:43Z</time>
      </trkpt>
      <trkpt lat="48.84055" lon="2.00887">
        <ele>84.73</ele>
        <time>2013-07-27T09:09:44Z</time>
      </trkpt>
      <trkpt lat="48.84041" lon="2.00878">
        <ele>84.73</ele>
        <time>2013-07-27T09:09:45Z</time>
      </trkpt>
      <trkpt lat="48.84037" lon="2.00873">
        <ele>85.21</ele>
        <time>2013-07-27T09:09:46Z</time>
      </trkpt>
      <trkpt lat="48.84031" lon="2.00866">
        <ele>85.21</ele>
        <time>2013-07-27T09:09:47Z</time>
      </trkpt>
      <trkpt lat="48.84023" lon="2.00856">
        <ele>85.21</ele>
        <time>2013-07-27T09:09:48Z</time>
      </trkpt>
      <trkpt lat="48.83951" lon="2.00765">
        <ele>87.14</ele>
        <time>2013-07-27T09:09:55Z</time>
      </trkpt>
      <trkpt lat="48.83806" lon="2.00626">
        <ele>92.42</ele>
        <time>2013-07-27T09:10:04Z</time>
      </trkpt>
      <trkpt lat="48.83626" lon="2.0045">
        <ele>104.44</ele>
        <time>2013-07-27T09:10:15Z</time>
      </trkpt>
      <trkpt lat="48.8351" lon="2.00335">
        <ele>112.13</ele>
        <time>2013-07-27T09:10:24Z</time>
      </trkpt>
      <trkpt lat="48.83453" lon="2.00264">
        <ele>114.05</ele>
        <time>2013-07-27T09:10:30Z</time>
      </trkpt>
      <trkpt lat="48.83455" lon="2.0026">
        <ele>114.53</ele>
        <time>2013-07-27T09:10:31Z</time>
      </trkpt>
      <trkpt lat="48.83454" lon="2.00244">
        <ele>114.53</ele>
        <time>2013-07-27T09:10:32Z</time>
      </trkpt>
      <trkpt lat="48.83453" lon="2.00229">
        <ele>114.53</ele>
        <time>2013-07-27T09:10:33Z</time>
      </trkpt>
      <trkpt lat="48.83448" lon="2.00206">
        <ele>114.53</ele>
        <time>2013-07-27T09:10:34Z</time>
      </trkpt>
      <trkpt lat="48.83455" lon="2.0019">
        <ele>114.53</ele>
        <time>2013-07-27T09:10:35Z</time>
      </trkpt>
      <trkpt lat="48.83459" lon="2.00167">
        <ele>114.53</ele>
        <time>2013-07-27T09:10:36Z</time>
      </trkpt>
      <trkpt lat="48.83464" lon="2.00143">
        <ele>114.53</ele>
        <time>2013-07-27T09:10:37Z</time>
      </trkpt>
      <trkpt lat="48.8353" lon="1.99897">
        <ele>115.5</ele>
        <time>2013-07-27T09:10:46Z</time>
      </trkpt>
      <trkpt lat="48.83536" lon="1.9972">
        <ele>116.46</ele>
        <time>2013-07-27T09:10:51Z</time>
      </trkpt>
      <trkpt lat="48.83517" lon="1.99083">
        <ele>119.34</ele>
        <time>2013-07-27T09:11:07Z</time>
      </trkpt>
      <trkpt lat="48.83478" lon="1.9852">
        <ele>122.22</ele>
        <time>2013-07-27T09:11:21Z</time>
      </trkpt>
      <trkpt lat="48.83423" lon="1.97753">
        <ele>121.26</ele>
        <time>2013-07-27T09:11:40Z</time>
      </trkpt>
      <trkpt lat="48.83451" lon="1.97327">
        <ele>119.82</ele>
        <time>2013-07-27T09:11:51Z</time>
      </trkpt>
      <trkpt lat="48.83471" lon="1.97075">
        <ele>118.86</ele>
        <time>2013-07-27T09:11:59Z</time>
      </trkpt>
      <trkpt lat="48.83475" lon="1.9704">
        <ele>119.34</ele>
        <time>2013-07-27T09:12:01Z</time>
      </trkpt>
      <trkpt lat="48.83483" lon="1.97024">
        <ele>119.34</ele>
        <time>2013-07-27T09:12:02Z</time>
      </trkpt>
      <trkpt lat="48.83486" lon="1.97017">
        <ele>119.34</ele>
        <time>2013-07-27T09:12:03Z</time>
      </trkpt>
      <trkpt lat="48.8349" lon="1.97007">
        <ele>119.34</ele>
        <time>2013-07-27T09:12:04Z</time>
      </trkpt>
      <trkpt lat="48.83488" lon="1.96991">
        <ele>119.82</ele>
        <time>2013-07-27T09:12:05Z</time>
      </trkpt>
      <trkpt lat="48.83483" lon="1.96977">
        <ele>120.3</ele>
        <time>2013-07-27T09:12:06Z</time>
      </trkpt>
      <trkpt lat="48.83481" lon="1.96963">
        <ele>120.3</ele>
        <time>2013-07-27T09:12:07Z</time>
      </trkpt>
      <trkpt lat="48.83479" lon="1.96946">
        <ele>120.3</ele>
        <time>2013-07-27T09:12:08Z</time>
      </trkpt>
      <trkpt lat="48.83476" lon="1.96926">
        <ele>120.78</ele>
        <time>2013-07-27T09:12:09Z</time>
      </trkpt>
      <trkpt lat="48.83475" lon="1.96904">
        <ele>120.78</ele>
        <time>2013-07-27T09:12:10Z</time>
      </trkpt>
      <trkpt lat="48.8348" lon="1.96704">
        <ele>122.71</ele>
        <time>2013-07-27T09:12:17Z</time>
      </trkpt>
      <trkpt lat="48.83483" lon="1.9637">
        <ele>125.59</ele>
        <time>2013-07-27T09:12:26Z</time>
      </trkpt>
      <trkpt lat="48.83476" lon="1.95952">
        <ele>126.07</ele>
        <time>2013-07-27T09:12:38Z</time>
      </trkpt>
      <trkpt lat="48.8348" lon="1.95792">
        <ele>123.67</ele>
        <time>2013-07-27T09:12:45Z</time>
      </trkpt>
      <trkpt lat="48.83481" lon="1.95785">
        <ele>123.67</ele>
        <time>2013-07-27T09:12:46Z</time>
      </trkpt>
      <trkpt lat="48.83481" lon="1.95781">
        <ele>123.67</ele>
        <time>2013-07-27T09:12:47Z</time>
      </trkpt>
      <trkpt lat="48.83478" lon="1.95771">
        <ele>123.67</ele>
        <time>2013-07-27T09:12:48Z</time>
      </trkpt>
      <trkpt lat="48.8348" lon="1.95771">
        <ele>123.67</ele>
        <time>2013-07-27T09:12:49Z</time>
      </trkpt>
      <trkpt lat="48.83482" lon="1.95771">
        <ele>123.67</ele>
        <time>2013-07-27T09:12:50Z</time>
      </trkpt>
      <trkpt lat="48.83486" lon="1.95767">
        <ele>124.15</ele>
        <time>2013-07-27T09:12:51Z</time>
      </trkpt>
      <trkpt lat="48.83491" lon="1.95761">
        <ele>124.15</ele>
        <time>2013-07-27T09:12:52Z</time>
      </trkpt>
      <trkpt lat="48.83496" lon="1.95751">
        <ele>124.15</ele>
        <time>2013-07-27T09:12:53Z</time>
      </trkpt>
      <trkpt lat="48.83498" lon="1.95739">
        <ele>124.15</ele>
        <time>2013-07-27T09:12:54Z</time>
      </trkpt>
      <trkpt lat="48.83498" lon="1.95723">
        <ele>124.15</ele>
        <time>2013-07-27T09:12:55Z</time>
      </trkpt>
      <trkpt lat="48.83498" lon="1.95723">
        <ele>124.15</ele>
        <time>2013-07-27T09:12:56Z</time>
      </trkpt>
      <trkpt lat="48.83492" lon="1.95696">
        <ele>124.15</ele>
        <time>2013-07-27T09:12:57Z</time>
      </trkpt>
      <trkpt lat="48.83492" lon="1.95681">
        <ele>124.15</ele>
        <time>2013-07-27T09:12:58Z</time>
      </trkpt>
      <trkpt lat="48.83495" lon="1.95663">
        <ele>123.67</ele>
        <time>2013-07-27T09:12:59Z</time>
      </trkpt>
      <trkpt lat="48.83501" lon="1.95646">
        <ele>123.67</ele>
        <time>2013-07-27T09:13:00Z</time>
      </trkpt>
      <trkpt lat="48.83507" lon="1.95626">
        <ele>124.15</ele>
        <time>2013-07-27T09:13:01Z</time>
      </trkpt>
      <trkpt lat="48.83567" lon="1.9543">
        <ele>125.11</ele>
        <time>2013-07-27T09:13:09Z</time>
      </trkpt>
      <trkpt lat="48.83663" lon="1.95038">
        <ele>126.55</ele>
        <time>2013-07-27T09:13:22Z</time>
      </trkpt>
      <trkpt lat="48.83759" lon="1.94634">
        <ele>125.11</ele>
        <time>2013-07-27T09:13:36Z</time>
      </trkpt>
      <trkpt lat="48.83803" lon="1.94525">
        <ele>122.71</ele>
        <time>2013-07-27T09:13:42Z</time>
      </trkpt>
      <trkpt lat="48.83813" lon="1.94505">
        <ele>122.71</ele>
        <time>2013-07-27T09:13:43Z</time>
      </trkpt>
      <trkpt lat="48.83815" lon="1.94504">
        <ele>122.71</ele>
        <time>2013-07-27T09:13:44Z</time>
      </trkpt>
      <trkpt lat="48.83823" lon="1.94499">
        <ele>122.71</ele>
        <time>2013-07-27T09:13:45Z</time>
      </trkpt>
      <trkpt lat="48.83835" lon="1.94479">
        <ele>123.19</ele>
        <time>2013-07-27T09:13:46Z</time>
      </trkpt>
      <trkpt lat="48.83835" lon="1.94479">
        <ele>123.19</ele>
        <time>2013-07-27T09:13:47Z</time>
      </trkpt>
      <trkpt lat="48.83842" lon="1.94466">
        <ele>122.71</ele>
        <time>2013-07-27T09:13:48Z</time>
      </trkpt>
      <trkpt lat="48.8385" lon="1.94453">
        <ele>122.71</ele>
        <time>2013-07-27T09:13:49Z</time>
      </trkpt>
      <trkpt lat="48.83861" lon="1.94445">
        <ele>122.71</ele>
        <time>2013-07-27T09:13:50Z</time>
      </trkpt>
      <trkpt lat="48.83873" lon="1.94437">
        <ele>122.71</ele>
        <time>2013-07-27T09:13:51Z</time>
      </trkpt>
      <trkpt lat="48.83888" lon="1.94431">
        <ele>123.19</ele>
        <time>2013-07-27T09:13:52Z</time>
      </trkpt>
      <trkpt lat="48.83904" lon="1.94427">
        <ele>123.67</ele>
        <time>2013-07-27T09:13:53Z</time>
      </trkpt>
      <trkpt lat="48.8392" lon="1.94423">
        <ele>124.15</ele>
        <time>2013-07-27T09:13:54Z</time>
      </trkpt>
      <trkpt lat="48.83938" lon="1.94419">
        <ele>124.63</ele>
        <time>2013-07-27T09:13:55Z</time>
      </trkpt>
      <trkpt lat="48.83954" lon="1.94421">
        <ele>125.11</ele>
        <time>2013-07-27T09:13:56Z</time>
      </trkpt>
      <trkpt lat="48.84135" lon="1.94437">
        <ele>129.43</ele>
        <time>2013-07-27T09:14:06Z</time>
      </trkpt>
      <trkpt lat="48.84215" lon="1.94458">
        <ele>127.99</ele>
        <time>2013-07-27T09:14:12Z</time>
      </trkpt>
      <trkpt lat="48.84228" lon="1.9446">
        <ele>127.51</ele>
        <time>2013-07-27T09:14:13Z</time>
      </trkpt>
      <trkpt lat="48.84232" lon="1.94469">
        <ele>127.51</ele>
        <time>2013-07-27T09:14:14Z</time>
      </trkpt>
      <trkpt lat="48.84239" lon="1.94476">
        <ele>127.03</ele>
        <time>2013-07-27T09:14:15Z</time>
      </trkpt>
      <trkpt lat="48.84245" lon="1.94482">
        <ele>127.03</ele>
        <time>2013-07-27T09:14:16Z</time>
      </trkpt>
      <trkpt lat="48.84254" lon="1.94479">
        <ele>126.55</ele>
        <time>2013-07-27T09:14:17Z</time>
      </trkpt>
      <trkpt lat="48.8426" lon="1.94474">
        <ele>126.07</ele>
        <time>2013-07-27T09:14:18Z</time>
      </trkpt>
      <trkpt lat="48.84265" lon="1.94465">
        <ele>126.07</ele>
        <time>2013-07-27T09:14:19Z</time>
      </trkpt>
      <trkpt lat="48.84268" lon="1.94455">
        <ele>125.59</ele>
        <time>2013-07-27T09:14:20Z</time>
      </trkpt>
      <trkpt lat="48.84266" lon="1.94444">
        <ele>125.59</ele>
        <time>2013-07-27T09:14:21Z</time>
      </trkpt>
      <trkpt lat="48.84266" lon="1.94444">
        <ele>125.59</ele>
        <time>2013-07-27T09:14:22Z</time>
      </trkpt>
      <trkpt lat="48.84259" lon="1.94418">
        <ele>125.11</ele>
        <time>2013-07-27T09:14:23Z</time>
      </trkpt>
      <trkpt lat="48.84255" lon="1.94403">
        <ele>125.11</ele>
        <time>2013-07-27T09:14:24Z</time>
      </trkpt>
      <trkpt lat="48.84251" lon="1.94384">
        <ele>125.11</ele>
        <time>2013-07-27T09:14:25Z</time>
      </trkpt>
      <trkpt lat="48.84251" lon="1.94217">
        <ele>125.11</ele>
        <time>2013-07-27T09:14:32Z</time>
      </trkpt>
      <trkpt lat="48.84257" lon="1.93888">
        <ele>122.71</ele>
        <time>2013-07-27T09:14:43Z</time>
      </trkpt>
      <trkpt lat="48.84269" lon="1.93362">
        <ele>119.82</ele>
        <time>2013-07-27T09:14:59Z</time>
      </trkpt>
      <trkpt lat="48.84283" lon="1.92724">
        <ele>120.78</ele>
        <time>2013-07-27T09:15:17Z</time>
      </trkpt>
      <trkpt lat="48.84291" lon="1.92179">
        <ele>119.82</ele>
        <time>2013-07-27T09:15:33Z</time>
      </trkpt>
      <trkpt lat="48.84292" lon="1.91928">
        <ele>116.94</ele>
        <time>2013-07-27T09:15:42Z</time>
      </trkpt>
      <trkpt lat="48.84281" lon="1.91802">
        <ele>113.57</ele>
        <time>2013-07-27T09:15:48Z</time>
      </trkpt>
      <trkpt lat="48.84283" lon="1.91778">
        <ele>112.61</ele>
        <time>2013-07-27T09:15:50Z</time>
      </trkpt>
      <trkpt lat="48.84273" lon="1.91771">
        <ele>112.13</ele>
        <time>2013-07-27T09:15:51Z</time>
      </trkpt>
      <trkpt lat="48.84266" lon="1.91742">
        <ele>111.65</ele>
        <time>2013-07-27T09:15:53Z</time>
      </trkpt>
      <trkpt lat="48.84262" lon="1.91725">
        <ele>111.17</ele>
        <time>2013-07-27T09:15:54Z</time>
      </trkpt>
      <trkpt lat="48.84234" lon="1.91551">
        <ele>110.69</ele>
        <time>2013-07-27T09:16:02Z</time>
      </trkpt>
      <trkpt lat="48.84256" lon="1.91353">
        <ele>114.05</ele>
        <time>2013-07-27T09:16:09Z</time>
      </trkpt>
      <trkpt lat="48.84285" lon="1.91112">
        <ele>117.9</ele>
        <time>2013-07-27T09:16:16Z</time>
      </trkpt>
      <trkpt lat="48.84369" lon="1.90742">
        <ele>110.69</ele>
        <time>2013-07-27T09:16:27Z</time>
      </trkpt>
      <trkpt lat="48.84439" lon="1.90524">
        <ele>107.81</ele>
        <time>2013-07-27T09:16:35Z</time>
      </trkpt>
      <trkpt lat="48.84461" lon="1.90471">
        <ele>107.32</ele>
        <time>2013-07-27T09:16:38Z</time>
      </trkpt>
      <trkpt lat="48.84477" lon="1.90458">
        <ele>107.32</ele>
        <time>2013-07-27T09:16:40Z</time>
      </trkpt>
      <trkpt lat="48.84479" lon="1.90429">
        <ele>107.32</ele>
        <time>2013-07-27T09:16:41Z</time>
      </trkpt>
      <trkpt lat="48.84505" lon="1.90304">
        <ele>106.84</ele>
        <time>2013-07-27T09:16:47Z</time>
      </trkpt>
      <trkpt lat="48.84522" lon="1.90254">
        <ele>107.32</ele>
        <time>2013-07-27T09:16:49Z</time>
      </trkpt>
      <trkpt lat="48.84532" lon="1.90228">
        <ele>107.81</ele>
        <time>2013-07-27T09:16:50Z</time>
      </trkpt>
      <trkpt lat="48.84623" lon="1.90015">
        <ele>109.25</ele>
        <time>2013-07-27T09:16:58Z</time>
      </trkpt>
      <trkpt lat="48.84646" lon="1.89958">
        <ele>108.77</ele>
        <time>2013-07-27T09:17:00Z</time>
      </trkpt>
      <trkpt lat="48.8466" lon="1.89934">
        <ele>108.29</ele>
        <time>2013-07-27T09:17:01Z</time>
      </trkpt>
      <trkpt lat="48.84675" lon="1.89911">
        <ele>107.81</ele>
        <time>2013-07-27T09:17:02Z</time>
      </trkpt>
      <trkpt lat="48.8469" lon="1.89889">
        <ele>107.32</ele>
        <time>2013-07-27T09:17:03Z</time>
      </trkpt>
      <trkpt lat="48.84707" lon="1.8987">
        <ele>106.36</ele>
        <time>2013-07-27T09:17:04Z</time>
      </trkpt>
      <trkpt lat="48.84869" lon="1.89717">
        <ele>97.23</ele>
        <time>2013-07-27T09:17:14Z</time>
      </trkpt>
      <trkpt lat="48.85026" lon="1.89576">
        <ele>85.69</ele>
        <time>2013-07-27T09:17:24Z</time>
      </trkpt>
      <trkpt lat="48.8504" lon="1.89558">
        <ele>84.25</ele>
        <time>2013-07-27T09:17:25Z</time>
      </trkpt>
      <trkpt lat="48.85048" lon="1.89532">
        <ele>83.29</ele>
        <time>2013-07-27T09:17:26Z</time>
      </trkpt>
      <trkpt lat="48.85057" lon="1.89507">
        <ele>81.85</ele>
        <time>2013-07-27T09:17:27Z</time>
      </trkpt>
      <trkpt lat="48.85067" lon="1.89483">
        <ele>80.89</ele>
        <time>2013-07-27T09:17:28Z</time>
      </trkpt>
      <trkpt lat="48.85076" lon="1.89457">
        <ele>79.93</ele>
        <time>2013-07-27T09:17:29Z</time>
      </trkpt>
      <trkpt lat="48.8508" lon="1.89429">
        <ele>78.97</ele>
        <time>2013-07-27T09:17:30Z</time>
      </trkpt>
      <trkpt lat="48.85084" lon="1.89401">
        <ele>78.48</ele>
        <time>2013-07-27T09:17:31Z</time>
      </trkpt>
      <trkpt lat="48.85087" lon="1.89368">
        <ele>77.52</ele>
        <time>2013-07-27T09:17:32Z</time>
      </trkpt>
      <trkpt lat="48.85114" lon="1.89056">
        <ele>72.24</ele>
        <time>2013-07-27T09:17:42Z</time>
      </trkpt>
      <trkpt lat="48.85121" lon="1.88772">
        <ele>65.99</ele>
        <time>2013-07-27T09:17:51Z</time>
      </trkpt>
      <trkpt lat="48.8507" lon="1.88575">
        <ele>58.78</ele>
        <time>2013-07-27T09:17:58Z</time>
      </trkpt>
      <trkpt lat="48.85034" lon="1.88465">
        <ele>55.41</ele>
        <time>2013-07-27T09:18:03Z</time>
      </trkpt>
      <trkpt lat="48.85032" lon="1.88443">
        <ele>54.93</ele>
        <time>2013-07-27T09:18:04Z</time>
      </trkpt>
      <trkpt lat="48.8503" lon="1.88422">
        <ele>54.93</ele>
        <time>2013-07-27T09:18:05Z</time>
      </trkpt>
      <trkpt lat="48.85028" lon="1.884">
        <ele>54.45</ele>
        <time>2013-07-27T09:18:06Z</time>
      </trkpt>
      <trkpt lat="48.8503" lon="1.88378">
        <ele>53.97</ele>
        <time>2013-07-27T09:18:07Z</time>
      </trkpt>
      <trkpt lat="48.85031" lon="1.88355">
        <ele>53.97</ele>
        <time>2013-07-27T09:18:08Z</time>
      </trkpt>
      <trkpt lat="48.85033" lon="1.88334">
        <ele>53.49</ele>
        <time>2013-07-27T09:18:09Z</time>
      </trkpt>
      <trkpt lat="48.85038" lon="1.88313">
        <ele>53.49</ele>
        <time>2013-07-27T09:18:10Z</time>
      </trkpt>
      <trkpt lat="48.85043" lon="1.88292">
        <ele>53.01</ele>
        <time>2013-07-27T09:18:11Z</time>
      </trkpt>
      <trkpt lat="48.85048" lon="1.88272">
        <ele>53.01</ele>
        <time>2013-07-27T09:18:12Z</time>
      </trkpt>
      <trkpt lat="48.85053" lon="1.88251">
        <ele>53.01</ele>
        <time>2013-07-27T09:18:13Z</time>
      </trkpt>
      <trkpt lat="48.85061" lon="1.88233">
        <ele>52.53</ele>
        <time>2013-07-27T09:18:14Z</time>
      </trkpt>
      <trkpt lat="48.8515" lon="1.88023">
        <ele>50.61</ele>
        <time>2013-07-27T09:18:25Z</time>
      </trkpt>
      <trkpt lat="48.85226" lon="1.87852">
        <ele>47.72</ele>
        <time>2013-07-27T09:18:37Z</time>
      </trkpt>
      <trkpt lat="48.85229" lon="1.87837">
        <ele>47.72</ele>
        <time>2013-07-27T09:18:38Z</time>
      </trkpt>
      <trkpt lat="48.8523" lon="1.87823">
        <ele>47.72</ele>
        <time>2013-07-27T09:18:39Z</time>
      </trkpt>
      <trkpt lat="48.8523" lon="1.87808">
        <ele>48.2</ele>
        <time>2013-07-27T09:18:40Z</time>
      </trkpt>
      <trkpt lat="48.85228" lon="1.87795">
        <ele>48.2</ele>
        <time>2013-07-27T09:18:41Z</time>
      </trkpt>
      <trkpt lat="48.85226" lon="1.87782">
        <ele>48.2</ele>
        <time>2013-07-27T09:18:42Z</time>
      </trkpt>
      <trkpt lat="48.85224" lon="1.87772">
        <ele>48.68</ele>
        <time>2013-07-27T09:18:43Z</time>
      </trkpt>
      <trkpt lat="48.85223" lon="1.87765">
        <ele>48.68</ele>
        <time>2013-07-27T09:18:44Z</time>
      </trkpt>
      <trkpt lat="48.85222" lon="1.87749">
        <ele>48.68</ele>
        <time>2013-07-27T09:18:45Z</time>
      </trkpt>
      <trkpt lat="48.85223" lon="1.87747">
        <ele>48.68</ele>
        <time>2013-07-27T09:18:46Z</time>
      </trkpt>
      <trkpt lat="48.85224" lon="1.87746">
        <ele>49.16</ele>
        <time>2013-07-27T09:18:47Z</time>
      </trkpt>
      <trkpt lat="48.85225" lon="1.87744">
        <ele>48.68</ele>
        <time>2013-07-27T09:18:48Z</time>
      </trkpt>
      <trkpt lat="48.8526" lon="1.87695">
        <ele>49.16</ele>
        <time>2013-07-27T09:18:55Z</time>
      </trkpt>
      <trkpt lat="48.85292" lon="1.87617">
        <ele>48.68</ele>
        <time>2013-07-27T09:19:02Z</time>
      </trkpt>
      <trkpt lat="48.853" lon="1.87609">
        <ele>48.68</ele>
        <time>2013-07-27T09:19:03Z</time>
      </trkpt>
      <trkpt lat="48.85307" lon="1.87602">
        <ele>48.68</ele>
        <time>2013-07-27T09:19:04Z</time>
      </trkpt>
      <trkpt lat="48.85314" lon="1.87597">
        <ele>48.68</ele>
        <time>2013-07-27T09:19:05Z</time>
      </trkpt>
      <trkpt lat="48.85321" lon="1.87594">
        <ele>48.68</ele>
        <time>2013-07-27T09:19:06Z</time>
      </trkpt>
      <trkpt lat="48.85393" lon="1.87568">
        <ele>49.65</ele>
        <time>2013-07-27T09:19:17Z</time>
      </trkpt>
      <trkpt lat="48.85401" lon="1.87565">
        <ele>49.65</ele>
        <time>2013-07-27T09:19:18Z</time>
      </trkpt>
      <trkpt lat="48.85408" lon="1.87562">
        <ele>49.65</ele>
        <time>2013-07-27T09:19:19Z</time>
      </trkpt>
      <trkpt lat="48.85415" lon="1.87558">
        <ele>50.13</ele>
        <time>2013-07-27T09:19:20Z</time>
      </trkpt>
      <trkpt lat="48.85493" lon="1.87506">
        <ele>50.13</ele>
        <time>2013-07-27T09:19:33Z</time>
      </trkpt>
      <trkpt lat="48.85503" lon="1.87498">
        <ele>50.13</ele>
        <time>2013-07-27T09:19:40Z</time>
      </trkpt>
      <trkpt lat="48.85534" lon="1.87474">
        <ele>49.65</ele>
        <time>2013-07-27T09:19:46Z</time>
      </trkpt>
      <trkpt lat="48.85565" lon="1.87442">
        <ele>50.61</ele>
        <time>2013-07-27T09:19:52Z</time>
      </trkpt>
      <trkpt lat="48.8557" lon="1.87437">
        <ele>50.61</ele>
        <time>2013-07-27T09:19:53Z</time>
      </trkpt>
      <trkpt lat="48.85573" lon="1.87432">
        <ele>50.61</ele>
        <time>2013-07-27T09:19:54Z</time>
      </trkpt>
      <trkpt lat="48.85572" lon="1.87424">
        <ele>50.61</ele>
        <time>2013-07-27T09:19:55Z</time>
      </trkpt>
      <trkpt lat="48.85571" lon="1.87415">
        <ele>50.61</ele>
        <time>2013-07-27T09:19:56Z</time>
      </trkpt>
      <trkpt lat="48.85571" lon="1.87406">
        <ele>50.61</ele>
        <time>2013-07-27T09:19:57Z</time>
      </trkpt>
      <trkpt lat="48.8557" lon="1.87397">
        <ele>50.13</ele>
        <time>2013-07-27T09:19:58Z</time>
      </trkpt>
      <trkpt lat="48.85569" lon="1.87388">
        <ele>50.13</ele>
        <time>2013-07-27T09:19:59Z</time>
      </trkpt>
      <trkpt lat="48.85571" lon="1.8738">
        <ele>49.65</ele>
        <time>2013-07-27T09:20:00Z</time>
      </trkpt>
      <trkpt lat="48.85575" lon="1.87374">
        <ele>49.65</ele>
        <time>2013-07-27T09:20:01Z</time>
      </trkpt>
      <trkpt lat="48.85578" lon="1.87367">
        <ele>49.65</ele>
        <time>2013-07-27T09:20:02Z</time>
      </trkpt>
      <trkpt lat="48.85583" lon="1.87363">
        <ele>49.65</ele>
        <time>2013-07-27T09:20:03Z</time>
      </trkpt>
      <trkpt lat="48.85588" lon="1.87358">
        <ele>49.16</ele>
        <time>2013-07-27T09:20:04Z</time>
      </trkpt>
      <trkpt lat="48.85593" lon="1.87353">
        <ele>49.16</ele>
        <time>2013-07-27T09:20:05Z</time>
      </trkpt>
      <trkpt lat="48.8563" lon="1.87329">
        <ele>49.16</ele>
        <time>2013-07-27T09:20:11Z</time>
      </trkpt>
      <trkpt lat="48.85634" lon="1.87321">
        <ele>48.68</ele>
        <time>2013-07-27T09:20:12Z</time>
      </trkpt>
      <trkpt lat="48.85639" lon="1.87314">
        <ele>48.68</ele>
        <time>2013-07-27T09:20:13Z</time>
      </trkpt>
      <trkpt lat="48.85646" lon="1.873">
        <ele>48.68</ele>
        <time>2013-07-27T09:20:14Z</time>
      </trkpt>
      <trkpt lat="48.85646" lon="1.87297">
        <ele>48.68</ele>
        <time>2013-07-27T09:20:15Z</time>
      </trkpt>
      <trkpt lat="48.85655" lon="1.87254">
        <ele>49.65</ele>
        <time>2013-07-27T09:20:23Z</time>
      </trkpt>
      <trkpt lat="48.85662" lon="1.87227">
        <ele>50.13</ele>
        <time>2013-07-27T09:20:29Z</time>
      </trkpt>
      <trkpt lat="48.85662" lon="1.87218">
        <ele>50.61</ele>
        <time>2013-07-27T09:20:30Z</time>
      </trkpt>
      <trkpt lat="48.85651" lon="1.8712">
        <ele>51.09</ele>
        <time>2013-07-27T09:20:38Z</time>
      </trkpt>
      <trkpt lat="48.8565" lon="1.87111">
        <ele>52.53</ele>
        <time>2013-07-27T09:20:44Z</time>
      </trkpt>
      <trkpt lat="48.85647" lon="1.87013">
        <ele>54.45</ele>
        <time>2013-07-27T09:20:52Z</time>
      </trkpt>
      <trkpt lat="48.85725" lon="1.86879">
        <ele>60.22</ele>
        <time>2013-07-27T09:21:02Z</time>
      </trkpt>
      <trkpt lat="48.85799" lon="1.86667">
        <ele>67.91</ele>
        <time>2013-07-27T09:21:13Z</time>
      </trkpt>
      <trkpt lat="48.85838" lon="1.86494">
        <ele>75.12</ele>
        <time>2013-07-27T09:21:21Z</time>
      </trkpt>
      <trkpt lat="48.85831" lon="1.86232">
        <ele>84.73</ele>
        <time>2013-07-27T09:21:30Z</time>
      </trkpt>
      <trkpt lat="48.85806" lon="1.85985">
        <ele>93.87</ele>
        <time>2013-07-27T09:21:40Z</time>
      </trkpt>
      <trkpt lat="48.85805" lon="1.85961">
        <ele>94.35</ele>
        <time>2013-07-27T09:21:41Z</time>
      </trkpt>
      <trkpt lat="48.85806" lon="1.85936">
        <ele>95.31</ele>
        <time>2013-07-27T09:21:42Z</time>
      </trkpt>
      <trkpt lat="48.85832" lon="1.85674">
        <ele>104.44</ele>
        <time>2013-07-27T09:21:52Z</time>
      </trkpt>
      <trkpt lat="48.85825" lon="1.85459">
        <ele>112.61</ele>
        <time>2013-07-27T09:22:00Z</time>
      </trkpt>
      <trkpt lat="48.85774" lon="1.85228">
        <ele>119.82</ele>
        <time>2013-07-27T09:22:09Z</time>
      </trkpt>
      <trkpt lat="48.85702" lon="1.84987">
        <ele>121.74</ele>
        <time>2013-07-27T09:22:21Z</time>
      </trkpt>
      <trkpt lat="48.85684" lon="1.84908">
        <ele>122.22</ele>
        <time>2013-07-27T09:22:26Z</time>
      </trkpt>
      <trkpt lat="48.85684" lon="1.84891">
        <ele>122.22</ele>
        <time>2013-07-27T09:22:27Z</time>
      </trkpt>
      <trkpt lat="48.85696" lon="1.84718">
        <ele>122.22</ele>
        <time>2013-07-27T09:22:35Z</time>
      </trkpt>
      <trkpt lat="48.85702" lon="1.84483">
        <ele>120.78</ele>
        <time>2013-07-27T09:22:44Z</time>
      </trkpt>
      <trkpt lat="48.85688" lon="1.84216">
        <ele>120.78</ele>
        <time>2013-07-27T09:22:54Z</time>
      </trkpt>
      <trkpt lat="48.85677" lon="1.83953">
        <ele>122.22</ele>
        <time>2013-07-27T09:23:04Z</time>
      </trkpt>
      <trkpt lat="48.85675" lon="1.83739">
        <ele>125.59</ele>
        <time>2013-07-27T09:23:14Z</time>
      </trkpt>
      <trkpt lat="48.85692" lon="1.83545">
        <ele>127.03</ele>
        <time>2013-07-27T09:23:20Z</time>
      </trkpt>
      <trkpt lat="48.85724" lon="1.83261">
        <ele>126.55</ele>
        <time>2013-07-27T09:23:27Z</time>
      </trkpt>
      <trkpt lat="48.85749" lon="1.83045">
        <ele>128.95</ele>
        <time>2013-07-27T09:23:34Z</time>
      </trkpt>
      <trkpt lat="48.8576" lon="1.82921">
        <ele>131.84</ele>
        <time>2013-07-27T09:23:40Z</time>
      </trkpt>
      <trkpt lat="48.85784" lon="1.82807">
        <ele>134.24</ele>
        <time>2013-07-27T09:23:49Z</time>
      </trkpt>
      <trkpt lat="48.85821" lon="1.82654">
        <ele>134.72</ele>
        <time>2013-07-27T09:23:58Z</time>
      </trkpt>
      <trkpt lat="48.85822" lon="1.82625">
        <ele>134.24</ele>
        <time>2013-07-27T09:24:00Z</time>
      </trkpt>
      <trkpt lat="48.85822" lon="1.82609">
        <ele>134.24</ele>
        <time>2013-07-27T09:24:01Z</time>
      </trkpt>
      <trkpt lat="48.85822" lon="1.82505">
        <ele>133.76</ele>
        <time>2013-07-27T09:24:09Z</time>
      </trkpt>
      <trkpt lat="48.85822" lon="1.82505">
        <ele>133.76</ele>
        <time>2013-07-27T09:24:10Z</time>
      </trkpt>
      <trkpt lat="48.85818" lon="1.82498">
        <ele>133.76</ele>
        <time>2013-07-27T09:24:11Z</time>
      </trkpt>
      <trkpt lat="48.85814" lon="1.82495">
        <ele>133.76</ele>
        <time>2013-07-27T09:24:12Z</time>
      </trkpt>
      <trkpt lat="48.85806" lon="1.82489">
        <ele>133.28</ele>
        <time>2013-07-27T09:24:13Z</time>
      </trkpt>
      <trkpt lat="48.85799" lon="1.82483">
        <ele>133.28</ele>
        <time>2013-07-27T09:24:14Z</time>
      </trkpt>
      <trkpt lat="48.85763" lon="1.82458">
        <ele>133.28</ele>
        <time>2013-07-27T09:24:18Z</time>
      </trkpt>
      <trkpt lat="48.85751" lon="1.82453">
        <ele>133.28</ele>
        <time>2013-07-27T09:24:19Z</time>
      </trkpt>
      <trkpt lat="48.85739" lon="1.82447">
        <ele>133.28</ele>
        <time>2013-07-27T09:24:20Z</time>
      </trkpt>
      <trkpt lat="48.85631" lon="1.82446">
        <ele>134.72</ele>
        <time>2013-07-27T09:24:28Z</time>
      </trkpt>
      <trkpt lat="48.85516" lon="1.82439">
        <ele>138.57</ele>
        <time>2013-07-27T09:24:38Z</time>
      </trkpt>
      <trkpt lat="48.85414" lon="1.82437">
        <ele>141.93</ele>
        <time>2013-07-27T09:24:45Z</time>
      </trkpt>
      <trkpt lat="48.85244" lon="1.82448">
        <ele>144.34</ele>
        <time>2013-07-27T09:24:54Z</time>
      </trkpt>
      <trkpt lat="48.85126" lon="1.82472">
        <ele>144.82</ele>
        <time>2013-07-27T09:25:01Z</time>
      </trkpt>
      <trkpt lat="48.85053" lon="1.82502">
        <ele>143.85</ele>
        <time>2013-07-27T09:25:08Z</time>
      </trkpt>
      <trkpt lat="48.85049" lon="1.82504">
        <ele>143.85</ele>
        <time>2013-07-27T09:25:09Z</time>
      </trkpt>
      <trkpt lat="48.85045" lon="1.82494">
        <ele>143.85</ele>
        <time>2013-07-27T09:25:10Z</time>
      </trkpt>
      <trkpt lat="48.85041" lon="1.82485">
        <ele>143.37</ele>
        <time>2013-07-27T09:25:11Z</time>
      </trkpt>
      <trkpt lat="48.85041" lon="1.82485">
        <ele>143.37</ele>
        <time>2013-07-27T09:25:12Z</time>
      </trkpt>
      <trkpt lat="48.85043" lon="1.82477">
        <ele>143.37</ele>
        <time>2013-07-27T09:25:13Z</time>
      </trkpt>
      <trkpt lat="48.85048" lon="1.82463">
        <ele>143.37</ele>
        <time>2013-07-27T09:25:14Z</time>
      </trkpt>
      <trkpt lat="48.85054" lon="1.82447">
        <ele>143.37</ele>
        <time>2013-07-27T09:25:15Z</time>
      </trkpt>
      <trkpt lat="48.85085" lon="1.82302">
        <ele>145.78</ele>
        <time>2013-07-27T09:25:21Z</time>
      </trkpt>
      <trkpt lat="48.85092" lon="1.82089">
        <ele>152.51</ele>
        <time>2013-07-27T09:25:27Z</time>
      </trkpt>
      <trkpt lat="48.85117" lon="1.81871">
        <ele>159.72</ele>
        <time>2013-07-27T09:25:33Z</time>
      </trkpt>
      <trkpt lat="48.8514" lon="1.81808">
        <ele>162.12</ele>
        <time>2013-07-27T09:25:35Z</time>
      </trkpt>
      <trkpt lat="48.85151" lon="1.81778">
        <ele>163.56</ele>
        <time>2013-07-27T09:25:36Z</time>
      </trkpt>
      <trkpt lat="48.85163" lon="1.81748">
        <ele>164.52</ele>
        <time>2013-07-27T09:25:37Z</time>
      </trkpt>
      <trkpt lat="48.85178" lon="1.8172">
        <ele>165.96</ele>
        <time>2013-07-27T09:25:38Z</time>
      </trkpt>
      <trkpt lat="48.85194" lon="1.81696">
        <ele>166.93</ele>
        <time>2013-07-27T09:25:39Z</time>
      </trkpt>
      <trkpt lat="48.8521" lon="1.81671">
        <ele>167.89</ele>
        <time>2013-07-27T09:25:40Z</time>
      </trkpt>
      <trkpt lat="48.85424" lon="1.81376">
        <ele>175.58</ele>
        <time>2013-07-27T09:25:53Z</time>
      </trkpt>
      <trkpt lat="48.85573" lon="1.81177">
        <ele>178.94</ele>
        <time>2013-07-27T09:26:01Z</time>
      </trkpt>
      <trkpt lat="48.85773" lon="1.80905">
        <ele>181.83</ele>
        <time>2013-07-27T09:26:11Z</time>
      </trkpt>
      <trkpt lat="48.85971" lon="1.80631">
        <ele>183.75</ele>
        <time>2013-07-27T09:26:21Z</time>
      </trkpt>
      <trkpt lat="48.86163" lon="1.80368">
        <ele>184.23</ele>
        <time>2013-07-27T09:26:31Z</time>
      </trkpt>
      <trkpt lat="48.86321" lon="1.80162">
        <ele>180.87</ele>
        <time>2013-07-27T09:26:40Z</time>
      </trkpt>
      <trkpt lat="48.86443" lon="1.80008">
        <ele>165.48</ele>
        <time>2013-07-27T09:26:49Z</time>
      </trkpt>
      <trkpt lat="48.86529" lon="1.79892">
        <ele>161.16</ele>
        <time>2013-07-27T09:26:57Z</time>
      </trkpt>
      <trkpt lat="48.86577" lon="1.79798">
        <ele>159.24</ele>
        <time>2013-07-27T09:27:04Z</time>
      </trkpt>
      <trkpt lat="48.86581" lon="1.79782">
        <ele>159.24</ele>
        <time>2013-07-27T09:27:05Z</time>
      </trkpt>
      <trkpt lat="48.86584" lon="1.79767">
        <ele>159.24</ele>
        <time>2013-07-27T09:27:06Z</time>
      </trkpt>
      <trkpt lat="48.8659" lon="1.79742">
        <ele>159.24</ele>
        <time>2013-07-27T09:27:07Z</time>
      </trkpt>
      <trkpt lat="48.8659" lon="1.79739">
        <ele>158.75</ele>
        <time>2013-07-27T09:27:08Z</time>
      </trkpt>
      <trkpt lat="48.86589" lon="1.79725">
        <ele>158.27</ele>
        <time>2013-07-27T09:27:09Z</time>
      </trkpt>
      <trkpt lat="48.86588" lon="1.7971">
        <ele>158.27</ele>
        <time>2013-07-27T09:27:10Z</time>
      </trkpt>
      <trkpt lat="48.86587" lon="1.79695">
        <ele>157.79</ele>
        <time>2013-07-27T09:27:11Z</time>
      </trkpt>
      <trkpt lat="48.86573" lon="1.7961">
        <ele>157.31</ele>
        <time>2013-07-27T09:27:19Z</time>
      </trkpt>
      <trkpt lat="48.8657" lon="1.79602">
        <ele>157.31</ele>
        <time>2013-07-27T09:27:20Z</time>
      </trkpt>
      <trkpt lat="48.86568" lon="1.79595">
        <ele>157.31</ele>
        <time>2013-07-27T09:27:21Z</time>
      </trkpt>
      <trkpt lat="48.8653" lon="1.79509">
        <ele>158.75</ele>
        <time>2013-07-27T09:27:31Z</time>
      </trkpt>
      <trkpt lat="48.86522" lon="1.7948">
        <ele>159.72</ele>
        <time>2013-07-27T09:27:34Z</time>
      </trkpt>
      <trkpt lat="48.86521" lon="1.79471">
        <ele>159.72</ele>
        <time>2013-07-27T09:27:35Z</time>
      </trkpt>
      <trkpt lat="48.86519" lon="1.79462">
        <ele>159.72</ele>
        <time>2013-07-27T09:27:36Z</time>
      </trkpt>
      <trkpt lat="48.86493" lon="1.79354">
        <ele>158.27</ele>
        <time>2013-07-27T09:27:48Z</time>
      </trkpt>
      <trkpt lat="48.8649" lon="1.79342">
        <ele>158.27</ele>
        <time>2013-07-27T09:27:50Z</time>
      </trkpt>
      <trkpt lat="48.86474" lon="1.79253">
        <ele>155.87</ele>
        <time>2013-07-27T09:27:58Z</time>
      </trkpt>
      <trkpt lat="48.86475" lon="1.79244">
        <ele>155.87</ele>
        <time>2013-07-27T09:27:59Z</time>
      </trkpt>
      <trkpt lat="48.86476" lon="1.7923">
        <ele>155.39</ele>
        <time>2013-07-27T09:28:00Z</time>
      </trkpt>
      <trkpt lat="48.86478" lon="1.79216">
        <ele>155.39</ele>
        <time>2013-07-27T09:28:01Z</time>
      </trkpt>
      <trkpt lat="48.86479" lon="1.79202">
        <ele>154.91</ele>
        <time>2013-07-27T09:28:02Z</time>
      </trkpt>
      <trkpt lat="48.86519" lon="1.79067">
        <ele>155.87</ele>
        <time>2013-07-27T09:28:10Z</time>
      </trkpt>
      <trkpt lat="48.8653" lon="1.79028">
        <ele>157.31</ele>
        <time>2013-07-27T09:28:12Z</time>
      </trkpt>
      <trkpt lat="48.86536" lon="1.7901">
        <ele>157.79</ele>
        <time>2013-07-27T09:28:13Z</time>
      </trkpt>
      <trkpt lat="48.86546" lon="1.78955">
        <ele>160.2</ele>
        <time>2013-07-27T09:28:16Z</time>
      </trkpt>
      <trkpt lat="48.86551" lon="1.78938">
        <ele>161.16</ele>
        <time>2013-07-27T09:28:17Z</time>
      </trkpt>
      <trkpt lat="48.8656" lon="1.78914">
        <ele>162.12</ele>
        <time>2013-07-27T09:28:18Z</time>
      </trkpt>
      <trkpt lat="48.86637" lon="1.78732">
        <ele>168.85</ele>
        <time>2013-07-27T09:28:28Z</time>
      </trkpt>
      <trkpt lat="48.86738" lon="1.78477">
        <ele>171.25</ele>
        <time>2013-07-27T09:28:39Z</time>
      </trkpt>
      <trkpt lat="48.86838" lon="1.78238">
        <ele>171.73</ele>
        <time>2013-07-27T09:28:49Z</time>
      </trkpt>
      <trkpt lat="48.86953" lon="1.77948">
        <ele>165.48</ele>
        <time>2013-07-27T09:29:01Z</time>
      </trkpt>
      <trkpt lat="48.87013" lon="1.77697">
        <ele>154.43</ele>
        <time>2013-07-27T09:29:10Z</time>
      </trkpt>
      <trkpt lat="48.87107" lon="1.77291">
        <ele>146.74</ele>
        <time>2013-07-27T09:29:22Z</time>
      </trkpt>
      <trkpt lat="48.87213" lon="1.76832">
        <ele>150.58</ele>
        <time>2013-07-27T09:29:35Z</time>
      </trkpt>
      <trkpt lat="48.87271" lon="1.766">
        <ele>157.79</ele>
        <time>2013-07-27T09:29:43Z</time>
      </trkpt>
      <trkpt lat="48.87364" lon="1.76257">
        <ele>165.96</ele>
        <time>2013-07-27T09:29:56Z</time>
      </trkpt>
      <trkpt lat="48.87408" lon="1.76125">
        <ele>168.85</ele>
        <time>2013-07-27T09:30:02Z</time>
      </trkpt>
      <trkpt lat="48.87419" lon="1.76106">
        <ele>169.81</ele>
        <time>2013-07-27T09:30:03Z</time>
      </trkpt>
      <trkpt lat="48.87518" lon="1.75912">
        <ele>174.62</ele>
        <time>2013-07-27T09:30:12Z</time>
      </trkpt>
      <trkpt lat="48.87637" lon="1.75653">
        <ele>177.98</ele>
        <time>2013-07-27T09:30:21Z</time>
      </trkpt>
      <trkpt lat="48.87709" lon="1.75445">
        <ele>179.9</ele>
        <time>2013-07-27T09:30:27Z</time>
      </trkpt>
      <trkpt lat="48.87816" lon="1.75188">
        <ele>180.87</ele>
        <time>2013-07-27T09:30:35Z</time>
      </trkpt>
      <trkpt lat="48.87903" lon="1.74954">
        <ele>180.87</ele>
        <time>2013-07-27T09:30:42Z</time>
      </trkpt>
      <trkpt lat="48.88013" lon="1.74668">
        <ele>181.35</ele>
        <time>2013-07-27T09:30:50Z</time>
      </trkpt>
      <trkpt lat="48.88033" lon="1.74639">
        <ele>181.35</ele>
        <time>2013-07-27T09:30:51Z</time>
      </trkpt>
      <trkpt lat="48.88168" lon="1.74438">
        <ele>181.35</ele>
        <time>2013-07-27T09:30:57Z</time>
      </trkpt>
      <trkpt lat="48.88262" lon="1.74282">
        <ele>180.38</ele>
        <time>2013-07-27T09:31:02Z</time>
      </trkpt>
      <trkpt lat="48.88334" lon="1.74089">
        <ele>179.9</ele>
        <time>2013-07-27T09:31:08Z</time>
      </trkpt>
      <trkpt lat="48.88475" lon="1.73766">
        <ele>178.94</ele>
        <time>2013-07-27T09:31:19Z</time>
      </trkpt>
      <trkpt lat="48.88594" lon="1.73492">
        <ele>177.02</ele>
        <time>2013-07-27T09:31:28Z</time>
      </trkpt>
      <trkpt lat="48.88707" lon="1.73156">
        <ele>175.58</ele>
        <time>2013-07-27T09:31:37Z</time>
      </trkpt>
      <trkpt lat="48.88817" lon="1.72815">
        <ele>174.62</ele>
        <time>2013-07-27T09:31:46Z</time>
      </trkpt>
      <trkpt lat="48.88902" lon="1.72452">
        <ele>172.69</ele>
        <time>2013-07-27T09:31:55Z</time>
      </trkpt>
      <trkpt lat="48.8897" lon="1.72163">
        <ele>170.29</ele>
        <time>2013-07-27T09:32:03Z</time>
      </trkpt>
      <trkpt lat="48.89062" lon="1.7175">
        <ele>166.93</ele>
        <time>2013-07-27T09:32:15Z</time>
      </trkpt>
      <trkpt lat="48.89146" lon="1.7138">
        <ele>166.93</ele>
        <time>2013-07-27T09:32:25Z</time>
      </trkpt>
      <trkpt lat="48.89209" lon="1.7111">
        <ele>164.52</ele>
        <time>2013-07-27T09:32:31Z</time>
      </trkpt>
      <trkpt lat="48.89254" lon="1.70885">
        <ele>159.24</ele>
        <time>2013-07-27T09:32:37Z</time>
      </trkpt>
      <trkpt lat="48.89254" lon="1.70851">
        <ele>158.75</ele>
        <time>2013-07-27T09:32:38Z</time>
      </trkpt>
      <trkpt lat="48.89252" lon="1.70816">
        <ele>158.27</ele>
        <time>2013-07-27T09:32:39Z</time>
      </trkpt>
      <trkpt lat="48.89249" lon="1.7078">
        <ele>157.79</ele>
        <time>2013-07-27T09:32:40Z</time>
      </trkpt>
      <trkpt lat="48.89228" lon="1.70406">
        <ele>143.37</ele>
        <time>2013-07-27T09:32:49Z</time>
      </trkpt>
      <trkpt lat="48.89202" lon="1.69971">
        <ele>137.13</ele>
        <time>2013-07-27T09:32:59Z</time>
      </trkpt>
      <trkpt lat="48.89157" lon="1.69254">
        <ele>127.51</ele>
        <time>2013-07-27T09:33:17Z</time>
      </trkpt>
      <trkpt lat="48.89152" lon="1.69219">
        <ele>126.55</ele>
        <time>2013-07-27T09:33:18Z</time>
      </trkpt>
      <trkpt lat="48.89118" lon="1.69054">
        <ele>122.22</ele>
        <time>2013-07-27T09:33:24Z</time>
      </trkpt>
      <trkpt lat="48.8909" lon="1.68925">
        <ele>116.94</ele>
        <time>2013-07-27T09:33:31Z</time>
      </trkpt>
      <trkpt lat="48.89018" lon="1.68614">
        <ele>107.81</ele>
        <time>2013-07-27T09:33:49Z</time>
      </trkpt>
      <trkpt lat="48.88965" lon="1.68371">
        <ele>95.79</ele>
        <time>2013-07-27T09:34:02Z</time>
      </trkpt>
      <trkpt lat="48.88964" lon="1.68357">
        <ele>94.83</ele>
        <time>2013-07-27T09:34:03Z</time>
      </trkpt>
      <trkpt lat="48.88967" lon="1.68342">
        <ele>93.87</ele>
        <time>2013-07-27T09:34:04Z</time>
      </trkpt>
      <trkpt lat="48.8897" lon="1.68326">
        <ele>92.42</ele>
        <time>2013-07-27T09:34:05Z</time>
      </trkpt>
      <trkpt lat="48.88975" lon="1.68313">
        <ele>91.46</ele>
        <time>2013-07-27T09:34:06Z</time>
      </trkpt>
      <trkpt lat="48.88982" lon="1.68302">
        <ele>90.5</ele>
        <time>2013-07-27T09:34:07Z</time>
      </trkpt>
      <trkpt lat="48.88991" lon="1.68291">
        <ele>89.54</ele>
        <time>2013-07-27T09:34:08Z</time>
      </trkpt>
      <trkpt lat="48.89" lon="1.6828">
        <ele>88.58</ele>
        <time>2013-07-27T09:34:09Z</time>
      </trkpt>
      <trkpt lat="48.89133" lon="1.68123">
        <ele>72.24</ele>
        <time>2013-07-27T09:34:24Z</time>
      </trkpt>
      <trkpt lat="48.89151" lon="1.68111">
        <ele>70.31</ele>
        <time>2013-07-27T09:34:26Z</time>
      </trkpt>
      <trkpt lat="48.89221" lon="1.68076">
        <ele>62.14</ele>
        <time>2013-07-27T09:34:36Z</time>
      </trkpt>
      <trkpt lat="48.89267" lon="1.68056">
        <ele>56.86</ele>
        <time>2013-07-27T09:34:46Z</time>
      </trkpt>
      <trkpt lat="48.89281" lon="1.68061">
        <ele>56.37</ele>
        <time>2013-07-27T09:34:50Z</time>
      </trkpt>
      <trkpt lat="48.89281" lon="1.68061">
        <ele>58.78</ele>
        <time>2013-07-27T09:34:51Z</time>
      </trkpt>
      <trkpt lat="48.89288" lon="1.68068">
        <ele>59.74</ele>
        <time>2013-07-27T09:34:53Z</time>
      </trkpt>
      <trkpt lat="48.89291" lon="1.68069">
        <ele>59.74</ele>
        <time>2013-07-27T09:34:54Z</time>
      </trkpt>
      <trkpt lat="48.89295" lon="1.68069">
        <ele>60.22</ele>
        <time>2013-07-27T09:34:55Z</time>
      </trkpt>
      <trkpt lat="48.893" lon="1.68069">
        <ele>60.22</ele>
        <time>2013-07-27T09:34:56Z</time>
      </trkpt>
      <trkpt lat="48.89305" lon="1.68069">
        <ele>60.7</ele>
        <time>2013-07-27T09:34:57Z</time>
      </trkpt>
      <trkpt lat="48.8931" lon="1.68069">
        <ele>60.7</ele>
        <time>2013-07-27T09:34:58Z</time>
      </trkpt>
      <trkpt lat="48.89317" lon="1.68069">
        <ele>61.18</ele>
        <time>2013-07-27T09:34:59Z</time>
      </trkpt>
      <trkpt lat="48.89325" lon="1.68069">
        <ele>61.18</ele>
        <time>2013-07-27T09:35:00Z</time>
      </trkpt>
      <trkpt lat="48.89332" lon="1.68068">
        <ele>61.66</ele>
        <time>2013-07-27T09:35:01Z</time>
      </trkpt>
      <trkpt lat="48.89345" lon="1.68065">
        <ele>62.14</ele>
        <time>2013-07-27T09:35:02Z</time>
      </trkpt>
      <trkpt lat="48.89347" lon="1.68064">
        <ele>62.14</ele>
        <time>2013-07-27T09:35:03Z</time>
      </trkpt>
      <trkpt lat="48.8941" lon="1.68031">
        <ele>64.07</ele>
        <time>2013-07-27T09:35:10Z</time>
      </trkpt>
      <trkpt lat="48.89418" lon="1.68031">
        <ele>64.55</ele>
        <time>2013-07-27T09:35:11Z</time>
      </trkpt>
      <trkpt lat="48.89464" lon="1.68035">
        <ele>65.99</ele>
        <time>2013-07-27T09:35:16Z</time>
      </trkpt>
      <trkpt lat="48.89473" lon="1.68039">
        <ele>65.99</ele>
        <time>2013-07-27T09:35:17Z</time>
      </trkpt>
      <trkpt lat="48.89481" lon="1.68044">
        <ele>66.47</ele>
        <time>2013-07-27T09:35:18Z</time>
      </trkpt>
      <trkpt lat="48.89512" lon="1.68061">
        <ele>69.35</ele>
        <time>2013-07-27T09:35:22Z</time>
      </trkpt>
      <trkpt lat="48.89521" lon="1.68065">
        <ele>69.83</ele>
        <time>2013-07-27T09:35:23Z</time>
      </trkpt>
      <trkpt lat="48.89524" lon="1.68062">
        <ele>70.79</ele>
        <time>2013-07-27T09:35:24Z</time>
      </trkpt>
      <trkpt lat="48.89531" lon="1.68055">
        <ele>71.27</ele>
        <time>2013-07-27T09:35:25Z</time>
      </trkpt>
      <trkpt lat="48.89543" lon="1.68044">
        <ele>71.76</ele>
        <time>2013-07-27T09:35:26Z</time>
      </trkpt>
      <trkpt lat="48.89545" lon="1.6804">
        <ele>72.24</ele>
        <time>2013-07-27T09:35:27Z</time>
      </trkpt>
      <trkpt lat="48.89645" lon="1.6791">
        <ele>79.45</ele>
        <time>2013-07-27T09:35:39Z</time>
      </trkpt>
      <trkpt lat="48.8976" lon="1.67765">
        <ele>79.45</ele>
        <time>2013-07-27T09:35:51Z</time>
      </trkpt>
      <trkpt lat="48.89856" lon="1.67631">
        <ele>77.52</ele>
        <time>2013-07-27T09:36:00Z</time>
      </trkpt>
      <trkpt lat="48.89975" lon="1.67512">
        <ele>76.56</ele>
        <time>2013-07-27T09:36:08Z</time>
      </trkpt>
      <trkpt lat="48.90032" lon="1.6746">
        <ele>74.64</ele>
        <time>2013-07-27T09:36:13Z</time>
      </trkpt>
      <trkpt lat="48.90032" lon="1.67454">
        <ele>74.64</ele>
        <time>2013-07-27T09:36:14Z</time>
      </trkpt>
      <trkpt lat="48.90032" lon="1.67443">
        <ele>74.16</ele>
        <time>2013-07-27T09:36:15Z</time>
      </trkpt>
      <trkpt lat="48.90031" lon="1.67433">
        <ele>73.2</ele>
        <time>2013-07-27T09:36:16Z</time>
      </trkpt>
      <trkpt lat="48.90031" lon="1.67419">
        <ele>72.72</ele>
        <time>2013-07-27T09:36:17Z</time>
      </trkpt>
      <trkpt lat="48.9003" lon="1.67402">
        <ele>72.24</ele>
        <time>2013-07-27T09:36:18Z</time>
      </trkpt>
      <trkpt lat="48.9003" lon="1.67384">
        <ele>71.76</ele>
        <time>2013-07-27T09:36:19Z</time>
      </trkpt>
      <trkpt lat="48.90021" lon="1.67256">
        <ele>64.55</ele>
        <time>2013-07-27T09:36:26Z</time>
      </trkpt>
      <trkpt lat="48.9001" lon="1.67203">
        <ele>59.26</ele>
        <time>2013-07-27T09:36:33Z</time>
      </trkpt>
      <trkpt lat="48.90007" lon="1.67194">
        <ele>58.3</ele>
        <time>2013-07-27T09:36:38Z</time>
      </trkpt>
      <trkpt lat="48.90005" lon="1.67185">
        <ele>58.3</ele>
        <time>2013-07-27T09:36:39Z</time>
      </trkpt>
      <trkpt lat="48.90004" lon="1.67175">
        <ele>58.3</ele>
        <time>2013-07-27T09:36:40Z</time>
      </trkpt>
      <trkpt lat="48.89999" lon="1.67144">
        <ele>58.3</ele>
        <time>2013-07-27T09:36:43Z</time>
      </trkpt>
      <trkpt lat="48.89972" lon="1.66986">
        <ele>56.86</ele>
        <time>2013-07-27T09:36:53Z</time>
      </trkpt>
      <trkpt lat="48.89946" lon="1.66833">
        <ele>58.78</ele>
        <time>2013-07-27T09:36:59Z</time>
      </trkpt>
      <trkpt lat="48.89937" lon="1.6681">
        <ele>59.26</ele>
        <time>2013-07-27T09:37:00Z</time>
      </trkpt>
      <trkpt lat="48.89927" lon="1.66786">
        <ele>60.22</ele>
        <time>2013-07-27T09:37:01Z</time>
      </trkpt>
      <trkpt lat="48.89916" lon="1.6676">
        <ele>60.7</ele>
        <time>2013-07-27T09:37:02Z</time>
      </trkpt>
      <trkpt lat="48.89904" lon="1.66734">
        <ele>61.18</ele>
        <time>2013-07-27T09:37:03Z</time>
      </trkpt>
      <trkpt lat="48.89889" lon="1.66709">
        <ele>61.66</ele>
        <time>2013-07-27T09:37:04Z</time>
      </trkpt>
      <trkpt lat="48.89804" lon="1.66576">
        <ele>67.91</ele>
        <time>2013-07-27T09:37:09Z</time>
      </trkpt>
      <trkpt lat="48.89766" lon="1.66505">
        <ele>70.79</ele>
        <time>2013-07-27T09:37:12Z</time>
      </trkpt>
      <trkpt lat="48.89757" lon="1.6648">
        <ele>72.24</ele>
        <time>2013-07-27T09:37:13Z</time>
      </trkpt>
      <trkpt lat="48.89692" lon="1.66332">
        <ele>78.97</ele>
        <time>2013-07-27T09:37:19Z</time>
      </trkpt>
      <trkpt lat="48.89569" lon="1.6609">
        <ele>88.1</ele>
        <time>2013-07-27T09:37:29Z</time>
      </trkpt>
      <trkpt lat="48.89511" lon="1.65914">
        <ele>88.58</ele>
        <time>2013-07-27T09:37:36Z</time>
      </trkpt>
      <trkpt lat="48.89497" lon="1.65774">
        <ele>86.66</ele>
        <time>2013-07-27T09:37:41Z</time>
      </trkpt>
      <trkpt lat="48.89487" lon="1.65487">
        <ele>84.25</ele>
        <time>2013-07-27T09:37:51Z</time>
      </trkpt>
      <trkpt lat="48.89476" lon="1.65428">
        <ele>83.77</ele>
        <time>2013-07-27T09:37:53Z</time>
      </trkpt>
      <trkpt lat="48.89466" lon="1.65398">
        <ele>83.29</ele>
        <time>2013-07-27T09:37:54Z</time>
      </trkpt>
      <trkpt lat="48.89374" lon="1.6516">
        <ele>78.97</ele>
        <time>2013-07-27T09:38:02Z</time>
      </trkpt>
      <trkpt lat="48.89365" lon="1.65132">
        <ele>78</ele>
        <time>2013-07-27T09:38:03Z</time>
      </trkpt>
      <trkpt lat="48.89361" lon="1.65102">
        <ele>77.04</ele>
        <time>2013-07-27T09:38:04Z</time>
      </trkpt>
      <trkpt lat="48.89356" lon="1.6507">
        <ele>76.56</ele>
        <time>2013-07-27T09:38:05Z</time>
      </trkpt>
      <trkpt lat="48.89339" lon="1.64973">
        <ele>73.2</ele>
        <time>2013-07-27T09:38:08Z</time>
      </trkpt>
      <trkpt lat="48.89331" lon="1.64942">
        <ele>72.24</ele>
        <time>2013-07-27T09:38:09Z</time>
      </trkpt>
      <trkpt lat="48.89309" lon="1.64826">
        <ele>67.91</ele>
        <time>2013-07-27T09:38:13Z</time>
      </trkpt>
      <trkpt lat="48.89307" lon="1.64796">
        <ele>66.47</ele>
        <time>2013-07-27T09:38:14Z</time>
      </trkpt>
      <trkpt lat="48.89305" lon="1.64766">
        <ele>65.51</ele>
        <time>2013-07-27T09:38:15Z</time>
      </trkpt>
      <trkpt lat="48.89298" lon="1.64491">
        <ele>60.7</ele>
        <time>2013-07-27T09:38:23Z</time>
      </trkpt>
      <trkpt lat="48.89324" lon="1.64209">
        <ele>72.24</ele>
        <time>2013-07-27T09:38:31Z</time>
      </trkpt>
      <trkpt lat="48.89328" lon="1.64145">
        <ele>75.6</ele>
        <time>2013-07-27T09:38:33Z</time>
      </trkpt>
      <trkpt lat="48.89334" lon="1.64116">
        <ele>77.04</ele>
        <time>2013-07-27T09:38:34Z</time>
      </trkpt>
      <trkpt lat="48.89364" lon="1.63964">
        <ele>85.69</ele>
        <time>2013-07-27T09:38:39Z</time>
      </trkpt>
      <trkpt lat="48.89374" lon="1.6394">
        <ele>86.66</ele>
        <time>2013-07-27T09:38:40Z</time>
      </trkpt>
      <trkpt lat="48.89386" lon="1.63919">
        <ele>87.62</ele>
        <time>2013-07-27T09:38:41Z</time>
      </trkpt>
      <trkpt lat="48.894" lon="1.63901">
        <ele>88.58</ele>
        <time>2013-07-27T09:38:42Z</time>
      </trkpt>
      <trkpt lat="48.89414" lon="1.63885">
        <ele>89.06</ele>
        <time>2013-07-27T09:38:43Z</time>
      </trkpt>
      <trkpt lat="48.89473" lon="1.63806">
        <ele>93.87</ele>
        <time>2013-07-27T09:38:47Z</time>
      </trkpt>
      <trkpt lat="48.89487" lon="1.63783">
        <ele>95.31</ele>
        <time>2013-07-27T09:38:48Z</time>
      </trkpt>
      <trkpt lat="48.89496" lon="1.63757">
        <ele>96.75</ele>
        <time>2013-07-27T09:38:49Z</time>
      </trkpt>
      <trkpt lat="48.89506" lon="1.63729">
        <ele>97.71</ele>
        <time>2013-07-27T09:38:50Z</time>
      </trkpt>
      <trkpt lat="48.89516" lon="1.637">
        <ele>99.15</ele>
        <time>2013-07-27T09:38:51Z</time>
      </trkpt>
      <trkpt lat="48.89526" lon="1.63672">
        <ele>100.11</ele>
        <time>2013-07-27T09:38:52Z</time>
      </trkpt>
      <trkpt lat="48.89534" lon="1.6364">
        <ele>101.08</ele>
        <time>2013-07-27T09:38:53Z</time>
      </trkpt>
      <trkpt lat="48.89598" lon="1.63386">
        <ele>106.36</ele>
        <time>2013-07-27T09:39:01Z</time>
      </trkpt>
      <trkpt lat="48.89612" lon="1.63364">
        <ele>106.84</ele>
        <time>2013-07-27T09:39:02Z</time>
      </trkpt>
      <trkpt lat="48.89626" lon="1.63342">
        <ele>107.32</ele>
        <time>2013-07-27T09:39:03Z</time>
      </trkpt>
      <trkpt lat="48.8967" lon="1.63279">
        <ele>108.77</ele>
        <time>2013-07-27T09:39:06Z</time>
      </trkpt>
      <trkpt lat="48.89683" lon="1.63253">
        <ele>109.25</ele>
        <time>2013-07-27T09:39:07Z</time>
      </trkpt>
      <trkpt lat="48.89695" lon="1.63226">
        <ele>109.73</ele>
        <time>2013-07-27T09:39:08Z</time>
      </trkpt>
      <trkpt lat="48.89702" lon="1.63194">
        <ele>110.21</ele>
        <time>2013-07-27T09:39:09Z</time>
      </trkpt>
      <trkpt lat="48.89711" lon="1.63161">
        <ele>110.69</ele>
        <time>2013-07-27T09:39:10Z</time>
      </trkpt>
      <trkpt lat="48.89777" lon="1.62883">
        <ele>113.57</ele>
        <time>2013-07-27T09:39:18Z</time>
      </trkpt>
      <trkpt lat="48.89789" lon="1.62852">
        <ele>113.57</ele>
        <time>2013-07-27T09:39:19Z</time>
      </trkpt>
      <trkpt lat="48.89805" lon="1.62827">
        <ele>113.57</ele>
        <time>2013-07-27T09:39:20Z</time>
      </trkpt>
      <trkpt lat="48.89821" lon="1.62801">
        <ele>113.57</ele>
        <time>2013-07-27T09:39:21Z</time>
      </trkpt>
      <trkpt lat="48.89837" lon="1.62775">
        <ele>114.05</ele>
        <time>2013-07-27T09:39:22Z</time>
      </trkpt>
      <trkpt lat="48.89967" lon="1.62556">
        <ele>114.05</ele>
        <time>2013-07-27T09:39:31Z</time>
      </trkpt>
      <trkpt lat="48.90053" lon="1.62385">
        <ele>115.01</ele>
        <time>2013-07-27T09:39:40Z</time>
      </trkpt>
      <trkpt lat="48.90122" lon="1.62259">
        <ele>117.42</ele>
        <time>2013-07-27T09:39:49Z</time>
      </trkpt>
      <trkpt lat="48.90177" lon="1.62155">
        <ele>121.74</ele>
        <time>2013-07-27T09:39:58Z</time>
      </trkpt>
      <trkpt lat="48.90239" lon="1.62002">
        <ele>127.51</ele>
        <time>2013-07-27T09:40:08Z</time>
      </trkpt>
      <trkpt lat="48.90278" lon="1.61908">
        <ele>131.36</ele>
        <time>2013-07-27T09:40:17Z</time>
      </trkpt>
      <trkpt lat="48.90281" lon="1.61903">
        <ele>131.84</ele>
        <time>2013-07-27T09:40:18Z</time>
      </trkpt>
      <trkpt lat="48.90281" lon="1.61897">
        <ele>132.32</ele>
        <time>2013-07-27T09:40:19Z</time>
      </trkpt>
      <trkpt lat="48.90282" lon="1.6189">
        <ele>132.32</ele>
        <time>2013-07-27T09:40:20Z</time>
      </trkpt>
      <trkpt lat="48.90306" lon="1.61814">
        <ele>133.28</ele>
        <time>2013-07-27T09:40:28Z</time>
      </trkpt>
      <trkpt lat="48.90311" lon="1.6181">
        <ele>133.28</ele>
        <time>2013-07-27T09:40:29Z</time>
      </trkpt>
      <trkpt lat="48.90317" lon="1.61807">
        <ele>133.28</ele>
        <time>2013-07-27T09:40:30Z</time>
      </trkpt>
      <trkpt lat="48.90322" lon="1.61805">
        <ele>133.28</ele>
        <time>2013-07-27T09:40:31Z</time>
      </trkpt>
      <trkpt lat="48.90324" lon="1.61803">
        <ele>133.28</ele>
        <time>2013-07-27T09:40:32Z</time>
      </trkpt>
      <trkpt lat="48.90326" lon="1.61803">
        <ele>133.28</ele>
        <time>2013-07-27T09:40:33Z</time>
      </trkpt>
      <trkpt lat="48.90343" lon="1.61801">
        <ele>133.76</ele>
        <time>2013-07-27T09:40:40Z</time>
      </trkpt>
      <trkpt lat="48.90427" lon="1.61819">
        <ele>135.2</ele>
        <time>2013-07-27T09:40:50Z</time>
      </trkpt>
      <trkpt lat="48.90515" lon="1.61849">
        <ele>134.72</ele>
        <time>2013-07-27T09:41:00Z</time>
      </trkpt>
      <trkpt lat="48.90524" lon="1.61857">
        <ele>134.72</ele>
        <time>2013-07-27T09:41:02Z</time>
      </trkpt>
      <trkpt lat="48.90529" lon="1.61859">
        <ele>134.72</ele>
        <time>2013-07-27T09:41:03Z</time>
      </trkpt>
      <trkpt lat="48.90532" lon="1.61854">
        <ele>134.72</ele>
        <time>2013-07-27T09:41:04Z</time>
      </trkpt>
      <trkpt lat="48.9053" lon="1.61845">
        <ele>134.24</ele>
        <time>2013-07-27T09:41:05Z</time>
      </trkpt>
      <trkpt lat="48.90532" lon="1.61836">
        <ele>133.76</ele>
        <time>2013-07-27T09:41:06Z</time>
      </trkpt>
      <trkpt lat="48.90533" lon="1.61827">
        <ele>133.76</ele>
        <time>2013-07-27T09:41:07Z</time>
      </trkpt>
      <trkpt lat="48.90555" lon="1.61709">
        <ele>132.32</ele>
        <time>2013-07-27T09:41:16Z</time>
      </trkpt>
      <trkpt lat="48.90593" lon="1.61503">
        <ele>132.8</ele>
        <time>2013-07-27T09:41:27Z</time>
      </trkpt>
      <trkpt lat="48.90622" lon="1.61378">
        <ele>133.76</ele>
        <time>2013-07-27T09:41:33Z</time>
      </trkpt>
      <trkpt lat="48.90632" lon="1.6136">
        <ele>133.76</ele>
        <time>2013-07-27T09:41:34Z</time>
      </trkpt>
      <trkpt lat="48.90643" lon="1.6134">
        <ele>133.76</ele>
        <time>2013-07-27T09:41:35Z</time>
      </trkpt>
      <trkpt lat="48.90752" lon="1.61153">
        <ele>134.72</ele>
        <time>2013-07-27T09:41:43Z</time>
      </trkpt>
      <trkpt lat="48.90872" lon="1.60922">
        <ele>135.2</ele>
        <time>2013-07-27T09:41:51Z</time>
      </trkpt>
      <trkpt lat="48.91003" lon="1.60635">
        <ele>135.2</ele>
        <time>2013-07-27T09:42:00Z</time>
      </trkpt>
      <trkpt lat="48.91039" lon="1.6059">
        <ele>135.68</ele>
        <time>2013-07-27T09:42:02Z</time>
      </trkpt>
      <trkpt lat="48.91058" lon="1.60568">
        <ele>135.68</ele>
        <time>2013-07-27T09:42:03Z</time>
      </trkpt>
      <trkpt lat="48.91224" lon="1.60406">
        <ele>135.2</ele>
        <time>2013-07-27T09:42:11Z</time>
      </trkpt>
      <trkpt lat="48.91241" lon="1.60378">
        <ele>135.2</ele>
        <time>2013-07-27T09:42:12Z</time>
      </trkpt>
      <trkpt lat="48.91402" lon="1.60058">
        <ele>133.28</ele>
        <time>2013-07-27T09:42:22Z</time>
      </trkpt>
      <trkpt lat="48.91615" lon="1.59605">
        <ele>128.95</ele>
        <time>2013-07-27T09:42:35Z</time>
      </trkpt>
      <trkpt lat="48.91758" lon="1.59292">
        <ele>133.76</ele>
        <time>2013-07-27T09:42:45Z</time>
      </trkpt>
      <trkpt lat="48.91816" lon="1.59129">
        <ele>135.68</ele>
        <time>2013-07-27T09:42:51Z</time>
      </trkpt>
      <trkpt lat="48.91847" lon="1.58978">
        <ele>135.68</ele>
        <time>2013-07-27T09:42:58Z</time>
      </trkpt>
      <trkpt lat="48.91858" lon="1.58941">
        <ele>135.2</ele>
        <time>2013-07-27T09:43:00Z</time>
      </trkpt>
      <trkpt lat="48.91933" lon="1.58714">
        <ele>133.76</ele>
        <time>2013-07-27T09:43:14Z</time>
      </trkpt>
      <trkpt lat="48.91979" lon="1.58577">
        <ele>133.76</ele>
        <time>2013-07-27T09:43:24Z</time>
      </trkpt>
      <trkpt lat="48.92017" lon="1.58487">
        <ele>134.24</ele>
        <time>2013-07-27T09:43:31Z</time>
      </trkpt>
      <trkpt lat="48.92022" lon="1.58475">
        <ele>134.24</ele>
        <time>2013-07-27T09:43:32Z</time>
      </trkpt>
      <trkpt lat="48.92062" lon="1.58431">
        <ele>134.24</ele>
        <time>2013-07-27T09:43:37Z</time>
      </trkpt>
      <trkpt lat="48.92063" lon="1.58434">
        <ele>134.24</ele>
        <time>2013-07-27T09:43:38Z</time>
      </trkpt>
      <trkpt lat="48.92069" lon="1.58439">
        <ele>134.24</ele>
        <time>2013-07-27T09:43:39Z</time>
      </trkpt>
      <trkpt lat="48.92077" lon="1.58424">
        <ele>133.76</ele>
        <time>2013-07-27T09:43:40Z</time>
      </trkpt>
      <trkpt lat="48.92075" lon="1.58413">
        <ele>133.76</ele>
        <time>2013-07-27T09:43:41Z</time>
      </trkpt>
      <trkpt lat="48.92078" lon="1.58405">
        <ele>133.76</ele>
        <time>2013-07-27T09:43:42Z</time>
      </trkpt>
      <trkpt lat="48.92118" lon="1.58307">
        <ele>133.28</ele>
        <time>2013-07-27T09:43:49Z</time>
      </trkpt>
      <trkpt lat="48.92176" lon="1.58188">
        <ele>132.32</ele>
        <time>2013-07-27T09:43:56Z</time>
      </trkpt>
      <trkpt lat="48.9219" lon="1.58173">
        <ele>131.84</ele>
        <time>2013-07-27T09:43:57Z</time>
      </trkpt>
      <trkpt lat="48.92309" lon="1.58035">
        <ele>125.11</ele>
        <time>2013-07-27T09:44:06Z</time>
      </trkpt>
      <trkpt lat="48.92411" lon="1.57911">
        <ele>126.55</ele>
        <time>2013-07-27T09:44:13Z</time>
      </trkpt>
      <trkpt lat="48.92423" lon="1.57888">
        <ele>127.51</ele>
        <time>2013-07-27T09:44:14Z</time>
      </trkpt>
      <trkpt lat="48.92434" lon="1.57861">
        <ele>128.47</ele>
        <time>2013-07-27T09:44:15Z</time>
      </trkpt>
      <trkpt lat="48.92445" lon="1.57832">
        <ele>128.95</ele>
        <time>2013-07-27T09:44:16Z</time>
      </trkpt>
      <trkpt lat="48.92456" lon="1.57802">
        <ele>129.43</ele>
        <time>2013-07-27T09:44:17Z</time>
      </trkpt>
      <trkpt lat="48.92554" lon="1.57479">
        <ele>134.72</ele>
        <time>2013-07-27T09:44:27Z</time>
      </trkpt>
      <trkpt lat="48.92647" lon="1.57257">
        <ele>136.16</ele>
        <time>2013-07-27T09:44:35Z</time>
      </trkpt>
      <trkpt lat="48.9287" lon="1.56882">
        <ele>140.01</ele>
        <time>2013-07-27T09:44:49Z</time>
      </trkpt>
      <trkpt lat="48.9308" lon="1.56585">
        <ele>139.05</ele>
        <time>2013-07-27T09:45:01Z</time>
      </trkpt>
      <trkpt lat="48.93216" lon="1.56446">
        <ele>139.05</ele>
        <time>2013-07-27T09:45:08Z</time>
      </trkpt>
      <trkpt lat="48.93233" lon="1.56422">
        <ele>139.05</ele>
        <time>2013-07-27T09:45:09Z</time>
      </trkpt>
      <trkpt lat="48.93248" lon="1.56397">
        <ele>139.05</ele>
        <time>2013-07-27T09:45:10Z</time>
      </trkpt>
      <trkpt lat="48.93262" lon="1.5637">
        <ele>139.05</ele>
        <time>2013-07-27T09:45:11Z</time>
      </trkpt>
      <trkpt lat="48.93276" lon="1.56342">
        <ele>138.57</ele>
        <time>2013-07-27T09:45:12Z</time>
      </trkpt>
      <trkpt lat="48.93276" lon="1.56342">
        <ele>138.09</ele>
        <time>2013-07-27T09:45:13Z</time>
      </trkpt>
      <trkpt lat="48.93302" lon="1.56285">
        <ele>138.09</ele>
        <time>2013-07-27T09:45:14Z</time>
      </trkpt>
      <trkpt lat="48.93312" lon="1.56254">
        <ele>137.61</ele>
        <time>2013-07-27T09:45:15Z</time>
      </trkpt>
      <trkpt lat="48.93408" lon="1.56022">
        <ele>136.64</ele>
        <time>2013-07-27T09:45:23Z</time>
      </trkpt>
      <trkpt lat="48.93464" lon="1.5592">
        <ele>137.13</ele>
        <time>2013-07-27T09:45:27Z</time>
      </trkpt>
      <trkpt lat="48.93464" lon="1.5592">
        <ele>137.13</ele>
        <time>2013-07-27T09:45:28Z</time>
      </trkpt>
      <trkpt lat="48.93591" lon="1.55734">
        <ele>136.64</ele>
        <time>2013-07-27T09:45:36Z</time>
      </trkpt>
      <trkpt lat="48.9365" lon="1.55643">
        <ele>136.64</ele>
        <time>2013-07-27T09:45:40Z</time>
      </trkpt>
      <trkpt lat="48.93668" lon="1.55624">
        <ele>136.64</ele>
        <time>2013-07-27T09:45:41Z</time>
      </trkpt>
      <trkpt lat="48.93688" lon="1.55607">
        <ele>137.13</ele>
        <time>2013-07-27T09:45:42Z</time>
      </trkpt>
      <trkpt lat="48.93812" lon="1.55473">
        <ele>137.61</ele>
        <time>2013-07-27T09:45:49Z</time>
      </trkpt>
      <trkpt lat="48.9391" lon="1.55296">
        <ele>137.13</ele>
        <time>2013-07-27T09:45:55Z</time>
      </trkpt>
      <trkpt lat="48.93975" lon="1.55029">
        <ele>135.68</ele>
        <time>2013-07-27T09:46:02Z</time>
      </trkpt>
      <trkpt lat="48.94014" lon="1.54716">
        <ele>132.32</ele>
        <time>2013-07-27T09:46:10Z</time>
      </trkpt>
      <trkpt lat="48.94023" lon="1.54684">
        <ele>132.32</ele>
        <time>2013-07-27T09:46:11Z</time>
      </trkpt>
      <trkpt lat="48.94033" lon="1.54654">
        <ele>131.84</ele>
        <time>2013-07-27T09:46:12Z</time>
      </trkpt>
      <trkpt lat="48.94044" lon="1.54627">
        <ele>131.84</ele>
        <time>2013-07-27T09:46:13Z</time>
      </trkpt>
      <trkpt lat="48.94056" lon="1.54603">
        <ele>131.84</ele>
        <time>2013-07-27T09:46:14Z</time>
      </trkpt>
      <trkpt lat="48.9407" lon="1.54582">
        <ele>131.84</ele>
        <time>2013-07-27T09:46:15Z</time>
      </trkpt>
      <trkpt lat="48.94083" lon="1.54562">
        <ele>132.32</ele>
        <time>2013-07-27T09:46:16Z</time>
      </trkpt>
      <trkpt lat="48.94165" lon="1.54425">
        <ele>132.32</ele>
        <time>2013-07-27T09:46:24Z</time>
      </trkpt>
      <trkpt lat="48.9417" lon="1.54407">
        <ele>131.84</ele>
        <time>2013-07-27T09:46:25Z</time>
      </trkpt>
      <trkpt lat="48.94174" lon="1.54388">
        <ele>131.84</ele>
        <time>2013-07-27T09:46:26Z</time>
      </trkpt>
      <trkpt lat="48.94178" lon="1.54371">
        <ele>131.84</ele>
        <time>2013-07-27T09:46:27Z</time>
      </trkpt>
      <trkpt lat="48.94217" lon="1.54129">
        <ele>126.55</ele>
        <time>2013-07-27T09:46:39Z</time>
      </trkpt>
      <trkpt lat="48.94279" lon="1.53904">
        <ele>118.86</ele>
        <time>2013-07-27T09:46:51Z</time>
      </trkpt>
      <trkpt lat="48.94319" lon="1.53776">
        <ele>115.01</ele>
        <time>2013-07-27T09:47:00Z</time>
      </trkpt>
      <trkpt lat="48.94386" lon="1.53552">
        <ele>115.01</ele>
        <time>2013-07-27T09:47:14Z</time>
      </trkpt>
      <trkpt lat="48.94414" lon="1.53469">
        <ele>118.86</ele>
        <time>2013-07-27T09:47:22Z</time>
      </trkpt>
      <trkpt lat="48.94481" lon="1.53395">
        <ele>122.71</ele>
        <time>2013-07-27T09:47:32Z</time>
      </trkpt>
      <trkpt lat="48.94536" lon="1.53363">
        <ele>125.11</ele>
        <time>2013-07-27T09:47:40Z</time>
      </trkpt>
      <trkpt lat="48.94536" lon="1.53363">
        <ele>125.59</ele>
        <time>2013-07-27T09:47:41Z</time>
      </trkpt>
      <trkpt lat="48.94555" lon="1.53371">
        <ele>126.07</ele>
        <time>2013-07-27T09:47:44Z</time>
      </trkpt>
      <trkpt lat="48.9456" lon="1.53373">
        <ele>126.55</ele>
        <time>2013-07-27T09:47:45Z</time>
      </trkpt>
      <trkpt lat="48.94608" lon="1.53406">
        <ele>126.07</ele>
        <time>2013-07-27T09:47:51Z</time>
      </trkpt>
      <trkpt lat="48.94618" lon="1.53416">
        <ele>125.11</ele>
        <time>2013-07-27T09:47:52Z</time>
      </trkpt>
      <trkpt lat="48.94628" lon="1.53426">
        <ele>124.15</ele>
        <time>2013-07-27T09:47:53Z</time>
      </trkpt>
      <trkpt lat="48.94644" lon="1.53449">
        <ele>123.67</ele>
        <time>2013-07-27T09:47:55Z</time>
      </trkpt>
      <trkpt lat="48.94654" lon="1.53458">
        <ele>123.67</ele>
        <time>2013-07-27T09:47:56Z</time>
      </trkpt>
      <trkpt lat="48.94664" lon="1.53461">
        <ele>123.19</ele>
        <time>2013-07-27T09:47:57Z</time>
      </trkpt>
      <trkpt lat="48.94675" lon="1.53464">
        <ele>123.19</ele>
        <time>2013-07-27T09:47:58Z</time>
      </trkpt>
      <trkpt lat="48.94685" lon="1.53465">
        <ele>123.19</ele>
        <time>2013-07-27T09:47:59Z</time>
      </trkpt>
      <trkpt lat="48.94696" lon="1.53464">
        <ele>123.19</ele>
        <time>2013-07-27T09:48:00Z</time>
      </trkpt>
      <trkpt lat="48.94707" lon="1.53462">
        <ele>123.19</ele>
        <time>2013-07-27T09:48:01Z</time>
      </trkpt>
      <trkpt lat="48.94844" lon="1.53437">
        <ele>122.71</ele>
        <time>2013-07-27T09:48:12Z</time>
      </trkpt>
      <trkpt lat="48.94984" lon="1.53408">
        <ele>123.67</ele>
        <time>2013-07-27T09:48:20Z</time>
      </trkpt>
      <trkpt lat="48.95083" lon="1.53409">
        <ele>126.55</ele>
        <time>2013-07-27T09:48:26Z</time>
      </trkpt>
      <trkpt lat="48.95102" lon="1.53417">
        <ele>127.03</ele>
        <time>2013-07-27T09:48:27Z</time>
      </trkpt>
      <trkpt lat="48.95116" lon="1.53423">
        <ele>127.51</ele>
        <time>2013-07-27T09:48:28Z</time>
      </trkpt>
      <trkpt lat="48.95225" lon="1.5348">
        <ele>129.43</ele>
        <time>2013-07-27T09:48:37Z</time>
      </trkpt>
      <trkpt lat="48.95234" lon="1.53483">
        <ele>129.43</ele>
        <time>2013-07-27T09:48:38Z</time>
      </trkpt>
      <trkpt lat="48.95245" lon="1.53485">
        <ele>129.43</ele>
        <time>2013-07-27T09:48:39Z</time>
      </trkpt>
      <trkpt lat="48.95353" lon="1.53522">
        <ele>128.47</ele>
        <time>2013-07-27T09:48:49Z</time>
      </trkpt>
      <trkpt lat="48.95415" lon="1.53551">
        <ele>128.95</ele>
        <time>2013-07-27T09:48:55Z</time>
      </trkpt>
      <trkpt lat="48.95426" lon="1.53549">
        <ele>128.95</ele>
        <time>2013-07-27T09:48:56Z</time>
      </trkpt>
      <trkpt lat="48.95437" lon="1.53546">
        <ele>129.43</ele>
        <time>2013-07-27T09:48:57Z</time>
      </trkpt>
      <trkpt lat="48.95536" lon="1.5351">
        <ele>130.4</ele>
        <time>2013-07-27T09:49:04Z</time>
      </trkpt>
      <trkpt lat="48.95551" lon="1.53505">
        <ele>129.92</ele>
        <time>2013-07-27T09:49:05Z</time>
      </trkpt>
      <trkpt lat="48.95566" lon="1.53508">
        <ele>129.43</ele>
        <time>2013-07-27T09:49:06Z</time>
      </trkpt>
      <trkpt lat="48.95581" lon="1.53514">
        <ele>128.95</ele>
        <time>2013-07-27T09:49:07Z</time>
      </trkpt>
      <trkpt lat="48.95598" lon="1.53521">
        <ele>128.47</ele>
        <time>2013-07-27T09:49:08Z</time>
      </trkpt>
      <trkpt lat="48.95612" lon="1.5353">
        <ele>128.47</ele>
        <time>2013-07-27T09:49:09Z</time>
      </trkpt>
      <trkpt lat="48.95747" lon="1.53622">
        <ele>132.8</ele>
        <time>2013-07-27T09:49:16Z</time>
      </trkpt>
      <trkpt lat="48.95912" lon="1.53702">
        <ele>140.01</ele>
        <time>2013-07-27T09:49:24Z</time>
      </trkpt>
      <trkpt lat="48.96058" lon="1.53761">
        <ele>143.85</ele>
        <time>2013-07-27T09:49:33Z</time>
      </trkpt>
      <trkpt lat="48.96114" lon="1.53782">
        <ele>145.3</ele>
        <time>2013-07-27T09:49:40Z</time>
      </trkpt>
      <trkpt lat="48.96159" lon="1.53788">
        <ele>145.78</ele>
        <time>2013-07-27T09:49:48Z</time>
      </trkpt>
      <trkpt lat="48.96237" lon="1.53804">
        <ele>146.74</ele>
        <time>2013-07-27T09:49:55Z</time>
      </trkpt>
      <trkpt lat="48.9625" lon="1.53803">
        <ele>146.74</ele>
        <time>2013-07-27T09:49:56Z</time>
      </trkpt>
      <trkpt lat="48.96263" lon="1.538">
        <ele>147.22</ele>
        <time>2013-07-27T09:49:57Z</time>
      </trkpt>
      <trkpt lat="48.96278" lon="1.53796">
        <ele>147.22</ele>
        <time>2013-07-27T09:49:58Z</time>
      </trkpt>
      <trkpt lat="48.96293" lon="1.53789">
        <ele>147.22</ele>
        <time>2013-07-27T09:49:59Z</time>
      </trkpt>
      <trkpt lat="48.96309" lon="1.5378">
        <ele>147.7</ele>
        <time>2013-07-27T09:50:00Z</time>
      </trkpt>
      <trkpt lat="48.96381" lon="1.53746">
        <ele>148.18</ele>
        <time>2013-07-27T09:50:05Z</time>
      </trkpt>
      <trkpt lat="48.96397" lon="1.53744">
        <ele>148.66</ele>
        <time>2013-07-27T09:50:06Z</time>
      </trkpt>
      <trkpt lat="48.9656" lon="1.53739">
        <ele>148.66</ele>
        <time>2013-07-27T09:50:15Z</time>
      </trkpt>
      <trkpt lat="48.96731" lon="1.53695">
        <ele>149.14</ele>
        <time>2013-07-27T09:50:24Z</time>
      </trkpt>
      <trkpt lat="48.96913" lon="1.53601">
        <ele>151.06</ele>
        <time>2013-07-27T09:50:32Z</time>
      </trkpt>
      <trkpt lat="48.9706" lon="1.53539">
        <ele>153.47</ele>
        <time>2013-07-27T09:50:39Z</time>
      </trkpt>
      <trkpt lat="48.97079" lon="1.53536">
        <ele>153.95</ele>
        <time>2013-07-27T09:50:40Z</time>
      </trkpt>
      <trkpt lat="48.97097" lon="1.53538">
        <ele>153.95</ele>
        <time>2013-07-27T09:50:41Z</time>
      </trkpt>
      <trkpt lat="48.97114" lon="1.53545">
        <ele>153.95</ele>
        <time>2013-07-27T09:50:42Z</time>
      </trkpt>
      <trkpt lat="48.97251" lon="1.53617">
        <ele>154.91</ele>
        <time>2013-07-27T09:50:49Z</time>
      </trkpt>
      <trkpt lat="48.97411" lon="1.53768">
        <ele>152.51</ele>
        <time>2013-07-27T09:50:58Z</time>
      </trkpt>
      <trkpt lat="48.97496" lon="1.53857">
        <ele>148.66</ele>
        <time>2013-07-27T09:51:05Z</time>
      </trkpt>
      <trkpt lat="48.97505" lon="1.53866">
        <ele>148.18</ele>
        <time>2013-07-27T09:51:06Z</time>
      </trkpt>
      <trkpt lat="48.97514" lon="1.53872">
        <ele>147.22</ele>
        <time>2013-07-27T09:51:07Z</time>
      </trkpt>
      <trkpt lat="48.97576" lon="1.53907">
        <ele>144.34</ele>
        <time>2013-07-27T09:51:14Z</time>
      </trkpt>
      <trkpt lat="48.97584" lon="1.53915">
        <ele>143.85</ele>
        <time>2013-07-27T09:51:15Z</time>
      </trkpt>
      <trkpt lat="48.97628" lon="1.53959">
        <ele>142.41</ele>
        <time>2013-07-27T09:51:21Z</time>
      </trkpt>
      <trkpt lat="48.97628" lon="1.53959">
        <ele>142.41</ele>
        <time>2013-07-27T09:51:22Z</time>
      </trkpt>
      <trkpt lat="48.97628" lon="1.53959">
        <ele>141.93</ele>
        <time>2013-07-27T09:51:23Z</time>
      </trkpt>
      <trkpt lat="48.97628" lon="1.53959">
        <ele>141.93</ele>
        <time>2013-07-27T09:51:24Z</time>
      </trkpt>
      <trkpt lat="48.97641" lon="1.53963">
        <ele>141.45</ele>
        <time>2013-07-27T09:51:25Z</time>
      </trkpt>
      <trkpt lat="48.97649" lon="1.53957">
        <ele>140.97</ele>
        <time>2013-07-27T09:51:26Z</time>
      </trkpt>
      <trkpt lat="48.9765" lon="1.53949">
        <ele>140.49</ele>
        <time>2013-07-27T09:51:27Z</time>
      </trkpt>
      <trkpt lat="48.9765" lon="1.5394">
        <ele>140.01</ele>
        <time>2013-07-27T09:51:28Z</time>
      </trkpt>
      <trkpt lat="48.97651" lon="1.53929">
        <ele>139.53</ele>
        <time>2013-07-27T09:51:29Z</time>
      </trkpt>
      <trkpt lat="48.97656" lon="1.53852">
        <ele>138.09</ele>
        <time>2013-07-27T09:51:35Z</time>
      </trkpt>
      <trkpt lat="48.97658" lon="1.53834">
        <ele>137.61</ele>
        <time>2013-07-27T09:51:36Z</time>
      </trkpt>
      <trkpt lat="48.97661" lon="1.53829">
        <ele>137.61</ele>
        <time>2013-07-27T09:51:37Z</time>
      </trkpt>
      <trkpt lat="48.97666" lon="1.53819">
        <ele>137.13</ele>
        <time>2013-07-27T09:51:38Z</time>
      </trkpt>
      <trkpt lat="48.97671" lon="1.53808">
        <ele>137.13</ele>
        <time>2013-07-27T09:51:39Z</time>
      </trkpt>
      <trkpt lat="48.97677" lon="1.53796">
        <ele>136.64</ele>
        <time>2013-07-27T09:51:40Z</time>
      </trkpt>
      <trkpt lat="48.97757" lon="1.5364">
        <ele>134.24</ele>
        <time>2013-07-27T09:51:51Z</time>
      </trkpt>
      <trkpt lat="48.97764" lon="1.53623">
        <ele>134.24</ele>
        <time>2013-07-27T09:51:52Z</time>
      </trkpt>
      <trkpt lat="48.97769" lon="1.53604">
        <ele>134.24</ele>
        <time>2013-07-27T09:51:53Z</time>
      </trkpt>
      <trkpt lat="48.97774" lon="1.53584">
        <ele>134.24</ele>
        <time>2013-07-27T09:51:54Z</time>
      </trkpt>
      <trkpt lat="48.97809" lon="1.53442">
        <ele>135.2</ele>
        <time>2013-07-27T09:52:00Z</time>
      </trkpt>
      <trkpt lat="48.97819" lon="1.53421">
        <ele>135.68</ele>
        <time>2013-07-27T09:52:01Z</time>
      </trkpt>
      <trkpt lat="48.97855" lon="1.53366">
        <ele>136.64</ele>
        <time>2013-07-27T09:52:04Z</time>
      </trkpt>
      <trkpt lat="48.97866" lon="1.53348">
        <ele>137.13</ele>
        <time>2013-07-27T09:52:05Z</time>
      </trkpt>
      <trkpt lat="48.9788" lon="1.53338">
        <ele>137.61</ele>
        <time>2013-07-27T09:52:06Z</time>
      </trkpt>
      <trkpt lat="48.97895" lon="1.53329">
        <ele>138.09</ele>
        <time>2013-07-27T09:52:07Z</time>
      </trkpt>
      <trkpt lat="48.97909" lon="1.5332">
        <ele>139.05</ele>
        <time>2013-07-27T09:52:08Z</time>
      </trkpt>
      <trkpt lat="48.98037" lon="1.53242">
        <ele>140.01</ele>
        <time>2013-07-27T09:52:16Z</time>
      </trkpt>
      <trkpt lat="48.98058" lon="1.53242">
        <ele>140.01</ele>
        <time>2013-07-27T09:52:17Z</time>
      </trkpt>
      <trkpt lat="48.9808" lon="1.53241">
        <ele>139.53</ele>
        <time>2013-07-27T09:52:18Z</time>
      </trkpt>
      <trkpt lat="48.98102" lon="1.53241">
        <ele>139.53</ele>
        <time>2013-07-27T09:52:19Z</time>
      </trkpt>
      <trkpt lat="48.98126" lon="1.5324">
        <ele>139.53</ele>
        <time>2013-07-27T09:52:20Z</time>
      </trkpt>
      <trkpt lat="48.98253" lon="1.53227">
        <ele>139.53</ele>
        <time>2013-07-27T09:52:26Z</time>
      </trkpt>
      <trkpt lat="48.98267" lon="1.53217">
        <ele>139.53</ele>
        <time>2013-07-27T09:52:27Z</time>
      </trkpt>
      <trkpt lat="48.98278" lon="1.53203">
        <ele>140.01</ele>
        <time>2013-07-27T09:52:28Z</time>
      </trkpt>
      <trkpt lat="48.98288" lon="1.53183">
        <ele>140.01</ele>
        <time>2013-07-27T09:52:29Z</time>
      </trkpt>
      <trkpt lat="48.98299" lon="1.53162">
        <ele>140.01</ele>
        <time>2013-07-27T09:52:30Z</time>
      </trkpt>
      <trkpt lat="48.98385" lon="1.52966">
        <ele>140.97</ele>
        <time>2013-07-27T09:52:38Z</time>
      </trkpt>
      <trkpt lat="48.98396" lon="1.52957">
        <ele>141.45</ele>
        <time>2013-07-27T09:52:39Z</time>
      </trkpt>
      <trkpt lat="48.98408" lon="1.52951">
        <ele>141.45</ele>
        <time>2013-07-27T09:52:40Z</time>
      </trkpt>
      <trkpt lat="48.9842" lon="1.52945">
        <ele>141.45</ele>
        <time>2013-07-27T09:52:41Z</time>
      </trkpt>
      <trkpt lat="48.98577" lon="1.5287">
        <ele>137.61</ele>
        <time>2013-07-27T09:52:50Z</time>
      </trkpt>
      <trkpt lat="48.98649" lon="1.52836">
        <ele>134.72</ele>
        <time>2013-07-27T09:52:54Z</time>
      </trkpt>
      <trkpt lat="48.98665" lon="1.52831">
        <ele>133.76</ele>
        <time>2013-07-27T09:52:55Z</time>
      </trkpt>
      <trkpt lat="48.98682" lon="1.52833">
        <ele>132.8</ele>
        <time>2013-07-27T09:52:56Z</time>
      </trkpt>
      <trkpt lat="48.98699" lon="1.52841">
        <ele>132.8</ele>
        <time>2013-07-27T09:52:57Z</time>
      </trkpt>
      <trkpt lat="48.98716" lon="1.52851">
        <ele>132.8</ele>
        <time>2013-07-27T09:52:58Z</time>
      </trkpt>
      <trkpt lat="48.98734" lon="1.52864">
        <ele>132.8</ele>
        <time>2013-07-27T09:52:59Z</time>
      </trkpt>
      <trkpt lat="48.9875" lon="1.52882">
        <ele>132.8</ele>
        <time>2013-07-27T09:53:00Z</time>
      </trkpt>
      <trkpt lat="48.98766" lon="1.529">
        <ele>132.8</ele>
        <time>2013-07-27T09:53:01Z</time>
      </trkpt>
      <trkpt lat="48.98837" lon="1.52965">
        <ele>133.76</ele>
        <time>2013-07-27T09:53:05Z</time>
      </trkpt>
      <trkpt lat="48.98858" lon="1.52973">
        <ele>133.76</ele>
        <time>2013-07-27T09:53:06Z</time>
      </trkpt>
      <trkpt lat="48.99041" lon="1.53057">
        <ele>134.24</ele>
        <time>2013-07-27T09:53:15Z</time>
      </trkpt>
      <trkpt lat="48.99061" lon="1.53071">
        <ele>134.24</ele>
        <time>2013-07-27T09:53:16Z</time>
      </trkpt>
      <trkpt lat="48.9908" lon="1.53087">
        <ele>134.24</ele>
        <time>2013-07-27T09:53:17Z</time>
      </trkpt>
      <trkpt lat="48.99097" lon="1.53108">
        <ele>133.76</ele>
        <time>2013-07-27T09:53:18Z</time>
      </trkpt>
      <trkpt lat="48.99112" lon="1.53128">
        <ele>133.76</ele>
        <time>2013-07-27T09:53:19Z</time>
      </trkpt>
      <trkpt lat="48.99126" lon="1.53147">
        <ele>133.28</ele>
        <time>2013-07-27T09:53:20Z</time>
      </trkpt>
      <trkpt lat="48.99148" lon="1.53176">
        <ele>133.28</ele>
        <time>2013-07-27T09:53:22Z</time>
      </trkpt>
      <trkpt lat="48.9916" lon="1.53182">
        <ele>133.28</ele>
        <time>2013-07-27T09:53:23Z</time>
      </trkpt>
      <trkpt lat="48.99168" lon="1.5318">
        <ele>133.28</ele>
        <time>2013-07-27T09:53:24Z</time>
      </trkpt>
      <trkpt lat="48.99179" lon="1.53178">
        <ele>132.8</ele>
        <time>2013-07-27T09:53:25Z</time>
      </trkpt>
      <trkpt lat="48.99188" lon="1.53171">
        <ele>132.32</ele>
        <time>2013-07-27T09:53:26Z</time>
      </trkpt>
      <trkpt lat="48.992" lon="1.5316">
        <ele>131.84</ele>
        <time>2013-07-27T09:53:27Z</time>
      </trkpt>
      <trkpt lat="48.99213" lon="1.53148">
        <ele>131.36</ele>
        <time>2013-07-27T09:53:28Z</time>
      </trkpt>
      <trkpt lat="48.99266" lon="1.53096">
        <ele>129.43</ele>
        <time>2013-07-27T09:53:32Z</time>
      </trkpt>
      <trkpt lat="48.99278" lon="1.53079">
        <ele>128.95</ele>
        <time>2013-07-27T09:53:33Z</time>
      </trkpt>
      <trkpt lat="48.99347" lon="1.52993">
        <ele>123.67</ele>
        <time>2013-07-27T09:53:39Z</time>
      </trkpt>
      <trkpt lat="48.99362" lon="1.5298">
        <ele>122.71</ele>
        <time>2013-07-27T09:53:40Z</time>
      </trkpt>
      <trkpt lat="48.99473" lon="1.52922">
        <ele>118.86</ele>
        <time>2013-07-27T09:53:50Z</time>
      </trkpt>
      <trkpt lat="48.99483" lon="1.52927">
        <ele>118.86</ele>
        <time>2013-07-27T09:53:51Z</time>
      </trkpt>
      <trkpt lat="48.99489" lon="1.52933">
        <ele>118.86</ele>
        <time>2013-07-27T09:53:52Z</time>
      </trkpt>
      <trkpt lat="48.99496" lon="1.5294">
        <ele>118.86</ele>
        <time>2013-07-27T09:53:53Z</time>
      </trkpt>
      <trkpt lat="48.99503" lon="1.52948">
        <ele>118.86</ele>
        <time>2013-07-27T09:53:54Z</time>
      </trkpt>
      <trkpt lat="48.99519" lon="1.52965">
        <ele>118.86</ele>
        <time>2013-07-27T09:53:56Z</time>
      </trkpt>
      <trkpt lat="48.99529" lon="1.5297">
        <ele>118.86</ele>
        <time>2013-07-27T09:53:57Z</time>
      </trkpt>
      <trkpt lat="48.99539" lon="1.52975">
        <ele>119.34</ele>
        <time>2013-07-27T09:53:58Z</time>
      </trkpt>
      <trkpt lat="48.99549" lon="1.5298">
        <ele>119.34</ele>
        <time>2013-07-27T09:53:59Z</time>
      </trkpt>
      <trkpt lat="48.99565" lon="1.52976">
        <ele>119.34</ele>
        <time>2013-07-27T09:54:00Z</time>
      </trkpt>
      <trkpt lat="48.99572" lon="1.5297">
        <ele>119.34</ele>
        <time>2013-07-27T09:54:01Z</time>
      </trkpt>
      <trkpt lat="48.99583" lon="1.52966">
        <ele>119.34</ele>
        <time>2013-07-27T09:54:02Z</time>
      </trkpt>
      <trkpt lat="48.99592" lon="1.52963">
        <ele>119.34</ele>
        <time>2013-07-27T09:54:03Z</time>
      </trkpt>
      <trkpt lat="48.996" lon="1.52963">
        <ele>119.34</ele>
        <time>2013-07-27T09:54:04Z</time>
      </trkpt>
      <trkpt lat="48.99608" lon="1.52963">
        <ele>119.34</ele>
        <time>2013-07-27T09:54:05Z</time>
      </trkpt>
      <trkpt lat="48.99616" lon="1.52963">
        <ele>119.34</ele>
        <time>2013-07-27T09:54:06Z</time>
      </trkpt>
      <trkpt lat="48.99624" lon="1.52963">
        <ele>119.82</ele>
        <time>2013-07-27T09:54:07Z</time>
      </trkpt>
      <trkpt lat="48.99633" lon="1.52962">
        <ele>119.82</ele>
        <time>2013-07-27T09:54:08Z</time>
      </trkpt>
      <trkpt lat="48.9964" lon="1.52956">
        <ele>119.82</ele>
        <time>2013-07-27T09:54:09Z</time>
      </trkpt>
      <trkpt lat="48.99648" lon="1.52948">
        <ele>120.3</ele>
        <time>2013-07-27T09:54:10Z</time>
      </trkpt>
      <trkpt lat="48.99657" lon="1.5294">
        <ele>120.78</ele>
        <time>2013-07-27T09:54:11Z</time>
      </trkpt>
      <trkpt lat="48.99666" lon="1.52932">
        <ele>120.78</ele>
        <time>2013-07-27T09:54:12Z</time>
      </trkpt>
      <trkpt lat="48.997" lon="1.52899">
        <ele>121.26</ele>
        <time>2013-07-27T09:54:18Z</time>
      </trkpt>
      <trkpt lat="48.99703" lon="1.52893">
        <ele>121.74</ele>
        <time>2013-07-27T09:54:22Z</time>
      </trkpt>
      <trkpt lat="48.99711" lon="1.52886">
        <ele>121.74</ele>
        <time>2013-07-27T09:54:23Z</time>
      </trkpt>
      <trkpt lat="48.99717" lon="1.52882">
        <ele>121.74</ele>
        <time>2013-07-27T09:54:24Z</time>
      </trkpt>
      <trkpt lat="48.99806" lon="1.52816">
        <ele>122.22</ele>
        <time>2013-07-27T09:54:34Z</time>
      </trkpt>
      <trkpt lat="48.99824" lon="1.52802">
        <ele>123.19</ele>
        <time>2013-07-27T09:54:39Z</time>
      </trkpt>
      <trkpt lat="48.99824" lon="1.52802">
        <ele>123.19</ele>
        <time>2013-07-27T09:55:08Z</time>
      </trkpt>
      <trkpt lat="48.99824" lon="1.52802">
        <ele>122.71</ele>
        <time>2013-07-27T09:55:30Z</time>
      </trkpt>
      <trkpt lat="48.99824" lon="1.52802">
        <ele>123.67</ele>
        <time>2013-07-27T09:56:04Z</time>
      </trkpt>
      <trkpt lat="48.99824" lon="1.52802">
        <ele>123.67</ele>
        <time>2013-07-27T09:56:42Z</time>
      </trkpt>
      <trkpt lat="48.99824" lon="1.52802">
        <ele>123.67</ele>
        <time>2013-07-27T09:57:25Z</time>
      </trkpt>
      <trkpt lat="48.99824" lon="1.52802">
        <ele>123.67</ele>
        <time>2013-07-27T09:58:01Z</time>
      </trkpt>
      <trkpt lat="48.99824" lon="1.52802">
        <ele>123.67</ele>
        <time>2013-07-27T09:58:40Z</time>
      </trkpt>
      <trkpt lat="48.99824" lon="1.52802">
        <ele>123.67</ele>
        <time>2013-07-27T09:59:12Z</time>
      </trkpt>
      <trkpt lat="48.99824" lon="1.52802">
        <ele>124.15</ele>
        <time>2013-07-27T09:59:45Z</time>
      </trkpt>
      <trkpt lat="48.99835" lon="1.52794">
        <ele>124.15</ele>
        <time>2013-07-27T10:00:06Z</time>
      </trkpt>
      <trkpt lat="48.99901" lon="1.52742">
        <ele>124.63</ele>
        <time>2013-07-27T10:00:15Z</time>
      </trkpt>
      <trkpt lat="48.99992" lon="1.52705">
        <ele>124.63</ele>
        <time>2013-07-27T10:00:22Z</time>
      </trkpt>
      <trkpt lat="49.00179" lon="1.52675">
        <ele>124.63</ele>
        <time>2013-07-27T10:00:32Z</time>
      </trkpt>
      <trkpt lat="49.00284" lon="1.5265">
        <ele>122.71</ele>
        <time>2013-07-27T10:00:38Z</time>
      </trkpt>
      <trkpt lat="49.00298" lon="1.52653">
        <ele>122.22</ele>
        <time>2013-07-27T10:00:39Z</time>
      </trkpt>
      <trkpt lat="49.00312" lon="1.52661">
        <ele>121.26</ele>
        <time>2013-07-27T10:00:40Z</time>
      </trkpt>
      <trkpt lat="49.00326" lon="1.52671">
        <ele>120.78</ele>
        <time>2013-07-27T10:00:41Z</time>
      </trkpt>
      <trkpt lat="49.00337" lon="1.52684">
        <ele>120.3</ele>
        <time>2013-07-27T10:00:42Z</time>
      </trkpt>
      <trkpt lat="49.00348" lon="1.52699">
        <ele>119.82</ele>
        <time>2013-07-27T10:00:43Z</time>
      </trkpt>
      <trkpt lat="49.00359" lon="1.52713">
        <ele>119.34</ele>
        <time>2013-07-27T10:00:44Z</time>
      </trkpt>
      <trkpt lat="49.00367" lon="1.52726">
        <ele>118.86</ele>
        <time>2013-07-27T10:00:45Z</time>
      </trkpt>
      <trkpt lat="49.00374" lon="1.52746">
        <ele>118.38</ele>
        <time>2013-07-27T10:00:46Z</time>
      </trkpt>
      <trkpt lat="49.00404" lon="1.52802">
        <ele>117.42</ele>
        <time>2013-07-27T10:00:50Z</time>
      </trkpt>
      <trkpt lat="49.00408" lon="1.52804">
        <ele>117.42</ele>
        <time>2013-07-27T10:00:51Z</time>
      </trkpt>
      <trkpt lat="49.00411" lon="1.52806">
        <ele>117.42</ele>
        <time>2013-07-27T10:00:52Z</time>
      </trkpt>
      <trkpt lat="49.00415" lon="1.52807">
        <ele>116.94</ele>
        <time>2013-07-27T10:00:53Z</time>
      </trkpt>
      <trkpt lat="49.00419" lon="1.52809">
        <ele>116.94</ele>
        <time>2013-07-27T10:00:54Z</time>
      </trkpt>
      <trkpt lat="49.00423" lon="1.52811">
        <ele>116.46</ele>
        <time>2013-07-27T10:00:55Z</time>
      </trkpt>
      <trkpt lat="49.00432" lon="1.52817">
        <ele>116.46</ele>
        <time>2013-07-27T10:00:57Z</time>
      </trkpt>
      <trkpt lat="49.00438" lon="1.5282">
        <ele>116.46</ele>
        <time>2013-07-27T10:00:58Z</time>
      </trkpt>
      <trkpt lat="49.00456" lon="1.5283">
        <ele>116.46</ele>
        <time>2013-07-27T10:01:01Z</time>
      </trkpt>
      <trkpt lat="49.00463" lon="1.52834">
        <ele>116.46</ele>
        <time>2013-07-27T10:01:02Z</time>
      </trkpt>
      <trkpt lat="49.00471" lon="1.52839">
        <ele>116.46</ele>
        <time>2013-07-27T10:01:03Z</time>
      </trkpt>
      <trkpt lat="49.00495" lon="1.52871">
        <ele>115.5</ele>
        <time>2013-07-27T10:01:06Z</time>
      </trkpt>
      <trkpt lat="49.00502" lon="1.52883">
        <ele>115.01</ele>
        <time>2013-07-27T10:01:07Z</time>
      </trkpt>
      <trkpt lat="49.00605" lon="1.53001">
        <ele>116.46</ele>
        <time>2013-07-27T10:01:18Z</time>
      </trkpt>
      <trkpt lat="49.00711" lon="1.53066">
        <ele>121.26</ele>
        <time>2013-07-27T10:01:26Z</time>
      </trkpt>
      <trkpt lat="49.00741" lon="1.53075">
        <ele>121.74</ele>
        <time>2013-07-27T10:01:28Z</time>
      </trkpt>
      <trkpt lat="49.00757" lon="1.53075">
        <ele>122.22</ele>
        <time>2013-07-27T10:01:29Z</time>
      </trkpt>
      <trkpt lat="49.00774" lon="1.53075">
        <ele>123.19</ele>
        <time>2013-07-27T10:01:30Z</time>
      </trkpt>
      <trkpt lat="49.0093" lon="1.53036">
        <ele>129.92</ele>
        <time>2013-07-27T10:01:38Z</time>
      </trkpt>
      <trkpt lat="49.0117" lon="1.52913">
        <ele>135.2</ele>
        <time>2013-07-27T10:01:51Z</time>
      </trkpt>
      <trkpt lat="49.01307" lon="1.52808">
        <ele>133.76</ele>
        <time>2013-07-27T10:02:00Z</time>
      </trkpt>
      <trkpt lat="49.01318" lon="1.52792">
        <ele>133.76</ele>
        <time>2013-07-27T10:02:01Z</time>
      </trkpt>
      <trkpt lat="49.01328" lon="1.52776">
        <ele>133.76</ele>
        <time>2013-07-27T10:02:02Z</time>
      </trkpt>
      <trkpt lat="49.0134" lon="1.52757">
        <ele>133.28</ele>
        <time>2013-07-27T10:02:03Z</time>
      </trkpt>
      <trkpt lat="49.01346" lon="1.52743">
        <ele>133.28</ele>
        <time>2013-07-27T10:02:04Z</time>
      </trkpt>
      <trkpt lat="49.01451" lon="1.52484">
        <ele>134.72</ele>
        <time>2013-07-27T10:02:18Z</time>
      </trkpt>
      <trkpt lat="49.015" lon="1.52345">
        <ele>136.64</ele>
        <time>2013-07-27T10:02:26Z</time>
      </trkpt>
      <trkpt lat="49.01591" lon="1.5218">
        <ele>140.01</ele>
        <time>2013-07-27T10:02:38Z</time>
      </trkpt>
      <trkpt lat="49.01612" lon="1.52149">
        <ele>140.49</ele>
        <time>2013-07-27T10:02:41Z</time>
      </trkpt>
      <trkpt lat="49.01619" lon="1.52139">
        <ele>140.97</ele>
        <time>2013-07-27T10:02:42Z</time>
      </trkpt>
      <trkpt lat="49.01628" lon="1.52135">
        <ele>140.97</ele>
        <time>2013-07-27T10:02:43Z</time>
      </trkpt>
      <trkpt lat="49.01637" lon="1.5213">
        <ele>140.97</ele>
        <time>2013-07-27T10:02:44Z</time>
      </trkpt>
      <trkpt lat="49.01646" lon="1.52126">
        <ele>141.45</ele>
        <time>2013-07-27T10:02:45Z</time>
      </trkpt>
      <trkpt lat="49.01657" lon="1.52121">
        <ele>141.45</ele>
        <time>2013-07-27T10:02:46Z</time>
      </trkpt>
      <trkpt lat="49.0177" lon="1.5207">
        <ele>140.49</ele>
        <time>2013-07-27T10:02:55Z</time>
      </trkpt>
      <trkpt lat="49.01882" lon="1.52076">
        <ele>138.09</ele>
        <time>2013-07-27T10:03:02Z</time>
      </trkpt>
      <trkpt lat="49.0206" lon="1.52114">
        <ele>137.13</ele>
        <time>2013-07-27T10:03:13Z</time>
      </trkpt>
      <trkpt lat="49.02186" lon="1.52143">
        <ele>137.13</ele>
        <time>2013-07-27T10:03:22Z</time>
      </trkpt>
      <trkpt lat="49.02359" lon="1.52156">
        <ele>138.57</ele>
        <time>2013-07-27T10:03:32Z</time>
      </trkpt>
      <trkpt lat="49.02463" lon="1.52155">
        <ele>139.53</ele>
        <time>2013-07-27T10:03:40Z</time>
      </trkpt>
      <trkpt lat="49.02482" lon="1.52149">
        <ele>140.01</ele>
        <time>2013-07-27T10:03:45Z</time>
      </trkpt>
      <trkpt lat="49.02488" lon="1.52148">
        <ele>140.49</ele>
        <time>2013-07-27T10:03:50Z</time>
      </trkpt>
      <trkpt lat="49.02493" lon="1.52147">
        <ele>140.49</ele>
        <time>2013-07-27T10:03:51Z</time>
      </trkpt>
      <trkpt lat="49.02499" lon="1.52147">
        <ele>140.49</ele>
        <time>2013-07-27T10:03:52Z</time>
      </trkpt>
      <trkpt lat="49.02506" lon="1.52146">
        <ele>140.49</ele>
        <time>2013-07-27T10:03:53Z</time>
      </trkpt>
      <trkpt lat="49.02514" lon="1.52145">
        <ele>140.49</ele>
        <time>2013-07-27T10:03:54Z</time>
      </trkpt>
      <trkpt lat="49.02522" lon="1.52145">
        <ele>140.49</ele>
        <time>2013-07-27T10:03:55Z</time>
      </trkpt>
      <trkpt lat="49.0262" lon="1.52145">
        <ele>141.93</ele>
        <time>2013-07-27T10:04:04Z</time>
      </trkpt>
      <trkpt lat="49.02745" lon="1.5217">
        <ele>143.37</ele>
        <time>2013-07-27T10:04:12Z</time>
      </trkpt>
      <trkpt lat="49.02939" lon="1.52212">
        <ele>143.37</ele>
        <time>2013-07-27T10:04:23Z</time>
      </trkpt>
      <trkpt lat="49.03144" lon="1.52267">
        <ele>142.41</ele>
        <time>2013-07-27T10:04:33Z</time>
      </trkpt>
      <trkpt lat="49.03253" lon="1.52284">
        <ele>141.93</ele>
        <time>2013-07-27T10:04:39Z</time>
      </trkpt>
      <trkpt lat="49.03265" lon="1.5229">
        <ele>141.93</ele>
        <time>2013-07-27T10:04:40Z</time>
      </trkpt>
      <trkpt lat="49.03276" lon="1.52298">
        <ele>141.93</ele>
        <time>2013-07-27T10:04:41Z</time>
      </trkpt>
      <trkpt lat="49.03288" lon="1.52307">
        <ele>141.45</ele>
        <time>2013-07-27T10:04:42Z</time>
      </trkpt>
      <trkpt lat="49.03296" lon="1.52319">
        <ele>141.45</ele>
        <time>2013-07-27T10:04:43Z</time>
      </trkpt>
      <trkpt lat="49.03307" lon="1.52332">
        <ele>141.45</ele>
        <time>2013-07-27T10:04:44Z</time>
      </trkpt>
      <trkpt lat="49.03318" lon="1.52347">
        <ele>140.97</ele>
        <time>2013-07-27T10:04:45Z</time>
      </trkpt>
      <trkpt lat="49.03482" lon="1.52543">
        <ele>138.09</ele>
        <time>2013-07-27T10:04:59Z</time>
      </trkpt>
      <trkpt lat="49.03595" lon="1.52645">
        <ele>138.09</ele>
        <time>2013-07-27T10:05:09Z</time>
      </trkpt>
      <trkpt lat="49.03683" lon="1.52763">
        <ele>137.61</ele>
        <time>2013-07-27T10:05:18Z</time>
      </trkpt>
      <trkpt lat="49.03693" lon="1.52772">
        <ele>137.13</ele>
        <time>2013-07-27T10:05:19Z</time>
      </trkpt>
      <trkpt lat="49.03703" lon="1.52775">
        <ele>137.13</ele>
        <time>2013-07-27T10:05:20Z</time>
      </trkpt>
      <trkpt lat="49.03714" lon="1.52779">
        <ele>137.13</ele>
        <time>2013-07-27T10:05:21Z</time>
      </trkpt>
      <trkpt lat="49.03725" lon="1.52782">
        <ele>137.13</ele>
        <time>2013-07-27T10:05:22Z</time>
      </trkpt>
      <trkpt lat="49.03739" lon="1.52787">
        <ele>136.64</ele>
        <time>2013-07-27T10:05:23Z</time>
      </trkpt>
      <trkpt lat="49.03853" lon="1.5278">
        <ele>134.72</ele>
        <time>2013-07-27T10:05:32Z</time>
      </trkpt>
      <trkpt lat="49.03961" lon="1.52751">
        <ele>132.32</ele>
        <time>2013-07-27T10:05:39Z</time>
      </trkpt>
      <trkpt lat="49.03977" lon="1.52749">
        <ele>132.32</ele>
        <time>2013-07-27T10:05:40Z</time>
      </trkpt>
      <trkpt lat="49.03992" lon="1.52752">
        <ele>132.32</ele>
        <time>2013-07-27T10:05:41Z</time>
      </trkpt>
      <trkpt lat="49.04007" lon="1.52758">
        <ele>132.32</ele>
        <time>2013-07-27T10:05:42Z</time>
      </trkpt>
      <trkpt lat="49.04022" lon="1.52766">
        <ele>132.32</ele>
        <time>2013-07-27T10:05:43Z</time>
      </trkpt>
      <trkpt lat="49.04038" lon="1.52774">
        <ele>131.84</ele>
        <time>2013-07-27T10:05:44Z</time>
      </trkpt>
      <trkpt lat="49.0417" lon="1.52809">
        <ele>131.84</ele>
        <time>2013-07-27T10:05:52Z</time>
      </trkpt>
      <trkpt lat="49.04295" lon="1.52818">
        <ele>133.76</ele>
        <time>2013-07-27T10:06:00Z</time>
      </trkpt>
      <trkpt lat="49.04307" lon="1.52811">
        <ele>134.24</ele>
        <time>2013-07-27T10:06:01Z</time>
      </trkpt>
      <trkpt lat="49.04319" lon="1.52804">
        <ele>134.24</ele>
        <time>2013-07-27T10:06:02Z</time>
      </trkpt>
      <trkpt lat="49.04366" lon="1.5277">
        <ele>135.2</ele>
        <time>2013-07-27T10:06:06Z</time>
      </trkpt>
      <trkpt lat="49.04368" lon="1.52767">
        <ele>135.2</ele>
        <time>2013-07-27T10:06:07Z</time>
      </trkpt>
      <trkpt lat="49.04374" lon="1.52757">
        <ele>135.2</ele>
        <time>2013-07-27T10:06:08Z</time>
      </trkpt>
      <trkpt lat="49.04381" lon="1.52746">
        <ele>134.72</ele>
        <time>2013-07-27T10:06:09Z</time>
      </trkpt>
      <trkpt lat="49.04387" lon="1.52733">
        <ele>134.72</ele>
        <time>2013-07-27T10:06:10Z</time>
      </trkpt>
      <trkpt lat="49.04392" lon="1.52719">
        <ele>134.24</ele>
        <time>2013-07-27T10:06:11Z</time>
      </trkpt>
      <trkpt lat="49.04466" lon="1.52496">
        <ele>135.68</ele>
        <time>2013-07-27T10:06:26Z</time>
      </trkpt>
      <trkpt lat="49.04513" lon="1.52411">
        <ele>138.57</ele>
        <time>2013-07-27T10:06:33Z</time>
      </trkpt>
      <trkpt lat="49.04522" lon="1.52405">
        <ele>138.57</ele>
        <time>2013-07-27T10:06:34Z</time>
      </trkpt>
      <trkpt lat="49.04633" lon="1.52342">
        <ele>140.49</ele>
        <time>2013-07-27T10:06:44Z</time>
      </trkpt>
      <trkpt lat="49.04752" lon="1.5226">
        <ele>138.09</ele>
        <time>2013-07-27T10:06:52Z</time>
      </trkpt>
      <trkpt lat="49.04841" lon="1.52158">
        <ele>135.68</ele>
        <time>2013-07-27T10:06:59Z</time>
      </trkpt>
      <trkpt lat="49.04853" lon="1.5215">
        <ele>135.2</ele>
        <time>2013-07-27T10:07:00Z</time>
      </trkpt>
      <trkpt lat="49.04866" lon="1.52143">
        <ele>135.2</ele>
        <time>2013-07-27T10:07:01Z</time>
      </trkpt>
      <trkpt lat="49.04879" lon="1.52135">
        <ele>134.72</ele>
        <time>2013-07-27T10:07:02Z</time>
      </trkpt>
      <trkpt lat="49.04893" lon="1.52127">
        <ele>134.24</ele>
        <time>2013-07-27T10:07:03Z</time>
      </trkpt>
      <trkpt lat="49.04907" lon="1.5212">
        <ele>134.24</ele>
        <time>2013-07-27T10:07:04Z</time>
      </trkpt>
      <trkpt lat="49.05042" lon="1.52064">
        <ele>130.88</ele>
        <time>2013-07-27T10:07:12Z</time>
      </trkpt>
      <trkpt lat="49.05059" lon="1.52058">
        <ele>130.4</ele>
        <time>2013-07-27T10:07:13Z</time>
      </trkpt>
      <trkpt lat="49.05076" lon="1.52059">
        <ele>129.92</ele>
        <time>2013-07-27T10:07:14Z</time>
      </trkpt>
      <trkpt lat="49.05093" lon="1.5206">
        <ele>129.43</ele>
        <time>2013-07-27T10:07:15Z</time>
      </trkpt>
      <trkpt lat="49.05109" lon="1.52061">
        <ele>128.95</ele>
        <time>2013-07-27T10:07:16Z</time>
      </trkpt>
      <trkpt lat="49.05141" lon="1.52062">
        <ele>127.99</ele>
        <time>2013-07-27T10:07:18Z</time>
      </trkpt>
      <trkpt lat="49.05156" lon="1.52057">
        <ele>127.99</ele>
        <time>2013-07-27T10:07:19Z</time>
      </trkpt>
      <trkpt lat="49.0517" lon="1.52052">
        <ele>127.51</ele>
        <time>2013-07-27T10:07:20Z</time>
      </trkpt>
      <trkpt lat="49.05228" lon="1.52015">
        <ele>125.11</ele>
        <time>2013-07-27T10:07:24Z</time>
      </trkpt>
      <trkpt lat="49.05239" lon="1.51999">
        <ele>124.15</ele>
        <time>2013-07-27T10:07:25Z</time>
      </trkpt>
      <trkpt lat="49.05249" lon="1.51983">
        <ele>123.67</ele>
        <time>2013-07-27T10:07:26Z</time>
      </trkpt>
      <trkpt lat="49.0526" lon="1.51966">
        <ele>123.19</ele>
        <time>2013-07-27T10:07:27Z</time>
      </trkpt>
      <trkpt lat="49.05269" lon="1.51948">
        <ele>122.22</ele>
        <time>2013-07-27T10:07:28Z</time>
      </trkpt>
      <trkpt lat="49.0528" lon="1.51929">
        <ele>121.74</ele>
        <time>2013-07-27T10:07:29Z</time>
      </trkpt>
      <trkpt lat="49.05312" lon="1.51871">
        <ele>119.34</ele>
        <time>2013-07-27T10:07:32Z</time>
      </trkpt>
      <trkpt lat="49.05338" lon="1.51839">
        <ele>118.38</ele>
        <time>2013-07-27T10:07:34Z</time>
      </trkpt>
      <trkpt lat="49.05353" lon="1.51829">
        <ele>117.42</ele>
        <time>2013-07-27T10:07:35Z</time>
      </trkpt>
      <trkpt lat="49.05464" lon="1.51767">
        <ele>112.61</ele>
        <time>2013-07-27T10:07:42Z</time>
      </trkpt>
      <trkpt lat="49.0548" lon="1.51763">
        <ele>112.13</ele>
        <time>2013-07-27T10:07:43Z</time>
      </trkpt>
      <trkpt lat="49.05495" lon="1.51763">
        <ele>111.17</ele>
        <time>2013-07-27T10:07:44Z</time>
      </trkpt>
      <trkpt lat="49.05542" lon="1.51763">
        <ele>111.17</ele>
        <time>2013-07-27T10:07:47Z</time>
      </trkpt>
      <trkpt lat="49.05556" lon="1.51762">
        <ele>111.17</ele>
        <time>2013-07-27T10:07:48Z</time>
      </trkpt>
      <trkpt lat="49.05582" lon="1.51758">
        <ele>111.17</ele>
        <time>2013-07-27T10:07:50Z</time>
      </trkpt>
      <trkpt lat="49.05592" lon="1.51757">
        <ele>111.17</ele>
        <time>2013-07-27T10:07:51Z</time>
      </trkpt>
      <trkpt lat="49.05601" lon="1.51763">
        <ele>110.21</ele>
        <time>2013-07-27T10:07:52Z</time>
      </trkpt>
      <trkpt lat="49.05611" lon="1.51773">
        <ele>109.25</ele>
        <time>2013-07-27T10:07:53Z</time>
      </trkpt>
      <trkpt lat="49.0562" lon="1.51787">
        <ele>108.29</ele>
        <time>2013-07-27T10:07:54Z</time>
      </trkpt>
      <trkpt lat="49.0563" lon="1.51801">
        <ele>107.32</ele>
        <time>2013-07-27T10:07:55Z</time>
      </trkpt>
      <trkpt lat="49.05687" lon="1.51882">
        <ele>105.4</ele>
        <time>2013-07-27T10:08:02Z</time>
      </trkpt>
      <trkpt lat="49.05753" lon="1.51908">
        <ele>104.44</ele>
        <time>2013-07-27T10:08:10Z</time>
      </trkpt>
      <trkpt lat="49.05765" lon="1.51914">
        <ele>104.44</ele>
        <time>2013-07-27T10:08:11Z</time>
      </trkpt>
      <trkpt lat="49.05873" lon="1.5199">
        <ele>102.04</ele>
        <time>2013-07-27T10:08:18Z</time>
      </trkpt>
      <trkpt lat="49.05909" lon="1.52021">
        <ele>102.04</ele>
        <time>2013-07-27T10:08:21Z</time>
      </trkpt>
      <trkpt lat="49.06044" lon="1.52101">
        <ele>97.71</ele>
        <time>2013-07-27T10:08:29Z</time>
      </trkpt>
      <trkpt lat="49.06166" lon="1.52165">
        <ele>90.02</ele>
        <time>2013-07-27T10:08:38Z</time>
      </trkpt>
      <trkpt lat="49.06178" lon="1.52165">
        <ele>88.58</ele>
        <time>2013-07-27T10:08:39Z</time>
      </trkpt>
      <trkpt lat="49.06189" lon="1.52161">
        <ele>87.14</ele>
        <time>2013-07-27T10:08:40Z</time>
      </trkpt>
      <trkpt lat="49.062" lon="1.52156">
        <ele>85.69</ele>
        <time>2013-07-27T10:08:41Z</time>
      </trkpt>
      <trkpt lat="49.06297" lon="1.52134">
        <ele>78.48</ele>
        <time>2013-07-27T10:08:49Z</time>
      </trkpt>
      <trkpt lat="49.06337" lon="1.52133">
        <ele>75.12</ele>
        <time>2013-07-27T10:08:52Z</time>
      </trkpt>
      <trkpt lat="49.06345" lon="1.52132">
        <ele>73.68</ele>
        <time>2013-07-27T10:08:53Z</time>
      </trkpt>
      <trkpt lat="49.0635" lon="1.52132">
        <ele>71.76</ele>
        <time>2013-07-27T10:08:54Z</time>
      </trkpt>
      <trkpt lat="49.06354" lon="1.52132">
        <ele>70.79</ele>
        <time>2013-07-27T10:08:55Z</time>
      </trkpt>
      <trkpt lat="49.06356" lon="1.52132">
        <ele>68.87</ele>
        <time>2013-07-27T10:08:56Z</time>
      </trkpt>
      <trkpt lat="49.06355" lon="1.52151">
        <ele>65.03</ele>
        <time>2013-07-27T10:09:08Z</time>
      </trkpt>
      <trkpt lat="49.06354" lon="1.52149">
        <ele>64.55</ele>
        <time>2013-07-27T10:09:44Z</time>
      </trkpt>
      <trkpt lat="49.06352" lon="1.52148">
        <ele>60.7</ele>
        <time>2013-07-27T10:10:22Z</time>
      </trkpt>
      <trkpt lat="49.06352" lon="1.52148">
        <ele>59.74</ele>
        <time>2013-07-27T10:11:02Z</time>
      </trkpt>
      <trkpt lat="49.06352" lon="1.52148">
        <ele>59.74</ele>
        <time>2013-07-27T10:11:38Z</time>
      </trkpt>
      <trkpt lat="49.06351" lon="1.52149">
        <ele>57.82</ele>
        <time>2013-07-27T10:12:21Z</time>
      </trkpt>
      <trkpt lat="49.0635" lon="1.52149">
        <ele>57.34</ele>
        <time>2013-07-27T10:13:01Z</time>
      </trkpt>
      <trkpt lat="49.0635" lon="1.52149">
        <ele>55.41</ele>
        <time>2013-07-27T10:13:40Z</time>
      </trkpt>
      <trkpt lat="49.0635" lon="1.52149">
        <ele>55.41</ele>
        <time>2013-07-27T10:14:18Z</time>
      </trkpt>
      <trkpt lat="49.0635" lon="1.52149">
        <ele>55.41</ele>
        <time>2013-07-27T10:14:47Z</time>
      </trkpt>
      <trkpt lat="49.06348" lon="1.52148">
        <ele>53.01</ele>
        <time>2013-07-27T10:15:24Z</time>
      </trkpt>
      <trkpt lat="49.06347" lon="1.52149">
        <ele>51.09</ele>
        <time>2013-07-27T10:16:05Z</time>
      </trkpt>
      <trkpt lat="49.06347" lon="1.52149">
        <ele>51.09</ele>
        <time>2013-07-27T10:16:46Z</time>
      </trkpt>
      <trkpt lat="49.06347" lon="1.52149">
        <ele>50.13</ele>
        <time>2013-07-27T10:17:26Z</time>
      </trkpt>
      <trkpt lat="49.06347" lon="1.52149">
        <ele>50.13</ele>
        <time>2013-07-27T10:17:57Z</time>
      </trkpt>
      <trkpt lat="49.06347" lon="1.52149">
        <ele>50.13</ele>
        <time>2013-07-27T10:18:35Z</time>
      </trkpt>
      <trkpt lat="49.06347" lon="1.52149">
        <ele>49.65</ele>
        <time>2013-07-27T10:19:13Z</time>
      </trkpt>
      <trkpt lat="49.06347" lon="1.52148">
        <ele>49.65</ele>
        <time>2013-07-27T10:19:51Z</time>
      </trkpt>
      <trkpt lat="49.06347" lon="1.52148">
        <ele>49.16</ele>
        <time>2013-07-27T10:20:29Z</time>
      </trkpt>
      <trkpt lat="49.06347" lon="1.52148">
        <ele>49.16</ele>
        <time>2013-07-27T10:20:58Z</time>
      </trkpt>
      <trkpt lat="49.06347" lon="1.52148">
        <ele>48.2</ele>
        <time>2013-07-27T10:21:37Z</time>
      </trkpt>
      <trkpt lat="49.06347" lon="1.52148">
        <ele>48.2</ele>
        <time>2013-07-27T10:22:13Z</time>
      </trkpt>
      <trkpt lat="49.06347" lon="1.52147">
        <ele>48.2</ele>
        <time>2013-07-27T10:22:50Z</time>
      </trkpt>
      <trkpt lat="49.06347" lon="1.52148">
        <ele>48.2</ele>
        <time>2013-07-27T10:23:23Z</time>
      </trkpt>
      <trkpt lat="49.06347" lon="1.52148">
        <ele>48.68</ele>
        <time>2013-07-27T10:23:59Z</time>
      </trkpt>
      <trkpt lat="49.06347" lon="1.52147">
        <ele>48.2</ele>
        <time>2013-07-27T10:24:35Z</time>
      </trkpt>
      <trkpt lat="49.06347" lon="1.52147">
        <ele>48.2</ele>
        <time>2013-07-27T10:25:09Z</time>
      </trkpt>
      <trkpt lat="49.06347" lon="1.52147">
        <ele>48.2</ele>
        <time>2013-07-27T10:25:44Z</time>
      </trkpt>
      <trkpt lat="49.06347" lon="1.52147">
        <ele>47.72</ele>
        <time>2013-07-27T10:26:21Z</time>
      </trkpt>
      <trkpt lat="49.06347" lon="1.52147">
        <ele>47.24</ele>
        <time>2013-07-27T10:26:59Z</time>
      </trkpt>
      <trkpt lat="49.06347" lon="1.52147">
        <ele>46.28</ele>
        <time>2013-07-27T10:27:42Z</time>
      </trkpt>
      <trkpt lat="49.06346" lon="1.52148">
        <ele>46.76</ele>
        <time>2013-07-27T10:28:25Z</time>
      </trkpt>
      <trkpt lat="49.06347" lon="1.52147">
        <ele>47.24</ele>
        <time>2013-07-27T10:29:01Z</time>
      </trkpt>
      <trkpt lat="49.06347" lon="1.52147">
        <ele>47.24</ele>
        <time>2013-07-27T10:29:37Z</time>
      </trkpt>
      <trkpt lat="49.06347" lon="1.52148">
        <ele>46.28</ele>
        <time>2013-07-27T10:30:12Z</time>
      </trkpt>
      <trkpt lat="49.06347" lon="1.52148">
        <ele>46.76</ele>
        <time>2013-07-27T10:30:48Z</time>
      </trkpt>
      <trkpt lat="49.06347" lon="1.52148">
        <ele>47.72</ele>
        <time>2013-07-27T10:31:26Z</time>
      </trkpt>
      <trkpt lat="49.06347" lon="1.52147">
        <ele>48.2</ele>
        <time>2013-07-27T10:32:06Z</time>
      </trkpt>
      <trkpt lat="49.06347" lon="1.52147">
        <ele>48.68</ele>
        <time>2013-07-27T10:32:48Z</time>
      </trkpt>
      <trkpt lat="49.06347" lon="1.52147">
        <ele>48.68</ele>
        <time>2013-07-27T10:33:26Z</time>
      </trkpt>
      <trkpt lat="49.06347" lon="1.52147">
        <ele>49.16</ele>
        <time>2013-07-27T10:34:05Z</time>
      </trkpt>
      <trkpt lat="49.06347" lon="1.52147">
        <ele>49.16</ele>
        <time>2013-07-27T10:34:44Z</time>
      </trkpt>
      <trkpt lat="49.06347" lon="1.52147">
        <ele>49.16</ele>
        <time>2013-07-27T10:35:25Z</time>
      </trkpt>
      <trkpt lat="49.06347" lon="1.52147">
        <ele>49.16</ele>
        <time>2013-07-27T10:36:02Z</time>
      </trkpt>
      <trkpt lat="49.06347" lon="1.52147">
        <ele>49.16</ele>
        <time>2013-07-27T10:36:44Z</time>
      </trkpt>
      <trkpt lat="49.06348" lon="1.52148">
        <ele>49.16</ele>
        <time>2013-07-27T10:37:17Z</time>
      </trkpt>
      <trkpt lat="49.06348" lon="1.52148">
        <ele>49.16</ele>
        <time>2013-07-27T10:37:34Z</time>
      </trkpt>
      <trkpt lat="49.06351" lon="1.52144">
        <ele>49.16</ele>
        <time>2013-07-27T10:37:53Z</time>
      </trkpt>
      <trkpt lat="49.06351" lon="1.52144">
        <ele>49.16</ele>
        <time>2013-07-27T10:38:15Z</time>
      </trkpt>
      <trkpt lat="49.0636" lon="1.52132">
        <ele>48.68</ele>
        <time>2013-07-27T10:38:19Z</time>
      </trkpt>
      <trkpt lat="49.0637" lon="1.52131">
        <ele>48.68</ele>
        <time>2013-07-27T10:38:21Z</time>
      </trkpt>
      <trkpt lat="49.06385" lon="1.52129">
        <ele>48.68</ele>
        <time>2013-07-27T10:38:23Z</time>
      </trkpt>
      <trkpt lat="49.06481" lon="1.52089">
        <ele>45.32</ele>
        <time>2013-07-27T10:38:33Z</time>
      </trkpt>
      <trkpt lat="49.0662" lon="1.52016">
        <ele>35.71</ele>
        <time>2013-07-27T10:38:45Z</time>
      </trkpt>
      <trkpt lat="49.06732" lon="1.51931">
        <ele>28.02</ele>
        <time>2013-07-27T10:38:55Z</time>
      </trkpt>
      <trkpt lat="49.06743" lon="1.51924">
        <ele>26.57</ele>
        <time>2013-07-27T10:38:57Z</time>
      </trkpt>
      <trkpt lat="49.06756" lon="1.51917">
        <ele>26.09</ele>
        <time>2013-07-27T10:38:58Z</time>
      </trkpt>
      <trkpt lat="49.06757" lon="1.51919">
        <ele>25.61</ele>
        <time>2013-07-27T10:38:59Z</time>
      </trkpt>
      <trkpt lat="49.06758" lon="1.51921">
        <ele>25.13</ele>
        <time>2013-07-27T10:39:00Z</time>
      </trkpt>
      <trkpt lat="49.06758" lon="1.51923">
        <ele>25.13</ele>
        <time>2013-07-27T10:39:01Z</time>
      </trkpt>
      <trkpt lat="49.06761" lon="1.51928">
        <ele>25.13</ele>
        <time>2013-07-27T10:39:03Z</time>
      </trkpt>
      <trkpt lat="49.06766" lon="1.51925">
        <ele>25.13</ele>
        <time>2013-07-27T10:39:04Z</time>
      </trkpt>
      <trkpt lat="49.06773" lon="1.5192">
        <ele>24.65</ele>
        <time>2013-07-27T10:39:05Z</time>
      </trkpt>
      <trkpt lat="49.06836" lon="1.5187">
        <ele>24.17</ele>
        <time>2013-07-27T10:39:11Z</time>
      </trkpt>
      <trkpt lat="49.06959" lon="1.51767">
        <ele>24.17</ele>
        <time>2013-07-27T10:39:18Z</time>
      </trkpt>
      <trkpt lat="49.07187" lon="1.51548">
        <ele>23.21</ele>
        <time>2013-07-27T10:39:30Z</time>
      </trkpt>
      <trkpt lat="49.07341" lon="1.51347">
        <ele>22.73</ele>
        <time>2013-07-27T10:39:40Z</time>
      </trkpt>
      <trkpt lat="49.07516" lon="1.51139">
        <ele>22.73</ele>
        <time>2013-07-27T10:39:51Z</time>
      </trkpt>
      <trkpt lat="49.07678" lon="1.50956">
        <ele>23.69</ele>
        <time>2013-07-27T10:40:03Z</time>
      </trkpt>
      <trkpt lat="49.0786" lon="1.50712">
        <ele>24.65</ele>
        <time>2013-07-27T10:40:18Z</time>
      </trkpt>
      <trkpt lat="49.07922" lon="1.50593">
        <ele>25.61</ele>
        <time>2013-07-27T10:40:26Z</time>
      </trkpt>
      <trkpt lat="49.07929" lon="1.5059">
        <ele>26.09</ele>
        <time>2013-07-27T10:40:27Z</time>
      </trkpt>
      <trkpt lat="49.07929" lon="1.5059">
        <ele>26.09</ele>
        <time>2013-07-27T10:40:28Z</time>
      </trkpt>
      <trkpt lat="49.07938" lon="1.50581">
        <ele>26.57</ele>
        <time>2013-07-27T10:40:29Z</time>
      </trkpt>
      <trkpt lat="49.0795" lon="1.50589">
        <ele>27.05</ele>
        <time>2013-07-27T10:40:30Z</time>
      </trkpt>
      <trkpt lat="49.07959" lon="1.50586">
        <ele>27.53</ele>
        <time>2013-07-27T10:40:31Z</time>
      </trkpt>
      <trkpt lat="49.07967" lon="1.5058">
        <ele>27.53</ele>
        <time>2013-07-27T10:40:32Z</time>
      </trkpt>
      <trkpt lat="49.07972" lon="1.50571">
        <ele>28.02</ele>
        <time>2013-07-27T10:40:33Z</time>
      </trkpt>
      <trkpt lat="49.07973" lon="1.50558">
        <ele>28.02</ele>
        <time>2013-07-27T10:40:34Z</time>
      </trkpt>
      <trkpt lat="49.07972" lon="1.50544">
        <ele>28.02</ele>
        <time>2013-07-27T10:40:35Z</time>
      </trkpt>
      <trkpt lat="49.07977" lon="1.50535">
        <ele>28.02</ele>
        <time>2013-07-27T10:40:36Z</time>
      </trkpt>
      <trkpt lat="49.07982" lon="1.50526">
        <ele>28.02</ele>
        <time>2013-07-27T10:40:37Z</time>
      </trkpt>
      <trkpt lat="49.07992" lon="1.50508">
        <ele>27.53</ele>
        <time>2013-07-27T10:40:38Z</time>
      </trkpt>
      <trkpt lat="49.07994" lon="1.50507">
        <ele>27.53</ele>
        <time>2013-07-27T10:40:39Z</time>
      </trkpt>
      <trkpt lat="49.08003" lon="1.50501">
        <ele>27.05</ele>
        <time>2013-07-27T10:40:40Z</time>
      </trkpt>
      <trkpt lat="49.08013" lon="1.50494">
        <ele>27.05</ele>
        <time>2013-07-27T10:40:41Z</time>
      </trkpt>
      <trkpt lat="49.08024" lon="1.50489">
        <ele>26.57</ele>
        <time>2013-07-27T10:40:42Z</time>
      </trkpt>
      <trkpt lat="49.08058" lon="1.50476">
        <ele>25.61</ele>
        <time>2013-07-27T10:40:45Z</time>
      </trkpt>
      <trkpt lat="49.08058" lon="1.50476">
        <ele>25.13</ele>
        <time>2013-07-27T10:40:46Z</time>
      </trkpt>
      <trkpt lat="49.08164" lon="1.50426">
        <ele>24.65</ele>
        <time>2013-07-27T10:40:54Z</time>
      </trkpt>
      <trkpt lat="49.08254" lon="1.50303">
        <ele>24.17</ele>
        <time>2013-07-27T10:41:01Z</time>
      </trkpt>
      <trkpt lat="49.08346" lon="1.50096">
        <ele>24.65</ele>
        <time>2013-07-27T10:41:11Z</time>
      </trkpt>
      <trkpt lat="49.08478" lon="1.4992">
        <ele>25.13</ele>
        <time>2013-07-27T10:41:23Z</time>
      </trkpt>
      <trkpt lat="49.08637" lon="1.49697">
        <ele>24.17</ele>
        <time>2013-07-27T10:41:38Z</time>
      </trkpt>
      <trkpt lat="49.08764" lon="1.49472">
        <ele>25.13</ele>
        <time>2013-07-27T10:41:52Z</time>
      </trkpt>
      <trkpt lat="49.08914" lon="1.49203">
        <ele>26.57</ele>
        <time>2013-07-27T10:42:09Z</time>
      </trkpt>
      <trkpt lat="49.09022" lon="1.49022">
        <ele>26.09</ele>
        <time>2013-07-27T10:42:22Z</time>
      </trkpt>
      <trkpt lat="49.0912" lon="1.48936">
        <ele>24.17</ele>
        <time>2013-07-27T10:42:32Z</time>
      </trkpt>
      <trkpt lat="49.09228" lon="1.48874">
        <ele>22.73</ele>
        <time>2013-07-27T10:42:43Z</time>
      </trkpt>
      <trkpt lat="49.0923" lon="1.48872">
        <ele>22.25</ele>
        <time>2013-07-27T10:42:51Z</time>
      </trkpt>
      <trkpt lat="49.09234" lon="1.4887">
        <ele>22.25</ele>
        <time>2013-07-27T10:43:25Z</time>
      </trkpt>
      <trkpt lat="49.09285" lon="1.48838">
        <ele>22.73</ele>
        <time>2013-07-27T10:43:33Z</time>
      </trkpt>
      <trkpt lat="49.09354" lon="1.48794">
        <ele>22.25</ele>
        <time>2013-07-27T10:43:44Z</time>
      </trkpt>
      <trkpt lat="49.09428" lon="1.48746">
        <ele>21.29</ele>
        <time>2013-07-27T10:43:55Z</time>
      </trkpt>
      <trkpt lat="49.09432" lon="1.48744">
        <ele>20.81</ele>
        <time>2013-07-27T10:43:56Z</time>
      </trkpt>
      <trkpt lat="49.09434" lon="1.48743">
        <ele>20.81</ele>
        <time>2013-07-27T10:43:57Z</time>
      </trkpt>
      <trkpt lat="49.09433" lon="1.48728">
        <ele>20.81</ele>
        <time>2013-07-27T10:43:58Z</time>
      </trkpt>
      <trkpt lat="49.09432" lon="1.48721">
        <ele>20.81</ele>
        <time>2013-07-27T10:43:59Z</time>
      </trkpt>
      <trkpt lat="49.09431" lon="1.48713">
        <ele>20.32</ele>
        <time>2013-07-27T10:44:00Z</time>
      </trkpt>
      <trkpt lat="49.09431" lon="1.48701">
        <ele>20.32</ele>
        <time>2013-07-27T10:44:01Z</time>
      </trkpt>
      <trkpt lat="49.09435" lon="1.48693">
        <ele>20.32</ele>
        <time>2013-07-27T10:44:02Z</time>
      </trkpt>
      <trkpt lat="49.09438" lon="1.48685">
        <ele>20.32</ele>
        <time>2013-07-27T10:44:03Z</time>
      </trkpt>
      <trkpt lat="49.09438" lon="1.48685">
        <ele>20.32</ele>
        <time>2013-07-27T10:44:04Z</time>
      </trkpt>
      <trkpt lat="49.09449" lon="1.48671">
        <ele>20.81</ele>
        <time>2013-07-27T10:44:05Z</time>
      </trkpt>
      <trkpt lat="49.09453" lon="1.48666">
        <ele>20.81</ele>
        <time>2013-07-27T10:44:06Z</time>
      </trkpt>
      <trkpt lat="49.09464" lon="1.48651">
        <ele>23.69</ele>
        <time>2013-07-27T10:44:14Z</time>
      </trkpt>
      <trkpt lat="49.09478" lon="1.48643">
        <ele>26.09</ele>
        <time>2013-07-27T10:44:21Z</time>
      </trkpt>
      <trkpt lat="49.09488" lon="1.48645">
        <ele>26.09</ele>
        <time>2013-07-27T10:44:22Z</time>
      </trkpt>
      <trkpt lat="49.09545" lon="1.48728">
        <ele>28.02</ele>
        <time>2013-07-27T10:44:33Z</time>
      </trkpt>
      <trkpt lat="49.09626" lon="1.48853">
        <ele>28.5</ele>
        <time>2013-07-27T10:44:44Z</time>
      </trkpt>
      <trkpt lat="49.09685" lon="1.48937">
        <ele>25.13</ele>
        <time>2013-07-27T10:44:53Z</time>
      </trkpt>
      <trkpt lat="49.09689" lon="1.48955">
        <ele>24.17</ele>
        <time>2013-07-27T10:44:55Z</time>
      </trkpt>
      <trkpt lat="49.09695" lon="1.4896">
        <ele>23.69</ele>
        <time>2013-07-27T10:44:56Z</time>
      </trkpt>
      <trkpt lat="49.09699" lon="1.48962">
        <ele>23.69</ele>
        <time>2013-07-27T10:44:57Z</time>
      </trkpt>
      <trkpt lat="49.09706" lon="1.48962">
        <ele>23.21</ele>
        <time>2013-07-27T10:44:58Z</time>
      </trkpt>
      <trkpt lat="49.0971" lon="1.48958">
        <ele>22.73</ele>
        <time>2013-07-27T10:44:59Z</time>
      </trkpt>
      <trkpt lat="49.09716" lon="1.48938">
        <ele>22.25</ele>
        <time>2013-07-27T10:45:00Z</time>
      </trkpt>
      <trkpt lat="49.09791" lon="1.48924">
        <ele>18.4</ele>
        <time>2013-07-27T10:45:09Z</time>
      </trkpt>
      <trkpt lat="49.09935" lon="1.48851">
        <ele>17.44</ele>
        <time>2013-07-27T10:45:26Z</time>
      </trkpt>
      <trkpt lat="49.10027" lon="1.48761">
        <ele>16.96</ele>
        <time>2013-07-27T10:45:39Z</time>
      </trkpt>
      <trkpt lat="49.10102" lon="1.4864">
        <ele>18.4</ele>
        <time>2013-07-27T10:45:51Z</time>
      </trkpt>
      <trkpt lat="49.10191" lon="1.48577">
        <ele>21.77</ele>
        <time>2013-07-27T10:46:02Z</time>
      </trkpt>
      <trkpt lat="49.102" lon="1.48576">
        <ele>22.73</ele>
        <time>2013-07-27T10:46:08Z</time>
      </trkpt>
      <trkpt lat="49.10222" lon="1.48573">
        <ele>23.69</ele>
        <time>2013-07-27T10:46:15Z</time>
      </trkpt>
      <trkpt lat="49.10251" lon="1.4857">
        <ele>26.09</ele>
        <time>2013-07-27T10:46:22Z</time>
      </trkpt>
      <trkpt lat="49.10256" lon="1.48569">
        <ele>26.09</ele>
        <time>2013-07-27T10:46:23Z</time>
      </trkpt>
      <trkpt lat="49.10258" lon="1.48569">
        <ele>26.09</ele>
        <time>2013-07-27T10:46:24Z</time>
      </trkpt>
      <trkpt lat="49.10258" lon="1.48569">
        <ele>26.09</ele>
        <time>2013-07-27T10:46:25Z</time>
      </trkpt>
      <trkpt lat="49.10266" lon="1.48547">
        <ele>26.57</ele>
        <time>2013-07-27T10:46:26Z</time>
      </trkpt>
      <trkpt lat="49.10268" lon="1.4854">
        <ele>26.57</ele>
        <time>2013-07-27T10:46:27Z</time>
      </trkpt>
      <trkpt lat="49.10271" lon="1.48532">
        <ele>27.05</ele>
        <time>2013-07-27T10:46:28Z</time>
      </trkpt>
      <trkpt lat="49.1031" lon="1.48415">
        <ele>32.82</ele>
        <time>2013-07-27T10:46:38Z</time>
      </trkpt>
      <trkpt lat="49.10379" lon="1.48237">
        <ele>33.3</ele>
        <time>2013-07-27T10:46:49Z</time>
      </trkpt>
      <trkpt lat="49.10486" lon="1.48033">
        <ele>30.42</ele>
        <time>2013-07-27T10:47:00Z</time>
      </trkpt>
      <trkpt lat="49.10614" lon="1.47831">
        <ele>26.57</ele>
        <time>2013-07-27T10:47:11Z</time>
      </trkpt>
      <trkpt lat="49.10717" lon="1.47677">
        <ele>24.17</ele>
        <time>2013-07-27T10:47:19Z</time>
      </trkpt>
      <trkpt lat="49.10773" lon="1.47605">
        <ele>22.73</ele>
        <time>2013-07-27T10:47:24Z</time>
      </trkpt>
      <trkpt lat="49.10839" lon="1.47521">
        <ele>21.29</ele>
        <time>2013-07-27T10:47:34Z</time>
      </trkpt>
      <trkpt lat="49.10905" lon="1.47442">
        <ele>20.81</ele>
        <time>2013-07-27T10:47:42Z</time>
      </trkpt>
      <trkpt lat="49.10971" lon="1.47352">
        <ele>21.29</ele>
        <time>2013-07-27T10:47:52Z</time>
      </trkpt>
      <trkpt lat="49.11019" lon="1.47236">
        <ele>21.77</ele>
        <time>2013-07-27T10:48:03Z</time>
      </trkpt>
      <trkpt lat="49.11083" lon="1.47123">
        <ele>20.81</ele>
        <time>2013-07-27T10:48:13Z</time>
      </trkpt>
      <trkpt lat="49.1116" lon="1.47008">
        <ele>20.81</ele>
        <time>2013-07-27T10:48:18Z</time>
      </trkpt>
      <trkpt lat="49.11328" lon="1.46761">
        <ele>21.29</ele>
        <time>2013-07-27T10:48:27Z</time>
      </trkpt>
      <trkpt lat="49.11579" lon="1.46393">
        <ele>20.81</ele>
        <time>2013-07-27T10:48:42Z</time>
      </trkpt>
      <trkpt lat="49.11753" lon="1.46171">
        <ele>19.84</ele>
        <time>2013-07-27T10:48:53Z</time>
      </trkpt>
      <trkpt lat="49.11957" lon="1.45957">
        <ele>19.84</ele>
        <time>2013-07-27T10:49:05Z</time>
      </trkpt>
      <trkpt lat="49.12056" lon="1.45863">
        <ele>20.32</ele>
        <time>2013-07-27T10:49:11Z</time>
      </trkpt>
      <trkpt lat="49.12069" lon="1.45852">
        <ele>20.81</ele>
        <time>2013-07-27T10:49:12Z</time>
      </trkpt>
      <trkpt lat="49.12116" lon="1.45817">
        <ele>20.81</ele>
        <time>2013-07-27T10:49:15Z</time>
      </trkpt>
      <trkpt lat="49.12128" lon="1.45803">
        <ele>21.29</ele>
        <time>2013-07-27T10:49:16Z</time>
      </trkpt>
      <trkpt lat="49.12244" lon="1.45681">
        <ele>22.25</ele>
        <time>2013-07-27T10:49:24Z</time>
      </trkpt>
      <trkpt lat="49.1226" lon="1.45671">
        <ele>22.73</ele>
        <time>2013-07-27T10:49:25Z</time>
      </trkpt>
      <trkpt lat="49.12276" lon="1.45664">
        <ele>22.73</ele>
        <time>2013-07-27T10:49:26Z</time>
      </trkpt>
      <trkpt lat="49.12293" lon="1.45657">
        <ele>23.21</ele>
        <time>2013-07-27T10:49:27Z</time>
      </trkpt>
      <trkpt lat="49.12309" lon="1.45651">
        <ele>23.21</ele>
        <time>2013-07-27T10:49:28Z</time>
      </trkpt>
      <trkpt lat="49.12326" lon="1.45645">
        <ele>23.69</ele>
        <time>2013-07-27T10:49:29Z</time>
      </trkpt>
      <trkpt lat="49.12356" lon="1.45633">
        <ele>24.17</ele>
        <time>2013-07-27T10:49:31Z</time>
      </trkpt>
      <trkpt lat="49.12356" lon="1.45633">
        <ele>24.65</ele>
        <time>2013-07-27T10:49:32Z</time>
      </trkpt>
      <trkpt lat="49.12562" lon="1.45485">
        <ele>28.02</ele>
        <time>2013-07-27T10:49:44Z</time>
      </trkpt>
      <trkpt lat="49.12741" lon="1.45407">
        <ele>35.23</ele>
        <time>2013-07-27T10:49:55Z</time>
      </trkpt>
      <trkpt lat="49.12922" lon="1.45364">
        <ele>35.23</ele>
        <time>2013-07-27T10:50:07Z</time>
      </trkpt>
      <trkpt lat="49.12987" lon="1.4534">
        <ele>33.78</ele>
        <time>2013-07-27T10:50:12Z</time>
      </trkpt>
      <trkpt lat="49.12997" lon="1.45331">
        <ele>33.78</ele>
        <time>2013-07-27T10:50:13Z</time>
      </trkpt>
      <trkpt lat="49.13006" lon="1.45319">
        <ele>33.78</ele>
        <time>2013-07-27T10:50:14Z</time>
      </trkpt>
      <trkpt lat="49.13013" lon="1.45305">
        <ele>33.78</ele>
        <time>2013-07-27T10:50:15Z</time>
      </trkpt>
      <trkpt lat="49.13019" lon="1.45289">
        <ele>33.78</ele>
        <time>2013-07-27T10:50:16Z</time>
      </trkpt>
      <trkpt lat="49.13024" lon="1.45271">
        <ele>34.26</ele>
        <time>2013-07-27T10:50:17Z</time>
      </trkpt>
      <trkpt lat="49.13027" lon="1.45252">
        <ele>34.26</ele>
        <time>2013-07-27T10:50:18Z</time>
      </trkpt>
      <trkpt lat="49.13031" lon="1.45233">
        <ele>34.74</ele>
        <time>2013-07-27T10:50:19Z</time>
      </trkpt>
      <trkpt lat="49.13034" lon="1.45215">
        <ele>34.74</ele>
        <time>2013-07-27T10:50:20Z</time>
      </trkpt>
      <trkpt lat="49.13038" lon="1.45196">
        <ele>35.23</ele>
        <time>2013-07-27T10:50:21Z</time>
      </trkpt>
      <trkpt lat="49.13038" lon="1.45177">
        <ele>35.23</ele>
        <time>2013-07-27T10:50:22Z</time>
      </trkpt>
      <trkpt lat="49.13037" lon="1.45157">
        <ele>35.71</ele>
        <time>2013-07-27T10:50:23Z</time>
      </trkpt>
      <trkpt lat="49.13036" lon="1.45137">
        <ele>36.19</ele>
        <time>2013-07-27T10:50:24Z</time>
      </trkpt>
      <trkpt lat="49.13034" lon="1.45117">
        <ele>36.67</ele>
        <time>2013-07-27T10:50:25Z</time>
      </trkpt>
      <trkpt lat="49.13032" lon="1.45097">
        <ele>36.67</ele>
        <time>2013-07-27T10:50:26Z</time>
      </trkpt>
      <trkpt lat="49.12994" lon="1.44851">
        <ele>36.19</ele>
        <time>2013-07-27T10:50:38Z</time>
      </trkpt>
      <trkpt lat="49.12992" lon="1.44835">
        <ele>35.71</ele>
        <time>2013-07-27T10:50:39Z</time>
      </trkpt>
      <trkpt lat="49.12995" lon="1.4482">
        <ele>35.71</ele>
        <time>2013-07-27T10:50:40Z</time>
      </trkpt>
      <trkpt lat="49.12999" lon="1.44806">
        <ele>35.71</ele>
        <time>2013-07-27T10:50:41Z</time>
      </trkpt>
      <trkpt lat="49.13003" lon="1.44794">
        <ele>35.71</ele>
        <time>2013-07-27T10:50:42Z</time>
      </trkpt>
      <trkpt lat="49.13009" lon="1.44783">
        <ele>35.23</ele>
        <time>2013-07-27T10:50:43Z</time>
      </trkpt>
      <trkpt lat="49.13016" lon="1.44777">
        <ele>35.23</ele>
        <time>2013-07-27T10:50:44Z</time>
      </trkpt>
      <trkpt lat="49.13024" lon="1.4477">
        <ele>35.23</ele>
        <time>2013-07-27T10:50:45Z</time>
      </trkpt>
      <trkpt lat="49.13032" lon="1.44763">
        <ele>35.23</ele>
        <time>2013-07-27T10:50:46Z</time>
      </trkpt>
      <trkpt lat="49.13121" lon="1.44679">
        <ele>36.19</ele>
        <time>2013-07-27T10:50:55Z</time>
      </trkpt>
      <trkpt lat="49.13157" lon="1.4464">
        <ele>35.23</ele>
        <time>2013-07-27T10:50:59Z</time>
      </trkpt>
      <trkpt lat="49.13165" lon="1.4463">
        <ele>35.23</ele>
        <time>2013-07-27T10:51:00Z</time>
      </trkpt>
      <trkpt lat="49.13207" lon="1.44545">
        <ele>32.82</ele>
        <time>2013-07-27T10:51:08Z</time>
      </trkpt>
      <trkpt lat="49.13213" lon="1.44537">
        <ele>32.82</ele>
        <time>2013-07-27T10:51:09Z</time>
      </trkpt>
      <trkpt lat="49.13221" lon="1.44529">
        <ele>32.34</ele>
        <time>2013-07-27T10:51:10Z</time>
      </trkpt>
      <trkpt lat="49.1323" lon="1.44523">
        <ele>32.34</ele>
        <time>2013-07-27T10:51:11Z</time>
      </trkpt>
      <trkpt lat="49.13241" lon="1.44516">
        <ele>32.34</ele>
        <time>2013-07-27T10:51:12Z</time>
      </trkpt>
      <trkpt lat="49.13252" lon="1.44509">
        <ele>32.34</ele>
        <time>2013-07-27T10:51:13Z</time>
      </trkpt>
      <trkpt lat="49.1338" lon="1.44428">
        <ele>31.86</ele>
        <time>2013-07-27T10:51:24Z</time>
      </trkpt>
      <trkpt lat="49.1352" lon="1.44337">
        <ele>30.9</ele>
        <time>2013-07-27T10:51:35Z</time>
      </trkpt>
      <trkpt lat="49.13642" lon="1.44271">
        <ele>28.5</ele>
        <time>2013-07-27T10:51:42Z</time>
      </trkpt>
      <trkpt lat="49.1371" lon="1.44226">
        <ele>27.53</ele>
        <time>2013-07-27T10:51:46Z</time>
      </trkpt>
      <trkpt lat="49.13727" lon="1.44209">
        <ele>27.53</ele>
        <time>2013-07-27T10:51:47Z</time>
      </trkpt>
      <trkpt lat="49.13743" lon="1.44185">
        <ele>27.53</ele>
        <time>2013-07-27T10:51:48Z</time>
      </trkpt>
      <trkpt lat="49.13842" lon="1.44043">
        <ele>25.61</ele>
        <time>2013-07-27T10:51:53Z</time>
      </trkpt>
      <trkpt lat="49.14075" lon="1.43708">
        <ele>21.77</ele>
        <time>2013-07-27T10:52:05Z</time>
      </trkpt>
      <trkpt lat="49.14279" lon="1.4341">
        <ele>22.73</ele>
        <time>2013-07-27T10:52:17Z</time>
      </trkpt>
      <trkpt lat="49.14376" lon="1.43268">
        <ele>22.25</ele>
        <time>2013-07-27T10:52:25Z</time>
      </trkpt>
      <trkpt lat="49.14464" lon="1.43145">
        <ele>21.77</ele>
        <time>2013-07-27T10:52:35Z</time>
      </trkpt>
      <trkpt lat="49.14528" lon="1.43056">
        <ele>21.29</ele>
        <time>2013-07-27T10:52:45Z</time>
      </trkpt>
      <trkpt lat="49.14635" lon="1.42898">
        <ele>20.81</ele>
        <time>2013-07-27T10:52:56Z</time>
      </trkpt>
      <trkpt lat="49.14722" lon="1.42774">
        <ele>19.84</ele>
        <time>2013-07-27T10:53:02Z</time>
      </trkpt>
      <trkpt lat="49.14759" lon="1.42727">
        <ele>19.36</ele>
        <time>2013-07-27T10:53:04Z</time>
      </trkpt>
      <trkpt lat="49.14779" lon="1.42708">
        <ele>19.36</ele>
        <time>2013-07-27T10:53:05Z</time>
      </trkpt>
      <trkpt lat="49.14801" lon="1.42691">
        <ele>19.36</ele>
        <time>2013-07-27T10:53:06Z</time>
      </trkpt>
      <trkpt lat="49.14825" lon="1.42676">
        <ele>19.36</ele>
        <time>2013-07-27T10:53:07Z</time>
      </trkpt>
      <trkpt lat="49.1485" lon="1.42662">
        <ele>19.84</ele>
        <time>2013-07-27T10:53:08Z</time>
      </trkpt>
      <trkpt lat="49.1512" lon="1.42511">
        <ele>20.81</ele>
        <time>2013-07-27T10:53:19Z</time>
      </trkpt>
      <trkpt lat="49.15452" lon="1.42326">
        <ele>21.29</ele>
        <time>2013-07-27T10:53:33Z</time>
      </trkpt>
      <trkpt lat="49.15887" lon="1.42061">
        <ele>20.32</ele>
        <time>2013-07-27T10:53:51Z</time>
      </trkpt>
      <trkpt lat="49.16094" lon="1.41857">
        <ele>19.36</ele>
        <time>2013-07-27T10:54:01Z</time>
      </trkpt>
      <trkpt lat="49.16208" lon="1.41734">
        <ele>19.36</ele>
        <time>2013-07-27T10:54:09Z</time>
      </trkpt>
      <trkpt lat="49.16307" lon="1.41569">
        <ele>19.36</ele>
        <time>2013-07-27T10:54:19Z</time>
      </trkpt>
      <trkpt lat="49.16387" lon="1.41412">
        <ele>18.4</ele>
        <time>2013-07-27T10:54:29Z</time>
      </trkpt>
      <trkpt lat="49.16476" lon="1.41287">
        <ele>17.92</ele>
        <time>2013-07-27T10:54:39Z</time>
      </trkpt>
      <trkpt lat="49.16603" lon="1.41154">
        <ele>16.48</ele>
        <time>2013-07-27T10:54:50Z</time>
      </trkpt>
      <trkpt lat="49.16701" lon="1.40998">
        <ele>16.96</ele>
        <time>2013-07-27T10:55:00Z</time>
      </trkpt>
      <trkpt lat="49.16816" lon="1.40825">
        <ele>17.92</ele>
        <time>2013-07-27T10:55:11Z</time>
      </trkpt>
      <trkpt lat="49.16858" lon="1.40758">
        <ele>18.4</ele>
        <time>2013-07-27T10:55:18Z</time>
      </trkpt>
      <trkpt lat="49.16938" lon="1.4064">
        <ele>17.92</ele>
        <time>2013-07-27T10:55:28Z</time>
      </trkpt>
      <trkpt lat="49.17057" lon="1.40463">
        <ele>17.92</ele>
        <time>2013-07-27T10:55:41Z</time>
      </trkpt>
      <trkpt lat="49.17065" lon="1.40444">
        <ele>17.92</ele>
        <time>2013-07-27T10:55:42Z</time>
      </trkpt>
      <trkpt lat="49.17117" lon="1.40256">
        <ele>17.92</ele>
        <time>2013-07-27T10:55:51Z</time>
      </trkpt>
      <trkpt lat="49.17149" lon="1.40067">
        <ele>17.44</ele>
        <time>2013-07-27T10:56:00Z</time>
      </trkpt>
      <trkpt lat="49.17158" lon="1.40051">
        <ele>17.92</ele>
        <time>2013-07-27T10:56:01Z</time>
      </trkpt>
      <trkpt lat="49.17168" lon="1.40037">
        <ele>17.92</ele>
        <time>2013-07-27T10:56:02Z</time>
      </trkpt>
      <trkpt lat="49.17179" lon="1.40022">
        <ele>17.92</ele>
        <time>2013-07-27T10:56:03Z</time>
      </trkpt>
      <trkpt lat="49.17186" lon="1.40002">
        <ele>18.4</ele>
        <time>2013-07-27T10:56:04Z</time>
      </trkpt>
      <trkpt lat="49.17194" lon="1.39979">
        <ele>18.4</ele>
        <time>2013-07-27T10:56:05Z</time>
      </trkpt>
      <trkpt lat="49.17256" lon="1.39795">
        <ele>18.4</ele>
        <time>2013-07-27T10:56:13Z</time>
      </trkpt>
      <trkpt lat="49.17266" lon="1.39775">
        <ele>17.92</ele>
        <time>2013-07-27T10:56:14Z</time>
      </trkpt>
      <trkpt lat="49.17322" lon="1.39679">
        <ele>18.88</ele>
        <time>2013-07-27T10:56:19Z</time>
      </trkpt>
      <trkpt lat="49.17382" lon="1.39606">
        <ele>22.25</ele>
        <time>2013-07-27T10:56:24Z</time>
      </trkpt>
      <trkpt lat="49.17394" lon="1.39599">
        <ele>23.21</ele>
        <time>2013-07-27T10:56:25Z</time>
      </trkpt>
      <trkpt lat="49.17408" lon="1.39596">
        <ele>24.17</ele>
        <time>2013-07-27T10:56:26Z</time>
      </trkpt>
      <trkpt lat="49.17422" lon="1.39593">
        <ele>25.13</ele>
        <time>2013-07-27T10:56:27Z</time>
      </trkpt>
      <trkpt lat="49.17436" lon="1.39592">
        <ele>25.61</ele>
        <time>2013-07-27T10:56:28Z</time>
      </trkpt>
      <trkpt lat="49.1745" lon="1.39597">
        <ele>26.09</ele>
        <time>2013-07-27T10:56:29Z</time>
      </trkpt>
      <trkpt lat="49.17465" lon="1.39604">
        <ele>27.05</ele>
        <time>2013-07-27T10:56:30Z</time>
      </trkpt>
      <trkpt lat="49.17482" lon="1.39609">
        <ele>28.02</ele>
        <time>2013-07-27T10:56:31Z</time>
      </trkpt>
      <trkpt lat="49.17513" lon="1.39616">
        <ele>29.94</ele>
        <time>2013-07-27T10:56:33Z</time>
      </trkpt>
      <trkpt lat="49.17528" lon="1.39613">
        <ele>30.42</ele>
        <time>2013-07-27T10:56:34Z</time>
      </trkpt>
      <trkpt lat="49.17541" lon="1.39607">
        <ele>31.38</ele>
        <time>2013-07-27T10:56:35Z</time>
      </trkpt>
      <trkpt lat="49.17553" lon="1.39596">
        <ele>32.34</ele>
        <time>2013-07-27T10:56:36Z</time>
      </trkpt>
      <trkpt lat="49.17561" lon="1.39582">
        <ele>32.82</ele>
        <time>2013-07-27T10:56:37Z</time>
      </trkpt>
      <trkpt lat="49.17568" lon="1.39564">
        <ele>33.78</ele>
        <time>2013-07-27T10:56:38Z</time>
      </trkpt>
      <trkpt lat="49.17572" lon="1.39545">
        <ele>34.26</ele>
        <time>2013-07-27T10:56:39Z</time>
      </trkpt>
      <trkpt lat="49.17575" lon="1.39524">
        <ele>34.74</ele>
        <time>2013-07-27T10:56:40Z</time>
      </trkpt>
      <trkpt lat="49.17572" lon="1.39502">
        <ele>35.71</ele>
        <time>2013-07-27T10:56:41Z</time>
      </trkpt>
      <trkpt lat="49.17569" lon="1.3948">
        <ele>36.19</ele>
        <time>2013-07-27T10:56:42Z</time>
      </trkpt>
      <trkpt lat="49.17563" lon="1.39456">
        <ele>37.15</ele>
        <time>2013-07-27T10:56:43Z</time>
      </trkpt>
      <trkpt lat="49.1752" lon="1.39257">
        <ele>43.4</ele>
        <time>2013-07-27T10:56:50Z</time>
      </trkpt>
      <trkpt lat="49.17515" lon="1.39205">
        <ele>44.84</ele>
        <time>2013-07-27T10:56:52Z</time>
      </trkpt>
      <trkpt lat="49.17515" lon="1.3918">
        <ele>45.8</ele>
        <time>2013-07-27T10:56:53Z</time>
      </trkpt>
      <trkpt lat="49.17516" lon="1.39154">
        <ele>46.76</ele>
        <time>2013-07-27T10:56:54Z</time>
      </trkpt>
      <trkpt lat="49.17519" lon="1.39129">
        <ele>47.72</ele>
        <time>2013-07-27T10:56:55Z</time>
      </trkpt>
      <trkpt lat="49.17523" lon="1.39105">
        <ele>48.68</ele>
        <time>2013-07-27T10:56:56Z</time>
      </trkpt>
      <trkpt lat="49.17527" lon="1.39083">
        <ele>49.16</ele>
        <time>2013-07-27T10:56:57Z</time>
      </trkpt>
      <trkpt lat="49.17531" lon="1.39061">
        <ele>50.13</ele>
        <time>2013-07-27T10:56:58Z</time>
      </trkpt>
      <trkpt lat="49.17539" lon="1.39043">
        <ele>51.09</ele>
        <time>2013-07-27T10:56:59Z</time>
      </trkpt>
      <trkpt lat="49.17547" lon="1.39025">
        <ele>52.05</ele>
        <time>2013-07-27T10:57:00Z</time>
      </trkpt>
      <trkpt lat="49.17555" lon="1.39006">
        <ele>52.53</ele>
        <time>2013-07-27T10:57:01Z</time>
      </trkpt>
      <trkpt lat="49.17619" lon="1.38865">
        <ele>58.78</ele>
        <time>2013-07-27T10:57:09Z</time>
      </trkpt>
      <trkpt lat="49.17628" lon="1.38851">
        <ele>59.26</ele>
        <time>2013-07-27T10:57:10Z</time>
      </trkpt>
      <trkpt lat="49.17639" lon="1.3884">
        <ele>60.22</ele>
        <time>2013-07-27T10:57:11Z</time>
      </trkpt>
      <trkpt lat="49.17651" lon="1.38828">
        <ele>60.7</ele>
        <time>2013-07-27T10:57:12Z</time>
      </trkpt>
      <trkpt lat="49.17667" lon="1.38821">
        <ele>61.66</ele>
        <time>2013-07-27T10:57:13Z</time>
      </trkpt>
      <trkpt lat="49.17684" lon="1.38814">
        <ele>62.14</ele>
        <time>2013-07-27T10:57:14Z</time>
      </trkpt>
      <trkpt lat="49.17817" lon="1.38759">
        <ele>67.91</ele>
        <time>2013-07-27T10:57:21Z</time>
      </trkpt>
      <trkpt lat="49.17836" lon="1.38754">
        <ele>68.87</ele>
        <time>2013-07-27T10:57:22Z</time>
      </trkpt>
      <trkpt lat="49.17856" lon="1.38754">
        <ele>69.35</ele>
        <time>2013-07-27T10:57:23Z</time>
      </trkpt>
      <trkpt lat="49.17876" lon="1.38757">
        <ele>70.31</ele>
        <time>2013-07-27T10:57:24Z</time>
      </trkpt>
      <trkpt lat="49.17896" lon="1.38761">
        <ele>71.27</ele>
        <time>2013-07-27T10:57:25Z</time>
      </trkpt>
      <trkpt lat="49.17916" lon="1.38765">
        <ele>71.76</ele>
        <time>2013-07-27T10:57:26Z</time>
      </trkpt>
      <trkpt lat="49.18003" lon="1.38777">
        <ele>76.08</ele>
        <time>2013-07-27T10:57:31Z</time>
      </trkpt>
      <trkpt lat="49.1802" lon="1.38772">
        <ele>76.56</ele>
        <time>2013-07-27T10:57:32Z</time>
      </trkpt>
      <trkpt lat="49.18036" lon="1.38764">
        <ele>77.52</ele>
        <time>2013-07-27T10:57:33Z</time>
      </trkpt>
      <trkpt lat="49.18167" lon="1.38684">
        <ele>81.37</ele>
        <time>2013-07-27T10:57:40Z</time>
      </trkpt>
      <trkpt lat="49.18337" lon="1.38568">
        <ele>78.48</ele>
        <time>2013-07-27T10:57:48Z</time>
      </trkpt>
      <trkpt lat="49.18357" lon="1.38556">
        <ele>77.52</ele>
        <time>2013-07-27T10:57:49Z</time>
      </trkpt>
      <trkpt lat="49.18378" lon="1.38551">
        <ele>76.56</ele>
        <time>2013-07-27T10:57:50Z</time>
      </trkpt>
      <trkpt lat="49.18525" lon="1.38507">
        <ele>67.43</ele>
        <time>2013-07-27T10:57:57Z</time>
      </trkpt>
      <trkpt lat="49.18691" lon="1.38419">
        <ele>57.82</ele>
        <time>2013-07-27T10:58:05Z</time>
      </trkpt>
      <trkpt lat="49.18711" lon="1.38414">
        <ele>56.86</ele>
        <time>2013-07-27T10:58:06Z</time>
      </trkpt>
      <trkpt lat="49.18729" lon="1.38408">
        <ele>55.41</ele>
        <time>2013-07-27T10:58:07Z</time>
      </trkpt>
      <trkpt lat="49.18801" lon="1.38389">
        <ele>51.09</ele>
        <time>2013-07-27T10:58:11Z</time>
      </trkpt>
      <trkpt lat="49.18955" lon="1.38317">
        <ele>42.92</ele>
        <time>2013-07-27T10:58:19Z</time>
      </trkpt>
      <trkpt lat="49.19157" lon="1.38268">
        <ele>40.03</ele>
        <time>2013-07-27T10:58:28Z</time>
      </trkpt>
      <trkpt lat="49.1936" lon="1.38251">
        <ele>38.59</ele>
        <time>2013-07-27T10:58:37Z</time>
      </trkpt>
      <trkpt lat="49.19529" lon="1.38319">
        <ele>39.07</ele>
        <time>2013-07-27T10:58:45Z</time>
      </trkpt>
      <trkpt lat="49.19693" lon="1.38342">
        <ele>40.99</ele>
        <time>2013-07-27T10:58:53Z</time>
      </trkpt>
      <trkpt lat="49.1998" lon="1.38434">
        <ele>43.88</ele>
        <time>2013-07-27T10:59:07Z</time>
      </trkpt>
      <trkpt lat="49.20239" lon="1.38483">
        <ele>41.47</ele>
        <time>2013-07-27T10:59:19Z</time>
      </trkpt>
      <trkpt lat="49.20434" lon="1.38506">
        <ele>35.71</ele>
        <time>2013-07-27T10:59:29Z</time>
      </trkpt>
      <trkpt lat="49.20482" lon="1.38513">
        <ele>34.26</ele>
        <time>2013-07-27T10:59:32Z</time>
      </trkpt>
      <trkpt lat="49.20496" lon="1.38522">
        <ele>34.26</ele>
        <time>2013-07-27T10:59:33Z</time>
      </trkpt>
      <trkpt lat="49.20508" lon="1.38532">
        <ele>33.78</ele>
        <time>2013-07-27T10:59:34Z</time>
      </trkpt>
      <trkpt lat="49.2052" lon="1.38542">
        <ele>33.3</ele>
        <time>2013-07-27T10:59:35Z</time>
      </trkpt>
      <trkpt lat="49.20531" lon="1.38552">
        <ele>32.82</ele>
        <time>2013-07-27T10:59:36Z</time>
      </trkpt>
      <trkpt lat="49.20551" lon="1.38568">
        <ele>32.34</ele>
        <time>2013-07-27T10:59:38Z</time>
      </trkpt>
      <trkpt lat="49.20561" lon="1.38573">
        <ele>31.86</ele>
        <time>2013-07-27T10:59:39Z</time>
      </trkpt>
      <trkpt lat="49.20568" lon="1.38569">
        <ele>31.86</ele>
        <time>2013-07-27T10:59:40Z</time>
      </trkpt>
      <trkpt lat="49.20576" lon="1.38563">
        <ele>31.86</ele>
        <time>2013-07-27T10:59:41Z</time>
      </trkpt>
      <trkpt lat="49.20583" lon="1.38557">
        <ele>31.38</ele>
        <time>2013-07-27T10:59:42Z</time>
      </trkpt>
      <trkpt lat="49.20591" lon="1.38551">
        <ele>31.38</ele>
        <time>2013-07-27T10:59:43Z</time>
      </trkpt>
      <trkpt lat="49.20598" lon="1.38546">
        <ele>31.38</ele>
        <time>2013-07-27T10:59:44Z</time>
      </trkpt>
      <trkpt lat="49.2061" lon="1.38551">
        <ele>31.38</ele>
        <time>2013-07-27T10:59:45Z</time>
      </trkpt>
      <trkpt lat="49.20617" lon="1.38556">
        <ele>31.38</ele>
        <time>2013-07-27T10:59:46Z</time>
      </trkpt>
      <trkpt lat="49.20625" lon="1.38563">
        <ele>31.38</ele>
        <time>2013-07-27T10:59:47Z</time>
      </trkpt>
      <trkpt lat="49.20634" lon="1.38571">
        <ele>31.38</ele>
        <time>2013-07-27T10:59:48Z</time>
      </trkpt>
      <trkpt lat="49.20644" lon="1.38579">
        <ele>31.38</ele>
        <time>2013-07-27T10:59:49Z</time>
      </trkpt>
      <trkpt lat="49.20654" lon="1.38589">
        <ele>31.38</ele>
        <time>2013-07-27T10:59:50Z</time>
      </trkpt>
      <trkpt lat="49.20751" lon="1.38692">
        <ele>32.82</ele>
        <time>2013-07-27T10:59:58Z</time>
      </trkpt>
      <trkpt lat="49.20859" lon="1.38795">
        <ele>37.63</ele>
        <time>2013-07-27T11:00:09Z</time>
      </trkpt>
      <trkpt lat="49.21026" lon="1.38935">
        <ele>41.47</ele>
        <time>2013-07-27T11:00:17Z</time>
      </trkpt>
      <trkpt lat="49.21435" lon="1.39209">
        <ele>40.03</ele>
        <time>2013-07-27T11:00:30Z</time>
      </trkpt>
      <trkpt lat="49.2188" lon="1.39471">
        <ele>23.21</ele>
        <time>2013-07-27T11:00:47Z</time>
      </trkpt>
      <trkpt lat="49.22073" lon="1.39512">
        <ele>19.84</ele>
        <time>2013-07-27T11:00:54Z</time>
      </trkpt>
      <trkpt lat="49.22263" lon="1.39556">
        <ele>17.44</ele>
        <time>2013-07-27T11:01:01Z</time>
      </trkpt>
      <trkpt lat="49.22514" lon="1.39705">
        <ele>15.04</ele>
        <time>2013-07-27T11:01:11Z</time>
      </trkpt>
      <trkpt lat="49.22709" lon="1.39823">
        <ele>14.56</ele>
        <time>2013-07-27T11:01:19Z</time>
      </trkpt>
      <trkpt lat="49.22962" lon="1.39977">
        <ele>14.56</ele>
        <time>2013-07-27T11:01:30Z</time>
      </trkpt>
      <trkpt lat="49.2312" lon="1.40072">
        <ele>14.56</ele>
        <time>2013-07-27T11:01:39Z</time>
      </trkpt>
      <trkpt lat="49.23156" lon="1.40097">
        <ele>15.04</ele>
        <time>2013-07-27T11:01:43Z</time>
      </trkpt>
      <trkpt lat="49.23161" lon="1.40104">
        <ele>14.56</ele>
        <time>2013-07-27T11:01:44Z</time>
      </trkpt>
      <trkpt lat="49.23165" lon="1.40111">
        <ele>14.56</ele>
        <time>2013-07-27T11:01:45Z</time>
      </trkpt>
      <trkpt lat="49.23169" lon="1.40118">
        <ele>14.56</ele>
        <time>2013-07-27T11:01:46Z</time>
      </trkpt>
      <trkpt lat="49.23172" lon="1.40125">
        <ele>14.56</ele>
        <time>2013-07-27T11:01:47Z</time>
      </trkpt>
      <trkpt lat="49.23179" lon="1.40131">
        <ele>14.08</ele>
        <time>2013-07-27T11:01:48Z</time>
      </trkpt>
      <trkpt lat="49.23185" lon="1.40131">
        <ele>14.08</ele>
        <time>2013-07-27T11:01:49Z</time>
      </trkpt>
      <trkpt lat="49.23185" lon="1.40131">
        <ele>14.08</ele>
        <time>2013-07-27T11:01:50Z</time>
      </trkpt>
      <trkpt lat="49.23195" lon="1.40125">
        <ele>17.44</ele>
        <time>2013-07-27T11:05:53Z</time>
      </trkpt>
      <trkpt lat="49.23211" lon="1.40127">
        <ele>17.44</ele>
        <time>2013-07-27T11:05:55Z</time>
      </trkpt>
      <trkpt lat="49.2322" lon="1.40129">
        <ele>17.44</ele>
        <time>2013-07-27T11:05:56Z</time>
      </trkpt>
      <trkpt lat="49.2323" lon="1.40131">
        <ele>16.96</ele>
        <time>2013-07-27T11:05:57Z</time>
      </trkpt>
      <trkpt lat="49.23366" lon="1.40166">
        <ele>17.44</ele>
        <time>2013-07-27T11:06:10Z</time>
      </trkpt>
      <trkpt lat="49.23529" lon="1.40173">
        <ele>16.96</ele>
        <time>2013-07-27T11:06:22Z</time>
      </trkpt>
      <trkpt lat="49.23642" lon="1.40163">
        <ele>17.92</ele>
        <time>2013-07-27T11:06:33Z</time>
      </trkpt>
      <trkpt lat="49.23658" lon="1.40159">
        <ele>17.92</ele>
        <time>2013-07-27T11:06:35Z</time>
      </trkpt>
      <trkpt lat="49.23665" lon="1.40157">
        <ele>17.92</ele>
        <time>2013-07-27T11:06:36Z</time>
      </trkpt>
      <trkpt lat="49.23672" lon="1.40142">
        <ele>17.92</ele>
        <time>2013-07-27T11:06:38Z</time>
      </trkpt>
      <trkpt lat="49.23686" lon="1.40148">
        <ele>17.92</ele>
        <time>2013-07-27T11:06:39Z</time>
      </trkpt>
      <trkpt lat="49.2374" lon="1.40136">
        <ele>17.92</ele>
        <time>2013-07-27T11:06:45Z</time>
      </trkpt>
      <trkpt lat="49.23858" lon="1.40091">
        <ele>16.48</ele>
        <time>2013-07-27T11:06:55Z</time>
      </trkpt>
      <trkpt lat="49.23858" lon="1.40091">
        <ele>16</ele>
        <time>2013-07-27T11:06:56Z</time>
      </trkpt>
      <trkpt lat="49.24019" lon="1.40097">
        <ele>15.04</ele>
        <time>2013-07-27T11:07:09Z</time>
      </trkpt>
      <trkpt lat="49.24029" lon="1.40097">
        <ele>15.52</ele>
        <time>2013-07-27T11:07:10Z</time>
      </trkpt>
      <trkpt lat="49.2404" lon="1.40095">
        <ele>15.52</ele>
        <time>2013-07-27T11:07:11Z</time>
      </trkpt>
      <trkpt lat="49.24098" lon="1.40071">
        <ele>16.96</ele>
        <time>2013-07-27T11:07:17Z</time>
      </trkpt>
      <trkpt lat="49.24098" lon="1.40071">
        <ele>17.44</ele>
        <time>2013-07-27T11:07:18Z</time>
      </trkpt>
      <trkpt lat="49.24115" lon="1.40084">
        <ele>16.96</ele>
        <time>2013-07-27T11:07:19Z</time>
      </trkpt>
      <trkpt lat="49.24122" lon="1.40092">
        <ele>16.48</ele>
        <time>2013-07-27T11:07:20Z</time>
      </trkpt>
      <trkpt lat="49.24128" lon="1.40103">
        <ele>16.48</ele>
        <time>2013-07-27T11:07:21Z</time>
      </trkpt>
      <trkpt lat="49.24132" lon="1.40115">
        <ele>16.48</ele>
        <time>2013-07-27T11:07:22Z</time>
      </trkpt>
      <trkpt lat="49.24137" lon="1.40128">
        <ele>16.48</ele>
        <time>2013-07-27T11:07:23Z</time>
      </trkpt>
      <trkpt lat="49.24142" lon="1.40141">
        <ele>16.48</ele>
        <time>2013-07-27T11:07:24Z</time>
      </trkpt>
      <trkpt lat="49.242" lon="1.40282">
        <ele>16</ele>
        <time>2013-07-27T11:07:34Z</time>
      </trkpt>
      <trkpt lat="49.24206" lon="1.40293">
        <ele>16</ele>
        <time>2013-07-27T11:07:35Z</time>
      </trkpt>
      <trkpt lat="49.2421" lon="1.40299">
        <ele>16</ele>
        <time>2013-07-27T11:07:36Z</time>
      </trkpt>
      <trkpt lat="49.2421" lon="1.40299">
        <ele>16.48</ele>
        <time>2013-07-27T11:07:37Z</time>
      </trkpt>
      <trkpt lat="49.2423" lon="1.40319">
        <ele>16.48</ele>
        <time>2013-07-27T11:07:38Z</time>
      </trkpt>
      <trkpt lat="49.24238" lon="1.40325">
        <ele>16.48</ele>
        <time>2013-07-27T11:07:39Z</time>
      </trkpt>
      <trkpt lat="49.24248" lon="1.40329">
        <ele>16.48</ele>
        <time>2013-07-27T11:07:40Z</time>
      </trkpt>
      <trkpt lat="49.24258" lon="1.40333">
        <ele>16.96</ele>
        <time>2013-07-27T11:07:41Z</time>
      </trkpt>
      <trkpt lat="49.24268" lon="1.40337">
        <ele>16.96</ele>
        <time>2013-07-27T11:07:42Z</time>
      </trkpt>
      <trkpt lat="49.24278" lon="1.40339">
        <ele>16.96</ele>
        <time>2013-07-27T11:07:43Z</time>
      </trkpt>
      <trkpt lat="49.24288" lon="1.40341">
        <ele>16.96</ele>
        <time>2013-07-27T11:07:44Z</time>
      </trkpt>
      <trkpt lat="49.24297" lon="1.4034">
        <ele>16.96</ele>
        <time>2013-07-27T11:07:45Z</time>
      </trkpt>
      <trkpt lat="49.24331" lon="1.4033">
        <ele>17.44</ele>
        <time>2013-07-27T11:07:49Z</time>
      </trkpt>
      <trkpt lat="49.24338" lon="1.40327">
        <ele>17.44</ele>
        <time>2013-07-27T11:07:50Z</time>
      </trkpt>
      <trkpt lat="49.24344" lon="1.40325">
        <ele>16.96</ele>
        <time>2013-07-27T11:07:51Z</time>
      </trkpt>
      <trkpt lat="49.24344" lon="1.40325">
        <ele>16.96</ele>
        <time>2013-07-27T11:07:52Z</time>
      </trkpt>
      <trkpt lat="49.24341" lon="1.40291">
        <ele>18.88</ele>
        <time>2013-07-27T11:19:41Z</time>
      </trkpt>
      <trkpt lat="49.24294" lon="1.40091">
        <ele>16.96</ele>
        <time>2013-07-27T11:19:51Z</time>
      </trkpt>
      <trkpt lat="49.24272" lon="1.3999">
        <ele>16.48</ele>
        <time>2013-07-27T11:19:58Z</time>
      </trkpt>
      <trkpt lat="49.2427" lon="1.39982">
        <ele>16.48</ele>
        <time>2013-07-27T11:19:59Z</time>
      </trkpt>
      <trkpt lat="49.24278" lon="1.39973">
        <ele>16.48</ele>
        <time>2013-07-27T11:20:00Z</time>
      </trkpt>
      <trkpt lat="49.24283" lon="1.39968">
        <ele>16.48</ele>
        <time>2013-07-27T11:20:01Z</time>
      </trkpt>
      <trkpt lat="49.24289" lon="1.39962">
        <ele>16.96</ele>
        <time>2013-07-27T11:20:02Z</time>
      </trkpt>
      <trkpt lat="49.24296" lon="1.39955">
        <ele>16.96</ele>
        <time>2013-07-27T11:20:03Z</time>
      </trkpt>
      <trkpt lat="49.24384" lon="1.39882">
        <ele>17.44</ele>
        <time>2013-07-27T11:20:13Z</time>
      </trkpt>
      <trkpt lat="49.24417" lon="1.39849">
        <ele>16.96</ele>
        <time>2013-07-27T11:20:17Z</time>
      </trkpt>
      <trkpt lat="49.24425" lon="1.39839">
        <ele>16.96</ele>
        <time>2013-07-27T11:20:18Z</time>
      </trkpt>
      <trkpt lat="49.24489" lon="1.39769">
        <ele>17.92</ele>
        <time>2013-07-27T11:20:26Z</time>
      </trkpt>
      <trkpt lat="49.24549" lon="1.39702">
        <ele>18.88</ele>
        <time>2013-07-27T11:20:33Z</time>
      </trkpt>
      <trkpt lat="49.24557" lon="1.39701">
        <ele>18.88</ele>
        <time>2013-07-27T11:20:34Z</time>
      </trkpt>
      <trkpt lat="49.24564" lon="1.397">
        <ele>19.36</ele>
        <time>2013-07-27T11:20:35Z</time>
      </trkpt>
      <trkpt lat="49.24579" lon="1.39698">
        <ele>20.32</ele>
        <time>2013-07-27T11:20:40Z</time>
      </trkpt>
      <trkpt lat="49.24579" lon="1.39698">
        <ele>20.32</ele>
        <time>2013-07-27T11:20:41Z</time>
      </trkpt>
      <trkpt lat="49.24596" lon="1.39645">
        <ele>20.32</ele>
        <time>2013-07-27T11:20:47Z</time>
      </trkpt>
      <trkpt lat="49.24599" lon="1.3964">
        <ele>19.84</ele>
        <time>2013-07-27T11:20:48Z</time>
      </trkpt>
      <trkpt lat="49.24601" lon="1.39637">
        <ele>19.84</ele>
        <time>2013-07-27T11:20:49Z</time>
      </trkpt>
      <trkpt lat="49.24601" lon="1.39637">
        <ele>19.84</ele>
        <time>2013-07-27T11:20:50Z</time>
      </trkpt>
      <trkpt lat="49.24602" lon="1.39634">
        <ele>17.92</ele>
        <time>2013-07-27T11:21:27Z</time>
      </trkpt>
      <trkpt lat="49.24604" lon="1.39628">
        <ele>17.92</ele>
        <time>2013-07-27T11:21:28Z</time>
      </trkpt>
      <trkpt lat="49.24608" lon="1.39621">
        <ele>17.92</ele>
        <time>2013-07-27T11:21:29Z</time>
      </trkpt>
      <trkpt lat="49.24611" lon="1.39613">
        <ele>18.4</ele>
        <time>2013-07-27T11:21:30Z</time>
      </trkpt>
      <trkpt lat="49.24653" lon="1.39504">
        <ele>21.29</ele>
        <time>2013-07-27T11:21:39Z</time>
      </trkpt>
      <trkpt lat="49.24717" lon="1.3931">
        <ele>22.25</ele>
        <time>2013-07-27T11:21:50Z</time>
      </trkpt>
      <trkpt lat="49.24812" lon="1.39089">
        <ele>17.92</ele>
        <time>2013-07-27T11:22:01Z</time>
      </trkpt>
      <trkpt lat="49.24973" lon="1.38782">
        <ele>16.48</ele>
        <time>2013-07-27T11:22:18Z</time>
      </trkpt>
      <trkpt lat="49.25085" lon="1.38509">
        <ele>17.92</ele>
        <time>2013-07-27T11:22:31Z</time>
      </trkpt>
      <trkpt lat="49.25149" lon="1.38328">
        <ele>17.44</ele>
        <time>2013-07-27T11:22:40Z</time>
      </trkpt>
      <trkpt lat="49.25222" lon="1.38154">
        <ele>18.88</ele>
        <time>2013-07-27T11:22:50Z</time>
      </trkpt>
      <trkpt lat="49.25252" lon="1.38102">
        <ele>20.32</ele>
        <time>2013-07-27T11:22:54Z</time>
      </trkpt>
      <trkpt lat="49.25261" lon="1.38094">
        <ele>20.32</ele>
        <time>2013-07-27T11:22:55Z</time>
      </trkpt>
      <trkpt lat="49.25279" lon="1.38082">
        <ele>20.32</ele>
        <time>2013-07-27T11:22:57Z</time>
      </trkpt>
      <trkpt lat="49.25285" lon="1.38072">
        <ele>20.32</ele>
        <time>2013-07-27T11:22:58Z</time>
      </trkpt>
      <trkpt lat="49.2529" lon="1.3806">
        <ele>20.32</ele>
        <time>2013-07-27T11:22:59Z</time>
      </trkpt>
      <trkpt lat="49.25298" lon="1.38036">
        <ele>19.84</ele>
        <time>2013-07-27T11:23:01Z</time>
      </trkpt>
      <trkpt lat="49.25303" lon="1.38024">
        <ele>19.84</ele>
        <time>2013-07-27T11:23:02Z</time>
      </trkpt>
      <trkpt lat="49.25311" lon="1.38016">
        <ele>19.36</ele>
        <time>2013-07-27T11:23:03Z</time>
      </trkpt>
      <trkpt lat="49.2532" lon="1.3801">
        <ele>19.36</ele>
        <time>2013-07-27T11:23:04Z</time>
      </trkpt>
      <trkpt lat="49.25329" lon="1.38004">
        <ele>19.36</ele>
        <time>2013-07-27T11:23:05Z</time>
      </trkpt>
      <trkpt lat="49.25376" lon="1.37972">
        <ele>17.92</ele>
        <time>2013-07-27T11:23:10Z</time>
      </trkpt>
      <trkpt lat="49.25382" lon="1.37962">
        <ele>17.92</ele>
        <time>2013-07-27T11:23:11Z</time>
      </trkpt>
      <trkpt lat="49.25386" lon="1.37954">
        <ele>17.92</ele>
        <time>2013-07-27T11:23:12Z</time>
      </trkpt>
      <trkpt lat="49.25387" lon="1.37943">
        <ele>17.92</ele>
        <time>2013-07-27T11:23:13Z</time>
      </trkpt>
      <trkpt lat="49.25389" lon="1.37931">
        <ele>17.44</ele>
        <time>2013-07-27T11:23:14Z</time>
      </trkpt>
      <trkpt lat="49.25401" lon="1.37877">
        <ele>17.44</ele>
        <time>2013-07-27T11:23:19Z</time>
      </trkpt>
      <trkpt lat="49.25407" lon="1.37872">
        <ele>17.92</ele>
        <time>2013-07-27T11:23:20Z</time>
      </trkpt>
      <trkpt lat="49.25413" lon="1.37869">
        <ele>17.92</ele>
        <time>2013-07-27T11:23:21Z</time>
      </trkpt>
      <trkpt lat="49.2542" lon="1.37865">
        <ele>18.4</ele>
        <time>2013-07-27T11:23:22Z</time>
      </trkpt>
      <trkpt lat="49.25428" lon="1.37861">
        <ele>18.4</ele>
        <time>2013-07-27T11:23:23Z</time>
      </trkpt>
      <trkpt lat="49.25438" lon="1.37861">
        <ele>18.88</ele>
        <time>2013-07-27T11:23:24Z</time>
      </trkpt>
      <trkpt lat="49.25449" lon="1.37862">
        <ele>19.36</ele>
        <time>2013-07-27T11:23:25Z</time>
      </trkpt>
      <trkpt lat="49.25541" lon="1.37895">
        <ele>21.77</ele>
        <time>2013-07-27T11:23:31Z</time>
      </trkpt>
      <trkpt lat="49.25677" lon="1.3798">
        <ele>26.57</ele>
        <time>2013-07-27T11:23:40Z</time>
      </trkpt>
      <trkpt lat="49.25714" lon="1.38006">
        <ele>28.98</ele>
        <time>2013-07-27T11:23:43Z</time>
      </trkpt>
      <trkpt lat="49.2572" lon="1.38001">
        <ele>30.42</ele>
        <time>2013-07-27T11:23:45Z</time>
      </trkpt>
      <trkpt lat="49.2572" lon="1.37994">
        <ele>30.9</ele>
        <time>2013-07-27T11:23:46Z</time>
      </trkpt>
      <trkpt lat="49.2572" lon="1.37986">
        <ele>31.38</ele>
        <time>2013-07-27T11:23:47Z</time>
      </trkpt>
      <trkpt lat="49.2572" lon="1.37986">
        <ele>31.86</ele>
        <time>2013-07-27T11:23:48Z</time>
      </trkpt>
      <trkpt lat="49.25717" lon="1.37983">
        <ele>31.86</ele>
        <time>2013-07-27T11:23:49Z</time>
      </trkpt>
      <trkpt lat="49.25711" lon="1.37978">
        <ele>32.34</ele>
        <time>2013-07-27T11:23:50Z</time>
      </trkpt>
      <trkpt lat="49.25703" lon="1.3797">
        <ele>32.82</ele>
        <time>2013-07-27T11:23:51Z</time>
      </trkpt>
      <trkpt lat="49.25683" lon="1.37952">
        <ele>33.3</ele>
        <time>2013-07-27T11:23:53Z</time>
      </trkpt>
      <trkpt lat="49.25605" lon="1.37826">
        <ele>36.67</ele>
        <time>2013-07-27T11:24:00Z</time>
      </trkpt>
      <trkpt lat="49.25532" lon="1.37717">
        <ele>42.92</ele>
        <time>2013-07-27T11:24:06Z</time>
      </trkpt>
      <trkpt lat="49.2552" lon="1.37703">
        <ele>43.88</ele>
        <time>2013-07-27T11:24:07Z</time>
      </trkpt>
      <trkpt lat="49.25496" lon="1.37687">
        <ele>45.8</ele>
        <time>2013-07-27T11:24:09Z</time>
      </trkpt>
      <trkpt lat="49.25456" lon="1.37657">
        <ele>52.53</ele>
        <time>2013-07-27T11:24:15Z</time>
      </trkpt>
      <trkpt lat="49.25446" lon="1.37644">
        <ele>62.14</ele>
        <time>2013-07-27T11:24:25Z</time>
      </trkpt>
      <trkpt lat="49.25446" lon="1.37644">
        <ele>62.14</ele>
        <time>2013-07-27T11:25:00Z</time>
      </trkpt>
      <trkpt lat="49.25446" lon="1.37644">
        <ele>62.62</ele>
        <time>2013-07-27T11:25:39Z</time>
      </trkpt>
      <trkpt lat="49.25446" lon="1.37642">
        <ele>63.58</ele>
        <time>2013-07-27T11:25:45Z</time>
      </trkpt>
      <trkpt lat="49.25446" lon="1.37642">
        <ele>64.55</ele>
        <time>2013-07-27T11:25:46Z</time>
      </trkpt>
      <trkpt lat="49.25446" lon="1.37642">
        <ele>65.51</ele>
        <time>2013-07-27T11:25:47Z</time>
      </trkpt>
      <trkpt lat="49.25446" lon="1.37642">
        <ele>65.99</ele>
        <time>2013-07-27T11:25:48Z</time>
      </trkpt>
      <trkpt lat="49.2545" lon="1.3764">
        <ele>65.99</ele>
        <time>2013-07-27T11:25:49Z</time>
      </trkpt>
      <trkpt lat="49.25454" lon="1.37638">
        <ele>66.47</ele>
        <time>2013-07-27T11:25:50Z</time>
      </trkpt>
      <trkpt lat="49.25461" lon="1.3764">
        <ele>66.47</ele>
        <time>2013-07-27T11:25:51Z</time>
      </trkpt>
      <trkpt lat="49.25537" lon="1.3766">
        <ele>68.87</ele>
        <time>2013-07-27T11:25:59Z</time>
      </trkpt>
      <trkpt lat="49.25631" lon="1.37723">
        <ele>73.2</ele>
        <time>2013-07-27T11:26:07Z</time>
      </trkpt>
      <trkpt lat="49.25668" lon="1.37764">
        <ele>78</ele>
        <time>2013-07-27T11:26:11Z</time>
      </trkpt>
      <trkpt lat="49.25676" lon="1.3777">
        <ele>78.97</ele>
        <time>2013-07-27T11:26:12Z</time>
      </trkpt>
      <trkpt lat="49.25683" lon="1.37766">
        <ele>79.93</ele>
        <time>2013-07-27T11:26:13Z</time>
      </trkpt>
      <trkpt lat="49.25688" lon="1.37761">
        <ele>80.89</ele>
        <time>2013-07-27T11:26:14Z</time>
      </trkpt>
      <trkpt lat="49.2569" lon="1.37758">
        <ele>81.37</ele>
        <time>2013-07-27T11:26:15Z</time>
      </trkpt>
      <trkpt lat="49.25691" lon="1.37755">
        <ele>82.33</ele>
        <time>2013-07-27T11:26:16Z</time>
      </trkpt>
      <trkpt lat="49.25693" lon="1.37746">
        <ele>82.81</ele>
        <time>2013-07-27T11:26:17Z</time>
      </trkpt>
      <trkpt lat="49.25696" lon="1.37735">
        <ele>83.77</ele>
        <time>2013-07-27T11:26:18Z</time>
      </trkpt>
      <trkpt lat="49.25699" lon="1.37724">
        <ele>84.73</ele>
        <time>2013-07-27T11:26:19Z</time>
      </trkpt>
      <trkpt lat="49.25699" lon="1.37711">
        <ele>85.21</ele>
        <time>2013-07-27T11:26:20Z</time>
      </trkpt>
      <trkpt lat="49.25698" lon="1.37688">
        <ele>85.69</ele>
        <time>2013-07-27T11:26:21Z</time>
      </trkpt>
      <trkpt lat="49.25698" lon="1.37662">
        <ele>87.14</ele>
        <time>2013-07-27T11:26:22Z</time>
      </trkpt>
      <trkpt lat="49.25696" lon="1.37437">
        <ele>95.31</ele>
        <time>2013-07-27T11:26:30Z</time>
      </trkpt>
      <trkpt lat="49.25699" lon="1.3734">
        <ele>103.48</ele>
        <time>2013-07-27T11:26:35Z</time>
      </trkpt>
      <trkpt lat="49.25702" lon="1.37325">
        <ele>105.4</ele>
        <time>2013-07-27T11:26:36Z</time>
      </trkpt>
      <trkpt lat="49.25705" lon="1.37309">
        <ele>107.32</ele>
        <time>2013-07-27T11:26:37Z</time>
      </trkpt>
      <trkpt lat="49.25745" lon="1.37156">
        <ele>117.9</ele>
        <time>2013-07-27T11:26:45Z</time>
      </trkpt>
      <trkpt lat="49.25845" lon="1.36812">
        <ele>131.36</ele>
        <time>2013-07-27T11:27:00Z</time>
      </trkpt>
      <trkpt lat="49.25883" lon="1.36668">
        <ele>134.72</ele>
        <time>2013-07-27T11:27:08Z</time>
      </trkpt>
      <trkpt lat="49.25892" lon="1.36631">
        <ele>135.2</ele>
        <time>2013-07-27T11:27:11Z</time>
      </trkpt>
      <trkpt lat="49.25891" lon="1.36619">
        <ele>135.68</ele>
        <time>2013-07-27T11:27:12Z</time>
      </trkpt>
      <trkpt lat="49.2589" lon="1.36607">
        <ele>135.68</ele>
        <time>2013-07-27T11:27:13Z</time>
      </trkpt>
      <trkpt lat="49.25873" lon="1.36472">
        <ele>136.64</ele>
        <time>2013-07-27T11:27:21Z</time>
      </trkpt>
      <trkpt lat="49.25846" lon="1.36279">
        <ele>137.13</ele>
        <time>2013-07-27T11:27:29Z</time>
      </trkpt>
      <trkpt lat="49.25821" lon="1.36118">
        <ele>137.61</ele>
        <time>2013-07-27T11:27:38Z</time>
      </trkpt>
      <trkpt lat="49.25808" lon="1.35965">
        <ele>137.13</ele>
        <time>2013-07-27T11:27:50Z</time>
      </trkpt>
      <trkpt lat="49.25806" lon="1.3593">
        <ele>136.64</ele>
        <time>2013-07-27T11:27:55Z</time>
      </trkpt>
      <trkpt lat="49.25806" lon="1.35923">
        <ele>136.64</ele>
        <time>2013-07-27T11:27:56Z</time>
      </trkpt>
      <trkpt lat="49.25807" lon="1.35865">
        <ele>136.64</ele>
        <time>2013-07-27T11:28:06Z</time>
      </trkpt>
      <trkpt lat="49.2581" lon="1.35772">
        <ele>136.64</ele>
        <time>2013-07-27T11:28:14Z</time>
      </trkpt>
      <trkpt lat="49.25799" lon="1.35572">
        <ele>138.57</ele>
        <time>2013-07-27T11:28:24Z</time>
      </trkpt>
      <trkpt lat="49.25798" lon="1.35551">
        <ele>139.05</ele>
        <time>2013-07-27T11:28:25Z</time>
      </trkpt>
      <trkpt lat="49.25742" lon="1.35368">
        <ele>140.49</ele>
        <time>2013-07-27T11:28:33Z</time>
      </trkpt>
      <trkpt lat="49.25737" lon="1.35342">
        <ele>140.49</ele>
        <time>2013-07-27T11:28:34Z</time>
      </trkpt>
      <trkpt lat="49.25733" lon="1.35314">
        <ele>140.49</ele>
        <time>2013-07-27T11:28:35Z</time>
      </trkpt>
      <trkpt lat="49.25737" lon="1.35228">
        <ele>141.45</ele>
        <time>2013-07-27T11:28:38Z</time>
      </trkpt>
      <trkpt lat="49.25738" lon="1.35198">
        <ele>141.45</ele>
        <time>2013-07-27T11:28:39Z</time>
      </trkpt>
      <trkpt lat="49.25743" lon="1.35168">
        <ele>141.45</ele>
        <time>2013-07-27T11:28:40Z</time>
      </trkpt>
      <trkpt lat="49.25793" lon="1.34884">
        <ele>140.01</ele>
        <time>2013-07-27T11:28:48Z</time>
      </trkpt>
      <trkpt lat="49.25819" lon="1.34737">
        <ele>140.97</ele>
        <time>2013-07-27T11:29:27Z</time>
      </trkpt>
      <trkpt lat="49.25807" lon="1.34736">
        <ele>140.97</ele>
        <time>2013-07-27T11:29:28Z</time>
      </trkpt>
      <trkpt lat="49.25801" lon="1.34736">
        <ele>140.97</ele>
        <time>2013-07-27T11:29:29Z</time>
      </trkpt>
      <trkpt lat="49.25793" lon="1.34735">
        <ele>140.97</ele>
        <time>2013-07-27T11:29:30Z</time>
      </trkpt>
      <trkpt lat="49.2572" lon="1.3473">
        <ele>141.93</ele>
        <time>2013-07-27T11:29:36Z</time>
      </trkpt>
      <trkpt lat="49.2558" lon="1.3472">
        <ele>143.37</ele>
        <time>2013-07-27T11:29:44Z</time>
      </trkpt>
      <trkpt lat="49.25407" lon="1.34677">
        <ele>141.93</ele>
        <time>2013-07-27T11:29:54Z</time>
      </trkpt>
      <trkpt lat="49.25325" lon="1.34624">
        <ele>139.53</ele>
        <time>2013-07-27T11:30:00Z</time>
      </trkpt>
      <trkpt lat="49.25315" lon="1.3461">
        <ele>139.53</ele>
        <time>2013-07-27T11:30:01Z</time>
      </trkpt>
      <trkpt lat="49.25306" lon="1.34597">
        <ele>139.05</ele>
        <time>2013-07-27T11:30:02Z</time>
      </trkpt>
      <trkpt lat="49.25299" lon="1.3458">
        <ele>139.05</ele>
        <time>2013-07-27T11:30:03Z</time>
      </trkpt>
      <trkpt lat="49.25294" lon="1.34563">
        <ele>138.57</ele>
        <time>2013-07-27T11:30:04Z</time>
      </trkpt>
      <trkpt lat="49.25251" lon="1.34451">
        <ele>137.13</ele>
        <time>2013-07-27T11:30:11Z</time>
      </trkpt>
      <trkpt lat="49.25243" lon="1.34441">
        <ele>137.13</ele>
        <time>2013-07-27T11:30:12Z</time>
      </trkpt>
      <trkpt lat="49.25235" lon="1.34434">
        <ele>136.64</ele>
        <time>2013-07-27T11:30:13Z</time>
      </trkpt>
      <trkpt lat="49.25225" lon="1.34429">
        <ele>136.64</ele>
        <time>2013-07-27T11:30:14Z</time>
      </trkpt>
      <trkpt lat="49.25215" lon="1.34425">
        <ele>136.16</ele>
        <time>2013-07-27T11:30:15Z</time>
      </trkpt>
      <trkpt lat="49.25206" lon="1.3442">
        <ele>136.16</ele>
        <time>2013-07-27T11:30:16Z</time>
      </trkpt>
      <trkpt lat="49.25145" lon="1.34385">
        <ele>133.28</ele>
        <time>2013-07-27T11:30:25Z</time>
      </trkpt>
      <trkpt lat="49.2514" lon="1.34377">
        <ele>132.8</ele>
        <time>2013-07-27T11:30:26Z</time>
      </trkpt>
      <trkpt lat="49.2514" lon="1.34377">
        <ele>132.32</ele>
        <time>2013-07-27T11:30:27Z</time>
      </trkpt>
      <trkpt lat="49.25135" lon="1.34371">
        <ele>130.88</ele>
        <time>2013-07-27T11:32:41Z</time>
      </trkpt>
      <trkpt lat="49.25136" lon="1.34368">
        <ele>130.88</ele>
        <time>2013-07-27T11:32:42Z</time>
      </trkpt>
      <trkpt lat="49.25136" lon="1.34365">
        <ele>130.88</ele>
        <time>2013-07-27T11:32:43Z</time>
      </trkpt>
      <trkpt lat="49.25136" lon="1.34361">
        <ele>130.88</ele>
        <time>2013-07-27T11:32:44Z</time>
      </trkpt>
      <trkpt lat="49.25135" lon="1.34355">
        <ele>130.88</ele>
        <time>2013-07-27T11:32:45Z</time>
      </trkpt>
      <trkpt lat="49.25135" lon="1.34348">
        <ele>131.36</ele>
        <time>2013-07-27T11:32:46Z</time>
      </trkpt>
      <trkpt lat="49.25134" lon="1.34338">
        <ele>131.36</ele>
        <time>2013-07-27T11:32:47Z</time>
      </trkpt>
      <trkpt lat="49.25133" lon="1.34329">
        <ele>131.36</ele>
        <time>2013-07-27T11:32:48Z</time>
      </trkpt>
      <trkpt lat="49.25133" lon="1.34319">
        <ele>131.36</ele>
        <time>2013-07-27T11:32:49Z</time>
      </trkpt>
      <trkpt lat="49.25135" lon="1.343">
        <ele>130.88</ele>
        <time>2013-07-27T11:32:51Z</time>
      </trkpt>
      <trkpt lat="49.25146" lon="1.34244">
        <ele>130.4</ele>
        <time>2013-07-27T11:32:57Z</time>
      </trkpt>
      <trkpt lat="49.25149" lon="1.34234">
        <ele>130.4</ele>
        <time>2013-07-27T11:32:58Z</time>
      </trkpt>
      <trkpt lat="49.25151" lon="1.34224">
        <ele>130.4</ele>
        <time>2013-07-27T11:32:59Z</time>
      </trkpt>
      <trkpt lat="49.2518" lon="1.34105">
        <ele>130.88</ele>
        <time>2013-07-27T11:33:10Z</time>
      </trkpt>
      <trkpt lat="49.25185" lon="1.34081">
        <ele>130.88</ele>
        <time>2013-07-27T11:33:11Z</time>
      </trkpt>
      <trkpt lat="49.25213" lon="1.33897">
        <ele>128.47</ele>
        <time>2013-07-27T11:33:24Z</time>
      </trkpt>
      <trkpt lat="49.25215" lon="1.33884">
        <ele>127.99</ele>
        <time>2013-07-27T11:33:25Z</time>
      </trkpt>
      <trkpt lat="49.25215" lon="1.33884">
        <ele>127.99</ele>
        <time>2013-07-27T11:33:26Z</time>
      </trkpt>
      <trkpt lat="49.25218" lon="1.33866">
        <ele>127.99</ele>
        <time>2013-07-27T11:33:27Z</time>
      </trkpt>
      <trkpt lat="49.25212" lon="1.33847">
        <ele>127.99</ele>
        <time>2013-07-27T11:33:28Z</time>
      </trkpt>
      <trkpt lat="49.25208" lon="1.33842">
        <ele>127.99</ele>
        <time>2013-07-27T11:33:29Z</time>
      </trkpt>
      <trkpt lat="49.25202" lon="1.33837">
        <ele>128.47</ele>
        <time>2013-07-27T11:33:30Z</time>
      </trkpt>
      <trkpt lat="49.25196" lon="1.33831">
        <ele>128.95</ele>
        <time>2013-07-27T11:33:31Z</time>
      </trkpt>
      <trkpt lat="49.25189" lon="1.33826">
        <ele>128.95</ele>
        <time>2013-07-27T11:33:32Z</time>
      </trkpt>
      <trkpt lat="49.25089" lon="1.33754">
        <ele>133.28</ele>
        <time>2013-07-27T11:33:44Z</time>
      </trkpt>
      <trkpt lat="49.24944" lon="1.33668">
        <ele>135.2</ele>
        <time>2013-07-27T11:33:58Z</time>
      </trkpt>
      <trkpt lat="49.24844" lon="1.33612">
        <ele>136.16</ele>
        <time>2013-07-27T11:34:09Z</time>
      </trkpt>
      <trkpt lat="49.24731" lon="1.33545">
        <ele>136.64</ele>
        <time>2013-07-27T11:34:20Z</time>
      </trkpt>
      <trkpt lat="49.24688" lon="1.3351">
        <ele>136.64</ele>
        <time>2013-07-27T11:34:25Z</time>
      </trkpt>
      <trkpt lat="49.2468" lon="1.33499">
        <ele>136.64</ele>
        <time>2013-07-27T11:34:26Z</time>
      </trkpt>
      <trkpt lat="49.24672" lon="1.33488">
        <ele>136.64</ele>
        <time>2013-07-27T11:34:27Z</time>
      </trkpt>
      <trkpt lat="49.24664" lon="1.33477">
        <ele>136.64</ele>
        <time>2013-07-27T11:34:28Z</time>
      </trkpt>
      <trkpt lat="49.24657" lon="1.33466">
        <ele>136.64</ele>
        <time>2013-07-27T11:34:29Z</time>
      </trkpt>
      <trkpt lat="49.24584" lon="1.33362">
        <ele>137.13</ele>
        <time>2013-07-27T11:34:38Z</time>
      </trkpt>
      <trkpt lat="49.24577" lon="1.3335">
        <ele>137.13</ele>
        <time>2013-07-27T11:34:39Z</time>
      </trkpt>
      <trkpt lat="49.24498" lon="1.33234">
        <ele>138.09</ele>
        <time>2013-07-27T11:34:51Z</time>
      </trkpt>
      <trkpt lat="49.24422" lon="1.33122">
        <ele>132.32</ele>
        <time>2013-07-27T11:35:02Z</time>
      </trkpt>
      <trkpt lat="49.24334" lon="1.3299">
        <ele>118.86</ele>
        <time>2013-07-27T11:35:15Z</time>
      </trkpt>
      <trkpt lat="49.24299" lon="1.32938">
        <ele>107.81</ele>
        <time>2013-07-27T11:35:24Z</time>
      </trkpt>
      <trkpt lat="49.24299" lon="1.32938">
        <ele>103</ele>
        <time>2013-07-27T11:35:35Z</time>
      </trkpt>
      <trkpt lat="49.24299" lon="1.32938">
        <ele>103</ele>
        <time>2013-07-27T11:35:56Z</time>
      </trkpt>
      <trkpt lat="49.24295" lon="1.32933">
        <ele>103</ele>
        <time>2013-07-27T11:36:00Z</time>
      </trkpt>
      <trkpt lat="49.24296" lon="1.32935">
        <ele>103</ele>
        <time>2013-07-27T11:36:01Z</time>
      </trkpt>
      <trkpt lat="49.24297" lon="1.32936">
        <ele>103</ele>
        <time>2013-07-27T11:36:02Z</time>
      </trkpt>
      <trkpt lat="49.24299" lon="1.32939">
        <ele>103</ele>
        <time>2013-07-27T11:36:03Z</time>
      </trkpt>
      <trkpt lat="49.243" lon="1.3294">
        <ele>103</ele>
        <time>2013-07-27T11:36:04Z</time>
      </trkpt>
      <trkpt lat="49.24301" lon="1.32942">
        <ele>103</ele>
        <time>2013-07-27T11:36:05Z</time>
      </trkpt>
      <trkpt lat="49.24303" lon="1.32945">
        <ele>103</ele>
        <time>2013-07-27T11:36:06Z</time>
      </trkpt>
      <trkpt lat="49.24305" lon="1.32947">
        <ele>103</ele>
        <time>2013-07-27T11:36:07Z</time>
      </trkpt>
      <trkpt lat="49.24306" lon="1.32949">
        <ele>103</ele>
        <time>2013-07-27T11:36:08Z</time>
      </trkpt>
      <trkpt lat="49.24307" lon="1.32951">
        <ele>103</ele>
        <time>2013-07-27T11:36:09Z</time>
      </trkpt>
      <trkpt lat="49.24308" lon="1.32952">
        <ele>102.52</ele>
        <time>2013-07-27T11:36:10Z</time>
      </trkpt>
      <trkpt lat="49.24309" lon="1.32954">
        <ele>102.52</ele>
        <time>2013-07-27T11:36:11Z</time>
      </trkpt>
      <trkpt lat="49.2431" lon="1.32955">
        <ele>102.52</ele>
        <time>2013-07-27T11:36:12Z</time>
      </trkpt>
      <trkpt lat="49.24311" lon="1.32958">
        <ele>102.52</ele>
        <time>2013-07-27T11:36:13Z</time>
      </trkpt>
      <trkpt lat="49.24312" lon="1.32959">
        <ele>102.52</ele>
        <time>2013-07-27T11:36:14Z</time>
      </trkpt>
      <trkpt lat="49.24249" lon="1.32865">
        <ele>95.31</ele>
        <time>2013-07-27T13:00:58Z</time>
      </trkpt>
      <trkpt lat="49.24139" lon="1.32702">
        <ele>83.77</ele>
        <time>2013-07-27T13:01:11Z</time>
      </trkpt>
      <trkpt lat="49.24066" lon="1.32589">
        <ele>75.12</ele>
        <time>2013-07-27T13:01:21Z</time>
      </trkpt>
      <trkpt lat="49.2402" lon="1.32523">
        <ele>71.27</ele>
        <time>2013-07-27T13:01:28Z</time>
      </trkpt>
      <trkpt lat="49.24011" lon="1.32511">
        <ele>70.79</ele>
        <time>2013-07-27T13:01:29Z</time>
      </trkpt>
      <trkpt lat="49.23901" lon="1.32362">
        <ele>67.43</ele>
        <time>2013-07-27T13:01:40Z</time>
      </trkpt>
      <trkpt lat="49.23858" lon="1.32311">
        <ele>65.99</ele>
        <time>2013-07-27T13:01:44Z</time>
      </trkpt>
      <trkpt lat="49.23801" lon="1.32243">
        <ele>64.07</ele>
        <time>2013-07-27T13:01:49Z</time>
      </trkpt>
      <trkpt lat="49.23727" lon="1.32118">
        <ele>61.18</ele>
        <time>2013-07-27T13:01:57Z</time>
      </trkpt>
      <trkpt lat="49.23631" lon="1.3194">
        <ele>56.37</ele>
        <time>2013-07-27T13:02:07Z</time>
      </trkpt>
      <trkpt lat="49.23571" lon="1.31747">
        <ele>55.89</ele>
        <time>2013-07-27T13:02:15Z</time>
      </trkpt>
      <trkpt lat="49.23516" lon="1.31604">
        <ele>56.86</ele>
        <time>2013-07-27T13:02:21Z</time>
      </trkpt>
      <trkpt lat="49.23509" lon="1.31579">
        <ele>56.86</ele>
        <time>2013-07-27T13:02:22Z</time>
      </trkpt>
      <trkpt lat="49.23501" lon="1.31553">
        <ele>57.34</ele>
        <time>2013-07-27T13:02:23Z</time>
      </trkpt>
      <trkpt lat="49.23454" lon="1.31334">
        <ele>58.78</ele>
        <time>2013-07-27T13:02:32Z</time>
      </trkpt>
      <trkpt lat="49.23401" lon="1.31074">
        <ele>57.82</ele>
        <time>2013-07-27T13:02:44Z</time>
      </trkpt>
      <trkpt lat="49.23347" lon="1.3087">
        <ele>53.49</ele>
        <time>2013-07-27T13:02:53Z</time>
      </trkpt>
      <trkpt lat="49.23295" lon="1.30746">
        <ele>47.72</ele>
        <time>2013-07-27T13:02:59Z</time>
      </trkpt>
      <trkpt lat="49.23284" lon="1.30731">
        <ele>46.28</ele>
        <time>2013-07-27T13:03:00Z</time>
      </trkpt>
      <trkpt lat="49.23271" lon="1.30722">
        <ele>44.84</ele>
        <time>2013-07-27T13:03:01Z</time>
      </trkpt>
      <trkpt lat="49.23258" lon="1.30715">
        <ele>43.88</ele>
        <time>2013-07-27T13:03:02Z</time>
      </trkpt>
      <trkpt lat="49.23245" lon="1.30708">
        <ele>42.92</ele>
        <time>2013-07-27T13:03:03Z</time>
      </trkpt>
      <trkpt lat="49.23219" lon="1.30693">
        <ele>40.51</ele>
        <time>2013-07-27T13:03:05Z</time>
      </trkpt>
      <trkpt lat="49.23207" lon="1.30686">
        <ele>39.55</ele>
        <time>2013-07-27T13:03:06Z</time>
      </trkpt>
      <trkpt lat="49.23195" lon="1.3068">
        <ele>38.59</ele>
        <time>2013-07-27T13:03:07Z</time>
      </trkpt>
      <trkpt lat="49.23184" lon="1.30673">
        <ele>37.15</ele>
        <time>2013-07-27T13:03:08Z</time>
      </trkpt>
      <trkpt lat="49.23173" lon="1.30669">
        <ele>36.19</ele>
        <time>2013-07-27T13:03:09Z</time>
      </trkpt>
      <trkpt lat="49.23161" lon="1.30673">
        <ele>34.74</ele>
        <time>2013-07-27T13:03:10Z</time>
      </trkpt>
      <trkpt lat="49.23148" lon="1.30676">
        <ele>33.78</ele>
        <time>2013-07-27T13:03:11Z</time>
      </trkpt>
      <trkpt lat="49.23135" lon="1.3068">
        <ele>32.82</ele>
        <time>2013-07-27T13:03:12Z</time>
      </trkpt>
      <trkpt lat="49.23009" lon="1.30688">
        <ele>24.17</ele>
        <time>2013-07-27T13:03:21Z</time>
      </trkpt>
      <trkpt lat="49.22928" lon="1.3067">
        <ele>20.81</ele>
        <time>2013-07-27T13:03:28Z</time>
      </trkpt>
      <trkpt lat="49.22915" lon="1.30667">
        <ele>19.84</ele>
        <time>2013-07-27T13:03:29Z</time>
      </trkpt>
      <trkpt lat="49.22902" lon="1.30663">
        <ele>19.36</ele>
        <time>2013-07-27T13:03:30Z</time>
      </trkpt>
      <trkpt lat="49.2289" lon="1.30658">
        <ele>18.88</ele>
        <time>2013-07-27T13:03:31Z</time>
      </trkpt>
      <trkpt lat="49.22879" lon="1.30649">
        <ele>18.4</ele>
        <time>2013-07-27T13:03:32Z</time>
      </trkpt>
      <trkpt lat="49.22839" lon="1.30622">
        <ele>16.48</ele>
        <time>2013-07-27T13:03:36Z</time>
      </trkpt>
      <trkpt lat="49.22829" lon="1.30618">
        <ele>16</ele>
        <time>2013-07-27T13:03:37Z</time>
      </trkpt>
      <trkpt lat="49.22819" lon="1.30622">
        <ele>15.52</ele>
        <time>2013-07-27T13:03:38Z</time>
      </trkpt>
      <trkpt lat="49.2281" lon="1.30626">
        <ele>15.04</ele>
        <time>2013-07-27T13:03:39Z</time>
      </trkpt>
      <trkpt lat="49.22802" lon="1.30631">
        <ele>14.56</ele>
        <time>2013-07-27T13:03:40Z</time>
      </trkpt>
      <trkpt lat="49.22778" lon="1.30644">
        <ele>13.6</ele>
        <time>2013-07-27T13:03:46Z</time>
      </trkpt>
      <trkpt lat="49.22778" lon="1.30644">
        <ele>14.08</ele>
        <time>2013-07-27T13:03:48Z</time>
      </trkpt>
      <trkpt lat="49.22778" lon="1.30644">
        <ele>14.08</ele>
        <time>2013-07-27T13:03:49Z</time>
      </trkpt>
      <trkpt lat="49.22769" lon="1.3064">
        <ele>13.6</ele>
        <time>2013-07-27T13:03:50Z</time>
      </trkpt>
      <trkpt lat="49.22766" lon="1.30632">
        <ele>13.6</ele>
        <time>2013-07-27T13:03:51Z</time>
      </trkpt>
      <trkpt lat="49.22763" lon="1.30623">
        <ele>13.6</ele>
        <time>2013-07-27T13:03:52Z</time>
      </trkpt>
      <trkpt lat="49.22722" lon="1.30511">
        <ele>12.15</ele>
        <time>2013-07-27T13:04:00Z</time>
      </trkpt>
      <trkpt lat="49.22663" lon="1.30308">
        <ele>11.19</ele>
        <time>2013-07-27T13:04:10Z</time>
      </trkpt>
      <trkpt lat="49.22626" lon="1.30123">
        <ele>11.19</ele>
        <time>2013-07-27T13:04:20Z</time>
      </trkpt>
      <trkpt lat="49.22593" lon="1.30015">
        <ele>11.67</ele>
        <time>2013-07-27T13:04:28Z</time>
      </trkpt>
      <trkpt lat="49.22526" lon="1.29813">
        <ele>12.15</ele>
        <time>2013-07-27T13:04:39Z</time>
      </trkpt>
      <trkpt lat="49.22472" lon="1.29663">
        <ele>12.63</ele>
        <time>2013-07-27T13:04:50Z</time>
      </trkpt>
      <trkpt lat="49.2241" lon="1.29483">
        <ele>13.6</ele>
        <time>2013-07-27T13:05:00Z</time>
      </trkpt>
      <trkpt lat="49.22399" lon="1.29447">
        <ele>13.12</ele>
        <time>2013-07-27T13:05:02Z</time>
      </trkpt>
      <trkpt lat="49.2239" lon="1.29433">
        <ele>13.12</ele>
        <time>2013-07-27T13:05:03Z</time>
      </trkpt>
      <trkpt lat="49.22381" lon="1.29419">
        <ele>13.6</ele>
        <time>2013-07-27T13:05:04Z</time>
      </trkpt>
      <trkpt lat="49.22272" lon="1.29286">
        <ele>14.08</ele>
        <time>2013-07-27T13:05:14Z</time>
      </trkpt>
      <trkpt lat="49.22264" lon="1.29273">
        <ele>14.08</ele>
        <time>2013-07-27T13:05:15Z</time>
      </trkpt>
      <trkpt lat="49.22257" lon="1.29259">
        <ele>14.56</ele>
        <time>2013-07-27T13:05:16Z</time>
      </trkpt>
      <trkpt lat="49.22252" lon="1.29244">
        <ele>14.56</ele>
        <time>2013-07-27T13:05:17Z</time>
      </trkpt>
      <trkpt lat="49.22248" lon="1.29227">
        <ele>15.04</ele>
        <time>2013-07-27T13:05:18Z</time>
      </trkpt>
      <trkpt lat="49.22245" lon="1.29209">
        <ele>15.52</ele>
        <time>2013-07-27T13:05:19Z</time>
      </trkpt>
      <trkpt lat="49.22236" lon="1.29173">
        <ele>15.52</ele>
        <time>2013-07-27T13:05:21Z</time>
      </trkpt>
      <trkpt lat="49.22223" lon="1.29138">
        <ele>16</ele>
        <time>2013-07-27T13:05:23Z</time>
      </trkpt>
      <trkpt lat="49.22216" lon="1.2912">
        <ele>16</ele>
        <time>2013-07-27T13:05:24Z</time>
      </trkpt>
      <trkpt lat="49.22187" lon="1.2906">
        <ele>16.48</ele>
        <time>2013-07-27T13:05:30Z</time>
      </trkpt>
      <trkpt lat="49.22185" lon="1.29056">
        <ele>16.96</ele>
        <time>2013-07-27T13:05:32Z</time>
      </trkpt>
      <trkpt lat="49.22184" lon="1.29055">
        <ele>16.96</ele>
        <time>2013-07-27T13:05:33Z</time>
      </trkpt>
      <trkpt lat="49.22183" lon="1.29054">
        <ele>16.96</ele>
        <time>2013-07-27T13:05:35Z</time>
      </trkpt>
      <trkpt lat="49.22195" lon="1.29048">
        <ele>16.96</ele>
        <time>2013-07-27T13:05:36Z</time>
      </trkpt>
      <trkpt lat="49.22205" lon="1.29041">
        <ele>16.96</ele>
        <time>2013-07-27T13:05:38Z</time>
      </trkpt>
      <trkpt lat="49.22234" lon="1.29021">
        <ele>16.48</ele>
        <time>2013-07-27T13:05:42Z</time>
      </trkpt>
      <trkpt lat="49.22244" lon="1.29014">
        <ele>16.48</ele>
        <time>2013-07-27T13:05:43Z</time>
      </trkpt>
      <trkpt lat="49.22267" lon="1.28999">
        <ele>16.96</ele>
        <time>2013-07-27T13:05:46Z</time>
      </trkpt>
      <trkpt lat="49.22272" lon="1.28995">
        <ele>16.96</ele>
        <time>2013-07-27T13:05:47Z</time>
      </trkpt>
      <trkpt lat="49.22277" lon="1.28992">
        <ele>16.96</ele>
        <time>2013-07-27T13:05:48Z</time>
      </trkpt>
      <trkpt lat="49.22279" lon="1.28974">
        <ele>16.96</ele>
        <time>2013-07-27T13:05:49Z</time>
      </trkpt>
      <trkpt lat="49.22277" lon="1.28966">
        <ele>16.96</ele>
        <time>2013-07-27T13:05:50Z</time>
      </trkpt>
      <trkpt lat="49.22275" lon="1.28959">
        <ele>16.96</ele>
        <time>2013-07-27T13:05:51Z</time>
      </trkpt>
      <trkpt lat="49.22252" lon="1.28877">
        <ele>17.92</ele>
        <time>2013-07-27T13:05:57Z</time>
      </trkpt>
      <trkpt lat="49.22224" lon="1.28777">
        <ele>17.44</ele>
        <time>2013-07-27T13:06:05Z</time>
      </trkpt>
      <trkpt lat="49.22204" lon="1.28692">
        <ele>16.96</ele>
        <time>2013-07-27T13:06:12Z</time>
      </trkpt>
      <trkpt lat="49.22192" lon="1.28643">
        <ele>17.44</ele>
        <time>2013-07-27T13:06:15Z</time>
      </trkpt>
      <trkpt lat="49.22192" lon="1.28624">
        <ele>17.44</ele>
        <time>2013-07-27T13:06:16Z</time>
      </trkpt>
      <trkpt lat="49.22186" lon="1.28422">
        <ele>21.77</ele>
        <time>2013-07-27T13:06:26Z</time>
      </trkpt>
      <trkpt lat="49.22186" lon="1.28366">
        <ele>23.69</ele>
        <time>2013-07-27T13:06:29Z</time>
      </trkpt>
      <trkpt lat="49.22186" lon="1.28366">
        <ele>24.17</ele>
        <time>2013-07-27T13:06:30Z</time>
      </trkpt>
      <trkpt lat="49.22192" lon="1.28332">
        <ele>24.65</ele>
        <time>2013-07-27T13:06:31Z</time>
      </trkpt>
      <trkpt lat="49.22231" lon="1.28229">
        <ele>27.53</ele>
        <time>2013-07-27T13:06:39Z</time>
      </trkpt>
      <trkpt lat="49.22276" lon="1.28128">
        <ele>29.46</ele>
        <time>2013-07-27T13:06:46Z</time>
      </trkpt>
      <trkpt lat="49.22355" lon="1.27974">
        <ele>31.86</ele>
        <time>2013-07-27T13:06:55Z</time>
      </trkpt>
      <trkpt lat="49.22459" lon="1.27843">
        <ele>32.82</ele>
        <time>2013-07-27T13:07:02Z</time>
      </trkpt>
      <trkpt lat="49.22593" lon="1.27684">
        <ele>32.34</ele>
        <time>2013-07-27T13:07:09Z</time>
      </trkpt>
      <trkpt lat="49.22792" lon="1.27453">
        <ele>32.82</ele>
        <time>2013-07-27T13:07:19Z</time>
      </trkpt>
      <trkpt lat="49.22924" lon="1.27283">
        <ele>34.26</ele>
        <time>2013-07-27T13:07:27Z</time>
      </trkpt>
      <trkpt lat="49.23001" lon="1.27079">
        <ele>35.23</ele>
        <time>2013-07-27T13:07:34Z</time>
      </trkpt>
      <trkpt lat="49.23045" lon="1.26899">
        <ele>36.19</ele>
        <time>2013-07-27T13:07:40Z</time>
      </trkpt>
      <trkpt lat="49.23069" lon="1.26852">
        <ele>36.67</ele>
        <time>2013-07-27T13:07:42Z</time>
      </trkpt>
      <trkpt lat="49.23082" lon="1.26828">
        <ele>37.15</ele>
        <time>2013-07-27T13:07:43Z</time>
      </trkpt>
      <trkpt lat="49.23095" lon="1.26806">
        <ele>37.15</ele>
        <time>2013-07-27T13:07:44Z</time>
      </trkpt>
      <trkpt lat="49.23138" lon="1.26758">
        <ele>38.11</ele>
        <time>2013-07-27T13:07:47Z</time>
      </trkpt>
      <trkpt lat="49.23153" lon="1.26747">
        <ele>38.59</ele>
        <time>2013-07-27T13:07:48Z</time>
      </trkpt>
      <trkpt lat="49.2317" lon="1.26737">
        <ele>39.07</ele>
        <time>2013-07-27T13:07:49Z</time>
      </trkpt>
      <trkpt lat="49.23337" lon="1.26675">
        <ele>42.44</ele>
        <time>2013-07-27T13:07:57Z</time>
      </trkpt>
      <trkpt lat="49.2359" lon="1.26573">
        <ele>45.8</ele>
        <time>2013-07-27T13:08:08Z</time>
      </trkpt>
      <trkpt lat="49.23734" lon="1.26546">
        <ele>46.28</ele>
        <time>2013-07-27T13:08:15Z</time>
      </trkpt>
      <trkpt lat="49.23939" lon="1.26483">
        <ele>45.32</ele>
        <time>2013-07-27T13:08:25Z</time>
      </trkpt>
      <trkpt lat="49.24159" lon="1.26325">
        <ele>41.95</ele>
        <time>2013-07-27T13:08:36Z</time>
      </trkpt>
      <trkpt lat="49.24263" lon="1.26255">
        <ele>39.55</ele>
        <time>2013-07-27T13:08:43Z</time>
      </trkpt>
      <trkpt lat="49.24282" lon="1.26236">
        <ele>38.59</ele>
        <time>2013-07-27T13:08:48Z</time>
      </trkpt>
      <trkpt lat="49.24285" lon="1.26245">
        <ele>39.07</ele>
        <time>2013-07-27T13:08:54Z</time>
      </trkpt>
      <trkpt lat="49.24285" lon="1.26248">
        <ele>39.55</ele>
        <time>2013-07-27T13:08:55Z</time>
      </trkpt>
      <trkpt lat="49.24285" lon="1.26248">
        <ele>39.55</ele>
        <time>2013-07-27T13:08:56Z</time>
      </trkpt>
      <trkpt lat="49.24287" lon="1.26257">
        <ele>39.07</ele>
        <time>2013-07-27T13:08:57Z</time>
      </trkpt>
      <trkpt lat="49.24288" lon="1.26263">
        <ele>39.07</ele>
        <time>2013-07-27T13:08:58Z</time>
      </trkpt>
      <trkpt lat="49.24289" lon="1.26268">
        <ele>39.07</ele>
        <time>2013-07-27T13:08:59Z</time>
      </trkpt>
      <trkpt lat="49.24297" lon="1.2627">
        <ele>39.07</ele>
        <time>2013-07-27T13:09:00Z</time>
      </trkpt>
      <trkpt lat="49.24299" lon="1.26273">
        <ele>39.07</ele>
        <time>2013-07-27T13:09:01Z</time>
      </trkpt>
      <trkpt lat="49.24314" lon="1.26294">
        <ele>39.07</ele>
        <time>2013-07-27T13:09:09Z</time>
      </trkpt>
      <trkpt lat="49.24374" lon="1.26373">
        <ele>38.11</ele>
        <time>2013-07-27T13:09:17Z</time>
      </trkpt>
      <trkpt lat="49.24475" lon="1.2652">
        <ele>35.23</ele>
        <time>2013-07-27T13:09:26Z</time>
      </trkpt>
      <trkpt lat="49.24519" lon="1.26574">
        <ele>32.82</ele>
        <time>2013-07-27T13:09:30Z</time>
      </trkpt>
      <trkpt lat="49.2453" lon="1.26583">
        <ele>32.34</ele>
        <time>2013-07-27T13:09:31Z</time>
      </trkpt>
      <trkpt lat="49.24541" lon="1.26582">
        <ele>31.86</ele>
        <time>2013-07-27T13:09:32Z</time>
      </trkpt>
      <trkpt lat="49.24553" lon="1.26576">
        <ele>31.38</ele>
        <time>2013-07-27T13:09:33Z</time>
      </trkpt>
      <trkpt lat="49.24566" lon="1.26569">
        <ele>30.9</ele>
        <time>2013-07-27T13:09:34Z</time>
      </trkpt>
      <trkpt lat="49.24579" lon="1.26562">
        <ele>30.42</ele>
        <time>2013-07-27T13:09:35Z</time>
      </trkpt>
      <trkpt lat="49.2459" lon="1.26548">
        <ele>29.46</ele>
        <time>2013-07-27T13:09:36Z</time>
      </trkpt>
      <trkpt lat="49.24688" lon="1.26449">
        <ele>24.17</ele>
        <time>2013-07-27T13:09:44Z</time>
      </trkpt>
      <trkpt lat="49.247" lon="1.26447">
        <ele>23.69</ele>
        <time>2013-07-27T13:09:45Z</time>
      </trkpt>
      <trkpt lat="49.24711" lon="1.2645">
        <ele>23.21</ele>
        <time>2013-07-27T13:09:46Z</time>
      </trkpt>
      <trkpt lat="49.24723" lon="1.26461">
        <ele>22.25</ele>
        <time>2013-07-27T13:09:47Z</time>
      </trkpt>
      <trkpt lat="49.24736" lon="1.26474">
        <ele>21.77</ele>
        <time>2013-07-27T13:09:48Z</time>
      </trkpt>
      <trkpt lat="49.24749" lon="1.26488">
        <ele>20.81</ele>
        <time>2013-07-27T13:09:49Z</time>
      </trkpt>
      <trkpt lat="49.24887" lon="1.26628">
        <ele>15.04</ele>
        <time>2013-07-27T13:09:58Z</time>
      </trkpt>
      <trkpt lat="49.25025" lon="1.2671">
        <ele>10.23</ele>
        <time>2013-07-27T13:10:05Z</time>
      </trkpt>
      <trkpt lat="49.25177" lon="1.26798">
        <ele>4.94</ele>
        <time>2013-07-27T13:10:13Z</time>
      </trkpt>
      <trkpt lat="49.25322" lon="1.26899">
        <ele>0.14</ele>
        <time>2013-07-27T13:10:23Z</time>
      </trkpt>
      <trkpt lat="49.25411" lon="1.26975">
        <ele>-1.3</ele>
        <time>2013-07-27T13:10:31Z</time>
      </trkpt>
      <trkpt lat="49.2543" lon="1.26993">
        <ele>-0.82</ele>
        <time>2013-07-27T13:10:33Z</time>
      </trkpt>
      <trkpt lat="49.25439" lon="1.27002">
        <ele>-0.34</ele>
        <time>2013-07-27T13:10:34Z</time>
      </trkpt>
      <trkpt lat="49.2545" lon="1.27009">
        <ele>-0.34</ele>
        <time>2013-07-27T13:10:35Z</time>
      </trkpt>
      <trkpt lat="49.25471" lon="1.27015">
        <ele>0.14</ele>
        <time>2013-07-27T13:10:37Z</time>
      </trkpt>
      <trkpt lat="49.25482" lon="1.2702">
        <ele>0.14</ele>
        <time>2013-07-27T13:10:38Z</time>
      </trkpt>
      <trkpt lat="49.25536" lon="1.27042">
        <ele>1.58</ele>
        <time>2013-07-27T13:10:43Z</time>
      </trkpt>
      <trkpt lat="49.25548" lon="1.27042">
        <ele>2.06</ele>
        <time>2013-07-27T13:10:44Z</time>
      </trkpt>
      <trkpt lat="49.25671" lon="1.27054">
        <ele>6.87</ele>
        <time>2013-07-27T13:10:54Z</time>
      </trkpt>
      <trkpt lat="49.25806" lon="1.27047">
        <ele>8.79</ele>
        <time>2013-07-27T13:11:04Z</time>
      </trkpt>
      <trkpt lat="49.25923" lon="1.2704">
        <ele>10.23</ele>
        <time>2013-07-27T13:11:12Z</time>
      </trkpt>
      <trkpt lat="49.26064" lon="1.26998">
        <ele>11.67</ele>
        <time>2013-07-27T13:11:21Z</time>
      </trkpt>
      <trkpt lat="49.2622" lon="1.26979">
        <ele>11.67</ele>
        <time>2013-07-27T13:11:31Z</time>
      </trkpt>
      <trkpt lat="49.26392" lon="1.26972">
        <ele>10.71</ele>
        <time>2013-07-27T13:11:42Z</time>
      </trkpt>
      <trkpt lat="49.26564" lon="1.2698">
        <ele>10.71</ele>
        <time>2013-07-27T13:11:53Z</time>
      </trkpt>
      <trkpt lat="49.26796" lon="1.27011">
        <ele>12.15</ele>
        <time>2013-07-27T13:12:07Z</time>
      </trkpt>
      <trkpt lat="49.27087" lon="1.27086">
        <ele>12.15</ele>
        <time>2013-07-27T13:12:23Z</time>
      </trkpt>
      <trkpt lat="49.27263" lon="1.2711">
        <ele>12.15</ele>
        <time>2013-07-27T13:12:33Z</time>
      </trkpt>
      <trkpt lat="49.27535" lon="1.27141">
        <ele>12.63</ele>
        <time>2013-07-27T13:12:47Z</time>
      </trkpt>
      <trkpt lat="49.27677" lon="1.27107">
        <ele>13.12</ele>
        <time>2013-07-27T13:12:55Z</time>
      </trkpt>
      <trkpt lat="49.27828" lon="1.27111">
        <ele>12.63</ele>
        <time>2013-07-27T13:13:03Z</time>
      </trkpt>
      <trkpt lat="49.28012" lon="1.27095">
        <ele>13.12</ele>
        <time>2013-07-27T13:13:12Z</time>
      </trkpt>
      <trkpt lat="49.28225" lon="1.27052">
        <ele>14.56</ele>
        <time>2013-07-27T13:13:22Z</time>
      </trkpt>
      <trkpt lat="49.28439" lon="1.27029">
        <ele>15.04</ele>
        <time>2013-07-27T13:13:32Z</time>
      </trkpt>
      <trkpt lat="49.28586" lon="1.27025">
        <ele>16</ele>
        <time>2013-07-27T13:13:40Z</time>
      </trkpt>
      <trkpt lat="49.28599" lon="1.27017">
        <ele>16</ele>
        <time>2013-07-27T13:13:41Z</time>
      </trkpt>
      <trkpt lat="49.28613" lon="1.27008">
        <ele>16.48</ele>
        <time>2013-07-27T13:13:42Z</time>
      </trkpt>
      <trkpt lat="49.28741" lon="1.26904">
        <ele>16</ele>
        <time>2013-07-27T13:13:50Z</time>
      </trkpt>
      <trkpt lat="49.28889" lon="1.26846">
        <ele>14.08</ele>
        <time>2013-07-27T13:13:57Z</time>
      </trkpt>
      <trkpt lat="49.29066" lon="1.26775">
        <ele>13.12</ele>
        <time>2013-07-27T13:14:05Z</time>
      </trkpt>
      <trkpt lat="49.29153" lon="1.26732">
        <ele>13.6</ele>
        <time>2013-07-27T13:14:09Z</time>
      </trkpt>
      <trkpt lat="49.29376" lon="1.26676">
        <ele>13.6</ele>
        <time>2013-07-27T13:14:19Z</time>
      </trkpt>
      <trkpt lat="49.29518" lon="1.26587">
        <ele>14.08</ele>
        <time>2013-07-27T13:14:26Z</time>
      </trkpt>
      <trkpt lat="49.29569" lon="1.26558">
        <ele>14.56</ele>
        <time>2013-07-27T13:14:29Z</time>
      </trkpt>
      <trkpt lat="49.29586" lon="1.26552">
        <ele>14.56</ele>
        <time>2013-07-27T13:14:30Z</time>
      </trkpt>
      <trkpt lat="49.29792" lon="1.26496">
        <ele>14.56</ele>
        <time>2013-07-27T13:14:42Z</time>
      </trkpt>
      <trkpt lat="49.29851" lon="1.2646">
        <ele>15.52</ele>
        <time>2013-07-27T13:14:46Z</time>
      </trkpt>
      <trkpt lat="49.29864" lon="1.26447">
        <ele>15.52</ele>
        <time>2013-07-27T13:14:47Z</time>
      </trkpt>
      <trkpt lat="49.29922" lon="1.26387">
        <ele>16</ele>
        <time>2013-07-27T13:14:53Z</time>
      </trkpt>
      <trkpt lat="49.30005" lon="1.26311">
        <ele>16.48</ele>
        <time>2013-07-27T13:15:03Z</time>
      </trkpt>
      <trkpt lat="49.30062" lon="1.26257">
        <ele>16.48</ele>
        <time>2013-07-27T13:15:11Z</time>
      </trkpt>
      <trkpt lat="49.30142" lon="1.26183">
        <ele>16.48</ele>
        <time>2013-07-27T13:15:18Z</time>
      </trkpt>
      <trkpt lat="49.30317" lon="1.2608">
        <ele>18.4</ele>
        <time>2013-07-27T13:15:29Z</time>
      </trkpt>
      <trkpt lat="49.30437" lon="1.26006">
        <ele>20.32</ele>
        <time>2013-07-27T13:15:38Z</time>
      </trkpt>
      <trkpt lat="49.30529" lon="1.25921">
        <ele>21.77</ele>
        <time>2013-07-27T13:15:46Z</time>
      </trkpt>
      <trkpt lat="49.30543" lon="1.25904">
        <ele>22.25</ele>
        <time>2013-07-27T13:15:48Z</time>
      </trkpt>
      <trkpt lat="49.30548" lon="1.25897">
        <ele>22.73</ele>
        <time>2013-07-27T13:15:49Z</time>
      </trkpt>
      <trkpt lat="49.30548" lon="1.25897">
        <ele>23.21</ele>
        <time>2013-07-27T13:15:50Z</time>
      </trkpt>
      <trkpt lat="49.30548" lon="1.25897">
        <ele>23.21</ele>
        <time>2013-07-27T13:15:51Z</time>
      </trkpt>
      <trkpt lat="49.30548" lon="1.25897">
        <ele>22.25</ele>
        <time>2013-07-27T13:15:52Z</time>
      </trkpt>
      <trkpt lat="49.30645" lon="1.25766">
        <ele>21.77</ele>
        <time>2013-07-27T13:16:02Z</time>
      </trkpt>
      <trkpt lat="49.30751" lon="1.25613">
        <ele>22.25</ele>
        <time>2013-07-27T13:16:12Z</time>
      </trkpt>
      <trkpt lat="49.30876" lon="1.25423">
        <ele>22.25</ele>
        <time>2013-07-27T13:16:23Z</time>
      </trkpt>
      <trkpt lat="49.31023" lon="1.25193">
        <ele>21.77</ele>
        <time>2013-07-27T13:16:35Z</time>
      </trkpt>
      <trkpt lat="49.31084" lon="1.25077">
        <ele>21.29</ele>
        <time>2013-07-27T13:16:42Z</time>
      </trkpt>
      <trkpt lat="49.31093" lon="1.2506">
        <ele>21.29</ele>
        <time>2013-07-27T13:16:43Z</time>
      </trkpt>
      <trkpt lat="49.311" lon="1.25044">
        <ele>20.81</ele>
        <time>2013-07-27T13:16:44Z</time>
      </trkpt>
      <trkpt lat="49.31106" lon="1.25028">
        <ele>20.81</ele>
        <time>2013-07-27T13:16:45Z</time>
      </trkpt>
      <trkpt lat="49.31109" lon="1.25013">
        <ele>20.81</ele>
        <time>2013-07-27T13:16:46Z</time>
      </trkpt>
      <trkpt lat="49.3111" lon="1.25">
        <ele>20.81</ele>
        <time>2013-07-27T13:16:47Z</time>
      </trkpt>
      <trkpt lat="49.31112" lon="1.24988">
        <ele>20.81</ele>
        <time>2013-07-27T13:16:48Z</time>
      </trkpt>
      <trkpt lat="49.31144" lon="1.24873">
        <ele>19.84</ele>
        <time>2013-07-27T13:16:57Z</time>
      </trkpt>
      <trkpt lat="49.31182" lon="1.24772">
        <ele>19.36</ele>
        <time>2013-07-27T13:17:05Z</time>
      </trkpt>
      <trkpt lat="49.31244" lon="1.24639">
        <ele>19.36</ele>
        <time>2013-07-27T13:17:14Z</time>
      </trkpt>
      <trkpt lat="49.31351" lon="1.24437">
        <ele>19.36</ele>
        <time>2013-07-27T13:17:25Z</time>
      </trkpt>
      <trkpt lat="49.31437" lon="1.24317">
        <ele>19.36</ele>
        <time>2013-07-27T13:17:33Z</time>
      </trkpt>
      <trkpt lat="49.31459" lon="1.24288">
        <ele>19.36</ele>
        <time>2013-07-27T13:17:36Z</time>
      </trkpt>
      <trkpt lat="49.31459" lon="1.24288">
        <ele>19.84</ele>
        <time>2013-07-27T13:17:37Z</time>
      </trkpt>
      <trkpt lat="49.31528" lon="1.24128">
        <ele>16.96</ele>
        <time>2013-07-27T13:17:44Z</time>
      </trkpt>
      <trkpt lat="49.31678" lon="1.23803">
        <ele>13.6</ele>
        <time>2013-07-27T13:17:57Z</time>
      </trkpt>
      <trkpt lat="49.31809" lon="1.23519">
        <ele>13.6</ele>
        <time>2013-07-27T13:18:08Z</time>
      </trkpt>
      <trkpt lat="49.31913" lon="1.23289">
        <ele>13.12</ele>
        <time>2013-07-27T13:18:18Z</time>
      </trkpt>
      <trkpt lat="49.31958" lon="1.23151">
        <ele>13.12</ele>
        <time>2013-07-27T13:18:25Z</time>
      </trkpt>
      <trkpt lat="49.31967" lon="1.23139">
        <ele>13.12</ele>
        <time>2013-07-27T13:18:26Z</time>
      </trkpt>
      <trkpt lat="49.31975" lon="1.2313">
        <ele>13.12</ele>
        <time>2013-07-27T13:18:27Z</time>
      </trkpt>
      <trkpt lat="49.31986" lon="1.2312">
        <ele>13.12</ele>
        <time>2013-07-27T13:18:28Z</time>
      </trkpt>
      <trkpt lat="49.31993" lon="1.23114">
        <ele>13.12</ele>
        <time>2013-07-27T13:18:29Z</time>
      </trkpt>
      <trkpt lat="49.32007" lon="1.23103">
        <ele>13.12</ele>
        <time>2013-07-27T13:18:30Z</time>
      </trkpt>
      <trkpt lat="49.32086" lon="1.23042">
        <ele>13.6</ele>
        <time>2013-07-27T13:18:40Z</time>
      </trkpt>
      <trkpt lat="49.32136" lon="1.23004">
        <ele>13.6</ele>
        <time>2013-07-27T13:18:49Z</time>
      </trkpt>
      <trkpt lat="49.32136" lon="1.23004">
        <ele>14.56</ele>
        <time>2013-07-27T13:18:51Z</time>
      </trkpt>
      <trkpt lat="49.32135" lon="1.23001">
        <ele>14.56</ele>
        <time>2013-07-27T13:18:52Z</time>
      </trkpt>
      <trkpt lat="49.32133" lon="1.22997">
        <ele>14.56</ele>
        <time>2013-07-27T13:18:53Z</time>
      </trkpt>
      <trkpt lat="49.32131" lon="1.22991">
        <ele>14.56</ele>
        <time>2013-07-27T13:18:54Z</time>
      </trkpt>
      <trkpt lat="49.32128" lon="1.22985">
        <ele>14.56</ele>
        <time>2013-07-27T13:18:55Z</time>
      </trkpt>
      <trkpt lat="49.32125" lon="1.22978">
        <ele>14.08</ele>
        <time>2013-07-27T13:18:56Z</time>
      </trkpt>
      <trkpt lat="49.32122" lon="1.2297">
        <ele>14.08</ele>
        <time>2013-07-27T13:18:57Z</time>
      </trkpt>
      <trkpt lat="49.32119" lon="1.22962">
        <ele>14.08</ele>
        <time>2013-07-27T13:18:58Z</time>
      </trkpt>
      <trkpt lat="49.32069" lon="1.22858">
        <ele>14.08</ele>
        <time>2013-07-27T13:19:09Z</time>
      </trkpt>
      <trkpt lat="49.32035" lon="1.22789">
        <ele>14.08</ele>
        <time>2013-07-27T13:19:18Z</time>
      </trkpt>
      <trkpt lat="49.32029" lon="1.22787">
        <ele>14.56</ele>
        <time>2013-07-27T13:19:19Z</time>
      </trkpt>
      <trkpt lat="49.3202" lon="1.22792">
        <ele>14.56</ele>
        <time>2013-07-27T13:19:21Z</time>
      </trkpt>
      <trkpt lat="49.32015" lon="1.22794">
        <ele>14.56</ele>
        <time>2013-07-27T13:19:22Z</time>
      </trkpt>
      <trkpt lat="49.31957" lon="1.2279">
        <ele>13.6</ele>
        <time>2013-07-27T13:19:28Z</time>
      </trkpt>
      <trkpt lat="49.31907" lon="1.22769">
        <ele>13.12</ele>
        <time>2013-07-27T13:19:33Z</time>
      </trkpt>
      <trkpt lat="49.31899" lon="1.22764">
        <ele>13.12</ele>
        <time>2013-07-27T13:19:34Z</time>
      </trkpt>
      <trkpt lat="49.31889" lon="1.22758">
        <ele>12.63</ele>
        <time>2013-07-27T13:19:36Z</time>
      </trkpt>
      <trkpt lat="49.31883" lon="1.22754">
        <ele>12.63</ele>
        <time>2013-07-27T13:19:37Z</time>
      </trkpt>
      <trkpt lat="49.31883" lon="1.22747">
        <ele>12.63</ele>
        <time>2013-07-27T13:19:38Z</time>
      </trkpt>
      <trkpt lat="49.31884" lon="1.22738">
        <ele>12.63</ele>
        <time>2013-07-27T13:19:39Z</time>
      </trkpt>
      <trkpt lat="49.31885" lon="1.22727">
        <ele>12.63</ele>
        <time>2013-07-27T13:19:40Z</time>
      </trkpt>
      <trkpt lat="49.31895" lon="1.22611">
        <ele>13.6</ele>
        <time>2013-07-27T13:19:47Z</time>
      </trkpt>
      <trkpt lat="49.31902" lon="1.22537">
        <ele>15.04</ele>
        <time>2013-07-27T13:19:54Z</time>
      </trkpt>
      <trkpt lat="49.31912" lon="1.2244">
        <ele>16</ele>
        <time>2013-07-27T13:20:02Z</time>
      </trkpt>
      <trkpt lat="49.31909" lon="1.22393">
        <ele>16.48</ele>
        <time>2013-07-27T13:20:06Z</time>
      </trkpt>
      <trkpt lat="49.31905" lon="1.22352">
        <ele>17.92</ele>
        <time>2013-07-27T13:20:10Z</time>
      </trkpt>
      <trkpt lat="49.31905" lon="1.22339">
        <ele>18.4</ele>
        <time>2013-07-27T13:20:11Z</time>
      </trkpt>
      <trkpt lat="49.31908" lon="1.22338">
        <ele>18.4</ele>
        <time>2013-07-27T13:20:12Z</time>
      </trkpt>
      <trkpt lat="49.31912" lon="1.22337">
        <ele>18.88</ele>
        <time>2013-07-27T13:20:13Z</time>
      </trkpt>
      <trkpt lat="49.31917" lon="1.22335">
        <ele>18.88</ele>
        <time>2013-07-27T13:20:14Z</time>
      </trkpt>
      <trkpt lat="49.31924" lon="1.22333">
        <ele>18.4</ele>
        <time>2013-07-27T13:20:15Z</time>
      </trkpt>
      <trkpt lat="49.32013" lon="1.22309">
        <ele>18.4</ele>
        <time>2013-07-27T13:20:27Z</time>
      </trkpt>
      <trkpt lat="49.3213" lon="1.22286">
        <ele>18.4</ele>
        <time>2013-07-27T13:20:39Z</time>
      </trkpt>
      <trkpt lat="49.32246" lon="1.22243">
        <ele>19.36</ele>
        <time>2013-07-27T13:20:51Z</time>
      </trkpt>
      <trkpt lat="49.32367" lon="1.22182">
        <ele>20.81</ele>
        <time>2013-07-27T13:21:04Z</time>
      </trkpt>
      <trkpt lat="49.32482" lon="1.22106">
        <ele>24.17</ele>
        <time>2013-07-27T13:21:16Z</time>
      </trkpt>
      <trkpt lat="49.32558" lon="1.2199">
        <ele>28.02</ele>
        <time>2013-07-27T13:21:25Z</time>
      </trkpt>
      <trkpt lat="49.32567" lon="1.21967">
        <ele>28.98</ele>
        <time>2013-07-27T13:21:27Z</time>
      </trkpt>
      <trkpt lat="49.32569" lon="1.21957">
        <ele>29.46</ele>
        <time>2013-07-27T13:21:28Z</time>
      </trkpt>
      <trkpt lat="49.32568" lon="1.21947">
        <ele>29.46</ele>
        <time>2013-07-27T13:21:29Z</time>
      </trkpt>
      <trkpt lat="49.32567" lon="1.21938">
        <ele>29.94</ele>
        <time>2013-07-27T13:21:30Z</time>
      </trkpt>
      <trkpt lat="49.32566" lon="1.21929">
        <ele>29.94</ele>
        <time>2013-07-27T13:21:31Z</time>
      </trkpt>
      <trkpt lat="49.32567" lon="1.21916">
        <ele>29.94</ele>
        <time>2013-07-27T13:21:32Z</time>
      </trkpt>
      <trkpt lat="49.3257" lon="1.21913">
        <ele>29.94</ele>
        <time>2013-07-27T13:21:33Z</time>
      </trkpt>
      <trkpt lat="49.32574" lon="1.2191">
        <ele>30.42</ele>
        <time>2013-07-27T13:21:34Z</time>
      </trkpt>
      <trkpt lat="49.32578" lon="1.21905">
        <ele>30.9</ele>
        <time>2013-07-27T13:21:35Z</time>
      </trkpt>
      <trkpt lat="49.32587" lon="1.2189">
        <ele>32.34</ele>
        <time>2013-07-27T13:21:37Z</time>
      </trkpt>
      <trkpt lat="49.32594" lon="1.2188">
        <ele>32.82</ele>
        <time>2013-07-27T13:21:38Z</time>
      </trkpt>
      <trkpt lat="49.32614" lon="1.21848">
        <ele>34.74</ele>
        <time>2013-07-27T13:21:41Z</time>
      </trkpt>
      <trkpt lat="49.32621" lon="1.2184">
        <ele>35.23</ele>
        <time>2013-07-27T13:21:42Z</time>
      </trkpt>
      <trkpt lat="49.32628" lon="1.21832">
        <ele>36.19</ele>
        <time>2013-07-27T13:21:43Z</time>
      </trkpt>
      <trkpt lat="49.32634" lon="1.21825">
        <ele>36.67</ele>
        <time>2013-07-27T13:21:44Z</time>
      </trkpt>
      <trkpt lat="49.32646" lon="1.21825">
        <ele>37.15</ele>
        <time>2013-07-27T13:21:45Z</time>
      </trkpt>
      <trkpt lat="49.32655" lon="1.21832">
        <ele>37.63</ele>
        <time>2013-07-27T13:21:46Z</time>
      </trkpt>
      <trkpt lat="49.32659" lon="1.2183">
        <ele>38.11</ele>
        <time>2013-07-27T13:21:47Z</time>
      </trkpt>
      <trkpt lat="49.32664" lon="1.21826">
        <ele>38.11</ele>
        <time>2013-07-27T13:21:48Z</time>
      </trkpt>
      <trkpt lat="49.32668" lon="1.21815">
        <ele>38.59</ele>
        <time>2013-07-27T13:21:49Z</time>
      </trkpt>
      <trkpt lat="49.32668" lon="1.21806">
        <ele>38.59</ele>
        <time>2013-07-27T13:21:50Z</time>
      </trkpt>
      <trkpt lat="49.32668" lon="1.21798">
        <ele>39.07</ele>
        <time>2013-07-27T13:21:51Z</time>
      </trkpt>
      <trkpt lat="49.32668" lon="1.21798">
        <ele>39.07</ele>
        <time>2013-07-27T13:21:52Z</time>
      </trkpt>
      <trkpt lat="49.3266" lon="1.21785">
        <ele>38.59</ele>
        <time>2013-07-27T13:21:53Z</time>
      </trkpt>
      <trkpt lat="49.3266" lon="1.21785">
        <ele>38.59</ele>
        <time>2013-07-27T13:21:54Z</time>
      </trkpt>
      <trkpt lat="49.32644" lon="1.2175">
        <ele>38.11</ele>
        <time>2013-07-27T13:21:55Z</time>
      </trkpt>
      <trkpt lat="49.32642" lon="1.21733">
        <ele>38.11</ele>
        <time>2013-07-27T13:21:56Z</time>
      </trkpt>
      <trkpt lat="49.32641" lon="1.21715">
        <ele>38.59</ele>
        <time>2013-07-27T13:21:57Z</time>
      </trkpt>
      <trkpt lat="49.32617" lon="1.21546">
        <ele>39.07</ele>
        <time>2013-07-27T13:22:04Z</time>
      </trkpt>
      <trkpt lat="49.32574" lon="1.21265">
        <ele>39.55</ele>
        <time>2013-07-27T13:22:12Z</time>
      </trkpt>
      <trkpt lat="49.32522" lon="1.20928">
        <ele>39.55</ele>
        <time>2013-07-27T13:22:22Z</time>
      </trkpt>
      <trkpt lat="49.32485" lon="1.20686">
        <ele>37.63</ele>
        <time>2013-07-27T13:22:28Z</time>
      </trkpt>
      <trkpt lat="49.32409" lon="1.20208">
        <ele>33.3</ele>
        <time>2013-07-27T13:22:40Z</time>
      </trkpt>
      <trkpt lat="49.32331" lon="1.19809">
        <ele>30.42</ele>
        <time>2013-07-27T13:22:50Z</time>
      </trkpt>
      <trkpt lat="49.32207" lon="1.19484">
        <ele>24.65</ele>
        <time>2013-07-27T13:22:59Z</time>
      </trkpt>
      <trkpt lat="49.32118" lon="1.1919">
        <ele>20.32</ele>
        <time>2013-07-27T13:23:07Z</time>
      </trkpt>
      <trkpt lat="49.32081" lon="1.18966">
        <ele>19.84</ele>
        <time>2013-07-27T13:23:14Z</time>
      </trkpt>
      <trkpt lat="49.32061" lon="1.18831">
        <ele>18.88</ele>
        <time>2013-07-27T13:23:20Z</time>
      </trkpt>
      <trkpt lat="49.32062" lon="1.18811">
        <ele>18.88</ele>
        <time>2013-07-27T13:23:21Z</time>
      </trkpt>
      <trkpt lat="49.32072" lon="1.1879">
        <ele>18.88</ele>
        <time>2013-07-27T13:23:22Z</time>
      </trkpt>
      <trkpt lat="49.32074" lon="1.18784">
        <ele>18.88</ele>
        <time>2013-07-27T13:23:23Z</time>
      </trkpt>
      <trkpt lat="49.32081" lon="1.18768">
        <ele>18.88</ele>
        <time>2013-07-27T13:23:24Z</time>
      </trkpt>
      <trkpt lat="49.32087" lon="1.18753">
        <ele>19.36</ele>
        <time>2013-07-27T13:23:25Z</time>
      </trkpt>
      <trkpt lat="49.32094" lon="1.18737">
        <ele>19.36</ele>
        <time>2013-07-27T13:23:26Z</time>
      </trkpt>
      <trkpt lat="49.32094" lon="1.18737">
        <ele>19.36</ele>
        <time>2013-07-27T13:23:27Z</time>
      </trkpt>
      <trkpt lat="49.32136" lon="1.18619">
        <ele>19.84</ele>
        <time>2013-07-27T13:23:35Z</time>
      </trkpt>
      <trkpt lat="49.32136" lon="1.18619">
        <ele>19.84</ele>
        <time>2013-07-27T13:23:36Z</time>
      </trkpt>
      <trkpt lat="49.32136" lon="1.18619">
        <ele>20.32</ele>
        <time>2013-07-27T13:23:37Z</time>
      </trkpt>
      <trkpt lat="49.32149" lon="1.18607">
        <ele>20.32</ele>
        <time>2013-07-27T13:23:38Z</time>
      </trkpt>
      <trkpt lat="49.32153" lon="1.18606">
        <ele>20.32</ele>
        <time>2013-07-27T13:23:39Z</time>
      </trkpt>
      <trkpt lat="49.32158" lon="1.18603">
        <ele>20.32</ele>
        <time>2013-07-27T13:23:40Z</time>
      </trkpt>
      <trkpt lat="49.32158" lon="1.18598">
        <ele>20.32</ele>
        <time>2013-07-27T13:23:41Z</time>
      </trkpt>
      <trkpt lat="49.32158" lon="1.18598">
        <ele>20.32</ele>
        <time>2013-07-27T13:23:42Z</time>
      </trkpt>
      <trkpt lat="49.32158" lon="1.18583">
        <ele>20.32</ele>
        <time>2013-07-27T13:23:43Z</time>
      </trkpt>
      <trkpt lat="49.32158" lon="1.18583">
        <ele>20.32</ele>
        <time>2013-07-27T13:23:44Z</time>
      </trkpt>
      <trkpt lat="49.32152" lon="1.18541">
        <ele>20.32</ele>
        <time>2013-07-27T13:23:49Z</time>
      </trkpt>
      <trkpt lat="49.32138" lon="1.18446">
        <ele>19.36</ele>
        <time>2013-07-27T13:23:58Z</time>
      </trkpt>
      <trkpt lat="49.32137" lon="1.18433">
        <ele>19.36</ele>
        <time>2013-07-27T13:23:59Z</time>
      </trkpt>
      <trkpt lat="49.3213" lon="1.18359">
        <ele>17.92</ele>
        <time>2013-07-27T13:24:07Z</time>
      </trkpt>
      <trkpt lat="49.32119" lon="1.18251">
        <ele>17.44</ele>
        <time>2013-07-27T13:24:18Z</time>
      </trkpt>
      <trkpt lat="49.32115" lon="1.18167">
        <ele>18.4</ele>
        <time>2013-07-27T13:24:27Z</time>
      </trkpt>
      <trkpt lat="49.32106" lon="1.18023">
        <ele>19.84</ele>
        <time>2013-07-27T13:24:40Z</time>
      </trkpt>
      <trkpt lat="49.32098" lon="1.17929">
        <ele>19.84</ele>
        <time>2013-07-27T13:24:50Z</time>
      </trkpt>
      <trkpt lat="49.32098" lon="1.17921">
        <ele>19.84</ele>
        <time>2013-07-27T13:24:51Z</time>
      </trkpt>
      <trkpt lat="49.32096" lon="1.179">
        <ele>19.84</ele>
        <time>2013-07-27T13:24:53Z</time>
      </trkpt>
      <trkpt lat="49.32085" lon="1.17745">
        <ele>19.84</ele>
        <time>2013-07-27T13:25:05Z</time>
      </trkpt>
      <trkpt lat="49.32074" lon="1.17584">
        <ele>20.32</ele>
        <time>2013-07-27T13:25:17Z</time>
      </trkpt>
      <trkpt lat="49.32072" lon="1.1755">
        <ele>20.81</ele>
        <time>2013-07-27T13:25:24Z</time>
      </trkpt>
      <trkpt lat="49.32072" lon="1.1755">
        <ele>20.81</ele>
        <time>2013-07-27T13:25:40Z</time>
      </trkpt>
      <trkpt lat="49.32072" lon="1.1755">
        <ele>20.81</ele>
        <time>2013-07-27T13:26:12Z</time>
      </trkpt>
      <trkpt lat="49.32072" lon="1.1755">
        <ele>20.32</ele>
        <time>2013-07-27T13:26:48Z</time>
      </trkpt>
      <trkpt lat="49.32072" lon="1.1755">
        <ele>20.32</ele>
        <time>2013-07-27T13:27:17Z</time>
      </trkpt>
      <trkpt lat="49.32072" lon="1.1755">
        <ele>21.29</ele>
        <time>2013-07-27T13:27:49Z</time>
      </trkpt>
      <trkpt lat="49.32072" lon="1.1755">
        <ele>20.81</ele>
        <time>2013-07-27T13:28:32Z</time>
      </trkpt>
      <trkpt lat="49.32072" lon="1.1755">
        <ele>20.81</ele>
        <time>2013-07-27T13:29:04Z</time>
      </trkpt>
      <trkpt lat="49.32068" lon="1.17538">
        <ele>20.81</ele>
        <time>2013-07-27T13:29:25Z</time>
      </trkpt>
      <trkpt lat="49.32066" lon="1.17532">
        <ele>20.81</ele>
        <time>2013-07-27T13:29:26Z</time>
      </trkpt>
      <trkpt lat="49.32064" lon="1.17526">
        <ele>20.81</ele>
        <time>2013-07-27T13:29:27Z</time>
      </trkpt>
      <trkpt lat="49.32062" lon="1.17519">
        <ele>20.81</ele>
        <time>2013-07-27T13:29:28Z</time>
      </trkpt>
      <trkpt lat="49.32059" lon="1.17512">
        <ele>20.81</ele>
        <time>2013-07-27T13:29:29Z</time>
      </trkpt>
      <trkpt lat="49.32057" lon="1.17506">
        <ele>20.81</ele>
        <time>2013-07-27T13:29:30Z</time>
      </trkpt>
      <trkpt lat="49.32051" lon="1.17485">
        <ele>20.81</ele>
        <time>2013-07-27T13:29:33Z</time>
      </trkpt>
      <trkpt lat="49.32049" lon="1.17476">
        <ele>20.32</ele>
        <time>2013-07-27T13:29:34Z</time>
      </trkpt>
      <trkpt lat="49.32047" lon="1.17467">
        <ele>20.32</ele>
        <time>2013-07-27T13:29:35Z</time>
      </trkpt>
      <trkpt lat="49.32026" lon="1.1734">
        <ele>17.44</ele>
        <time>2013-07-27T13:29:46Z</time>
      </trkpt>
      <trkpt lat="49.32001" lon="1.17191">
        <ele>15.04</ele>
        <time>2013-07-27T13:29:56Z</time>
      </trkpt>
      <trkpt lat="49.31979" lon="1.17056">
        <ele>14.56</ele>
        <time>2013-07-27T13:30:05Z</time>
      </trkpt>
      <trkpt lat="49.31979" lon="1.17056">
        <ele>14.56</ele>
        <time>2013-07-27T13:30:06Z</time>
      </trkpt>
      <trkpt lat="49.31965" lon="1.16941">
        <ele>14.08</ele>
        <time>2013-07-27T13:30:16Z</time>
      </trkpt>
      <trkpt lat="49.31949" lon="1.16821">
        <ele>13.12</ele>
        <time>2013-07-27T13:30:24Z</time>
      </trkpt>
      <trkpt lat="49.3193" lon="1.16621">
        <ele>12.63</ele>
        <time>2013-07-27T13:30:36Z</time>
      </trkpt>
      <trkpt lat="49.31925" lon="1.16484">
        <ele>12.63</ele>
        <time>2013-07-27T13:30:46Z</time>
      </trkpt>
      <trkpt lat="49.31915" lon="1.16291">
        <ele>14.08</ele>
        <time>2013-07-27T13:30:57Z</time>
      </trkpt>
      <trkpt lat="49.31905" lon="1.16174">
        <ele>14.56</ele>
        <time>2013-07-27T13:31:05Z</time>
      </trkpt>
      <trkpt lat="49.31904" lon="1.16143">
        <ele>15.04</ele>
        <time>2013-07-27T13:31:08Z</time>
      </trkpt>
      <trkpt lat="49.31902" lon="1.15996">
        <ele>15.04</ele>
        <time>2013-07-27T13:31:17Z</time>
      </trkpt>
      <trkpt lat="49.31893" lon="1.15854">
        <ele>15.04</ele>
        <time>2013-07-27T13:31:27Z</time>
      </trkpt>
      <trkpt lat="49.31888" lon="1.15837">
        <ele>15.04</ele>
        <time>2013-07-27T13:31:29Z</time>
      </trkpt>
      <trkpt lat="49.31888" lon="1.15837">
        <ele>15.52</ele>
        <time>2013-07-27T13:31:30Z</time>
      </trkpt>
      <trkpt lat="49.31889" lon="1.15811">
        <ele>15.52</ele>
        <time>2013-07-27T13:31:31Z</time>
      </trkpt>
      <trkpt lat="49.31893" lon="1.15806">
        <ele>15.52</ele>
        <time>2013-07-27T13:31:32Z</time>
      </trkpt>
      <trkpt lat="49.31898" lon="1.15799">
        <ele>15.52</ele>
        <time>2013-07-27T13:31:33Z</time>
      </trkpt>
      <trkpt lat="49.31903" lon="1.15792">
        <ele>15.52</ele>
        <time>2013-07-27T13:31:34Z</time>
      </trkpt>
      <trkpt lat="49.31926" lon="1.15766">
        <ele>15.52</ele>
        <time>2013-07-27T13:31:41Z</time>
      </trkpt>
      <trkpt lat="49.31932" lon="1.15757">
        <ele>15.04</ele>
        <time>2013-07-27T13:31:42Z</time>
      </trkpt>
      <trkpt lat="49.31934" lon="1.15745">
        <ele>15.04</ele>
        <time>2013-07-27T13:31:43Z</time>
      </trkpt>
      <trkpt lat="49.31932" lon="1.15737">
        <ele>15.04</ele>
        <time>2013-07-27T13:31:44Z</time>
      </trkpt>
      <trkpt lat="49.31929" lon="1.15728">
        <ele>15.04</ele>
        <time>2013-07-27T13:31:45Z</time>
      </trkpt>
      <trkpt lat="49.31925" lon="1.15722">
        <ele>15.04</ele>
        <time>2013-07-27T13:31:46Z</time>
      </trkpt>
      <trkpt lat="49.31919" lon="1.15718">
        <ele>15.04</ele>
        <time>2013-07-27T13:31:47Z</time>
      </trkpt>
      <trkpt lat="49.31914" lon="1.15719">
        <ele>15.04</ele>
        <time>2013-07-27T13:31:48Z</time>
      </trkpt>
      <trkpt lat="49.31914" lon="1.15719">
        <ele>15.04</ele>
        <time>2013-07-27T13:31:49Z</time>
      </trkpt>
      <trkpt lat="49.31899" lon="1.15706">
        <ele>15.04</ele>
        <time>2013-07-27T13:31:50Z</time>
      </trkpt>
      <trkpt lat="49.31896" lon="1.15697">
        <ele>15.04</ele>
        <time>2013-07-27T13:31:51Z</time>
      </trkpt>
      <trkpt lat="49.31896" lon="1.15686">
        <ele>14.56</ele>
        <time>2013-07-27T13:31:52Z</time>
      </trkpt>
      <trkpt lat="49.31896" lon="1.15676">
        <ele>14.56</ele>
        <time>2013-07-27T13:31:53Z</time>
      </trkpt>
      <trkpt lat="49.31895" lon="1.15662">
        <ele>14.56</ele>
        <time>2013-07-27T13:31:54Z</time>
      </trkpt>
      <trkpt lat="49.31895" lon="1.1565">
        <ele>14.08</ele>
        <time>2013-07-27T13:31:55Z</time>
      </trkpt>
      <trkpt lat="49.31894" lon="1.15638">
        <ele>14.08</ele>
        <time>2013-07-27T13:31:56Z</time>
      </trkpt>
      <trkpt lat="49.31887" lon="1.15478">
        <ele>15.52</ele>
        <time>2013-07-27T13:32:07Z</time>
      </trkpt>
      <trkpt lat="49.31888" lon="1.15241">
        <ele>15.52</ele>
        <time>2013-07-27T13:32:22Z</time>
      </trkpt>
      <trkpt lat="49.3189" lon="1.15226">
        <ele>16</ele>
        <time>2013-07-27T13:32:29Z</time>
      </trkpt>
      <trkpt lat="49.31896" lon="1.15195">
        <ele>16</ele>
        <time>2013-07-27T13:32:39Z</time>
      </trkpt>
      <trkpt lat="49.31909" lon="1.1513">
        <ele>15.52</ele>
        <time>2013-07-27T13:32:45Z</time>
      </trkpt>
      <trkpt lat="49.3191" lon="1.1512">
        <ele>15.52</ele>
        <time>2013-07-27T13:32:46Z</time>
      </trkpt>
      <trkpt lat="49.31912" lon="1.15092">
        <ele>15.52</ele>
        <time>2013-07-27T13:32:49Z</time>
      </trkpt>
      <trkpt lat="49.31914" lon="1.15077">
        <ele>15.52</ele>
        <time>2013-07-27T13:32:50Z</time>
      </trkpt>
      <trkpt lat="49.31918" lon="1.15077">
        <ele>15.52</ele>
        <time>2013-07-27T13:32:51Z</time>
      </trkpt>
      <trkpt lat="49.31924" lon="1.15076">
        <ele>15.04</ele>
        <time>2013-07-27T13:32:52Z</time>
      </trkpt>
      <trkpt lat="49.31931" lon="1.15076">
        <ele>14.56</ele>
        <time>2013-07-27T13:32:53Z</time>
      </trkpt>
      <trkpt lat="49.31939" lon="1.15075">
        <ele>14.56</ele>
        <time>2013-07-27T13:32:54Z</time>
      </trkpt>
      <trkpt lat="49.31947" lon="1.15074">
        <ele>14.08</ele>
        <time>2013-07-27T13:32:55Z</time>
      </trkpt>
      <trkpt lat="49.32026" lon="1.15073">
        <ele>15.04</ele>
        <time>2013-07-27T13:33:03Z</time>
      </trkpt>
      <trkpt lat="49.32036" lon="1.15067">
        <ele>15.52</ele>
        <time>2013-07-27T13:33:04Z</time>
      </trkpt>
      <trkpt lat="49.32046" lon="1.1506">
        <ele>16</ele>
        <time>2013-07-27T13:33:05Z</time>
      </trkpt>
      <trkpt lat="49.32055" lon="1.15051">
        <ele>16.48</ele>
        <time>2013-07-27T13:33:06Z</time>
      </trkpt>
      <trkpt lat="49.32062" lon="1.15037">
        <ele>16.96</ele>
        <time>2013-07-27T13:33:07Z</time>
      </trkpt>
      <trkpt lat="49.32068" lon="1.1502">
        <ele>17.92</ele>
        <time>2013-07-27T13:33:08Z</time>
      </trkpt>
      <trkpt lat="49.32073" lon="1.15002">
        <ele>18.4</ele>
        <time>2013-07-27T13:33:09Z</time>
      </trkpt>
      <trkpt lat="49.32078" lon="1.14982">
        <ele>18.88</ele>
        <time>2013-07-27T13:33:10Z</time>
      </trkpt>
      <trkpt lat="49.32083" lon="1.14962">
        <ele>19.36</ele>
        <time>2013-07-27T13:33:11Z</time>
      </trkpt>
      <trkpt lat="49.32125" lon="1.1477">
        <ele>22.25</ele>
        <time>2013-07-27T13:33:22Z</time>
      </trkpt>
      <trkpt lat="49.3216" lon="1.14648">
        <ele>22.73</ele>
        <time>2013-07-27T13:33:33Z</time>
      </trkpt>
      <trkpt lat="49.32175" lon="1.14591">
        <ele>23.69</ele>
        <time>2013-07-27T13:33:37Z</time>
      </trkpt>
      <trkpt lat="49.32175" lon="1.14579">
        <ele>24.17</ele>
        <time>2013-07-27T13:33:38Z</time>
      </trkpt>
      <trkpt lat="49.32175" lon="1.14569">
        <ele>24.17</ele>
        <time>2013-07-27T13:33:39Z</time>
      </trkpt>
      <trkpt lat="49.32175" lon="1.14569">
        <ele>24.65</ele>
        <time>2013-07-27T13:33:40Z</time>
      </trkpt>
      <trkpt lat="49.32181" lon="1.1455">
        <ele>25.13</ele>
        <time>2013-07-27T13:33:41Z</time>
      </trkpt>
      <trkpt lat="49.32186" lon="1.14547">
        <ele>25.61</ele>
        <time>2013-07-27T13:33:42Z</time>
      </trkpt>
      <trkpt lat="49.32189" lon="1.14542">
        <ele>25.61</ele>
        <time>2013-07-27T13:33:43Z</time>
      </trkpt>
      <trkpt lat="49.32191" lon="1.14534">
        <ele>26.09</ele>
        <time>2013-07-27T13:33:44Z</time>
      </trkpt>
      <trkpt lat="49.32193" lon="1.14526">
        <ele>26.57</ele>
        <time>2013-07-27T13:33:45Z</time>
      </trkpt>
      <trkpt lat="49.32196" lon="1.14518">
        <ele>27.05</ele>
        <time>2013-07-27T13:33:46Z</time>
      </trkpt>
      <trkpt lat="49.32229" lon="1.14406">
        <ele>31.86</ele>
        <time>2013-07-27T13:33:54Z</time>
      </trkpt>
      <trkpt lat="49.32285" lon="1.1422">
        <ele>44.36</ele>
        <time>2013-07-27T13:34:04Z</time>
      </trkpt>
      <trkpt lat="49.32366" lon="1.14037">
        <ele>57.82</ele>
        <time>2013-07-27T13:34:13Z</time>
      </trkpt>
      <trkpt lat="49.32442" lon="1.13863">
        <ele>70.31</ele>
        <time>2013-07-27T13:34:21Z</time>
      </trkpt>
      <trkpt lat="49.32492" lon="1.13772">
        <ele>78.48</ele>
        <time>2013-07-27T13:34:26Z</time>
      </trkpt>
      <trkpt lat="49.32608" lon="1.13636">
        <ele>87.14</ele>
        <time>2013-07-27T13:34:36Z</time>
      </trkpt>
      <trkpt lat="49.32673" lon="1.1356">
        <ele>88.1</ele>
        <time>2013-07-27T13:34:44Z</time>
      </trkpt>
      <trkpt lat="49.32726" lon="1.13501">
        <ele>89.06</ele>
        <time>2013-07-27T13:34:52Z</time>
      </trkpt>
      <trkpt lat="49.32772" lon="1.13447">
        <ele>89.06</ele>
        <time>2013-07-27T13:35:00Z</time>
      </trkpt>
      <trkpt lat="49.32834" lon="1.13377">
        <ele>87.14</ele>
        <time>2013-07-27T13:35:09Z</time>
      </trkpt>
      <trkpt lat="49.32952" lon="1.13274">
        <ele>85.21</ele>
        <time>2013-07-27T13:35:20Z</time>
      </trkpt>
      <trkpt lat="49.33093" lon="1.13224">
        <ele>84.73</ele>
        <time>2013-07-27T13:35:29Z</time>
      </trkpt>
      <trkpt lat="49.33144" lon="1.13207">
        <ele>83.29</ele>
        <time>2013-07-27T13:35:35Z</time>
      </trkpt>
      <trkpt lat="49.33156" lon="1.13202">
        <ele>82.81</ele>
        <time>2013-07-27T13:35:40Z</time>
      </trkpt>
      <trkpt lat="49.33161" lon="1.13201">
        <ele>83.29</ele>
        <time>2013-07-27T13:35:41Z</time>
      </trkpt>
      <trkpt lat="49.33168" lon="1.13198">
        <ele>83.29</ele>
        <time>2013-07-27T13:35:42Z</time>
      </trkpt>
      <trkpt lat="49.33175" lon="1.13196">
        <ele>83.77</ele>
        <time>2013-07-27T13:35:43Z</time>
      </trkpt>
      <trkpt lat="49.33184" lon="1.13193">
        <ele>84.25</ele>
        <time>2013-07-27T13:35:44Z</time>
      </trkpt>
      <trkpt lat="49.3328" lon="1.13158">
        <ele>86.18</ele>
        <time>2013-07-27T13:35:53Z</time>
      </trkpt>
      <trkpt lat="49.33342" lon="1.13138">
        <ele>86.66</ele>
        <time>2013-07-27T13:35:58Z</time>
      </trkpt>
      <trkpt lat="49.33351" lon="1.13142">
        <ele>86.66</ele>
        <time>2013-07-27T13:35:59Z</time>
      </trkpt>
      <trkpt lat="49.33355" lon="1.13133">
        <ele>87.14</ele>
        <time>2013-07-27T13:36:00Z</time>
      </trkpt>
      <trkpt lat="49.33454" lon="1.13094">
        <ele>86.66</ele>
        <time>2013-07-27T13:36:09Z</time>
      </trkpt>
      <trkpt lat="49.33559" lon="1.13057">
        <ele>86.66</ele>
        <time>2013-07-27T13:36:20Z</time>
      </trkpt>
      <trkpt lat="49.33628" lon="1.13036">
        <ele>86.18</ele>
        <time>2013-07-27T13:36:29Z</time>
      </trkpt>
      <trkpt lat="49.33689" lon="1.13015">
        <ele>85.21</ele>
        <time>2013-07-27T13:36:38Z</time>
      </trkpt>
      <trkpt lat="49.33766" lon="1.12987">
        <ele>84.25</ele>
        <time>2013-07-27T13:36:47Z</time>
      </trkpt>
      <trkpt lat="49.33831" lon="1.12966">
        <ele>82.81</ele>
        <time>2013-07-27T13:36:55Z</time>
      </trkpt>
      <trkpt lat="49.33908" lon="1.12938">
        <ele>80.89</ele>
        <time>2013-07-27T13:37:04Z</time>
      </trkpt>
      <trkpt lat="49.33964" lon="1.12919">
        <ele>80.89</ele>
        <time>2013-07-27T13:37:13Z</time>
      </trkpt>
      <trkpt lat="49.34035" lon="1.12897">
        <ele>82.81</ele>
        <time>2013-07-27T13:37:23Z</time>
      </trkpt>
      <trkpt lat="49.34104" lon="1.12869">
        <ele>83.77</ele>
        <time>2013-07-27T13:37:31Z</time>
      </trkpt>
      <trkpt lat="49.34221" lon="1.12824">
        <ele>83.77</ele>
        <time>2013-07-27T13:37:39Z</time>
      </trkpt>
      <trkpt lat="49.34375" lon="1.12765">
        <ele>84.73</ele>
        <time>2013-07-27T13:37:48Z</time>
      </trkpt>
      <trkpt lat="49.34528" lon="1.12718">
        <ele>78.97</ele>
        <time>2013-07-27T13:37:57Z</time>
      </trkpt>
      <trkpt lat="49.34563" lon="1.12728">
        <ele>77.52</ele>
        <time>2013-07-27T13:37:59Z</time>
      </trkpt>
      <trkpt lat="49.34582" lon="1.12734">
        <ele>76.56</ele>
        <time>2013-07-27T13:38:00Z</time>
      </trkpt>
      <trkpt lat="49.34759" lon="1.12794">
        <ele>73.68</ele>
        <time>2013-07-27T13:38:09Z</time>
      </trkpt>
      <trkpt lat="49.349" lon="1.12838">
        <ele>74.16</ele>
        <time>2013-07-27T13:38:17Z</time>
      </trkpt>
      <trkpt lat="49.34977" lon="1.1285">
        <ele>74.16</ele>
        <time>2013-07-27T13:38:24Z</time>
      </trkpt>
      <trkpt lat="49.34988" lon="1.12852">
        <ele>64.55</ele>
        <time>2013-07-27T13:38:30Z</time>
      </trkpt>
      <trkpt lat="49.35011" lon="1.12859">
        <ele>60.7</ele>
        <time>2013-07-27T13:38:35Z</time>
      </trkpt>
      <trkpt lat="49.35076" lon="1.12884">
        <ele>45.8</ele>
        <time>2013-07-27T13:38:46Z</time>
      </trkpt>
      <trkpt lat="49.35079" lon="1.12888">
        <ele>43.88</ele>
        <time>2013-07-27T13:38:47Z</time>
      </trkpt>
      <trkpt lat="49.3509" lon="1.12898">
        <ele>41.47</ele>
        <time>2013-07-27T13:38:49Z</time>
      </trkpt>
      <trkpt lat="49.35142" lon="1.12971">
        <ele>34.74</ele>
        <time>2013-07-27T13:38:58Z</time>
      </trkpt>
      <trkpt lat="49.35146" lon="1.12971">
        <ele>33.78</ele>
        <time>2013-07-27T13:38:59Z</time>
      </trkpt>
      <trkpt lat="49.3515" lon="1.12972">
        <ele>33.3</ele>
        <time>2013-07-27T13:39:00Z</time>
      </trkpt>
      <trkpt lat="49.35155" lon="1.12972">
        <ele>33.3</ele>
        <time>2013-07-27T13:39:01Z</time>
      </trkpt>
      <trkpt lat="49.35162" lon="1.12974">
        <ele>33.3</ele>
        <time>2013-07-27T13:39:02Z</time>
      </trkpt>
      <trkpt lat="49.35171" lon="1.12975">
        <ele>32.82</ele>
        <time>2013-07-27T13:39:03Z</time>
      </trkpt>
      <trkpt lat="49.3518" lon="1.12972">
        <ele>32.34</ele>
        <time>2013-07-27T13:39:04Z</time>
      </trkpt>
      <trkpt lat="49.35218" lon="1.1296">
        <ele>27.53</ele>
        <time>2013-07-27T13:39:11Z</time>
      </trkpt>
      <trkpt lat="49.35235" lon="1.12975">
        <ele>26.57</ele>
        <time>2013-07-27T13:39:16Z</time>
      </trkpt>
      <trkpt lat="49.35235" lon="1.12983">
        <ele>26.57</ele>
        <time>2013-07-27T13:39:17Z</time>
      </trkpt>
      <trkpt lat="49.35235" lon="1.12992">
        <ele>26.09</ele>
        <time>2013-07-27T13:39:18Z</time>
      </trkpt>
      <trkpt lat="49.35235" lon="1.13">
        <ele>25.61</ele>
        <time>2013-07-27T13:39:19Z</time>
      </trkpt>
      <trkpt lat="49.35238" lon="1.13006">
        <ele>24.65</ele>
        <time>2013-07-27T13:39:20Z</time>
      </trkpt>
      <trkpt lat="49.35245" lon="1.13013">
        <ele>24.17</ele>
        <time>2013-07-27T13:39:21Z</time>
      </trkpt>
      <trkpt lat="49.35251" lon="1.13013">
        <ele>23.69</ele>
        <time>2013-07-27T13:39:22Z</time>
      </trkpt>
      <trkpt lat="49.35259" lon="1.13008">
        <ele>22.73</ele>
        <time>2013-07-27T13:39:23Z</time>
      </trkpt>
      <trkpt lat="49.35269" lon="1.12992">
        <ele>21.77</ele>
        <time>2013-07-27T13:39:24Z</time>
      </trkpt>
      <trkpt lat="49.3527" lon="1.12991">
        <ele>21.29</ele>
        <time>2013-07-27T13:39:25Z</time>
      </trkpt>
      <trkpt lat="49.35288" lon="1.1298">
        <ele>20.32</ele>
        <time>2013-07-27T13:39:27Z</time>
      </trkpt>
      <trkpt lat="49.35299" lon="1.12974">
        <ele>19.84</ele>
        <time>2013-07-27T13:39:28Z</time>
      </trkpt>
      <trkpt lat="49.35311" lon="1.12967">
        <ele>19.36</ele>
        <time>2013-07-27T13:39:29Z</time>
      </trkpt>
      <trkpt lat="49.35322" lon="1.1296">
        <ele>18.88</ele>
        <time>2013-07-27T13:39:30Z</time>
      </trkpt>
      <trkpt lat="49.35336" lon="1.12953">
        <ele>18.4</ele>
        <time>2013-07-27T13:39:31Z</time>
      </trkpt>
      <trkpt lat="49.35349" lon="1.12955">
        <ele>18.4</ele>
        <time>2013-07-27T13:39:32Z</time>
      </trkpt>
      <trkpt lat="49.35362" lon="1.12957">
        <ele>18.88</ele>
        <time>2013-07-27T13:39:33Z</time>
      </trkpt>
      <trkpt lat="49.3549" lon="1.12974">
        <ele>21.29</ele>
        <time>2013-07-27T13:39:40Z</time>
      </trkpt>
      <trkpt lat="49.35718" lon="1.12996">
        <ele>21.29</ele>
        <time>2013-07-27T13:39:50Z</time>
      </trkpt>
      <trkpt lat="49.35931" lon="1.12999">
        <ele>20.32</ele>
        <time>2013-07-27T13:39:59Z</time>
      </trkpt>
      <trkpt lat="49.36105" lon="1.13">
        <ele>18.88</ele>
        <time>2013-07-27T13:40:08Z</time>
      </trkpt>
      <trkpt lat="49.36271" lon="1.13004">
        <ele>18.4</ele>
        <time>2013-07-27T13:40:19Z</time>
      </trkpt>
      <trkpt lat="49.36423" lon="1.12988">
        <ele>17.44</ele>
        <time>2013-07-27T13:40:30Z</time>
      </trkpt>
      <trkpt lat="49.36566" lon="1.12969">
        <ele>16.96</ele>
        <time>2013-07-27T13:40:41Z</time>
      </trkpt>
      <trkpt lat="49.36668" lon="1.12952">
        <ele>17.44</ele>
        <time>2013-07-27T13:40:49Z</time>
      </trkpt>
      <trkpt lat="49.367" lon="1.12947">
        <ele>17.44</ele>
        <time>2013-07-27T13:40:52Z</time>
      </trkpt>
      <trkpt lat="49.36831" lon="1.12911">
        <ele>15.04</ele>
        <time>2013-07-27T13:41:05Z</time>
      </trkpt>
      <trkpt lat="49.3687" lon="1.12898">
        <ele>13.12</ele>
        <time>2013-07-27T13:41:09Z</time>
      </trkpt>
      <trkpt lat="49.36883" lon="1.12889">
        <ele>12.63</ele>
        <time>2013-07-27T13:41:10Z</time>
      </trkpt>
      <trkpt lat="49.36887" lon="1.12884">
        <ele>12.15</ele>
        <time>2013-07-27T13:41:11Z</time>
      </trkpt>
      <trkpt lat="49.36895" lon="1.12876">
        <ele>12.15</ele>
        <time>2013-07-27T13:41:12Z</time>
      </trkpt>
      <trkpt lat="49.36903" lon="1.12867">
        <ele>12.15</ele>
        <time>2013-07-27T13:41:13Z</time>
      </trkpt>
      <trkpt lat="49.36972" lon="1.12783">
        <ele>11.19</ele>
        <time>2013-07-27T13:41:24Z</time>
      </trkpt>
      <trkpt lat="49.37076" lon="1.12709">
        <ele>11.19</ele>
        <time>2013-07-27T13:41:36Z</time>
      </trkpt>
      <trkpt lat="49.37179" lon="1.12651">
        <ele>12.63</ele>
        <time>2013-07-27T13:41:47Z</time>
      </trkpt>
      <trkpt lat="49.37308" lon="1.12615">
        <ele>15.04</ele>
        <time>2013-07-27T13:41:57Z</time>
      </trkpt>
      <trkpt lat="49.37389" lon="1.12603">
        <ele>16</ele>
        <time>2013-07-27T13:42:05Z</time>
      </trkpt>
      <trkpt lat="49.37395" lon="1.12602">
        <ele>16.48</ele>
        <time>2013-07-27T13:42:06Z</time>
      </trkpt>
      <trkpt lat="49.37398" lon="1.12602">
        <ele>16.48</ele>
        <time>2013-07-27T13:42:07Z</time>
      </trkpt>
      <trkpt lat="49.37398" lon="1.12602">
        <ele>16.48</ele>
        <time>2013-07-27T13:42:08Z</time>
      </trkpt>
      <trkpt lat="49.37518" lon="1.12584">
        <ele>13.6</ele>
        <time>2013-07-27T13:59:59Z</time>
      </trkpt>
      <trkpt lat="49.37705" lon="1.12554">
        <ele>14.56</ele>
        <time>2013-07-27T14:00:07Z</time>
      </trkpt>
      <trkpt lat="49.37951" lon="1.12522">
        <ele>15.04</ele>
        <time>2013-07-27T14:00:18Z</time>
      </trkpt>
      <trkpt lat="49.38144" lon="1.12514">
        <ele>16.48</ele>
        <time>2013-07-27T14:00:26Z</time>
      </trkpt>
      <trkpt lat="49.38294" lon="1.12536">
        <ele>17.44</ele>
        <time>2013-07-27T14:00:35Z</time>
      </trkpt>
      <trkpt lat="49.38456" lon="1.12571">
        <ele>19.84</ele>
        <time>2013-07-27T14:00:46Z</time>
      </trkpt>
      <trkpt lat="49.38571" lon="1.12569">
        <ele>20.81</ele>
        <time>2013-07-27T14:00:54Z</time>
      </trkpt>
      <trkpt lat="49.38706" lon="1.12569">
        <ele>22.73</ele>
        <time>2013-07-27T14:01:03Z</time>
      </trkpt>
      <trkpt lat="49.38825" lon="1.12587">
        <ele>23.69</ele>
        <time>2013-07-27T14:01:13Z</time>
      </trkpt>
      <trkpt lat="49.38847" lon="1.12591">
        <ele>23.21</ele>
        <time>2013-07-27T14:01:19Z</time>
      </trkpt>
      <trkpt lat="49.38866" lon="1.12592">
        <ele>23.69</ele>
        <time>2013-07-27T14:01:32Z</time>
      </trkpt>
      <trkpt lat="49.38954" lon="1.12574">
        <ele>22.25</ele>
        <time>2013-07-27T14:01:40Z</time>
      </trkpt>
      <trkpt lat="49.39023" lon="1.12574">
        <ele>20.81</ele>
        <time>2013-07-27T14:01:46Z</time>
      </trkpt>
      <trkpt lat="49.39033" lon="1.12576">
        <ele>20.81</ele>
        <time>2013-07-27T14:01:47Z</time>
      </trkpt>
      <trkpt lat="49.3904" lon="1.12585">
        <ele>20.81</ele>
        <time>2013-07-27T14:01:48Z</time>
      </trkpt>
      <trkpt lat="49.39056" lon="1.1259">
        <ele>20.81</ele>
        <time>2013-07-27T14:01:49Z</time>
      </trkpt>
      <trkpt lat="49.39063" lon="1.12581">
        <ele>20.81</ele>
        <time>2013-07-27T14:01:50Z</time>
      </trkpt>
      <trkpt lat="49.39071" lon="1.12571">
        <ele>20.32</ele>
        <time>2013-07-27T14:01:51Z</time>
      </trkpt>
      <trkpt lat="49.39071" lon="1.12571">
        <ele>20.32</ele>
        <time>2013-07-27T14:01:52Z</time>
      </trkpt>
      <trkpt lat="49.39093" lon="1.12561">
        <ele>19.84</ele>
        <time>2013-07-27T14:01:53Z</time>
      </trkpt>
      <trkpt lat="49.39106" lon="1.12562">
        <ele>19.36</ele>
        <time>2013-07-27T14:01:54Z</time>
      </trkpt>
      <trkpt lat="49.3912" lon="1.12563">
        <ele>18.88</ele>
        <time>2013-07-27T14:01:55Z</time>
      </trkpt>
      <trkpt lat="49.39311" lon="1.12583">
        <ele>18.88</ele>
        <time>2013-07-27T14:02:08Z</time>
      </trkpt>
      <trkpt lat="49.39469" lon="1.12584">
        <ele>20.81</ele>
        <time>2013-07-27T14:02:20Z</time>
      </trkpt>
      <trkpt lat="49.39532" lon="1.12583">
        <ele>21.77</ele>
        <time>2013-07-27T14:02:26Z</time>
      </trkpt>
      <trkpt lat="49.39541" lon="1.12582">
        <ele>21.77</ele>
        <time>2013-07-27T14:02:27Z</time>
      </trkpt>
      <trkpt lat="49.3955" lon="1.12582">
        <ele>22.25</ele>
        <time>2013-07-27T14:02:28Z</time>
      </trkpt>
      <trkpt lat="49.39636" lon="1.12584">
        <ele>23.69</ele>
        <time>2013-07-27T14:02:36Z</time>
      </trkpt>
      <trkpt lat="49.3974" lon="1.12594">
        <ele>22.73</ele>
        <time>2013-07-27T14:02:46Z</time>
      </trkpt>
      <trkpt lat="49.39833" lon="1.1259">
        <ele>19.84</ele>
        <time>2013-07-27T14:02:56Z</time>
      </trkpt>
      <trkpt lat="49.39955" lon="1.12563">
        <ele>16</ele>
        <time>2013-07-27T14:03:10Z</time>
      </trkpt>
      <trkpt lat="49.4001" lon="1.12546">
        <ele>15.52</ele>
        <time>2013-07-27T14:03:18Z</time>
      </trkpt>
      <trkpt lat="49.40025" lon="1.1254">
        <ele>15.52</ele>
        <time>2013-07-27T14:03:20Z</time>
      </trkpt>
      <trkpt lat="49.40101" lon="1.12513">
        <ele>16.48</ele>
        <time>2013-07-27T14:03:31Z</time>
      </trkpt>
      <trkpt lat="49.40184" lon="1.12485">
        <ele>16.96</ele>
        <time>2013-07-27T14:03:42Z</time>
      </trkpt>
      <trkpt lat="49.40263" lon="1.12457">
        <ele>16.96</ele>
        <time>2013-07-27T14:03:53Z</time>
      </trkpt>
      <trkpt lat="49.40365" lon="1.1241">
        <ele>16</ele>
        <time>2013-07-27T14:04:06Z</time>
      </trkpt>
      <trkpt lat="49.40423" lon="1.1238">
        <ele>15.04</ele>
        <time>2013-07-27T14:04:15Z</time>
      </trkpt>
      <trkpt lat="49.4052" lon="1.12331">
        <ele>14.08</ele>
        <time>2013-07-27T14:04:27Z</time>
      </trkpt>
      <trkpt lat="49.40602" lon="1.12297">
        <ele>15.04</ele>
        <time>2013-07-27T14:04:36Z</time>
      </trkpt>
      <trkpt lat="49.40677" lon="1.12269">
        <ele>15.04</ele>
        <time>2013-07-27T14:04:45Z</time>
      </trkpt>
      <trkpt lat="49.40781" lon="1.12234">
        <ele>14.56</ele>
        <time>2013-07-27T14:04:56Z</time>
      </trkpt>
      <trkpt lat="49.40875" lon="1.12199">
        <ele>15.04</ele>
        <time>2013-07-27T14:05:07Z</time>
      </trkpt>
      <trkpt lat="49.40885" lon="1.12189">
        <ele>15.04</ele>
        <time>2013-07-27T14:05:09Z</time>
      </trkpt>
      <trkpt lat="49.40925" lon="1.12159">
        <ele>14.56</ele>
        <time>2013-07-27T14:05:13Z</time>
      </trkpt>
      <trkpt lat="49.40935" lon="1.12159">
        <ele>14.56</ele>
        <time>2013-07-27T14:05:14Z</time>
      </trkpt>
      <trkpt lat="49.40948" lon="1.12158">
        <ele>14.56</ele>
        <time>2013-07-27T14:05:15Z</time>
      </trkpt>
      <trkpt lat="49.40962" lon="1.12158">
        <ele>14.56</ele>
        <time>2013-07-27T14:05:16Z</time>
      </trkpt>
      <trkpt lat="49.40977" lon="1.12157">
        <ele>15.04</ele>
        <time>2013-07-27T14:05:17Z</time>
      </trkpt>
      <trkpt lat="49.41145" lon="1.12159">
        <ele>18.88</ele>
        <time>2013-07-27T14:05:28Z</time>
      </trkpt>
      <trkpt lat="49.41313" lon="1.12148">
        <ele>25.13</ele>
        <time>2013-07-27T14:05:41Z</time>
      </trkpt>
      <trkpt lat="49.41427" lon="1.12081">
        <ele>27.53</ele>
        <time>2013-07-27T14:05:51Z</time>
      </trkpt>
      <trkpt lat="49.41539" lon="1.11987">
        <ele>26.09</ele>
        <time>2013-07-27T14:06:02Z</time>
      </trkpt>
      <trkpt lat="49.41572" lon="1.11961">
        <ele>24.17</ele>
        <time>2013-07-27T14:06:09Z</time>
      </trkpt>
      <trkpt lat="49.41582" lon="1.11953">
        <ele>23.69</ele>
        <time>2013-07-27T14:06:19Z</time>
      </trkpt>
      <trkpt lat="49.41637" lon="1.11911">
        <ele>22.73</ele>
        <time>2013-07-27T14:06:27Z</time>
      </trkpt>
      <trkpt lat="49.41755" lon="1.11829">
        <ele>20.81</ele>
        <time>2013-07-27T14:06:37Z</time>
      </trkpt>
      <trkpt lat="49.41988" lon="1.11685">
        <ele>15.04</ele>
        <time>2013-07-27T14:06:55Z</time>
      </trkpt>
      <trkpt lat="49.42211" lon="1.1155">
        <ele>12.15</ele>
        <time>2013-07-27T14:07:12Z</time>
      </trkpt>
      <trkpt lat="49.42379" lon="1.11446">
        <ele>10.71</ele>
        <time>2013-07-27T14:07:25Z</time>
      </trkpt>
      <trkpt lat="49.42597" lon="1.11306">
        <ele>12.63</ele>
        <time>2013-07-27T14:07:40Z</time>
      </trkpt>
      <trkpt lat="49.42775" lon="1.11192">
        <ele>13.6</ele>
        <time>2013-07-27T14:07:53Z</time>
      </trkpt>
      <trkpt lat="49.42913" lon="1.11081">
        <ele>13.12</ele>
        <time>2013-07-27T14:08:03Z</time>
      </trkpt>
      <trkpt lat="49.4306" lon="1.10953">
        <ele>15.04</ele>
        <time>2013-07-27T14:08:13Z</time>
      </trkpt>
      <trkpt lat="49.43177" lon="1.10865">
        <ele>20.81</ele>
        <time>2013-07-27T14:08:21Z</time>
      </trkpt>
      <trkpt lat="49.43252" lon="1.10808">
        <ele>25.61</ele>
        <time>2013-07-27T14:08:27Z</time>
      </trkpt>
      <trkpt lat="49.43282" lon="1.10782">
        <ele>28.98</ele>
        <time>2013-07-27T14:08:34Z</time>
      </trkpt>
      <trkpt lat="49.43283" lon="1.10781">
        <ele>28.98</ele>
        <time>2013-07-27T14:08:45Z</time>
      </trkpt>
      <trkpt lat="49.43303" lon="1.10772">
        <ele>29.46</ele>
        <time>2013-07-27T14:09:13Z</time>
      </trkpt>
      <trkpt lat="49.4339" lon="1.1069">
        <ele>27.53</ele>
        <time>2013-07-27T14:09:24Z</time>
      </trkpt>
      <trkpt lat="49.43418" lon="1.10666">
        <ele>26.57</ele>
        <time>2013-07-27T14:09:31Z</time>
      </trkpt>
      <trkpt lat="49.4343" lon="1.10657">
        <ele>26.09</ele>
        <time>2013-07-27T14:09:41Z</time>
      </trkpt>
      <trkpt lat="49.43491" lon="1.10599">
        <ele>25.13</ele>
        <time>2013-07-27T14:09:53Z</time>
      </trkpt>
      <trkpt lat="49.43503" lon="1.1057">
        <ele>24.17</ele>
        <time>2013-07-27T14:09:56Z</time>
      </trkpt>
      <trkpt lat="49.43505" lon="1.1056">
        <ele>24.17</ele>
        <time>2013-07-27T14:09:57Z</time>
      </trkpt>
      <trkpt lat="49.43507" lon="1.10549">
        <ele>24.17</ele>
        <time>2013-07-27T14:09:58Z</time>
      </trkpt>
      <trkpt lat="49.43509" lon="1.10537">
        <ele>24.17</ele>
        <time>2013-07-27T14:09:59Z</time>
      </trkpt>
      <trkpt lat="49.43512" lon="1.10525">
        <ele>23.69</ele>
        <time>2013-07-27T14:10:00Z</time>
      </trkpt>
      <trkpt lat="49.43538" lon="1.10369">
        <ele>19.84</ele>
        <time>2013-07-27T14:10:13Z</time>
      </trkpt>
      <trkpt lat="49.4357" lon="1.10259">
        <ele>17.92</ele>
        <time>2013-07-27T14:10:24Z</time>
      </trkpt>
      <trkpt lat="49.43606" lon="1.10131">
        <ele>16</ele>
        <time>2013-07-27T14:10:36Z</time>
      </trkpt>
      <trkpt lat="49.43611" lon="1.10113">
        <ele>15.04</ele>
        <time>2013-07-27T14:10:38Z</time>
      </trkpt>
      <trkpt lat="49.43629" lon="1.10059">
        <ele>14.56</ele>
        <time>2013-07-27T14:10:44Z</time>
      </trkpt>
      <trkpt lat="49.43629" lon="1.10059">
        <ele>14.56</ele>
        <time>2013-07-27T14:10:45Z</time>
      </trkpt>
      <trkpt lat="49.43641" lon="1.1004">
        <ele>14.56</ele>
        <time>2013-07-27T14:10:46Z</time>
      </trkpt>
      <trkpt lat="49.4366" lon="1.09955">
        <ele>14.56</ele>
        <time>2013-07-27T14:10:56Z</time>
      </trkpt>
      <trkpt lat="49.43683" lon="1.09842">
        <ele>15.52</ele>
        <time>2013-07-27T14:11:05Z</time>
      </trkpt>
      <trkpt lat="49.43698" lon="1.09737">
        <ele>16</ele>
        <time>2013-07-27T14:11:14Z</time>
      </trkpt>
      <trkpt lat="49.43726" lon="1.09587">
        <ele>16</ele>
        <time>2013-07-27T14:11:22Z</time>
      </trkpt>
      <trkpt lat="49.43731" lon="1.09568">
        <ele>16</ele>
        <time>2013-07-27T14:11:23Z</time>
      </trkpt>
      <trkpt lat="49.43736" lon="1.09551">
        <ele>16</ele>
        <time>2013-07-27T14:11:24Z</time>
      </trkpt>
      <trkpt lat="49.43787" lon="1.0932">
        <ele>15.52</ele>
        <time>2013-07-27T14:11:36Z</time>
      </trkpt>
      <trkpt lat="49.43828" lon="1.09144">
        <ele>13.6</ele>
        <time>2013-07-27T14:11:46Z</time>
      </trkpt>
      <trkpt lat="49.43833" lon="1.09126">
        <ele>13.6</ele>
        <time>2013-07-27T14:11:47Z</time>
      </trkpt>
      <trkpt lat="49.43884" lon="1.08925">
        <ele>13.6</ele>
        <time>2013-07-27T14:11:58Z</time>
      </trkpt>
      <trkpt lat="49.43967" lon="1.08598">
        <ele>12.15</ele>
        <time>2013-07-27T14:12:15Z</time>
      </trkpt>
      <trkpt lat="49.44002" lon="1.08481">
        <ele>12.15</ele>
        <time>2013-07-27T14:12:24Z</time>
      </trkpt>
      <trkpt lat="49.44037" lon="1.08406">
        <ele>12.63</ele>
        <time>2013-07-27T14:12:33Z</time>
      </trkpt>
      <trkpt lat="49.44076" lon="1.08312">
        <ele>11.19</ele>
        <time>2013-07-27T14:12:44Z</time>
      </trkpt>
      <trkpt lat="49.44089" lon="1.08279">
        <ele>11.67</ele>
        <time>2013-07-27T14:12:55Z</time>
      </trkpt>
      <trkpt lat="49.44089" lon="1.08279">
        <ele>12.15</ele>
        <time>2013-07-27T14:13:10Z</time>
      </trkpt>
      <trkpt lat="49.4409" lon="1.08274">
        <ele>12.15</ele>
        <time>2013-07-27T14:13:38Z</time>
      </trkpt>
      <trkpt lat="49.44109" lon="1.08228">
        <ele>13.6</ele>
        <time>2013-07-27T14:13:43Z</time>
      </trkpt>
      <trkpt lat="49.44177" lon="1.08094">
        <ele>13.6</ele>
        <time>2013-07-27T14:13:50Z</time>
      </trkpt>
      <trkpt lat="49.44277" lon="1.07864">
        <ele>12.15</ele>
        <time>2013-07-27T14:14:01Z</time>
      </trkpt>
      <trkpt lat="49.44413" lon="1.07564">
        <ele>10.71</ele>
        <time>2013-07-27T14:14:15Z</time>
      </trkpt>
      <trkpt lat="49.44517" lon="1.07343">
        <ele>12.63</ele>
        <time>2013-07-27T14:14:27Z</time>
      </trkpt>
      <trkpt lat="49.44617" lon="1.07134">
        <ele>12.63</ele>
        <time>2013-07-27T14:14:39Z</time>
      </trkpt>
      <trkpt lat="49.4473" lon="1.06884">
        <ele>12.15</ele>
        <time>2013-07-27T14:14:54Z</time>
      </trkpt>
      <trkpt lat="49.44784" lon="1.06764">
        <ele>12.63</ele>
        <time>2013-07-27T14:15:04Z</time>
      </trkpt>
      <trkpt lat="49.44838" lon="1.0665">
        <ele>13.12</ele>
        <time>2013-07-27T14:15:16Z</time>
      </trkpt>
      <trkpt lat="49.44929" lon="1.06473">
        <ele>14.56</ele>
        <time>2013-07-27T14:15:32Z</time>
      </trkpt>
      <trkpt lat="49.44933" lon="1.06467">
        <ele>14.08</ele>
        <time>2013-07-27T14:15:33Z</time>
      </trkpt>
      <trkpt lat="49.44935" lon="1.06464">
        <ele>14.08</ele>
        <time>2013-07-27T14:15:34Z</time>
      </trkpt>
      <trkpt lat="49.44938" lon="1.0646">
        <ele>13.6</ele>
        <time>2013-07-27T14:15:37Z</time>
      </trkpt>
      <trkpt lat="49.44941" lon="1.06449">
        <ele>13.6</ele>
        <time>2013-07-27T14:15:38Z</time>
      </trkpt>
      <trkpt lat="49.44943" lon="1.0644">
        <ele>13.6</ele>
        <time>2013-07-27T14:15:39Z</time>
      </trkpt>
      <trkpt lat="49.44953" lon="1.06408">
        <ele>13.12</ele>
        <time>2013-07-27T14:15:42Z</time>
      </trkpt>
      <trkpt lat="49.44958" lon="1.06397">
        <ele>13.12</ele>
        <time>2013-07-27T14:15:43Z</time>
      </trkpt>
      <trkpt lat="49.45015" lon="1.06273">
        <ele>14.08</ele>
        <time>2013-07-27T14:15:52Z</time>
      </trkpt>
      <trkpt lat="49.45035" lon="1.06231">
        <ele>16</ele>
        <time>2013-07-27T14:15:58Z</time>
      </trkpt>
      <trkpt lat="49.4504" lon="1.06221">
        <ele>16.96</ele>
        <time>2013-07-27T14:16:06Z</time>
      </trkpt>
      <trkpt lat="49.45042" lon="1.06214">
        <ele>17.44</ele>
        <time>2013-07-27T14:16:07Z</time>
      </trkpt>
      <trkpt lat="49.45083" lon="1.06137">
        <ele>20.81</ele>
        <time>2013-07-27T14:16:15Z</time>
      </trkpt>
      <trkpt lat="49.45162" lon="1.06015">
        <ele>25.61</ele>
        <time>2013-07-27T14:16:25Z</time>
      </trkpt>
      <trkpt lat="49.452" lon="1.05968">
        <ele>29.94</ele>
        <time>2013-07-27T14:16:32Z</time>
      </trkpt>
      <trkpt lat="49.45209" lon="1.05956">
        <ele>31.86</ele>
        <time>2013-07-27T14:16:41Z</time>
      </trkpt>
      <trkpt lat="49.45226" lon="1.05936">
        <ele>32.82</ele>
        <time>2013-07-27T14:16:46Z</time>
      </trkpt>
      <trkpt lat="49.45337" lon="1.05838">
        <ele>37.15</ele>
        <time>2013-07-27T14:16:56Z</time>
      </trkpt>
      <trkpt lat="49.45486" lon="1.05749">
        <ele>41.95</ele>
        <time>2013-07-27T14:17:07Z</time>
      </trkpt>
      <trkpt lat="49.45662" lon="1.05658">
        <ele>41.95</ele>
        <time>2013-07-27T14:17:19Z</time>
      </trkpt>
      <trkpt lat="49.4574" lon="1.05619">
        <ele>39.55</ele>
        <time>2013-07-27T14:17:28Z</time>
      </trkpt>
      <trkpt lat="49.45746" lon="1.05616">
        <ele>39.07</ele>
        <time>2013-07-27T14:17:35Z</time>
      </trkpt>
      <trkpt lat="49.45757" lon="1.05611">
        <ele>37.63</ele>
        <time>2013-07-27T14:18:00Z</time>
      </trkpt>
      <trkpt lat="49.45824" lon="1.05579">
        <ele>35.23</ele>
        <time>2013-07-27T14:18:10Z</time>
      </trkpt>
      <trkpt lat="49.45836" lon="1.05573">
        <ele>34.74</ele>
        <time>2013-07-27T14:18:18Z</time>
      </trkpt>
      <trkpt lat="49.45856" lon="1.05563">
        <ele>34.26</ele>
        <time>2013-07-27T14:18:36Z</time>
      </trkpt>
      <trkpt lat="49.45931" lon="1.05525">
        <ele>33.3</ele>
        <time>2013-07-27T14:18:47Z</time>
      </trkpt>
      <trkpt lat="49.46026" lon="1.05477">
        <ele>31.86</ele>
        <time>2013-07-27T14:18:57Z</time>
      </trkpt>
      <trkpt lat="49.46176" lon="1.054">
        <ele>30.42</ele>
        <time>2013-07-27T14:19:12Z</time>
      </trkpt>
      <trkpt lat="49.46297" lon="1.05339">
        <ele>29.46</ele>
        <time>2013-07-27T14:19:24Z</time>
      </trkpt>
      <trkpt lat="49.46404" lon="1.05283">
        <ele>28.98</ele>
        <time>2013-07-27T14:19:36Z</time>
      </trkpt>
      <trkpt lat="49.46439" lon="1.05265">
        <ele>28.5</ele>
        <time>2013-07-27T14:19:44Z</time>
      </trkpt>
      <trkpt lat="49.46439" lon="1.05265">
        <ele>28.98</ele>
        <time>2013-07-27T14:20:01Z</time>
      </trkpt>
      <trkpt lat="49.46458" lon="1.05256">
        <ele>28.02</ele>
        <time>2013-07-27T14:20:22Z</time>
      </trkpt>
      <trkpt lat="49.46545" lon="1.05212">
        <ele>27.53</ele>
        <time>2013-07-27T14:20:33Z</time>
      </trkpt>
      <trkpt lat="49.46693" lon="1.05139">
        <ele>27.05</ele>
        <time>2013-07-27T14:20:48Z</time>
      </trkpt>
      <trkpt lat="49.46821" lon="1.05082">
        <ele>27.05</ele>
        <time>2013-07-27T14:21:01Z</time>
      </trkpt>
      <trkpt lat="49.46917" lon="1.05049">
        <ele>26.57</ele>
        <time>2013-07-27T14:21:12Z</time>
      </trkpt>
      <trkpt lat="49.4693" lon="1.05045">
        <ele>26.57</ele>
        <time>2013-07-27T14:21:14Z</time>
      </trkpt>
      <trkpt lat="49.46935" lon="1.05043">
        <ele>26.09</ele>
        <time>2013-07-27T14:21:15Z</time>
      </trkpt>
      <trkpt lat="49.46939" lon="1.05041">
        <ele>26.09</ele>
        <time>2013-07-27T14:21:16Z</time>
      </trkpt>
      <trkpt lat="49.46942" lon="1.05039">
        <ele>26.09</ele>
        <time>2013-07-27T14:21:17Z</time>
      </trkpt>
      <trkpt lat="49.46944" lon="1.05038">
        <ele>25.61</ele>
        <time>2013-07-27T14:21:18Z</time>
      </trkpt>
      <trkpt lat="49.46946" lon="1.05038">
        <ele>25.61</ele>
        <time>2013-07-27T14:21:19Z</time>
      </trkpt>
      <trkpt lat="49.46947" lon="1.05037">
        <ele>25.61</ele>
        <time>2013-07-27T14:21:20Z</time>
      </trkpt>
      <trkpt lat="49.46947" lon="1.05037">
        <ele>26.09</ele>
        <time>2013-07-27T14:21:33Z</time>
      </trkpt>
      <trkpt lat="49.46947" lon="1.05037">
        <ele>26.09</ele>
        <time>2013-07-27T14:22:03Z</time>
      </trkpt>
      <trkpt lat="49.46954" lon="1.05034">
        <ele>26.09</ele>
        <time>2013-07-27T14:22:04Z</time>
      </trkpt>
      <trkpt lat="49.46991" lon="1.05021">
        <ele>25.61</ele>
        <time>2013-07-27T14:22:10Z</time>
      </trkpt>
      <trkpt lat="49.47109" lon="1.04981">
        <ele>27.53</ele>
        <time>2013-07-27T14:22:21Z</time>
      </trkpt>
      <trkpt lat="49.47177" lon="1.04957">
        <ele>28.5</ele>
        <time>2013-07-27T14:22:29Z</time>
      </trkpt>
      <trkpt lat="49.47204" lon="1.04948">
        <ele>29.94</ele>
        <time>2013-07-27T14:22:39Z</time>
      </trkpt>
      <trkpt lat="49.47243" lon="1.04934">
        <ele>30.42</ele>
        <time>2013-07-27T14:22:44Z</time>
      </trkpt>
      <trkpt lat="49.474" lon="1.04877">
        <ele>33.3</ele>
        <time>2013-07-27T14:22:56Z</time>
      </trkpt>
      <trkpt lat="49.47536" lon="1.0483">
        <ele>36.19</ele>
        <time>2013-07-27T14:23:07Z</time>
      </trkpt>
      <trkpt lat="49.47541" lon="1.04829">
        <ele>36.19</ele>
        <time>2013-07-27T14:23:12Z</time>
      </trkpt>
      <trkpt lat="49.47541" lon="1.04829">
        <ele>36.19</ele>
        <time>2013-07-27T14:23:48Z</time>
      </trkpt>
      <trkpt lat="49.47545" lon="1.04827">
        <ele>36.67</ele>
        <time>2013-07-27T14:24:11Z</time>
      </trkpt>
      <trkpt lat="49.47601" lon="1.0481">
        <ele>37.15</ele>
        <time>2013-07-27T14:24:17Z</time>
      </trkpt>
      <trkpt lat="49.47724" lon="1.04768">
        <ele>37.15</ele>
        <time>2013-07-27T14:24:27Z</time>
      </trkpt>
      <trkpt lat="49.47863" lon="1.04719">
        <ele>40.03</ele>
        <time>2013-07-27T14:24:38Z</time>
      </trkpt>
      <trkpt lat="49.47906" lon="1.04704">
        <ele>42.44</ele>
        <time>2013-07-27T14:24:42Z</time>
      </trkpt>
      <trkpt lat="49.47916" lon="1.04702">
        <ele>42.92</ele>
        <time>2013-07-27T14:24:43Z</time>
      </trkpt>
      <trkpt lat="49.47926" lon="1.04701">
        <ele>43.4</ele>
        <time>2013-07-27T14:24:44Z</time>
      </trkpt>
      <trkpt lat="49.47936" lon="1.04706">
        <ele>43.88</ele>
        <time>2013-07-27T14:24:45Z</time>
      </trkpt>
      <trkpt lat="49.47946" lon="1.0471">
        <ele>44.36</ele>
        <time>2013-07-27T14:24:46Z</time>
      </trkpt>
      <trkpt lat="49.47946" lon="1.0471">
        <ele>45.32</ele>
        <time>2013-07-27T14:24:47Z</time>
      </trkpt>
      <trkpt lat="49.48035" lon="1.04768">
        <ele>48.68</ele>
        <time>2013-07-27T14:24:58Z</time>
      </trkpt>
      <trkpt lat="49.48042" lon="1.04772">
        <ele>48.68</ele>
        <time>2013-07-27T14:25:04Z</time>
      </trkpt>
      <trkpt lat="49.48042" lon="1.04772">
        <ele>49.16</ele>
        <time>2013-07-27T14:25:43Z</time>
      </trkpt>
      <trkpt lat="49.48065" lon="1.04785">
        <ele>47.72</ele>
        <time>2013-07-27T14:26:02Z</time>
      </trkpt>
      <trkpt lat="49.48069" lon="1.0478">
        <ele>45.8</ele>
        <time>2013-07-27T14:26:10Z</time>
      </trkpt>
      <trkpt lat="49.4807" lon="1.04778">
        <ele>45.8</ele>
        <time>2013-07-27T14:26:20Z</time>
      </trkpt>
      <trkpt lat="49.48071" lon="1.04774">
        <ele>44.84</ele>
        <time>2013-07-27T14:26:21Z</time>
      </trkpt>
      <trkpt lat="49.48073" lon="1.04769">
        <ele>44.36</ele>
        <time>2013-07-27T14:26:22Z</time>
      </trkpt>
      <trkpt lat="49.48076" lon="1.04762">
        <ele>43.88</ele>
        <time>2013-07-27T14:26:23Z</time>
      </trkpt>
      <trkpt lat="49.48079" lon="1.04754">
        <ele>42.92</ele>
        <time>2013-07-27T14:26:24Z</time>
      </trkpt>
      <trkpt lat="49.48084" lon="1.04743">
        <ele>42.44</ele>
        <time>2013-07-27T14:26:25Z</time>
      </trkpt>
      <trkpt lat="49.4812" lon="1.04681">
        <ele>36.19</ele>
        <time>2013-07-27T14:26:33Z</time>
      </trkpt>
      <trkpt lat="49.48133" lon="1.04657">
        <ele>33.3</ele>
        <time>2013-07-27T14:26:42Z</time>
      </trkpt>
      <trkpt lat="49.48185" lon="1.04566">
        <ele>30.42</ele>
        <time>2013-07-27T14:26:50Z</time>
      </trkpt>
      <trkpt lat="49.48219" lon="1.04519">
        <ele>27.53</ele>
        <time>2013-07-27T14:26:55Z</time>
      </trkpt>
      <trkpt lat="49.48226" lon="1.04516">
        <ele>27.53</ele>
        <time>2013-07-27T14:26:56Z</time>
      </trkpt>
      <trkpt lat="49.48232" lon="1.04512">
        <ele>27.05</ele>
        <time>2013-07-27T14:26:57Z</time>
      </trkpt>
      <trkpt lat="49.48239" lon="1.04505">
        <ele>26.57</ele>
        <time>2013-07-27T14:26:58Z</time>
      </trkpt>
      <trkpt lat="49.48242" lon="1.04492">
        <ele>26.09</ele>
        <time>2013-07-27T14:26:59Z</time>
      </trkpt>
      <trkpt lat="49.48242" lon="1.0448">
        <ele>26.09</ele>
        <time>2013-07-27T14:27:00Z</time>
      </trkpt>
      <trkpt lat="49.48243" lon="1.04467">
        <ele>25.61</ele>
        <time>2013-07-27T14:27:01Z</time>
      </trkpt>
      <trkpt lat="49.48244" lon="1.04451">
        <ele>25.61</ele>
        <time>2013-07-27T14:27:02Z</time>
      </trkpt>
      <trkpt lat="49.48245" lon="1.04435">
        <ele>25.13</ele>
        <time>2013-07-27T14:27:03Z</time>
      </trkpt>
      <trkpt lat="49.48247" lon="1.044">
        <ele>24.65</ele>
        <time>2013-07-27T14:27:05Z</time>
      </trkpt>
      <trkpt lat="49.48247" lon="1.04382">
        <ele>24.65</ele>
        <time>2013-07-27T14:27:06Z</time>
      </trkpt>
      <trkpt lat="49.48235" lon="1.04242">
        <ele>22.73</ele>
        <time>2013-07-27T14:27:16Z</time>
      </trkpt>
      <trkpt lat="49.48222" lon="1.04108">
        <ele>24.17</ele>
        <time>2013-07-27T14:27:28Z</time>
      </trkpt>
      <trkpt lat="49.482" lon="1.03902">
        <ele>25.13</ele>
        <time>2013-07-27T14:27:40Z</time>
      </trkpt>
      <trkpt lat="49.48187" lon="1.03702">
        <ele>28.02</ele>
        <time>2013-07-27T14:27:50Z</time>
      </trkpt>
      <trkpt lat="49.4819" lon="1.03683">
        <ele>28.5</ele>
        <time>2013-07-27T14:27:51Z</time>
      </trkpt>
      <trkpt lat="49.48196" lon="1.03665">
        <ele>28.5</ele>
        <time>2013-07-27T14:27:52Z</time>
      </trkpt>
      <trkpt lat="49.48203" lon="1.0365">
        <ele>28.98</ele>
        <time>2013-07-27T14:27:53Z</time>
      </trkpt>
      <trkpt lat="49.48215" lon="1.03638">
        <ele>29.46</ele>
        <time>2013-07-27T14:27:54Z</time>
      </trkpt>
      <trkpt lat="49.48227" lon="1.03625">
        <ele>29.94</ele>
        <time>2013-07-27T14:27:55Z</time>
      </trkpt>
      <trkpt lat="49.48241" lon="1.03611">
        <ele>30.42</ele>
        <time>2013-07-27T14:27:56Z</time>
      </trkpt>
      <trkpt lat="49.4835" lon="1.0352">
        <ele>33.78</ele>
        <time>2013-07-27T14:28:02Z</time>
      </trkpt>
      <trkpt lat="49.48371" lon="1.03511">
        <ele>34.74</ele>
        <time>2013-07-27T14:28:03Z</time>
      </trkpt>
      <trkpt lat="49.48391" lon="1.03501">
        <ele>35.23</ele>
        <time>2013-07-27T14:28:04Z</time>
      </trkpt>
      <trkpt lat="49.48451" lon="1.03471">
        <ele>38.11</ele>
        <time>2013-07-27T14:28:07Z</time>
      </trkpt>
      <trkpt lat="49.48472" lon="1.03461">
        <ele>39.07</ele>
        <time>2013-07-27T14:28:08Z</time>
      </trkpt>
      <trkpt lat="49.48629" lon="1.03339">
        <ele>48.2</ele>
        <time>2013-07-27T14:28:15Z</time>
      </trkpt>
      <trkpt lat="49.48765" lon="1.03223">
        <ele>59.74</ele>
        <time>2013-07-27T14:28:22Z</time>
      </trkpt>
      <trkpt lat="49.48814" lon="1.0315">
        <ele>65.99</ele>
        <time>2013-07-27T14:28:26Z</time>
      </trkpt>
      <trkpt lat="49.48821" lon="1.03128">
        <ele>67.43</ele>
        <time>2013-07-27T14:28:27Z</time>
      </trkpt>
      <trkpt lat="49.48827" lon="1.03105">
        <ele>68.87</ele>
        <time>2013-07-27T14:28:28Z</time>
      </trkpt>
      <trkpt lat="49.4883" lon="1.03083">
        <ele>70.31</ele>
        <time>2013-07-27T14:28:29Z</time>
      </trkpt>
      <trkpt lat="49.4883" lon="1.03058">
        <ele>72.24</ele>
        <time>2013-07-27T14:28:30Z</time>
      </trkpt>
      <trkpt lat="49.4883" lon="1.03031">
        <ele>73.2</ele>
        <time>2013-07-27T14:28:31Z</time>
      </trkpt>
      <trkpt lat="49.48826" lon="1.03005">
        <ele>74.64</ele>
        <time>2013-07-27T14:28:32Z</time>
      </trkpt>
      <trkpt lat="49.4882" lon="1.02979">
        <ele>76.08</ele>
        <time>2013-07-27T14:28:33Z</time>
      </trkpt>
      <trkpt lat="49.48775" lon="1.02811">
        <ele>86.18</ele>
        <time>2013-07-27T14:28:40Z</time>
      </trkpt>
      <trkpt lat="49.48724" lon="1.02611">
        <ele>96.75</ele>
        <time>2013-07-27T14:28:48Z</time>
      </trkpt>
      <trkpt lat="49.48721" lon="1.02586">
        <ele>98.19</ele>
        <time>2013-07-27T14:28:49Z</time>
      </trkpt>
      <trkpt lat="49.48714" lon="1.02458">
        <ele>105.4</ele>
        <time>2013-07-27T14:28:54Z</time>
      </trkpt>
      <trkpt lat="49.48711" lon="1.02435">
        <ele>106.36</ele>
        <time>2013-07-27T14:28:55Z</time>
      </trkpt>
      <trkpt lat="49.48705" lon="1.0241">
        <ele>107.81</ele>
        <time>2013-07-27T14:28:56Z</time>
      </trkpt>
      <trkpt lat="49.48684" lon="1.02299">
        <ele>114.53</ele>
        <time>2013-07-27T14:29:01Z</time>
      </trkpt>
      <trkpt lat="49.48683" lon="1.02275">
        <ele>115.98</ele>
        <time>2013-07-27T14:29:02Z</time>
      </trkpt>
      <trkpt lat="49.48682" lon="1.02252">
        <ele>117.42</ele>
        <time>2013-07-27T14:29:03Z</time>
      </trkpt>
      <trkpt lat="49.48681" lon="1.0223">
        <ele>118.38</ele>
        <time>2013-07-27T14:29:04Z</time>
      </trkpt>
      <trkpt lat="49.48681" lon="1.02208">
        <ele>119.82</ele>
        <time>2013-07-27T14:29:05Z</time>
      </trkpt>
      <trkpt lat="49.48681" lon="1.02185">
        <ele>121.26</ele>
        <time>2013-07-27T14:29:06Z</time>
      </trkpt>
      <trkpt lat="49.48711" lon="1.02004">
        <ele>132.32</ele>
        <time>2013-07-27T14:29:15Z</time>
      </trkpt>
      <trkpt lat="49.48741" lon="1.01875">
        <ele>136.64</ele>
        <time>2013-07-27T14:29:22Z</time>
      </trkpt>
      <trkpt lat="49.48748" lon="1.01857">
        <ele>137.13</ele>
        <time>2013-07-27T14:29:23Z</time>
      </trkpt>
      <trkpt lat="49.48756" lon="1.01839">
        <ele>137.13</ele>
        <time>2013-07-27T14:29:24Z</time>
      </trkpt>
      <trkpt lat="49.48766" lon="1.01826">
        <ele>137.61</ele>
        <time>2013-07-27T14:29:25Z</time>
      </trkpt>
      <trkpt lat="49.48776" lon="1.01814">
        <ele>137.61</ele>
        <time>2013-07-27T14:29:26Z</time>
      </trkpt>
      <trkpt lat="49.48786" lon="1.01802">
        <ele>137.61</ele>
        <time>2013-07-27T14:29:27Z</time>
      </trkpt>
      <trkpt lat="49.48832" lon="1.01751">
        <ele>138.09</ele>
        <time>2013-07-27T14:29:32Z</time>
      </trkpt>
      <trkpt lat="49.48836" lon="1.01742">
        <ele>138.09</ele>
        <time>2013-07-27T14:29:33Z</time>
      </trkpt>
      <trkpt lat="49.4884" lon="1.01732">
        <ele>138.09</ele>
        <time>2013-07-27T14:29:34Z</time>
      </trkpt>
      <trkpt lat="49.48852" lon="1.01711">
        <ele>138.57</ele>
        <time>2013-07-27T14:29:36Z</time>
      </trkpt>
      <trkpt lat="49.48857" lon="1.01712">
        <ele>138.57</ele>
        <time>2013-07-27T14:29:37Z</time>
      </trkpt>
      <trkpt lat="49.48863" lon="1.01713">
        <ele>138.57</ele>
        <time>2013-07-27T14:29:38Z</time>
      </trkpt>
      <trkpt lat="49.4887" lon="1.01708">
        <ele>138.57</ele>
        <time>2013-07-27T14:29:39Z</time>
      </trkpt>
      <trkpt lat="49.48877" lon="1.01701">
        <ele>138.57</ele>
        <time>2013-07-27T14:29:40Z</time>
      </trkpt>
      <trkpt lat="49.48882" lon="1.01698">
        <ele>138.57</ele>
        <time>2013-07-27T14:29:41Z</time>
      </trkpt>
      <trkpt lat="49.4889" lon="1.01695">
        <ele>139.05</ele>
        <time>2013-07-27T14:29:42Z</time>
      </trkpt>
      <trkpt lat="49.48898" lon="1.01691">
        <ele>139.05</ele>
        <time>2013-07-27T14:29:43Z</time>
      </trkpt>
      <trkpt lat="49.48906" lon="1.01686">
        <ele>139.05</ele>
        <time>2013-07-27T14:29:44Z</time>
      </trkpt>
      <trkpt lat="49.48915" lon="1.01682">
        <ele>139.53</ele>
        <time>2013-07-27T14:29:45Z</time>
      </trkpt>
      <trkpt lat="49.48956" lon="1.01648">
        <ele>140.01</ele>
        <time>2013-07-27T14:29:49Z</time>
      </trkpt>
      <trkpt lat="49.4897" lon="1.01636">
        <ele>140.49</ele>
        <time>2013-07-27T14:29:50Z</time>
      </trkpt>
      <trkpt lat="49.49078" lon="1.01537">
        <ele>144.34</ele>
        <time>2013-07-27T14:29:57Z</time>
      </trkpt>
      <trkpt lat="49.49319" lon="1.0132">
        <ele>149.62</ele>
        <time>2013-07-27T14:30:13Z</time>
      </trkpt>
      <trkpt lat="49.49589" lon="1.01076">
        <ele>147.22</ele>
        <time>2013-07-27T14:30:30Z</time>
      </trkpt>
      <trkpt lat="49.49914" lon="1.00782">
        <ele>145.78</ele>
        <time>2013-07-27T14:30:50Z</time>
      </trkpt>
      <trkpt lat="49.50196" lon="1.00525">
        <ele>142.41</ele>
        <time>2013-07-27T14:31:08Z</time>
      </trkpt>
      <trkpt lat="49.5039" lon="1.00347">
        <ele>141.45</ele>
        <time>2013-07-27T14:31:22Z</time>
      </trkpt>
      <trkpt lat="49.5067" lon="1.00094">
        <ele>135.2</ele>
        <time>2013-07-27T14:31:43Z</time>
      </trkpt>
      <trkpt lat="49.50794" lon="0.99982">
        <ele>135.2</ele>
        <time>2013-07-27T14:31:50Z</time>
      </trkpt>
      <trkpt lat="49.51019" lon="0.99773">
        <ele>137.61</ele>
        <time>2013-07-27T14:32:00Z</time>
      </trkpt>
      <trkpt lat="49.51304" lon="0.99514">
        <ele>132.8</ele>
        <time>2013-07-27T14:32:13Z</time>
      </trkpt>
      <trkpt lat="49.51574" lon="0.99268">
        <ele>127.99</ele>
        <time>2013-07-27T14:32:27Z</time>
      </trkpt>
      <trkpt lat="49.51821" lon="0.99043">
        <ele>124.63</ele>
        <time>2013-07-27T14:32:40Z</time>
      </trkpt>
      <trkpt lat="49.51961" lon="0.98915">
        <ele>122.22</ele>
        <time>2013-07-27T14:32:50Z</time>
      </trkpt>
      <trkpt lat="49.51986" lon="0.98892">
        <ele>121.74</ele>
        <time>2013-07-27T14:32:54Z</time>
      </trkpt>
      <trkpt lat="49.51993" lon="0.98886">
        <ele>121.74</ele>
        <time>2013-07-27T14:32:55Z</time>
      </trkpt>
      <trkpt lat="49.51999" lon="0.98886">
        <ele>121.74</ele>
        <time>2013-07-27T14:32:56Z</time>
      </trkpt>
      <trkpt lat="49.52006" lon="0.98884">
        <ele>121.74</ele>
        <time>2013-07-27T14:32:57Z</time>
      </trkpt>
      <trkpt lat="49.52006" lon="0.98868">
        <ele>121.74</ele>
        <time>2013-07-27T14:32:58Z</time>
      </trkpt>
      <trkpt lat="49.5201" lon="0.98862">
        <ele>122.22</ele>
        <time>2013-07-27T14:32:59Z</time>
      </trkpt>
      <trkpt lat="49.52016" lon="0.98854">
        <ele>122.22</ele>
        <time>2013-07-27T14:33:00Z</time>
      </trkpt>
      <trkpt lat="49.52022" lon="0.98844">
        <ele>121.74</ele>
        <time>2013-07-27T14:33:01Z</time>
      </trkpt>
      <trkpt lat="49.52074" lon="0.98763">
        <ele>122.22</ele>
        <time>2013-07-27T14:33:06Z</time>
      </trkpt>
      <trkpt lat="49.52179" lon="0.98588">
        <ele>122.22</ele>
        <time>2013-07-27T14:33:13Z</time>
      </trkpt>
      <trkpt lat="49.52332" lon="0.9834">
        <ele>122.71</ele>
        <time>2013-07-27T14:33:21Z</time>
      </trkpt>
      <trkpt lat="49.52633" lon="0.97841">
        <ele>128.47</ele>
        <time>2013-07-27T14:33:37Z</time>
      </trkpt>
      <trkpt lat="49.52836" lon="0.97506">
        <ele>126.55</ele>
        <time>2013-07-27T14:33:48Z</time>
      </trkpt>
      <trkpt lat="49.52922" lon="0.9738">
        <ele>125.11</ele>
        <time>2013-07-27T14:33:54Z</time>
      </trkpt>
      <trkpt lat="49.52968" lon="0.97308">
        <ele>124.63</ele>
        <time>2013-07-27T14:34:00Z</time>
      </trkpt>
      <trkpt lat="49.52972" lon="0.97302">
        <ele>124.63</ele>
        <time>2013-07-27T14:34:01Z</time>
      </trkpt>
      <trkpt lat="49.52983" lon="0.97292">
        <ele>124.63</ele>
        <time>2013-07-27T14:34:02Z</time>
      </trkpt>
      <trkpt lat="49.52987" lon="0.97295">
        <ele>124.63</ele>
        <time>2013-07-27T14:34:03Z</time>
      </trkpt>
      <trkpt lat="49.53002" lon="0.97293">
        <ele>124.63</ele>
        <time>2013-07-27T14:34:05Z</time>
      </trkpt>
      <trkpt lat="49.53005" lon="0.97287">
        <ele>124.63</ele>
        <time>2013-07-27T14:34:06Z</time>
      </trkpt>
      <trkpt lat="49.5301" lon="0.97274">
        <ele>124.63</ele>
        <time>2013-07-27T14:34:07Z</time>
      </trkpt>
      <trkpt lat="49.53006" lon="0.97255">
        <ele>124.63</ele>
        <time>2013-07-27T14:34:08Z</time>
      </trkpt>
      <trkpt lat="49.53009" lon="0.97248">
        <ele>125.11</ele>
        <time>2013-07-27T14:34:09Z</time>
      </trkpt>
      <trkpt lat="49.53014" lon="0.97237">
        <ele>125.11</ele>
        <time>2013-07-27T14:34:10Z</time>
      </trkpt>
      <trkpt lat="49.53021" lon="0.97225">
        <ele>125.11</ele>
        <time>2013-07-27T14:34:11Z</time>
      </trkpt>
      <trkpt lat="49.53027" lon="0.97212">
        <ele>125.59</ele>
        <time>2013-07-27T14:34:12Z</time>
      </trkpt>
      <trkpt lat="49.53093" lon="0.97087">
        <ele>126.55</ele>
        <time>2013-07-27T14:34:21Z</time>
      </trkpt>
      <trkpt lat="49.53127" lon="0.97027">
        <ele>126.55</ele>
        <time>2013-07-27T14:34:29Z</time>
      </trkpt>
      <trkpt lat="49.53166" lon="0.96959">
        <ele>126.55</ele>
        <time>2013-07-27T14:34:37Z</time>
      </trkpt>
      <trkpt lat="49.53201" lon="0.96904">
        <ele>127.51</ele>
        <time>2013-07-27T14:34:46Z</time>
      </trkpt>
      <trkpt lat="49.53221" lon="0.96877">
        <ele>127.99</ele>
        <time>2013-07-27T14:34:54Z</time>
      </trkpt>
      <trkpt lat="49.53224" lon="0.96881">
        <ele>127.51</ele>
        <time>2013-07-27T14:34:56Z</time>
      </trkpt>
      <trkpt lat="49.53227" lon="0.96884">
        <ele>127.51</ele>
        <time>2013-07-27T14:34:57Z</time>
      </trkpt>
      <trkpt lat="49.53232" lon="0.96884">
        <ele>127.99</ele>
        <time>2013-07-27T14:34:58Z</time>
      </trkpt>
      <trkpt lat="49.53238" lon="0.96881">
        <ele>127.51</ele>
        <time>2013-07-27T14:34:59Z</time>
      </trkpt>
      <trkpt lat="49.53243" lon="0.96879">
        <ele>127.51</ele>
        <time>2013-07-27T14:35:00Z</time>
      </trkpt>
      <trkpt lat="49.53247" lon="0.96873">
        <ele>127.51</ele>
        <time>2013-07-27T14:35:01Z</time>
      </trkpt>
      <trkpt lat="49.53249" lon="0.96866">
        <ele>127.51</ele>
        <time>2013-07-27T14:35:02Z</time>
      </trkpt>
      <trkpt lat="49.53249" lon="0.96855">
        <ele>127.99</ele>
        <time>2013-07-27T14:35:03Z</time>
      </trkpt>
      <trkpt lat="49.53247" lon="0.96845">
        <ele>127.51</ele>
        <time>2013-07-27T14:35:04Z</time>
      </trkpt>
      <trkpt lat="49.53246" lon="0.96827">
        <ele>127.51</ele>
        <time>2013-07-27T14:35:05Z</time>
      </trkpt>
      <trkpt lat="49.53251" lon="0.96819">
        <ele>127.03</ele>
        <time>2013-07-27T14:35:06Z</time>
      </trkpt>
      <trkpt lat="49.53256" lon="0.96808">
        <ele>127.03</ele>
        <time>2013-07-27T14:35:07Z</time>
      </trkpt>
      <trkpt lat="49.53313" lon="0.96723">
        <ele>124.63</ele>
        <time>2013-07-27T14:35:13Z</time>
      </trkpt>
      <trkpt lat="49.53383" lon="0.96601">
        <ele>121.74</ele>
        <time>2013-07-27T14:35:21Z</time>
      </trkpt>
      <trkpt lat="49.53463" lon="0.96473">
        <ele>118.38</ele>
        <time>2013-07-27T14:35:29Z</time>
      </trkpt>
      <trkpt lat="49.53483" lon="0.96447">
        <ele>117.42</ele>
        <time>2013-07-27T14:35:33Z</time>
      </trkpt>
      <trkpt lat="49.53487" lon="0.96442">
        <ele>117.42</ele>
        <time>2013-07-27T14:35:34Z</time>
      </trkpt>
      <trkpt lat="49.53489" lon="0.96438">
        <ele>116.94</ele>
        <time>2013-07-27T14:35:35Z</time>
      </trkpt>
      <trkpt lat="49.53492" lon="0.96435">
        <ele>116.46</ele>
        <time>2013-07-27T14:35:36Z</time>
      </trkpt>
      <trkpt lat="49.53498" lon="0.96434">
        <ele>116.46</ele>
        <time>2013-07-27T14:35:37Z</time>
      </trkpt>
      <trkpt lat="49.53502" lon="0.96438">
        <ele>115.98</ele>
        <time>2013-07-27T14:35:38Z</time>
      </trkpt>
      <trkpt lat="49.53509" lon="0.96438">
        <ele>115.98</ele>
        <time>2013-07-27T14:35:39Z</time>
      </trkpt>
      <trkpt lat="49.53515" lon="0.96437">
        <ele>115.5</ele>
        <time>2013-07-27T14:35:40Z</time>
      </trkpt>
      <trkpt lat="49.53522" lon="0.96434">
        <ele>115.5</ele>
        <time>2013-07-27T14:35:41Z</time>
      </trkpt>
      <trkpt lat="49.53525" lon="0.96427">
        <ele>115.5</ele>
        <time>2013-07-27T14:35:42Z</time>
      </trkpt>
      <trkpt lat="49.53527" lon="0.96418">
        <ele>115.5</ele>
        <time>2013-07-27T14:35:43Z</time>
      </trkpt>
      <trkpt lat="49.53529" lon="0.96405">
        <ele>115.5</ele>
        <time>2013-07-27T14:35:44Z</time>
      </trkpt>
      <trkpt lat="49.53528" lon="0.96401">
        <ele>115.01</ele>
        <time>2013-07-27T14:35:45Z</time>
      </trkpt>
      <trkpt lat="49.53526" lon="0.96391">
        <ele>115.01</ele>
        <time>2013-07-27T14:35:46Z</time>
      </trkpt>
      <trkpt lat="49.53523" lon="0.96386">
        <ele>115.01</ele>
        <time>2013-07-27T14:35:47Z</time>
      </trkpt>
      <trkpt lat="49.53526" lon="0.96365">
        <ele>115.01</ele>
        <time>2013-07-27T14:35:48Z</time>
      </trkpt>
      <trkpt lat="49.53531" lon="0.96357">
        <ele>115.01</ele>
        <time>2013-07-27T14:35:49Z</time>
      </trkpt>
      <trkpt lat="49.53537" lon="0.96348">
        <ele>114.53</ele>
        <time>2013-07-27T14:35:50Z</time>
      </trkpt>
      <trkpt lat="49.53544" lon="0.96337">
        <ele>114.53</ele>
        <time>2013-07-27T14:35:51Z</time>
      </trkpt>
      <trkpt lat="49.53551" lon="0.96326">
        <ele>114.53</ele>
        <time>2013-07-27T14:35:52Z</time>
      </trkpt>
      <trkpt lat="49.53609" lon="0.96227">
        <ele>113.57</ele>
        <time>2013-07-27T14:35:59Z</time>
      </trkpt>
      <trkpt lat="49.53619" lon="0.96211">
        <ele>113.09</ele>
        <time>2013-07-27T14:36:00Z</time>
      </trkpt>
      <trkpt lat="49.53635" lon="0.96192">
        <ele>112.61</ele>
        <time>2013-07-27T14:36:01Z</time>
      </trkpt>
      <trkpt lat="49.53652" lon="0.96184">
        <ele>112.61</ele>
        <time>2013-07-27T14:36:02Z</time>
      </trkpt>
      <trkpt lat="49.53671" lon="0.96175">
        <ele>112.61</ele>
        <time>2013-07-27T14:36:03Z</time>
      </trkpt>
      <trkpt lat="49.53844" lon="0.96082">
        <ele>108.29</ele>
        <time>2013-07-27T14:36:11Z</time>
      </trkpt>
      <trkpt lat="49.5411" lon="0.95928">
        <ele>96.75</ele>
        <time>2013-07-27T14:36:23Z</time>
      </trkpt>
      <trkpt lat="49.54447" lon="0.9571">
        <ele>67.43</ele>
        <time>2013-07-27T14:36:38Z</time>
      </trkpt>
      <trkpt lat="49.54708" lon="0.95527">
        <ele>50.13</ele>
        <time>2013-07-27T14:36:50Z</time>
      </trkpt>
      <trkpt lat="49.54864" lon="0.95368">
        <ele>54.45</ele>
        <time>2013-07-27T14:36:59Z</time>
      </trkpt>
      <trkpt lat="49.5506" lon="0.95203">
        <ele>68.87</ele>
        <time>2013-07-27T14:37:11Z</time>
      </trkpt>
      <trkpt lat="49.55226" lon="0.9505">
        <ele>85.21</ele>
        <time>2013-07-27T14:37:20Z</time>
      </trkpt>
      <trkpt lat="49.55379" lon="0.94846">
        <ele>100.6</ele>
        <time>2013-07-27T14:37:29Z</time>
      </trkpt>
      <trkpt lat="49.55602" lon="0.94549">
        <ele>113.09</ele>
        <time>2013-07-27T14:37:45Z</time>
      </trkpt>
      <trkpt lat="49.55691" lon="0.94421">
        <ele>116.46</ele>
        <time>2013-07-27T14:37:54Z</time>
      </trkpt>
      <trkpt lat="49.5571" lon="0.94392">
        <ele>117.42</ele>
        <time>2013-07-27T14:37:57Z</time>
      </trkpt>
      <trkpt lat="49.55722" lon="0.94382">
        <ele>117.42</ele>
        <time>2013-07-27T14:37:58Z</time>
      </trkpt>
      <trkpt lat="49.55727" lon="0.94386">
        <ele>117.42</ele>
        <time>2013-07-27T14:37:59Z</time>
      </trkpt>
      <trkpt lat="49.55744" lon="0.94387">
        <ele>117.42</ele>
        <time>2013-07-27T14:38:01Z</time>
      </trkpt>
      <trkpt lat="49.55757" lon="0.94379">
        <ele>117.9</ele>
        <time>2013-07-27T14:38:02Z</time>
      </trkpt>
      <trkpt lat="49.55758" lon="0.94373">
        <ele>117.9</ele>
        <time>2013-07-27T14:38:03Z</time>
      </trkpt>
      <trkpt lat="49.5576" lon="0.94362">
        <ele>117.9</ele>
        <time>2013-07-27T14:38:04Z</time>
      </trkpt>
      <trkpt lat="49.5576" lon="0.94351">
        <ele>117.9</ele>
        <time>2013-07-27T14:38:05Z</time>
      </trkpt>
      <trkpt lat="49.55758" lon="0.94337">
        <ele>117.9</ele>
        <time>2013-07-27T14:38:06Z</time>
      </trkpt>
      <trkpt lat="49.55759" lon="0.94317">
        <ele>117.42</ele>
        <time>2013-07-27T14:38:07Z</time>
      </trkpt>
      <trkpt lat="49.55765" lon="0.94304">
        <ele>117.42</ele>
        <time>2013-07-27T14:38:08Z</time>
      </trkpt>
      <trkpt lat="49.55771" lon="0.9429">
        <ele>117.42</ele>
        <time>2013-07-27T14:38:09Z</time>
      </trkpt>
      <trkpt lat="49.55822" lon="0.94161">
        <ele>116.46</ele>
        <time>2013-07-27T14:38:15Z</time>
      </trkpt>
      <trkpt lat="49.55903" lon="0.93956">
        <ele>116.94</ele>
        <time>2013-07-27T14:38:21Z</time>
      </trkpt>
      <trkpt lat="49.56042" lon="0.93595">
        <ele>120.3</ele>
        <time>2013-07-27T14:38:31Z</time>
      </trkpt>
      <trkpt lat="49.56162" lon="0.93286">
        <ele>123.67</ele>
        <time>2013-07-27T14:38:42Z</time>
      </trkpt>
      <trkpt lat="49.56258" lon="0.93034">
        <ele>119.34</ele>
        <time>2013-07-27T14:38:49Z</time>
      </trkpt>
      <trkpt lat="49.56407" lon="0.92653">
        <ele>116.94</ele>
        <time>2013-07-27T14:38:59Z</time>
      </trkpt>
      <trkpt lat="49.56511" lon="0.92383">
        <ele>122.22</ele>
        <time>2013-07-27T14:39:08Z</time>
      </trkpt>
      <trkpt lat="49.56586" lon="0.92185">
        <ele>122.71</ele>
        <time>2013-07-27T14:39:17Z</time>
      </trkpt>
      <trkpt lat="49.56658" lon="0.92002">
        <ele>118.86</ele>
        <time>2013-07-27T14:39:27Z</time>
      </trkpt>
      <trkpt lat="49.56664" lon="0.92">
        <ele>118.38</ele>
        <time>2013-07-27T14:39:28Z</time>
      </trkpt>
      <trkpt lat="49.56671" lon="0.91999">
        <ele>117.9</ele>
        <time>2013-07-27T14:39:29Z</time>
      </trkpt>
      <trkpt lat="49.56677" lon="0.91987">
        <ele>117.9</ele>
        <time>2013-07-27T14:39:30Z</time>
      </trkpt>
      <trkpt lat="49.56679" lon="0.91974">
        <ele>117.42</ele>
        <time>2013-07-27T14:39:31Z</time>
      </trkpt>
      <trkpt lat="49.56675" lon="0.91959">
        <ele>116.94</ele>
        <time>2013-07-27T14:39:32Z</time>
      </trkpt>
      <trkpt lat="49.5668" lon="0.91947">
        <ele>116.46</ele>
        <time>2013-07-27T14:39:33Z</time>
      </trkpt>
      <trkpt lat="49.56685" lon="0.91934">
        <ele>116.46</ele>
        <time>2013-07-27T14:39:34Z</time>
      </trkpt>
      <trkpt lat="49.56723" lon="0.91833">
        <ele>114.53</ele>
        <time>2013-07-27T14:39:39Z</time>
      </trkpt>
      <trkpt lat="49.56806" lon="0.91609">
        <ele>111.65</ele>
        <time>2013-07-27T14:39:49Z</time>
      </trkpt>
      <trkpt lat="49.56894" lon="0.91388">
        <ele>112.61</ele>
        <time>2013-07-27T14:39:58Z</time>
      </trkpt>
      <trkpt lat="49.56996" lon="0.91108">
        <ele>115.98</ele>
        <time>2013-07-27T14:40:10Z</time>
      </trkpt>
      <trkpt lat="49.57122" lon="0.90789">
        <ele>114.53</ele>
        <time>2013-07-27T14:40:26Z</time>
      </trkpt>
      <trkpt lat="49.57226" lon="0.90573">
        <ele>115.01</ele>
        <time>2013-07-27T14:40:37Z</time>
      </trkpt>
      <trkpt lat="49.57327" lon="0.90403">
        <ele>119.34</ele>
        <time>2013-07-27T14:40:46Z</time>
      </trkpt>
      <trkpt lat="49.57465" lon="0.90182">
        <ele>122.71</ele>
        <time>2013-07-27T14:40:55Z</time>
      </trkpt>
      <trkpt lat="49.57665" lon="0.89853">
        <ele>112.61</ele>
        <time>2013-07-27T14:41:07Z</time>
      </trkpt>
      <trkpt lat="49.57966" lon="0.89358">
        <ele>113.57</ele>
        <time>2013-07-27T14:41:25Z</time>
      </trkpt>
      <trkpt lat="49.58248" lon="0.88896">
        <ele>116.94</ele>
        <time>2013-07-27T14:41:41Z</time>
      </trkpt>
      <trkpt lat="49.58447" lon="0.88572">
        <ele>111.17</ele>
        <time>2013-07-27T14:41:53Z</time>
      </trkpt>
      <trkpt lat="49.58693" lon="0.88167">
        <ele>109.73</ele>
        <time>2013-07-27T14:42:07Z</time>
      </trkpt>
      <trkpt lat="49.5891" lon="0.87805">
        <ele>117.9</ele>
        <time>2013-07-27T14:42:20Z</time>
      </trkpt>
      <trkpt lat="49.59143" lon="0.87418">
        <ele>128.95</ele>
        <time>2013-07-27T14:42:35Z</time>
      </trkpt>
      <trkpt lat="49.59308" lon="0.87145">
        <ele>144.34</ele>
        <time>2013-07-27T14:42:46Z</time>
      </trkpt>
      <trkpt lat="49.59426" lon="0.86951">
        <ele>151.54</ele>
        <time>2013-07-27T14:42:55Z</time>
      </trkpt>
      <trkpt lat="49.59625" lon="0.86625">
        <ele>153.95</ele>
        <time>2013-07-27T14:43:13Z</time>
      </trkpt>
      <trkpt lat="49.59789" lon="0.86355">
        <ele>151.54</ele>
        <time>2013-07-27T14:43:27Z</time>
      </trkpt>
      <trkpt lat="49.59933" lon="0.86117">
        <ele>152.03</ele>
        <time>2013-07-27T14:43:39Z</time>
      </trkpt>
      <trkpt lat="49.60166" lon="0.85733">
        <ele>150.1</ele>
        <time>2013-07-27T14:43:58Z</time>
      </trkpt>
      <trkpt lat="49.60322" lon="0.85479">
        <ele>150.58</ele>
        <time>2013-07-27T14:44:11Z</time>
      </trkpt>
      <trkpt lat="49.60429" lon="0.85303">
        <ele>151.54</ele>
        <time>2013-07-27T14:44:19Z</time>
      </trkpt>
      <trkpt lat="49.60527" lon="0.85136">
        <ele>152.99</ele>
        <time>2013-07-27T14:44:29Z</time>
      </trkpt>
      <trkpt lat="49.60589" lon="0.85039">
        <ele>155.87</ele>
        <time>2013-07-27T14:44:38Z</time>
      </trkpt>
      <trkpt lat="49.60655" lon="0.84928">
        <ele>156.83</ele>
        <time>2013-07-27T14:44:47Z</time>
      </trkpt>
      <trkpt lat="49.60744" lon="0.84784">
        <ele>154.43</ele>
        <time>2013-07-27T14:44:56Z</time>
      </trkpt>
      <trkpt lat="49.60856" lon="0.84601">
        <ele>154.43</ele>
        <time>2013-07-27T14:45:04Z</time>
      </trkpt>
      <trkpt lat="49.60995" lon="0.84372">
        <ele>155.39</ele>
        <time>2013-07-27T14:45:14Z</time>
      </trkpt>
      <trkpt lat="49.61167" lon="0.84089">
        <ele>152.51</ele>
        <time>2013-07-27T14:45:24Z</time>
      </trkpt>
      <trkpt lat="49.61312" lon="0.8385">
        <ele>148.66</ele>
        <time>2013-07-27T14:45:34Z</time>
      </trkpt>
      <trkpt lat="49.61442" lon="0.83636">
        <ele>145.78</ele>
        <time>2013-07-27T14:45:41Z</time>
      </trkpt>
      <trkpt lat="49.61719" lon="0.83179">
        <ele>145.78</ele>
        <time>2013-07-27T14:45:56Z</time>
      </trkpt>
      <trkpt lat="49.61877" lon="0.82923">
        <ele>148.18</ele>
        <time>2013-07-27T14:46:07Z</time>
      </trkpt>
      <trkpt lat="49.62017" lon="0.82678">
        <ele>146.74</ele>
        <time>2013-07-27T14:46:18Z</time>
      </trkpt>
      <trkpt lat="49.62073" lon="0.82498">
        <ele>145.78</ele>
        <time>2013-07-27T14:46:26Z</time>
      </trkpt>
      <trkpt lat="49.6215" lon="0.8221">
        <ele>145.78</ele>
        <time>2013-07-27T14:46:37Z</time>
      </trkpt>
      <trkpt lat="49.62272" lon="0.8177">
        <ele>148.18</ele>
        <time>2013-07-27T14:46:52Z</time>
      </trkpt>
      <trkpt lat="49.624" lon="0.81307">
        <ele>149.14</ele>
        <time>2013-07-27T14:47:08Z</time>
      </trkpt>
      <trkpt lat="49.62472" lon="0.81042">
        <ele>148.18</ele>
        <time>2013-07-27T14:47:15Z</time>
      </trkpt>
      <trkpt lat="49.6256" lon="0.80717">
        <ele>146.26</ele>
        <time>2013-07-27T14:47:23Z</time>
      </trkpt>
      <trkpt lat="49.62621" lon="0.80498">
        <ele>142.89</ele>
        <time>2013-07-27T14:47:30Z</time>
      </trkpt>
      <trkpt lat="49.6268" lon="0.80275">
        <ele>138.57</ele>
        <time>2013-07-27T14:47:39Z</time>
      </trkpt>
      <trkpt lat="49.62768" lon="0.80222">
        <ele>138.09</ele>
        <time>2013-07-27T14:47:46Z</time>
      </trkpt>
      <trkpt lat="49.62774" lon="0.80216">
        <ele>138.09</ele>
        <time>2013-07-27T14:47:47Z</time>
      </trkpt>
      <trkpt lat="49.6278" lon="0.8021">
        <ele>138.09</ele>
        <time>2013-07-27T14:47:48Z</time>
      </trkpt>
      <trkpt lat="49.62786" lon="0.80209">
        <ele>138.09</ele>
        <time>2013-07-27T14:47:49Z</time>
      </trkpt>
      <trkpt lat="49.62796" lon="0.80209">
        <ele>138.09</ele>
        <time>2013-07-27T14:47:50Z</time>
      </trkpt>
      <trkpt lat="49.62806" lon="0.80206">
        <ele>138.57</ele>
        <time>2013-07-27T14:47:51Z</time>
      </trkpt>
      <trkpt lat="49.62811" lon="0.80197">
        <ele>138.57</ele>
        <time>2013-07-27T14:47:52Z</time>
      </trkpt>
      <trkpt lat="49.62817" lon="0.80188">
        <ele>138.57</ele>
        <time>2013-07-27T14:47:53Z</time>
      </trkpt>
      <trkpt lat="49.62821" lon="0.80183">
        <ele>138.57</ele>
        <time>2013-07-27T14:47:54Z</time>
      </trkpt>
      <trkpt lat="49.62821" lon="0.80183">
        <ele>138.57</ele>
        <time>2013-07-27T14:47:55Z</time>
      </trkpt>
      <trkpt lat="49.62846" lon="0.80179">
        <ele>138.57</ele>
        <time>2013-07-27T14:47:56Z</time>
      </trkpt>
      <trkpt lat="49.62858" lon="0.80181">
        <ele>138.57</ele>
        <time>2013-07-27T14:47:57Z</time>
      </trkpt>
      <trkpt lat="49.62871" lon="0.80184">
        <ele>138.57</ele>
        <time>2013-07-27T14:47:58Z</time>
      </trkpt>
      <trkpt lat="49.63" lon="0.80233">
        <ele>138.09</ele>
        <time>2013-07-27T14:48:06Z</time>
      </trkpt>
      <trkpt lat="49.63034" lon="0.80261">
        <ele>138.09</ele>
        <time>2013-07-27T14:48:08Z</time>
      </trkpt>
      <trkpt lat="49.6305" lon="0.80275">
        <ele>138.09</ele>
        <time>2013-07-27T14:48:09Z</time>
      </trkpt>
      <trkpt lat="49.63065" lon="0.80297">
        <ele>138.09</ele>
        <time>2013-07-27T14:48:10Z</time>
      </trkpt>
      <trkpt lat="49.63078" lon="0.80321">
        <ele>138.57</ele>
        <time>2013-07-27T14:48:11Z</time>
      </trkpt>
      <trkpt lat="49.63089" lon="0.80345">
        <ele>139.05</ele>
        <time>2013-07-27T14:48:12Z</time>
      </trkpt>
      <trkpt lat="49.631" lon="0.8037">
        <ele>139.53</ele>
        <time>2013-07-27T14:48:13Z</time>
      </trkpt>
      <trkpt lat="49.63111" lon="0.80394">
        <ele>140.01</ele>
        <time>2013-07-27T14:48:14Z</time>
      </trkpt>
      <trkpt lat="49.63117" lon="0.80424">
        <ele>140.01</ele>
        <time>2013-07-27T14:48:15Z</time>
      </trkpt>
      <trkpt lat="49.63122" lon="0.80453">
        <ele>140.49</ele>
        <time>2013-07-27T14:48:16Z</time>
      </trkpt>
      <trkpt lat="49.63128" lon="0.80482">
        <ele>140.97</ele>
        <time>2013-07-27T14:48:17Z</time>
      </trkpt>
      <trkpt lat="49.63165" lon="0.80712">
        <ele>141.45</ele>
        <time>2013-07-27T14:48:26Z</time>
      </trkpt>
      <trkpt lat="49.63232" lon="0.81028">
        <ele>140.01</ele>
        <time>2013-07-27T14:48:39Z</time>
      </trkpt>
      <trkpt lat="49.63297" lon="0.81194">
        <ele>141.93</ele>
        <time>2013-07-27T14:48:48Z</time>
      </trkpt>
      <trkpt lat="49.63369" lon="0.81365">
        <ele>143.37</ele>
        <time>2013-07-27T14:48:57Z</time>
      </trkpt>
      <trkpt lat="49.63394" lon="0.81429">
        <ele>144.34</ele>
        <time>2013-07-27T14:49:02Z</time>
      </trkpt>
      <trkpt lat="49.63406" lon="0.81462">
        <ele>144.82</ele>
        <time>2013-07-27T14:49:07Z</time>
      </trkpt>
      <trkpt lat="49.63436" lon="0.81535">
        <ele>145.3</ele>
        <time>2013-07-27T14:49:13Z</time>
      </trkpt>
      <trkpt lat="49.63496" lon="0.81675">
        <ele>144.34</ele>
        <time>2013-07-27T14:49:20Z</time>
      </trkpt>
      <trkpt lat="49.6362" lon="0.8197">
        <ele>142.89</ele>
        <time>2013-07-27T14:49:31Z</time>
      </trkpt>
      <trkpt lat="49.63729" lon="0.82229">
        <ele>142.41</ele>
        <time>2013-07-27T14:49:38Z</time>
      </trkpt>
      <trkpt lat="49.63957" lon="0.82778">
        <ele>143.37</ele>
        <time>2013-07-27T14:49:53Z</time>
      </trkpt>
      <trkpt lat="49.64103" lon="0.83131">
        <ele>148.18</ele>
        <time>2013-07-27T14:50:04Z</time>
      </trkpt>
      <trkpt lat="49.64361" lon="0.83746">
        <ele>151.06</ele>
        <time>2013-07-27T14:50:25Z</time>
      </trkpt>
      <trkpt lat="49.64484" lon="0.84037">
        <ele>152.99</ele>
        <time>2013-07-27T14:50:36Z</time>
      </trkpt>
      <trkpt lat="49.64507" lon="0.84115">
        <ele>152.99</ele>
        <time>2013-07-27T14:50:40Z</time>
      </trkpt>
      <trkpt lat="49.64509" lon="0.84132">
        <ele>153.47</ele>
        <time>2013-07-27T14:50:41Z</time>
      </trkpt>
      <trkpt lat="49.64512" lon="0.84148">
        <ele>153.47</ele>
        <time>2013-07-27T14:50:42Z</time>
      </trkpt>
      <trkpt lat="49.64515" lon="0.84172">
        <ele>154.43</ele>
        <time>2013-07-27T14:50:44Z</time>
      </trkpt>
      <trkpt lat="49.64519" lon="0.84183">
        <ele>154.43</ele>
        <time>2013-07-27T14:50:45Z</time>
      </trkpt>
      <trkpt lat="49.64523" lon="0.84194">
        <ele>154.91</ele>
        <time>2013-07-27T14:50:46Z</time>
      </trkpt>
      <trkpt lat="49.64531" lon="0.84198">
        <ele>154.91</ele>
        <time>2013-07-27T14:50:47Z</time>
      </trkpt>
      <trkpt lat="49.64539" lon="0.84198">
        <ele>154.91</ele>
        <time>2013-07-27T14:50:48Z</time>
      </trkpt>
      <trkpt lat="49.64546" lon="0.84191">
        <ele>155.39</ele>
        <time>2013-07-27T14:50:49Z</time>
      </trkpt>
      <trkpt lat="49.64553" lon="0.84184">
        <ele>155.39</ele>
        <time>2013-07-27T14:50:50Z</time>
      </trkpt>
      <trkpt lat="49.64558" lon="0.84175">
        <ele>155.39</ele>
        <time>2013-07-27T14:50:51Z</time>
      </trkpt>
      <trkpt lat="49.64559" lon="0.84162">
        <ele>155.39</ele>
        <time>2013-07-27T14:50:52Z</time>
      </trkpt>
      <trkpt lat="49.64559" lon="0.84147">
        <ele>154.91</ele>
        <time>2013-07-27T14:50:53Z</time>
      </trkpt>
      <trkpt lat="49.64559" lon="0.84147">
        <ele>154.91</ele>
        <time>2013-07-27T14:50:54Z</time>
      </trkpt>
      <trkpt lat="49.64556" lon="0.84115">
        <ele>154.43</ele>
        <time>2013-07-27T14:50:55Z</time>
      </trkpt>
      <trkpt lat="49.64559" lon="0.84088">
        <ele>153.95</ele>
        <time>2013-07-27T14:50:56Z</time>
      </trkpt>
      <trkpt lat="49.64562" lon="0.84079">
        <ele>153.95</ele>
        <time>2013-07-27T14:50:57Z</time>
      </trkpt>
      <trkpt lat="49.64568" lon="0.84061">
        <ele>153.95</ele>
        <time>2013-07-27T14:50:58Z</time>
      </trkpt>
      <trkpt lat="49.64577" lon="0.84051">
        <ele>153.47</ele>
        <time>2013-07-27T14:50:59Z</time>
      </trkpt>
      <trkpt lat="49.64587" lon="0.8404">
        <ele>153.47</ele>
        <time>2013-07-27T14:51:00Z</time>
      </trkpt>
      <trkpt lat="49.64599" lon="0.84031">
        <ele>153.47</ele>
        <time>2013-07-27T14:51:01Z</time>
      </trkpt>
      <trkpt lat="49.64611" lon="0.84029">
        <ele>153.47</ele>
        <time>2013-07-27T14:51:02Z</time>
      </trkpt>
      <trkpt lat="49.64625" lon="0.84026">
        <ele>153.47</ele>
        <time>2013-07-27T14:51:03Z</time>
      </trkpt>
      <trkpt lat="49.64731" lon="0.84002">
        <ele>153.95</ele>
        <time>2013-07-27T14:51:09Z</time>
      </trkpt>
      <trkpt lat="49.64849" lon="0.83937">
        <ele>152.99</ele>
        <time>2013-07-27T14:51:14Z</time>
      </trkpt>
      <trkpt lat="49.64989" lon="0.83787">
        <ele>151.54</ele>
        <time>2013-07-27T14:51:20Z</time>
      </trkpt>
      <trkpt lat="49.65179" lon="0.83593">
        <ele>149.62</ele>
        <time>2013-07-27T14:51:29Z</time>
      </trkpt>
      <trkpt lat="49.6538" lon="0.83474">
        <ele>149.14</ele>
        <time>2013-07-27T14:51:38Z</time>
      </trkpt>
      <trkpt lat="49.65603" lon="0.83421">
        <ele>146.26</ele>
        <time>2013-07-27T14:51:47Z</time>
      </trkpt>
      <trkpt lat="49.65657" lon="0.83408">
        <ele>145.3</ele>
        <time>2013-07-27T14:51:49Z</time>
      </trkpt>
      <trkpt lat="49.65882" lon="0.83315">
        <ele>141.93</ele>
        <time>2013-07-27T14:51:57Z</time>
      </trkpt>
      <trkpt lat="49.66043" lon="0.83229">
        <ele>143.37</ele>
        <time>2013-07-27T14:52:04Z</time>
      </trkpt>
      <trkpt lat="49.66384" lon="0.82953">
        <ele>154.43</ele>
        <time>2013-07-27T14:52:20Z</time>
      </trkpt>
      <trkpt lat="49.66606" lon="0.82791">
        <ele>158.75</ele>
        <time>2013-07-27T14:52:30Z</time>
      </trkpt>
      <trkpt lat="49.66701" lon="0.82714">
        <ele>157.79</ele>
        <time>2013-07-27T14:52:35Z</time>
      </trkpt>
      <trkpt lat="49.66721" lon="0.82703">
        <ele>157.31</ele>
        <time>2013-07-27T14:52:36Z</time>
      </trkpt>
      <trkpt lat="49.66741" lon="0.827">
        <ele>157.31</ele>
        <time>2013-07-27T14:52:37Z</time>
      </trkpt>
      <trkpt lat="49.66761" lon="0.82699">
        <ele>157.31</ele>
        <time>2013-07-27T14:52:38Z</time>
      </trkpt>
      <trkpt lat="49.6678" lon="0.82702">
        <ele>157.31</ele>
        <time>2013-07-27T14:52:39Z</time>
      </trkpt>
      <trkpt lat="49.66798" lon="0.82706">
        <ele>157.79</ele>
        <time>2013-07-27T14:52:40Z</time>
      </trkpt>
      <trkpt lat="49.66901" lon="0.82734">
        <ele>159.72</ele>
        <time>2013-07-27T14:52:47Z</time>
      </trkpt>
      <trkpt lat="49.67042" lon="0.82754">
        <ele>163.08</ele>
        <time>2013-07-27T14:52:58Z</time>
      </trkpt>
      <trkpt lat="49.67054" lon="0.8275">
        <ele>163.08</ele>
        <time>2013-07-27T14:52:59Z</time>
      </trkpt>
      <trkpt lat="49.67066" lon="0.82744">
        <ele>163.56</ele>
        <time>2013-07-27T14:53:00Z</time>
      </trkpt>
      <trkpt lat="49.67115" lon="0.82722">
        <ele>163.56</ele>
        <time>2013-07-27T14:53:04Z</time>
      </trkpt>
      <trkpt lat="49.67128" lon="0.82719">
        <ele>163.56</ele>
        <time>2013-07-27T14:53:05Z</time>
      </trkpt>
      <trkpt lat="49.6718" lon="0.82713">
        <ele>163.08</ele>
        <time>2013-07-27T14:53:09Z</time>
      </trkpt>
      <trkpt lat="49.67193" lon="0.82705">
        <ele>163.08</ele>
        <time>2013-07-27T14:53:10Z</time>
      </trkpt>
      <trkpt lat="49.67204" lon="0.82693">
        <ele>163.08</ele>
        <time>2013-07-27T14:53:11Z</time>
      </trkpt>
      <trkpt lat="49.67215" lon="0.82678">
        <ele>162.6</ele>
        <time>2013-07-27T14:53:12Z</time>
      </trkpt>
      <trkpt lat="49.67227" lon="0.82661">
        <ele>162.6</ele>
        <time>2013-07-27T14:53:13Z</time>
      </trkpt>
      <trkpt lat="49.67325" lon="0.82492">
        <ele>161.16</ele>
        <time>2013-07-27T14:53:21Z</time>
      </trkpt>
      <trkpt lat="49.67439" lon="0.82286">
        <ele>160.2</ele>
        <time>2013-07-27T14:53:30Z</time>
      </trkpt>
      <trkpt lat="49.67453" lon="0.82274">
        <ele>160.68</ele>
        <time>2013-07-27T14:53:31Z</time>
      </trkpt>
      <trkpt lat="49.67467" lon="0.82262">
        <ele>160.68</ele>
        <time>2013-07-27T14:53:32Z</time>
      </trkpt>
      <trkpt lat="49.67482" lon="0.8225">
        <ele>160.68</ele>
        <time>2013-07-27T14:53:33Z</time>
      </trkpt>
      <trkpt lat="49.67499" lon="0.82243">
        <ele>161.16</ele>
        <time>2013-07-27T14:53:34Z</time>
      </trkpt>
      <trkpt lat="49.67517" lon="0.82237">
        <ele>161.16</ele>
        <time>2013-07-27T14:53:35Z</time>
      </trkpt>
      <trkpt lat="49.67745" lon="0.82142">
        <ele>161.64</ele>
        <time>2013-07-27T14:53:48Z</time>
      </trkpt>
      <trkpt lat="49.67786" lon="0.82121">
        <ele>162.6</ele>
        <time>2013-07-27T14:53:51Z</time>
      </trkpt>
      <trkpt lat="49.678" lon="0.8212">
        <ele>162.6</ele>
        <time>2013-07-27T14:53:52Z</time>
      </trkpt>
      <trkpt lat="49.67814" lon="0.82122">
        <ele>162.6</ele>
        <time>2013-07-27T14:53:53Z</time>
      </trkpt>
      <trkpt lat="49.67828" lon="0.8213">
        <ele>162.6</ele>
        <time>2013-07-27T14:53:54Z</time>
      </trkpt>
      <trkpt lat="49.67842" lon="0.82139">
        <ele>163.08</ele>
        <time>2013-07-27T14:53:55Z</time>
      </trkpt>
      <trkpt lat="49.67872" lon="0.82154">
        <ele>162.6</ele>
        <time>2013-07-27T14:53:57Z</time>
      </trkpt>
      <trkpt lat="49.67888" lon="0.82156">
        <ele>162.6</ele>
        <time>2013-07-27T14:53:58Z</time>
      </trkpt>
      <trkpt lat="49.67907" lon="0.82157">
        <ele>162.6</ele>
        <time>2013-07-27T14:53:59Z</time>
      </trkpt>
      <trkpt lat="49.67927" lon="0.82155">
        <ele>162.12</ele>
        <time>2013-07-27T14:54:00Z</time>
      </trkpt>
      <trkpt lat="49.67949" lon="0.82151">
        <ele>162.12</ele>
        <time>2013-07-27T14:54:01Z</time>
      </trkpt>
      <trkpt lat="49.68115" lon="0.82118">
        <ele>159.72</ele>
        <time>2013-07-27T14:54:07Z</time>
      </trkpt>
      <trkpt lat="49.68334" lon="0.82104">
        <ele>158.27</ele>
        <time>2013-07-27T14:54:15Z</time>
      </trkpt>
      <trkpt lat="49.68513" lon="0.8216">
        <ele>161.16</ele>
        <time>2013-07-27T14:54:22Z</time>
      </trkpt>
      <trkpt lat="49.68608" lon="0.82195">
        <ele>162.6</ele>
        <time>2013-07-27T14:54:27Z</time>
      </trkpt>
      <trkpt lat="49.68721" lon="0.82228">
        <ele>162.6</ele>
        <time>2013-07-27T14:54:33Z</time>
      </trkpt>
      <trkpt lat="49.68907" lon="0.8225">
        <ele>161.16</ele>
        <time>2013-07-27T14:54:40Z</time>
      </trkpt>
      <trkpt lat="49.69067" lon="0.82248">
        <ele>157.79</ele>
        <time>2013-07-27T14:54:47Z</time>
      </trkpt>
      <trkpt lat="49.69249" lon="0.82186">
        <ele>151.54</ele>
        <time>2013-07-27T14:54:56Z</time>
      </trkpt>
      <trkpt lat="49.69411" lon="0.82124">
        <ele>147.22</ele>
        <time>2013-07-27T14:55:03Z</time>
      </trkpt>
      <trkpt lat="49.69431" lon="0.82113">
        <ele>147.22</ele>
        <time>2013-07-27T14:55:04Z</time>
      </trkpt>
      <trkpt lat="49.69449" lon="0.82096">
        <ele>146.74</ele>
        <time>2013-07-27T14:55:05Z</time>
      </trkpt>
      <trkpt lat="49.69466" lon="0.82074">
        <ele>146.74</ele>
        <time>2013-07-27T14:55:06Z</time>
      </trkpt>
      <trkpt lat="49.6964" lon="0.81842">
        <ele>149.62</ele>
        <time>2013-07-27T14:55:17Z</time>
      </trkpt>
      <trkpt lat="49.69841" lon="0.81559">
        <ele>153.95</ele>
        <time>2013-07-27T14:55:31Z</time>
      </trkpt>
      <trkpt lat="49.7001" lon="0.81327">
        <ele>151.06</ele>
        <time>2013-07-27T14:55:42Z</time>
      </trkpt>
      <trkpt lat="49.70198" lon="0.81082">
        <ele>149.62</ele>
        <time>2013-07-27T14:55:51Z</time>
      </trkpt>
      <trkpt lat="49.70457" lon="0.80725">
        <ele>146.74</ele>
        <time>2013-07-27T14:56:03Z</time>
      </trkpt>
      <trkpt lat="49.70851" lon="0.80174">
        <ele>147.22</ele>
        <time>2013-07-27T14:56:22Z</time>
      </trkpt>
      <trkpt lat="49.71041" lon="0.79912">
        <ele>148.66</ele>
        <time>2013-07-27T14:56:33Z</time>
      </trkpt>
      <trkpt lat="49.71327" lon="0.7951">
        <ele>148.18</ele>
        <time>2013-07-27T14:56:50Z</time>
      </trkpt>
      <trkpt lat="49.71575" lon="0.7915">
        <ele>139.05</ele>
        <time>2013-07-27T14:57:04Z</time>
      </trkpt>
      <trkpt lat="49.71688" lon="0.78984">
        <ele>137.13</ele>
        <time>2013-07-27T14:57:12Z</time>
      </trkpt>
      <trkpt lat="49.71782" lon="0.78852">
        <ele>135.2</ele>
        <time>2013-07-27T14:57:21Z</time>
      </trkpt>
      <trkpt lat="49.71887" lon="0.78701">
        <ele>134.24</ele>
        <time>2013-07-27T14:57:32Z</time>
      </trkpt>
      <trkpt lat="49.71979" lon="0.78564">
        <ele>129.92</ele>
        <time>2013-07-27T14:57:43Z</time>
      </trkpt>
      <trkpt lat="49.72063" lon="0.78441">
        <ele>122.71</ele>
        <time>2013-07-27T14:57:55Z</time>
      </trkpt>
      <trkpt lat="49.72118" lon="0.78374">
        <ele>117.42</ele>
        <time>2013-07-27T14:58:05Z</time>
      </trkpt>
      <trkpt lat="49.72119" lon="0.78373">
        <ele>116.46</ele>
        <time>2013-07-27T14:58:17Z</time>
      </trkpt>
      <trkpt lat="49.72138" lon="0.78354">
        <ele>116.94</ele>
        <time>2013-07-27T14:58:27Z</time>
      </trkpt>
      <trkpt lat="49.72187" lon="0.78303">
        <ele>115.98</ele>
        <time>2013-07-27T14:58:34Z</time>
      </trkpt>
      <trkpt lat="49.72281" lon="0.78217">
        <ele>115.01</ele>
        <time>2013-07-27T14:58:43Z</time>
      </trkpt>
      <trkpt lat="49.72394" lon="0.78153">
        <ele>119.34</ele>
        <time>2013-07-27T14:58:51Z</time>
      </trkpt>
      <trkpt lat="49.72542" lon="0.78082">
        <ele>130.4</ele>
        <time>2013-07-27T14:59:02Z</time>
      </trkpt>
      <trkpt lat="49.72649" lon="0.78032">
        <ele>133.28</ele>
        <time>2013-07-27T14:59:08Z</time>
      </trkpt>
      <trkpt lat="49.7284" lon="0.7794">
        <ele>135.68</ele>
        <time>2013-07-27T14:59:16Z</time>
      </trkpt>
      <trkpt lat="49.73218" lon="0.7776">
        <ele>148.66</ele>
        <time>2013-07-27T14:59:30Z</time>
      </trkpt>
      <trkpt lat="49.73545" lon="0.77605">
        <ele>147.22</ele>
        <time>2013-07-27T14:59:43Z</time>
      </trkpt>
      <trkpt lat="49.73715" lon="0.77525">
        <ele>145.78</ele>
        <time>2013-07-27T14:59:51Z</time>
      </trkpt>
      <trkpt lat="49.73923" lon="0.77456">
        <ele>143.37</ele>
        <time>2013-07-27T15:00:02Z</time>
      </trkpt>
      <trkpt lat="49.74133" lon="0.77432">
        <ele>135.2</ele>
        <time>2013-07-27T15:00:11Z</time>
      </trkpt>
      <trkpt lat="49.74657" lon="0.77372">
        <ele>121.74</ele>
        <time>2013-07-27T15:00:31Z</time>
      </trkpt>
      <trkpt lat="49.75102" lon="0.7732">
        <ele>100.6</ele>
        <time>2013-07-27T15:00:47Z</time>
      </trkpt>
      <trkpt lat="49.75446" lon="0.77281">
        <ele>101.08</ele>
        <time>2013-07-27T15:01:00Z</time>
      </trkpt>
      <trkpt lat="49.75837" lon="0.77235">
        <ele>130.4</ele>
        <time>2013-07-27T15:01:15Z</time>
      </trkpt>
      <trkpt lat="49.76288" lon="0.77181">
        <ele>131.36</ele>
        <time>2013-07-27T15:01:34Z</time>
      </trkpt>
      <trkpt lat="49.76664" lon="0.77136">
        <ele>125.11</ele>
        <time>2013-07-27T15:01:48Z</time>
      </trkpt>
      <trkpt lat="49.7733" lon="0.77054">
        <ele>120.3</ele>
        <time>2013-07-27T15:02:13Z</time>
      </trkpt>
      <trkpt lat="49.77585" lon="0.76964">
        <ele>119.34</ele>
        <time>2013-07-27T15:02:23Z</time>
      </trkpt>
      <trkpt lat="49.7804" lon="0.76776">
        <ele>115.5</ele>
        <time>2013-07-27T15:02:41Z</time>
      </trkpt>
      <trkpt lat="49.78316" lon="0.76662">
        <ele>110.21</ele>
        <time>2013-07-27T15:02:52Z</time>
      </trkpt>
      <trkpt lat="49.78797" lon="0.76462">
        <ele>107.32</ele>
        <time>2013-07-27T15:03:10Z</time>
      </trkpt>
      <trkpt lat="49.79126" lon="0.76327">
        <ele>108.77</ele>
        <time>2013-07-27T15:03:23Z</time>
      </trkpt>
      <trkpt lat="49.79268" lon="0.76269">
        <ele>108.29</ele>
        <time>2013-07-27T15:03:31Z</time>
      </trkpt>
      <trkpt lat="49.79427" lon="0.76199">
        <ele>107.32</ele>
        <time>2013-07-27T15:03:42Z</time>
      </trkpt>
      <trkpt lat="49.79439" lon="0.76195">
        <ele>106.84</ele>
        <time>2013-07-27T15:03:43Z</time>
      </trkpt>
      <trkpt lat="49.79451" lon="0.76191">
        <ele>106.84</ele>
        <time>2013-07-27T15:03:44Z</time>
      </trkpt>
      <trkpt lat="49.79589" lon="0.76135">
        <ele>106.36</ele>
        <time>2013-07-27T15:03:56Z</time>
      </trkpt>
      <trkpt lat="49.79805" lon="0.76051">
        <ele>106.84</ele>
        <time>2013-07-27T15:04:17Z</time>
      </trkpt>
      <trkpt lat="49.79934" lon="0.75976">
        <ele>109.25</ele>
        <time>2013-07-27T15:04:29Z</time>
      </trkpt>
      <trkpt lat="49.8005" lon="0.75888">
        <ele>109.25</ele>
        <time>2013-07-27T15:04:37Z</time>
      </trkpt>
      <trkpt lat="49.80218" lon="0.7576">
        <ele>108.77</ele>
        <time>2013-07-27T15:04:46Z</time>
      </trkpt>
      <trkpt lat="49.80482" lon="0.75561">
        <ele>108.29</ele>
        <time>2013-07-27T15:04:58Z</time>
      </trkpt>
      <trkpt lat="49.80834" lon="0.75295">
        <ele>102.04</ele>
        <time>2013-07-27T15:05:13Z</time>
      </trkpt>
      <trkpt lat="49.81203" lon="0.75017">
        <ele>94.83</ele>
        <time>2013-07-27T15:05:28Z</time>
      </trkpt>
      <trkpt lat="49.81595" lon="0.74723">
        <ele>91.94</ele>
        <time>2013-07-27T15:05:44Z</time>
      </trkpt>
      <trkpt lat="49.81968" lon="0.7444">
        <ele>82.33</ele>
        <time>2013-07-27T15:05:59Z</time>
      </trkpt>
      <trkpt lat="49.82257" lon="0.74219">
        <ele>80.41</ele>
        <time>2013-07-27T15:06:12Z</time>
      </trkpt>
      <trkpt lat="49.82574" lon="0.74002">
        <ele>77.52</ele>
        <time>2013-07-27T15:06:27Z</time>
      </trkpt>
      <trkpt lat="49.82923" lon="0.73795">
        <ele>75.6</ele>
        <time>2013-07-27T15:06:44Z</time>
      </trkpt>
      <trkpt lat="49.83146" lon="0.73667">
        <ele>74.64</ele>
        <time>2013-07-27T15:06:57Z</time>
      </trkpt>
      <trkpt lat="49.83297" lon="0.7358">
        <ele>74.16</ele>
        <time>2013-07-27T15:07:08Z</time>
      </trkpt>
      <trkpt lat="49.83435" lon="0.735">
        <ele>73.2</ele>
        <time>2013-07-27T15:07:16Z</time>
      </trkpt>
      <trkpt lat="49.83623" lon="0.73392">
        <ele>70.31</ele>
        <time>2013-07-27T15:07:26Z</time>
      </trkpt>
      <trkpt lat="49.83815" lon="0.73281">
        <ele>66.95</ele>
        <time>2013-07-27T15:07:33Z</time>
      </trkpt>
      <trkpt lat="49.83998" lon="0.73175">
        <ele>61.66</ele>
        <time>2013-07-27T15:07:40Z</time>
      </trkpt>
      <trkpt lat="49.84132" lon="0.73093">
        <ele>59.74</ele>
        <time>2013-07-27T15:07:46Z</time>
      </trkpt>
      <trkpt lat="49.84153" lon="0.73073">
        <ele>59.74</ele>
        <time>2013-07-27T15:07:47Z</time>
      </trkpt>
      <trkpt lat="49.84173" lon="0.73049">
        <ele>59.26</ele>
        <time>2013-07-27T15:07:48Z</time>
      </trkpt>
      <trkpt lat="49.84319" lon="0.72817">
        <ele>58.3</ele>
        <time>2013-07-27T15:07:56Z</time>
      </trkpt>
      <trkpt lat="49.84356" lon="0.72768">
        <ele>58.3</ele>
        <time>2013-07-27T15:07:58Z</time>
      </trkpt>
      <trkpt lat="49.84377" lon="0.72749">
        <ele>58.3</ele>
        <time>2013-07-27T15:07:59Z</time>
      </trkpt>
      <trkpt lat="49.84399" lon="0.72732">
        <ele>58.78</ele>
        <time>2013-07-27T15:08:00Z</time>
      </trkpt>
      <trkpt lat="49.84423" lon="0.72719">
        <ele>58.78</ele>
        <time>2013-07-27T15:08:01Z</time>
      </trkpt>
      <trkpt lat="49.84446" lon="0.72709">
        <ele>58.78</ele>
        <time>2013-07-27T15:08:02Z</time>
      </trkpt>
      <trkpt lat="49.84621" lon="0.72638">
        <ele>57.82</ele>
        <time>2013-07-27T15:08:10Z</time>
      </trkpt>
      <trkpt lat="49.84768" lon="0.72579">
        <ele>55.41</ele>
        <time>2013-07-27T15:08:19Z</time>
      </trkpt>
      <trkpt lat="49.84908" lon="0.72576">
        <ele>52.53</ele>
        <time>2013-07-27T15:08:28Z</time>
      </trkpt>
      <trkpt lat="49.8496" lon="0.72584">
        <ele>52.05</ele>
        <time>2013-07-27T15:08:32Z</time>
      </trkpt>
      <trkpt lat="49.84971" lon="0.72585">
        <ele>51.57</ele>
        <time>2013-07-27T15:08:33Z</time>
      </trkpt>
      <trkpt lat="49.84981" lon="0.72581">
        <ele>51.57</ele>
        <time>2013-07-27T15:08:34Z</time>
      </trkpt>
      <trkpt lat="49.84999" lon="0.72574">
        <ele>51.09</ele>
        <time>2013-07-27T15:08:35Z</time>
      </trkpt>
      <trkpt lat="49.85001" lon="0.72576">
        <ele>50.61</ele>
        <time>2013-07-27T15:08:36Z</time>
      </trkpt>
      <trkpt lat="49.85008" lon="0.72583">
        <ele>50.13</ele>
        <time>2013-07-27T15:08:37Z</time>
      </trkpt>
      <trkpt lat="49.85015" lon="0.72588">
        <ele>49.65</ele>
        <time>2013-07-27T15:08:38Z</time>
      </trkpt>
      <trkpt lat="49.85024" lon="0.7259">
        <ele>49.65</ele>
        <time>2013-07-27T15:08:39Z</time>
      </trkpt>
      <trkpt lat="49.85032" lon="0.72587">
        <ele>49.16</ele>
        <time>2013-07-27T15:08:40Z</time>
      </trkpt>
      <trkpt lat="49.85039" lon="0.72579">
        <ele>48.68</ele>
        <time>2013-07-27T15:08:41Z</time>
      </trkpt>
      <trkpt lat="49.85044" lon="0.7257">
        <ele>48.68</ele>
        <time>2013-07-27T15:08:42Z</time>
      </trkpt>
      <trkpt lat="49.85051" lon="0.72548">
        <ele>48.68</ele>
        <time>2013-07-27T15:08:43Z</time>
      </trkpt>
      <trkpt lat="49.85057" lon="0.72544">
        <ele>48.2</ele>
        <time>2013-07-27T15:08:44Z</time>
      </trkpt>
      <trkpt lat="49.85066" lon="0.72539">
        <ele>48.2</ele>
        <time>2013-07-27T15:08:45Z</time>
      </trkpt>
      <trkpt lat="49.85075" lon="0.72533">
        <ele>48.2</ele>
        <time>2013-07-27T15:08:46Z</time>
      </trkpt>
      <trkpt lat="49.85086" lon="0.72527">
        <ele>48.2</ele>
        <time>2013-07-27T15:08:47Z</time>
      </trkpt>
      <trkpt lat="49.85098" lon="0.72525">
        <ele>47.72</ele>
        <time>2013-07-27T15:08:48Z</time>
      </trkpt>
      <trkpt lat="49.8519" lon="0.72516">
        <ele>46.28</ele>
        <time>2013-07-27T15:08:55Z</time>
      </trkpt>
      <trkpt lat="49.85205" lon="0.7251">
        <ele>46.28</ele>
        <time>2013-07-27T15:08:56Z</time>
      </trkpt>
      <trkpt lat="49.85221" lon="0.72504">
        <ele>45.8</ele>
        <time>2013-07-27T15:08:57Z</time>
      </trkpt>
      <trkpt lat="49.85236" lon="0.72492">
        <ele>45.32</ele>
        <time>2013-07-27T15:08:58Z</time>
      </trkpt>
      <trkpt lat="49.85253" lon="0.72479">
        <ele>44.84</ele>
        <time>2013-07-27T15:08:59Z</time>
      </trkpt>
      <trkpt lat="49.85448" lon="0.72331">
        <ele>41.47</ele>
        <time>2013-07-27T15:09:10Z</time>
      </trkpt>
      <trkpt lat="49.85624" lon="0.72233">
        <ele>38.11</ele>
        <time>2013-07-27T15:09:20Z</time>
      </trkpt>
      <trkpt lat="49.85746" lon="0.72158">
        <ele>33.3</ele>
        <time>2013-07-27T15:09:28Z</time>
      </trkpt>
      <trkpt lat="49.85847" lon="0.7208">
        <ele>28.02</ele>
        <time>2013-07-27T15:09:38Z</time>
      </trkpt>
      <trkpt lat="49.85942" lon="0.71957">
        <ele>22.73</ele>
        <time>2013-07-27T15:09:48Z</time>
      </trkpt>
      <trkpt lat="49.86024" lon="0.71803">
        <ele>17.44</ele>
        <time>2013-07-27T15:10:00Z</time>
      </trkpt>
      <trkpt lat="49.86088" lon="0.71679">
        <ele>13.6</ele>
        <time>2013-07-27T15:10:11Z</time>
      </trkpt>
      <trkpt lat="49.86179" lon="0.71507">
        <ele>8.31</ele>
        <time>2013-07-27T15:10:23Z</time>
      </trkpt>
      <trkpt lat="49.8626" lon="0.71436">
        <ele>6.39</ele>
        <time>2013-07-27T15:10:33Z</time>
      </trkpt>
      <trkpt lat="49.8626" lon="0.71436">
        <ele>5.91</ele>
        <time>2013-07-27T15:10:41Z</time>
      </trkpt>
      <trkpt lat="49.86263" lon="0.71434">
        <ele>5.91</ele>
        <time>2013-07-27T15:11:14Z</time>
      </trkpt>
      <trkpt lat="49.86266" lon="0.71432">
        <ele>5.91</ele>
        <time>2013-07-27T15:11:15Z</time>
      </trkpt>
      <trkpt lat="49.86276" lon="0.71425">
        <ele>5.42</ele>
        <time>2013-07-27T15:11:17Z</time>
      </trkpt>
      <trkpt lat="49.86263" lon="0.71356">
        <ele>5.42</ele>
        <time>2013-07-27T15:11:18Z</time>
      </trkpt>
      <trkpt lat="49.86276" lon="0.71298">
        <ele>6.87</ele>
        <time>2013-07-27T15:11:24Z</time>
      </trkpt>
      <trkpt lat="49.86282" lon="0.71265">
        <ele>6.87</ele>
        <time>2013-07-27T15:11:25Z</time>
      </trkpt>
      <trkpt lat="49.86329" lon="0.71069">
        <ele>9.75</ele>
        <time>2013-07-27T15:11:42Z</time>
      </trkpt>
      <trkpt lat="49.8633" lon="0.71038">
        <ele>16</ele>
        <time>2013-07-27T15:12:06Z</time>
      </trkpt>
      <trkpt lat="49.86308" lon="0.71025">
        <ele>16</ele>
        <time>2013-07-27T15:12:07Z</time>
      </trkpt>
      <trkpt lat="49.86303" lon="0.71026">
        <ele>16</ele>
        <time>2013-07-27T15:12:08Z</time>
      </trkpt>
      <trkpt lat="49.86297" lon="0.71026">
        <ele>15.52</ele>
        <time>2013-07-27T15:12:10Z</time>
      </trkpt>
      <trkpt lat="49.86278" lon="0.71029">
        <ele>15.52</ele>
        <time>2013-07-27T15:12:13Z</time>
      </trkpt>
      <trkpt lat="49.86278" lon="0.71029">
        <ele>16</ele>
        <time>2013-07-27T15:12:14Z</time>
      </trkpt>
      <trkpt lat="49.86278" lon="0.71029">
        <ele>16</ele>
        <time>2013-07-27T15:12:15Z</time>
      </trkpt>
      <trkpt lat="49.86262" lon="0.71012">
        <ele>16</ele>
        <time>2013-07-27T15:12:16Z</time>
      </trkpt>
      <trkpt lat="49.86258" lon="0.71005">
        <ele>16.48</ele>
        <time>2013-07-27T15:12:17Z</time>
      </trkpt>
      <trkpt lat="49.86187" lon="0.70898">
        <ele>22.25</ele>
        <time>2013-07-27T15:12:29Z</time>
      </trkpt>
      <trkpt lat="49.86106" lon="0.70776">
        <ele>30.9</ele>
        <time>2013-07-27T15:12:41Z</time>
      </trkpt>
      <trkpt lat="49.86089" lon="0.70746">
        <ele>36.19</ele>
        <time>2013-07-27T15:12:50Z</time>
      </trkpt>
      <trkpt lat="49.85984" lon="0.70601">
        <ele>40.99</ele>
        <time>2013-07-27T15:12:59Z</time>
      </trkpt>
      <trkpt lat="49.85894" lon="0.70503">
        <ele>46.76</ele>
        <time>2013-07-27T15:13:10Z</time>
      </trkpt>
      <trkpt lat="49.85856" lon="0.70471">
        <ele>48.68</ele>
        <time>2013-07-27T15:13:15Z</time>
      </trkpt>
      <trkpt lat="49.85852" lon="0.70468">
        <ele>49.16</ele>
        <time>2013-07-27T15:13:16Z</time>
      </trkpt>
      <trkpt lat="49.85868" lon="0.70437">
        <ele>52.53</ele>
        <time>2013-07-27T15:13:35Z</time>
      </trkpt>
    </trkseg>
  </trk>
</gpx>